<?xml version="1.0" encoding="UTF-8" standalone="no" ?>
<gpx xmlns="http://www.topografix.com/GPX/1/1" xmlns:xsi="http://www.w3.org/2001/XMLSchema-instance" xsi:schemaLocation="http://www.topografix.com/GPX/1/1 http://www.topografix.com/GPX/1/1/gpx.xsd" version="1.1" creator="VisuGPX - https://www.visugpx.com">
  <metadata>
    <name>Trail Grenoble 2021-08-07</name>
  </metadata>
  <trk>
    <name><![CDATA[ACTIVE LOG051331]]></name>
    <trkseg>
      <trkpt lat="45.19658" lon="5.73906">
        <ele>270.74</ele>
        <time>2021-08-07T03:13:31Z</time>
      </trkpt>
      <trkpt lat="45.19657" lon="5.73953">
        <ele>267.614</ele>
        <time>2021-08-07T03:15:18Z</time>
      </trkpt>
      <trkpt lat="45.19656" lon="5.73966">
        <ele>266.624</ele>
        <time>2021-08-07T03:16:08Z</time>
      </trkpt>
      <trkpt lat="45.19644" lon="5.73963">
        <ele>267.97</ele>
        <time>2021-08-07T03:16:17Z</time>
      </trkpt>
      <trkpt lat="45.19639" lon="5.73958">
        <ele>266.084</ele>
        <time>2021-08-07T03:16:24Z</time>
      </trkpt>
      <trkpt lat="45.19638" lon="5.73964">
        <ele>265.549</ele>
        <time>2021-08-07T03:16:30Z</time>
      </trkpt>
      <trkpt lat="45.19635" lon="5.7397">
        <ele>264.121</ele>
        <time>2021-08-07T03:16:39Z</time>
      </trkpt>
      <trkpt lat="45.19635" lon="5.73967">
        <ele>262.484</ele>
        <time>2021-08-07T03:16:42Z</time>
      </trkpt>
      <trkpt lat="45.19632" lon="5.73966">
        <ele>262.727</ele>
        <time>2021-08-07T03:16:45Z</time>
      </trkpt>
      <trkpt lat="45.19631" lon="5.73954">
        <ele>260.839</ele>
        <time>2021-08-07T03:16:49Z</time>
      </trkpt>
      <trkpt lat="45.1963" lon="5.73946">
        <ele>259.543</ele>
        <time>2021-08-07T03:16:56Z</time>
      </trkpt>
      <trkpt lat="45.19631" lon="5.73953">
        <ele>257.673</ele>
        <time>2021-08-07T03:17:02Z</time>
      </trkpt>
      <trkpt lat="45.19628" lon="5.73965">
        <ele>257.704</ele>
        <time>2021-08-07T03:17:10Z</time>
      </trkpt>
      <trkpt lat="45.19631" lon="5.73961">
        <ele>257.474</ele>
        <time>2021-08-07T03:17:14Z</time>
      </trkpt>
      <trkpt lat="45.19634" lon="5.73961">
        <ele>257.676</ele>
        <time>2021-08-07T03:17:19Z</time>
      </trkpt>
      <trkpt lat="45.19651" lon="5.73964">
        <ele>256.517</ele>
        <time>2021-08-07T03:17:28Z</time>
      </trkpt>
      <trkpt lat="45.19651" lon="5.73969">
        <ele>257.845</ele>
        <time>2021-08-07T03:17:31Z</time>
      </trkpt>
      <trkpt lat="45.19661" lon="5.73983">
        <ele>257.552</ele>
        <time>2021-08-07T03:17:37Z</time>
      </trkpt>
      <trkpt lat="45.1967" lon="5.73994">
        <ele>256.832</ele>
        <time>2021-08-07T03:17:44Z</time>
      </trkpt>
      <trkpt lat="45.19677" lon="5.74">
        <ele>256.845</ele>
        <time>2021-08-07T03:17:48Z</time>
      </trkpt>
      <trkpt lat="45.19694" lon="5.73995">
        <ele>256.973</ele>
        <time>2021-08-07T03:17:54Z</time>
      </trkpt>
      <trkpt lat="45.19701" lon="5.74016">
        <ele>256.992</ele>
        <time>2021-08-07T03:17:59Z</time>
      </trkpt>
      <trkpt lat="45.19696" lon="5.7403">
        <ele>257.397</ele>
        <time>2021-08-07T03:18:01Z</time>
      </trkpt>
      <trkpt lat="45.19688" lon="5.74068">
        <ele>257.261</ele>
        <time>2021-08-07T03:18:08Z</time>
      </trkpt>
      <trkpt lat="45.19686" lon="5.74086">
        <ele>257.376</ele>
        <time>2021-08-07T03:18:12Z</time>
      </trkpt>
      <trkpt lat="45.1969" lon="5.74099">
        <ele>257.003</ele>
        <time>2021-08-07T03:18:17Z</time>
      </trkpt>
      <trkpt lat="45.19696" lon="5.74113">
        <ele>257.031</ele>
        <time>2021-08-07T03:18:22Z</time>
      </trkpt>
      <trkpt lat="45.19703" lon="5.7413">
        <ele>256.893</ele>
        <time>2021-08-07T03:18:29Z</time>
      </trkpt>
      <trkpt lat="45.19704" lon="5.74132">
        <ele>256.959</ele>
        <time>2021-08-07T03:18:30Z</time>
      </trkpt>
      <trkpt lat="45.19712" lon="5.74148">
        <ele>257.318</ele>
        <time>2021-08-07T03:18:37Z</time>
      </trkpt>
      <trkpt lat="45.19718" lon="5.74169">
        <ele>257.254</ele>
        <time>2021-08-07T03:18:44Z</time>
      </trkpt>
      <trkpt lat="45.1972" lon="5.74199">
        <ele>256.906</ele>
        <time>2021-08-07T03:18:51Z</time>
      </trkpt>
      <trkpt lat="45.19723" lon="5.7421">
        <ele>256.85</ele>
        <time>2021-08-07T03:18:55Z</time>
      </trkpt>
      <trkpt lat="45.19725" lon="5.74226">
        <ele>256.862</ele>
        <time>2021-08-07T03:19:01Z</time>
      </trkpt>
      <trkpt lat="45.19729" lon="5.74246">
        <ele>256.784</ele>
        <time>2021-08-07T03:19:07Z</time>
      </trkpt>
      <trkpt lat="45.19731" lon="5.74255">
        <ele>258.375</ele>
        <time>2021-08-07T03:19:13Z</time>
      </trkpt>
      <trkpt lat="45.19716" lon="5.74257">
        <ele>258.921</ele>
        <time>2021-08-07T03:19:20Z</time>
      </trkpt>
      <trkpt lat="45.19701" lon="5.7426">
        <ele>258.175</ele>
        <time>2021-08-07T03:19:26Z</time>
      </trkpt>
      <trkpt lat="45.19686" lon="5.74261">
        <ele>257.893</ele>
        <time>2021-08-07T03:19:32Z</time>
      </trkpt>
      <trkpt lat="45.19675" lon="5.74256">
        <ele>258.076</ele>
        <time>2021-08-07T03:19:38Z</time>
      </trkpt>
      <trkpt lat="45.19657" lon="5.74253">
        <ele>258.065</ele>
        <time>2021-08-07T03:19:46Z</time>
      </trkpt>
      <trkpt lat="45.19645" lon="5.74252">
        <ele>257.859</ele>
        <time>2021-08-07T03:19:51Z</time>
      </trkpt>
      <trkpt lat="45.19629" lon="5.74245">
        <ele>257.735</ele>
        <time>2021-08-07T03:19:59Z</time>
      </trkpt>
      <trkpt lat="45.19614" lon="5.74245">
        <ele>257.803</ele>
        <time>2021-08-07T03:20:05Z</time>
      </trkpt>
      <trkpt lat="45.19596" lon="5.74243">
        <ele>257.423</ele>
        <time>2021-08-07T03:20:12Z</time>
      </trkpt>
      <trkpt lat="45.19585" lon="5.74243">
        <ele>257.72</ele>
        <time>2021-08-07T03:20:17Z</time>
      </trkpt>
      <trkpt lat="45.19567" lon="5.74242">
        <ele>257.63</ele>
        <time>2021-08-07T03:20:24Z</time>
      </trkpt>
      <trkpt lat="45.19555" lon="5.74237">
        <ele>257.004</ele>
        <time>2021-08-07T03:20:29Z</time>
      </trkpt>
      <trkpt lat="45.19535" lon="5.74233">
        <ele>256.731</ele>
        <time>2021-08-07T03:20:36Z</time>
      </trkpt>
      <trkpt lat="45.19521" lon="5.74228">
        <ele>257.046</ele>
        <time>2021-08-07T03:20:42Z</time>
      </trkpt>
      <trkpt lat="45.19504" lon="5.74216">
        <ele>257.01</ele>
        <time>2021-08-07T03:20:50Z</time>
      </trkpt>
      <trkpt lat="45.19482" lon="5.74204">
        <ele>256.962</ele>
        <time>2021-08-07T03:20:59Z</time>
      </trkpt>
      <trkpt lat="45.19466" lon="5.742">
        <ele>256.585</ele>
        <time>2021-08-07T03:21:05Z</time>
      </trkpt>
      <trkpt lat="45.19461" lon="5.742">
        <ele>257.014</ele>
        <time>2021-08-07T03:21:07Z</time>
      </trkpt>
      <trkpt lat="45.19451" lon="5.74197">
        <ele>256.845</ele>
        <time>2021-08-07T03:21:11Z</time>
      </trkpt>
      <trkpt lat="45.19433" lon="5.74189">
        <ele>257.334</ele>
        <time>2021-08-07T03:21:18Z</time>
      </trkpt>
      <trkpt lat="45.19414" lon="5.74187">
        <ele>256.279</ele>
        <time>2021-08-07T03:21:24Z</time>
      </trkpt>
      <trkpt lat="45.194" lon="5.74183">
        <ele>256.523</ele>
        <time>2021-08-07T03:21:30Z</time>
      </trkpt>
      <trkpt lat="45.19387" lon="5.74177">
        <ele>256.32</ele>
        <time>2021-08-07T03:21:36Z</time>
      </trkpt>
      <trkpt lat="45.19372" lon="5.74173">
        <ele>255.941</ele>
        <time>2021-08-07T03:21:42Z</time>
      </trkpt>
      <trkpt lat="45.19358" lon="5.74166">
        <ele>255.997</ele>
        <time>2021-08-07T03:21:49Z</time>
      </trkpt>
      <trkpt lat="45.19344" lon="5.74163">
        <ele>255.637</ele>
        <time>2021-08-07T03:21:55Z</time>
      </trkpt>
      <trkpt lat="45.19322" lon="5.74161">
        <ele>255.466</ele>
        <time>2021-08-07T03:22:03Z</time>
      </trkpt>
      <trkpt lat="45.19307" lon="5.74156">
        <ele>255.454</ele>
        <time>2021-08-07T03:22:09Z</time>
      </trkpt>
      <trkpt lat="45.19279" lon="5.74151">
        <ele>255.729</ele>
        <time>2021-08-07T03:22:20Z</time>
      </trkpt>
      <trkpt lat="45.19261" lon="5.74145">
        <ele>255.551</ele>
        <time>2021-08-07T03:22:27Z</time>
      </trkpt>
      <trkpt lat="45.19256" lon="5.74143">
        <ele>255.722</ele>
        <time>2021-08-07T03:22:29Z</time>
      </trkpt>
      <trkpt lat="45.19243" lon="5.74136">
        <ele>255.388</ele>
        <time>2021-08-07T03:22:35Z</time>
      </trkpt>
      <trkpt lat="45.19224" lon="5.74132">
        <ele>255.345</ele>
        <time>2021-08-07T03:22:42Z</time>
      </trkpt>
      <trkpt lat="45.19222" lon="5.74133">
        <ele>255.291</ele>
        <time>2021-08-07T03:22:43Z</time>
      </trkpt>
      <trkpt lat="45.19205" lon="5.74132">
        <ele>254.86</ele>
        <time>2021-08-07T03:22:50Z</time>
      </trkpt>
      <trkpt lat="45.19189" lon="5.74132">
        <ele>254.219</ele>
        <time>2021-08-07T03:22:56Z</time>
      </trkpt>
      <trkpt lat="45.19176" lon="5.74132">
        <ele>252.945</ele>
        <time>2021-08-07T03:23:02Z</time>
      </trkpt>
      <trkpt lat="45.19167" lon="5.74133">
        <ele>252.757</ele>
        <time>2021-08-07T03:23:05Z</time>
      </trkpt>
      <trkpt lat="45.19162" lon="5.7413">
        <ele>253.007</ele>
        <time>2021-08-07T03:23:07Z</time>
      </trkpt>
      <trkpt lat="45.19157" lon="5.74133">
        <ele>252.043</ele>
        <time>2021-08-07T03:23:10Z</time>
      </trkpt>
      <trkpt lat="45.19156" lon="5.74144">
        <ele>250.71</ele>
        <time>2021-08-07T03:23:16Z</time>
      </trkpt>
      <trkpt lat="45.19158" lon="5.74143">
        <ele>250.955</ele>
        <time>2021-08-07T03:23:18Z</time>
      </trkpt>
      <trkpt lat="45.19163" lon="5.74131">
        <ele>250.112</ele>
        <time>2021-08-07T03:23:22Z</time>
      </trkpt>
      <trkpt lat="45.19167" lon="5.74134">
        <ele>248.501</ele>
        <time>2021-08-07T03:23:25Z</time>
      </trkpt>
      <trkpt lat="45.19173" lon="5.74135">
        <ele>248.258</ele>
        <time>2021-08-07T03:23:28Z</time>
      </trkpt>
      <trkpt lat="45.19187" lon="5.74139">
        <ele>249.229</ele>
        <time>2021-08-07T03:23:35Z</time>
      </trkpt>
      <trkpt lat="45.19202" lon="5.74141">
        <ele>249.136</ele>
        <time>2021-08-07T03:23:41Z</time>
      </trkpt>
      <trkpt lat="45.19205" lon="5.74145">
        <ele>248.656</ele>
        <time>2021-08-07T03:23:43Z</time>
      </trkpt>
      <trkpt lat="45.1922" lon="5.74149">
        <ele>248.35</ele>
        <time>2021-08-07T03:23:50Z</time>
      </trkpt>
      <trkpt lat="45.19237" lon="5.74153">
        <ele>248.681</ele>
        <time>2021-08-07T03:23:57Z</time>
      </trkpt>
      <trkpt lat="45.19251" lon="5.74156">
        <ele>248.595</ele>
        <time>2021-08-07T03:24:03Z</time>
      </trkpt>
      <trkpt lat="45.19266" lon="5.7416">
        <ele>248.448</ele>
        <time>2021-08-07T03:24:09Z</time>
      </trkpt>
      <trkpt lat="45.19268" lon="5.7416">
        <ele>248.894</ele>
        <time>2021-08-07T03:24:10Z</time>
      </trkpt>
      <trkpt lat="45.19293" lon="5.74165">
        <ele>248.902</ele>
        <time>2021-08-07T03:24:19Z</time>
      </trkpt>
      <trkpt lat="45.1931" lon="5.74174">
        <ele>248.796</ele>
        <time>2021-08-07T03:24:26Z</time>
      </trkpt>
      <trkpt lat="45.19327" lon="5.74173">
        <ele>248.75</ele>
        <time>2021-08-07T03:24:31Z</time>
      </trkpt>
      <trkpt lat="45.19345" lon="5.74172">
        <ele>248.49</ele>
        <time>2021-08-07T03:24:37Z</time>
      </trkpt>
      <trkpt lat="45.19359" lon="5.74175">
        <ele>249.057</ele>
        <time>2021-08-07T03:24:43Z</time>
      </trkpt>
      <trkpt lat="45.19378" lon="5.74183">
        <ele>248.814</ele>
        <time>2021-08-07T03:24:51Z</time>
      </trkpt>
      <trkpt lat="45.19398" lon="5.74187">
        <ele>248.995</ele>
        <time>2021-08-07T03:24:58Z</time>
      </trkpt>
      <trkpt lat="45.19415" lon="5.74191">
        <ele>248.49</ele>
        <time>2021-08-07T03:25:04Z</time>
      </trkpt>
      <trkpt lat="45.19431" lon="5.74198">
        <ele>247.746</ele>
        <time>2021-08-07T03:25:10Z</time>
      </trkpt>
      <trkpt lat="45.19443" lon="5.74205">
        <ele>247.538</ele>
        <time>2021-08-07T03:25:16Z</time>
      </trkpt>
      <trkpt lat="45.19462" lon="5.74206">
        <ele>247.551</ele>
        <time>2021-08-07T03:25:22Z</time>
      </trkpt>
      <trkpt lat="45.19477" lon="5.74215">
        <ele>247.081</ele>
        <time>2021-08-07T03:25:28Z</time>
      </trkpt>
      <trkpt lat="45.19491" lon="5.74223">
        <ele>246.973</ele>
        <time>2021-08-07T03:25:34Z</time>
      </trkpt>
      <trkpt lat="45.19505" lon="5.74232">
        <ele>247.361</ele>
        <time>2021-08-07T03:25:40Z</time>
      </trkpt>
      <trkpt lat="45.1952" lon="5.74236">
        <ele>247.194</ele>
        <time>2021-08-07T03:25:46Z</time>
      </trkpt>
      <trkpt lat="45.19538" lon="5.74239">
        <ele>247.876</ele>
        <time>2021-08-07T03:25:53Z</time>
      </trkpt>
      <trkpt lat="45.19559" lon="5.7424">
        <ele>247.342</ele>
        <time>2021-08-07T03:26:01Z</time>
      </trkpt>
      <trkpt lat="45.19588" lon="5.74247">
        <ele>246.793</ele>
        <time>2021-08-07T03:26:12Z</time>
      </trkpt>
      <trkpt lat="45.19611" lon="5.74249">
        <ele>246.847</ele>
        <time>2021-08-07T03:26:20Z</time>
      </trkpt>
      <trkpt lat="45.19625" lon="5.74251">
        <ele>247.107</ele>
        <time>2021-08-07T03:26:25Z</time>
      </trkpt>
      <trkpt lat="45.19643" lon="5.74254">
        <ele>246.477</ele>
        <time>2021-08-07T03:26:32Z</time>
      </trkpt>
      <trkpt lat="45.19656" lon="5.74256">
        <ele>246.535</ele>
        <time>2021-08-07T03:26:37Z</time>
      </trkpt>
      <trkpt lat="45.19668" lon="5.74258">
        <ele>246.546</ele>
        <time>2021-08-07T03:26:42Z</time>
      </trkpt>
      <trkpt lat="45.19686" lon="5.74259">
        <ele>246.513</ele>
        <time>2021-08-07T03:26:48Z</time>
      </trkpt>
      <trkpt lat="45.19706" lon="5.74258">
        <ele>246.246</ele>
        <time>2021-08-07T03:26:55Z</time>
      </trkpt>
      <trkpt lat="45.19724" lon="5.74257">
        <ele>245.633</ele>
        <time>2021-08-07T03:27:02Z</time>
      </trkpt>
      <trkpt lat="45.19747" lon="5.74253">
        <ele>246.137</ele>
        <time>2021-08-07T03:27:10Z</time>
      </trkpt>
      <trkpt lat="45.19765" lon="5.74252">
        <ele>246.009</ele>
        <time>2021-08-07T03:27:17Z</time>
      </trkpt>
      <trkpt lat="45.19781" lon="5.7425">
        <ele>245.788</ele>
        <time>2021-08-07T03:27:23Z</time>
      </trkpt>
      <trkpt lat="45.19799" lon="5.74246">
        <ele>245.784</ele>
        <time>2021-08-07T03:27:29Z</time>
      </trkpt>
      <trkpt lat="45.19818" lon="5.74237">
        <ele>245.771</ele>
        <time>2021-08-07T03:27:36Z</time>
      </trkpt>
      <trkpt lat="45.19842" lon="5.74228">
        <ele>245.764</ele>
        <time>2021-08-07T03:27:46Z</time>
      </trkpt>
      <trkpt lat="45.1986" lon="5.74221">
        <ele>246.25</ele>
        <time>2021-08-07T03:27:54Z</time>
      </trkpt>
      <trkpt lat="45.19879" lon="5.74214">
        <ele>245.429</ele>
        <time>2021-08-07T03:28:02Z</time>
      </trkpt>
      <trkpt lat="45.19895" lon="5.74205">
        <ele>245.593</ele>
        <time>2021-08-07T03:28:09Z</time>
      </trkpt>
      <trkpt lat="45.19911" lon="5.74195">
        <ele>245.947</ele>
        <time>2021-08-07T03:28:16Z</time>
      </trkpt>
      <trkpt lat="45.19926" lon="5.74185">
        <ele>245.384</ele>
        <time>2021-08-07T03:28:22Z</time>
      </trkpt>
      <trkpt lat="45.19939" lon="5.74175">
        <ele>245.226</ele>
        <time>2021-08-07T03:28:28Z</time>
      </trkpt>
      <trkpt lat="45.19954" lon="5.74163">
        <ele>245.105</ele>
        <time>2021-08-07T03:28:34Z</time>
      </trkpt>
      <trkpt lat="45.19967" lon="5.74155">
        <ele>244.63</ele>
        <time>2021-08-07T03:28:40Z</time>
      </trkpt>
      <trkpt lat="45.1998" lon="5.74147">
        <ele>244.881</ele>
        <time>2021-08-07T03:28:46Z</time>
      </trkpt>
      <trkpt lat="45.19993" lon="5.74134">
        <ele>244.561</ele>
        <time>2021-08-07T03:28:51Z</time>
      </trkpt>
      <trkpt lat="45.19997" lon="5.74128">
        <ele>244.689</ele>
        <time>2021-08-07T03:28:53Z</time>
      </trkpt>
      <trkpt lat="45.20008" lon="5.7411">
        <ele>244.4</ele>
        <time>2021-08-07T03:28:59Z</time>
      </trkpt>
      <trkpt lat="45.20014" lon="5.74103">
        <ele>244.621</ele>
        <time>2021-08-07T03:29:02Z</time>
      </trkpt>
      <trkpt lat="45.20018" lon="5.74098">
        <ele>244.476</ele>
        <time>2021-08-07T03:29:06Z</time>
      </trkpt>
      <trkpt lat="45.20032" lon="5.7409">
        <ele>244.055</ele>
        <time>2021-08-07T03:29:11Z</time>
      </trkpt>
      <trkpt lat="45.20039" lon="5.74086">
        <ele>244.089</ele>
        <time>2021-08-07T03:29:13Z</time>
      </trkpt>
      <trkpt lat="45.2004" lon="5.74061">
        <ele>245.505</ele>
        <time>2021-08-07T03:29:20Z</time>
      </trkpt>
      <trkpt lat="45.20046" lon="5.74043">
        <ele>246.881</ele>
        <time>2021-08-07T03:29:26Z</time>
      </trkpt>
      <trkpt lat="45.2005" lon="5.74035">
        <ele>247.01</ele>
        <time>2021-08-07T03:29:28Z</time>
      </trkpt>
      <trkpt lat="45.20066" lon="5.74014">
        <ele>245.533</ele>
        <time>2021-08-07T03:29:35Z</time>
      </trkpt>
      <trkpt lat="45.20082" lon="5.73992">
        <ele>245.639</ele>
        <time>2021-08-07T03:29:42Z</time>
      </trkpt>
      <trkpt lat="45.20093" lon="5.73978">
        <ele>244.849</ele>
        <time>2021-08-07T03:29:47Z</time>
      </trkpt>
      <trkpt lat="45.20096" lon="5.7397">
        <ele>244.351</ele>
        <time>2021-08-07T03:29:49Z</time>
      </trkpt>
      <trkpt lat="45.20111" lon="5.73954">
        <ele>244.298</ele>
        <time>2021-08-07T03:29:56Z</time>
      </trkpt>
      <trkpt lat="45.20119" lon="5.73939">
        <ele>244.204</ele>
        <time>2021-08-07T03:30:00Z</time>
      </trkpt>
      <trkpt lat="45.20132" lon="5.73919">
        <ele>244.346</ele>
        <time>2021-08-07T03:30:07Z</time>
      </trkpt>
      <trkpt lat="45.20145" lon="5.73901">
        <ele>243.867</ele>
        <time>2021-08-07T03:30:13Z</time>
      </trkpt>
      <trkpt lat="45.20156" lon="5.73886">
        <ele>243.524</ele>
        <time>2021-08-07T03:30:19Z</time>
      </trkpt>
      <trkpt lat="45.20167" lon="5.73864">
        <ele>243.569</ele>
        <time>2021-08-07T03:30:26Z</time>
      </trkpt>
      <trkpt lat="45.20173" lon="5.73847">
        <ele>243.043</ele>
        <time>2021-08-07T03:30:31Z</time>
      </trkpt>
      <trkpt lat="45.20179" lon="5.73823">
        <ele>243.56</ele>
        <time>2021-08-07T03:30:37Z</time>
      </trkpt>
      <trkpt lat="45.20179" lon="5.73801">
        <ele>243.55</ele>
        <time>2021-08-07T03:30:42Z</time>
      </trkpt>
      <trkpt lat="45.20181" lon="5.73771">
        <ele>243.486</ele>
        <time>2021-08-07T03:30:49Z</time>
      </trkpt>
      <trkpt lat="45.20181" lon="5.73746">
        <ele>243.364</ele>
        <time>2021-08-07T03:30:55Z</time>
      </trkpt>
      <trkpt lat="45.2018" lon="5.73722">
        <ele>243.492</ele>
        <time>2021-08-07T03:31:01Z</time>
      </trkpt>
      <trkpt lat="45.20175" lon="5.73702">
        <ele>243.57</ele>
        <time>2021-08-07T03:31:06Z</time>
      </trkpt>
      <trkpt lat="45.20165" lon="5.73687">
        <ele>243.214</ele>
        <time>2021-08-07T03:31:11Z</time>
      </trkpt>
      <trkpt lat="45.2016" lon="5.73665">
        <ele>243.662</ele>
        <time>2021-08-07T03:31:17Z</time>
      </trkpt>
      <trkpt lat="45.20156" lon="5.73638">
        <ele>243.459</ele>
        <time>2021-08-07T03:31:24Z</time>
      </trkpt>
      <trkpt lat="45.20151" lon="5.73615">
        <ele>242.953</ele>
        <time>2021-08-07T03:31:30Z</time>
      </trkpt>
      <trkpt lat="45.2015" lon="5.73612">
        <ele>243.083</ele>
        <time>2021-08-07T03:31:31Z</time>
      </trkpt>
      <trkpt lat="45.20138" lon="5.73587">
        <ele>242.599</ele>
        <time>2021-08-07T03:31:39Z</time>
      </trkpt>
      <trkpt lat="45.20125" lon="5.73571">
        <ele>242.741</ele>
        <time>2021-08-07T03:31:44Z</time>
      </trkpt>
      <trkpt lat="45.20113" lon="5.73551">
        <ele>241.7</ele>
        <time>2021-08-07T03:31:50Z</time>
      </trkpt>
      <trkpt lat="45.20098" lon="5.73529">
        <ele>241.836</ele>
        <time>2021-08-07T03:31:57Z</time>
      </trkpt>
      <trkpt lat="45.20088" lon="5.73509">
        <ele>242.071</ele>
        <time>2021-08-07T03:32:03Z</time>
      </trkpt>
      <trkpt lat="45.20083" lon="5.73505">
        <ele>242.092</ele>
        <time>2021-08-07T03:32:05Z</time>
      </trkpt>
      <trkpt lat="45.20066" lon="5.735">
        <ele>242.073</ele>
        <time>2021-08-07T03:32:10Z</time>
      </trkpt>
      <trkpt lat="45.20055" lon="5.73496">
        <ele>242.548</ele>
        <time>2021-08-07T03:32:14Z</time>
      </trkpt>
      <trkpt lat="45.20037" lon="5.73484">
        <ele>241.457</ele>
        <time>2021-08-07T03:32:21Z</time>
      </trkpt>
      <trkpt lat="45.2002" lon="5.73474">
        <ele>240.654</ele>
        <time>2021-08-07T03:32:27Z</time>
      </trkpt>
      <trkpt lat="45.20003" lon="5.73459">
        <ele>241.542</ele>
        <time>2021-08-07T03:32:34Z</time>
      </trkpt>
      <trkpt lat="45.19986" lon="5.73449">
        <ele>242.16</ele>
        <time>2021-08-07T03:32:40Z</time>
      </trkpt>
      <trkpt lat="45.19974" lon="5.73437">
        <ele>241.196</ele>
        <time>2021-08-07T03:32:46Z</time>
      </trkpt>
      <trkpt lat="45.19954" lon="5.73427">
        <ele>241.879</ele>
        <time>2021-08-07T03:32:54Z</time>
      </trkpt>
      <trkpt lat="45.19948" lon="5.73423">
        <ele>241.147</ele>
        <time>2021-08-07T03:32:57Z</time>
      </trkpt>
      <trkpt lat="45.19931" lon="5.73424">
        <ele>241.15</ele>
        <time>2021-08-07T03:33:01Z</time>
      </trkpt>
      <trkpt lat="45.19912" lon="5.73419">
        <ele>240.956</ele>
        <time>2021-08-07T03:33:08Z</time>
      </trkpt>
      <trkpt lat="45.19894" lon="5.73414">
        <ele>241.088</ele>
        <time>2021-08-07T03:33:14Z</time>
      </trkpt>
      <trkpt lat="45.19889" lon="5.73414">
        <ele>241.239</ele>
        <time>2021-08-07T03:33:16Z</time>
      </trkpt>
      <trkpt lat="45.19874" lon="5.73409">
        <ele>240.667</ele>
        <time>2021-08-07T03:33:22Z</time>
      </trkpt>
      <trkpt lat="45.19862" lon="5.73403">
        <ele>241.262</ele>
        <time>2021-08-07T03:33:27Z</time>
      </trkpt>
      <trkpt lat="45.19842" lon="5.73396">
        <ele>240.756</ele>
        <time>2021-08-07T03:33:34Z</time>
      </trkpt>
      <trkpt lat="45.19833" lon="5.73391">
        <ele>240.782</ele>
        <time>2021-08-07T03:33:39Z</time>
      </trkpt>
      <trkpt lat="45.1981" lon="5.73385">
        <ele>239.996</ele>
        <time>2021-08-07T03:33:47Z</time>
      </trkpt>
      <trkpt lat="45.19793" lon="5.73386">
        <ele>239.965</ele>
        <time>2021-08-07T03:33:52Z</time>
      </trkpt>
      <trkpt lat="45.19784" lon="5.73385">
        <ele>240.253</ele>
        <time>2021-08-07T03:33:55Z</time>
      </trkpt>
      <trkpt lat="45.19763" lon="5.73377">
        <ele>240.635</ele>
        <time>2021-08-07T03:34:02Z</time>
      </trkpt>
      <trkpt lat="45.19745" lon="5.73374">
        <ele>240.919</ele>
        <time>2021-08-07T03:34:08Z</time>
      </trkpt>
      <trkpt lat="45.19729" lon="5.73367">
        <ele>242.119</ele>
        <time>2021-08-07T03:34:15Z</time>
      </trkpt>
      <trkpt lat="45.19727" lon="5.73364">
        <ele>242.268</ele>
        <time>2021-08-07T03:34:16Z</time>
      </trkpt>
      <trkpt lat="45.19733" lon="5.73344">
        <ele>242.949</ele>
        <time>2021-08-07T03:34:22Z</time>
      </trkpt>
      <trkpt lat="45.1974" lon="5.73318">
        <ele>243.205</ele>
        <time>2021-08-07T03:34:29Z</time>
      </trkpt>
      <trkpt lat="45.19748" lon="5.73288">
        <ele>242.255</ele>
        <time>2021-08-07T03:34:36Z</time>
      </trkpt>
      <trkpt lat="45.19755" lon="5.73264">
        <ele>241.855</ele>
        <time>2021-08-07T03:34:42Z</time>
      </trkpt>
      <trkpt lat="45.19764" lon="5.73245">
        <ele>241.273</ele>
        <time>2021-08-07T03:34:48Z</time>
      </trkpt>
      <trkpt lat="45.19775" lon="5.73227">
        <ele>240.706</ele>
        <time>2021-08-07T03:34:54Z</time>
      </trkpt>
      <trkpt lat="45.19783" lon="5.73202">
        <ele>240.21</ele>
        <time>2021-08-07T03:35:00Z</time>
      </trkpt>
      <trkpt lat="45.19784" lon="5.73193">
        <ele>240.244</ele>
        <time>2021-08-07T03:35:02Z</time>
      </trkpt>
      <trkpt lat="45.19783" lon="5.73179">
        <ele>240.146</ele>
        <time>2021-08-07T03:35:07Z</time>
      </trkpt>
      <trkpt lat="45.19783" lon="5.73163">
        <ele>241.809</ele>
        <time>2021-08-07T03:35:13Z</time>
      </trkpt>
      <trkpt lat="45.19788" lon="5.73148">
        <ele>243.54</ele>
        <time>2021-08-07T03:35:19Z</time>
      </trkpt>
      <trkpt lat="45.19789" lon="5.73145">
        <ele>244.349</ele>
        <time>2021-08-07T03:35:20Z</time>
      </trkpt>
      <trkpt lat="45.19793" lon="5.73134">
        <ele>245.982</ele>
        <time>2021-08-07T03:35:25Z</time>
      </trkpt>
      <trkpt lat="45.198" lon="5.73138">
        <ele>247.532</ele>
        <time>2021-08-07T03:35:32Z</time>
      </trkpt>
      <trkpt lat="45.19799" lon="5.73141">
        <ele>248.114</ele>
        <time>2021-08-07T03:35:34Z</time>
      </trkpt>
      <trkpt lat="45.19787" lon="5.7313">
        <ele>248.59</ele>
        <time>2021-08-07T03:35:41Z</time>
      </trkpt>
      <trkpt lat="45.19788" lon="5.73128">
        <ele>249.139</ele>
        <time>2021-08-07T03:35:42Z</time>
      </trkpt>
      <trkpt lat="45.19792" lon="5.73115">
        <ele>249.495</ele>
        <time>2021-08-07T03:35:47Z</time>
      </trkpt>
      <trkpt lat="45.19793" lon="5.73103">
        <ele>250.538</ele>
        <time>2021-08-07T03:35:51Z</time>
      </trkpt>
      <trkpt lat="45.19785" lon="5.73099">
        <ele>251.698</ele>
        <time>2021-08-07T03:35:53Z</time>
      </trkpt>
      <trkpt lat="45.19768" lon="5.73085">
        <ele>253.248</ele>
        <time>2021-08-07T03:36:02Z</time>
      </trkpt>
      <trkpt lat="45.19771" lon="5.73088">
        <ele>254.119</ele>
        <time>2021-08-07T03:36:06Z</time>
      </trkpt>
      <trkpt lat="45.19779" lon="5.73094">
        <ele>255.399</ele>
        <time>2021-08-07T03:36:14Z</time>
      </trkpt>
      <trkpt lat="45.19785" lon="5.73099">
        <ele>255.892</ele>
        <time>2021-08-07T03:36:18Z</time>
      </trkpt>
      <trkpt lat="45.19795" lon="5.73108">
        <ele>257.581</ele>
        <time>2021-08-07T03:36:25Z</time>
      </trkpt>
      <trkpt lat="45.19798" lon="5.73105">
        <ele>258.366</ele>
        <time>2021-08-07T03:36:28Z</time>
      </trkpt>
      <trkpt lat="45.19791" lon="5.73094">
        <ele>259.668</ele>
        <time>2021-08-07T03:36:35Z</time>
      </trkpt>
      <trkpt lat="45.19785" lon="5.73092">
        <ele>261.295</ele>
        <time>2021-08-07T03:36:39Z</time>
      </trkpt>
      <trkpt lat="45.19782" lon="5.73089">
        <ele>261.098</ele>
        <time>2021-08-07T03:36:41Z</time>
      </trkpt>
      <trkpt lat="45.1978" lon="5.73087">
        <ele>261.984</ele>
        <time>2021-08-07T03:36:43Z</time>
      </trkpt>
      <trkpt lat="45.1977" lon="5.73078">
        <ele>262.689</ele>
        <time>2021-08-07T03:36:49Z</time>
      </trkpt>
      <trkpt lat="45.19757" lon="5.73069">
        <ele>263.217</ele>
        <time>2021-08-07T03:36:57Z</time>
      </trkpt>
      <trkpt lat="45.19748" lon="5.7306">
        <ele>264.724</ele>
        <time>2021-08-07T03:37:03Z</time>
      </trkpt>
      <trkpt lat="45.19755" lon="5.73062">
        <ele>265.648</ele>
        <time>2021-08-07T03:37:09Z</time>
      </trkpt>
      <trkpt lat="45.19758" lon="5.73063">
        <ele>265.811</ele>
        <time>2021-08-07T03:37:11Z</time>
      </trkpt>
      <trkpt lat="45.19765" lon="5.73065">
        <ele>266.752</ele>
        <time>2021-08-07T03:37:15Z</time>
      </trkpt>
      <trkpt lat="45.19785" lon="5.73066">
        <ele>268.517</ele>
        <time>2021-08-07T03:37:23Z</time>
      </trkpt>
      <trkpt lat="45.19796" lon="5.73066">
        <ele>269.755</ele>
        <time>2021-08-07T03:37:30Z</time>
      </trkpt>
      <trkpt lat="45.19796" lon="5.73066">
        <ele>270.037</ele>
        <time>2021-08-07T03:37:31Z</time>
      </trkpt>
      <trkpt lat="45.19796" lon="5.73062">
        <ele>270.672</ele>
        <time>2021-08-07T03:37:33Z</time>
      </trkpt>
      <trkpt lat="45.19782" lon="5.7306">
        <ele>271.826</ele>
        <time>2021-08-07T03:37:40Z</time>
      </trkpt>
      <trkpt lat="45.19778" lon="5.73059">
        <ele>272.634</ele>
        <time>2021-08-07T03:37:42Z</time>
      </trkpt>
      <trkpt lat="45.19771" lon="5.73056">
        <ele>273.005</ele>
        <time>2021-08-07T03:37:46Z</time>
      </trkpt>
      <trkpt lat="45.19763" lon="5.73046">
        <ele>273.129</ele>
        <time>2021-08-07T03:37:52Z</time>
      </trkpt>
      <trkpt lat="45.19761" lon="5.73043">
        <ele>274.099</ele>
        <time>2021-08-07T03:37:54Z</time>
      </trkpt>
      <trkpt lat="45.19754" lon="5.73034">
        <ele>275.019</ele>
        <time>2021-08-07T03:38:01Z</time>
      </trkpt>
      <trkpt lat="45.19759" lon="5.73038">
        <ele>276.695</ele>
        <time>2021-08-07T03:38:05Z</time>
      </trkpt>
      <trkpt lat="45.19767" lon="5.73043">
        <ele>277.987</ele>
        <time>2021-08-07T03:38:09Z</time>
      </trkpt>
      <trkpt lat="45.19777" lon="5.73043">
        <ele>279.219</ele>
        <time>2021-08-07T03:38:15Z</time>
      </trkpt>
      <trkpt lat="45.19786" lon="5.73044">
        <ele>280.288</ele>
        <time>2021-08-07T03:38:20Z</time>
      </trkpt>
      <trkpt lat="45.19795" lon="5.73053">
        <ele>281.152</ele>
        <time>2021-08-07T03:38:27Z</time>
      </trkpt>
      <trkpt lat="45.198" lon="5.73051">
        <ele>283.605</ele>
        <time>2021-08-07T03:38:33Z</time>
      </trkpt>
      <trkpt lat="45.19784" lon="5.73046">
        <ele>284.405</ele>
        <time>2021-08-07T03:38:40Z</time>
      </trkpt>
      <trkpt lat="45.19781" lon="5.73044">
        <ele>284.589</ele>
        <time>2021-08-07T03:38:42Z</time>
      </trkpt>
      <trkpt lat="45.19771" lon="5.7302">
        <ele>286.489</ele>
        <time>2021-08-07T03:38:51Z</time>
      </trkpt>
      <trkpt lat="45.19768" lon="5.73017">
        <ele>287.185</ele>
        <time>2021-08-07T03:38:53Z</time>
      </trkpt>
      <trkpt lat="45.19764" lon="5.73012">
        <ele>287.837</ele>
        <time>2021-08-07T03:38:58Z</time>
      </trkpt>
      <trkpt lat="45.19766" lon="5.73013">
        <ele>288.714</ele>
        <time>2021-08-07T03:39:00Z</time>
      </trkpt>
      <trkpt lat="45.19774" lon="5.73014">
        <ele>289.823</ele>
        <time>2021-08-07T03:39:04Z</time>
      </trkpt>
      <trkpt lat="45.19784" lon="5.73017">
        <ele>290.955</ele>
        <time>2021-08-07T03:39:11Z</time>
      </trkpt>
      <trkpt lat="45.19798" lon="5.73023">
        <ele>291.927</ele>
        <time>2021-08-07T03:39:18Z</time>
      </trkpt>
      <trkpt lat="45.19808" lon="5.73025">
        <ele>292.534</ele>
        <time>2021-08-07T03:39:23Z</time>
      </trkpt>
      <trkpt lat="45.19806" lon="5.73014">
        <ele>292.673</ele>
        <time>2021-08-07T03:39:29Z</time>
      </trkpt>
      <trkpt lat="45.19803" lon="5.73013">
        <ele>293.307</ele>
        <time>2021-08-07T03:39:31Z</time>
      </trkpt>
      <trkpt lat="45.19799" lon="5.73011">
        <ele>293.211</ele>
        <time>2021-08-07T03:39:33Z</time>
      </trkpt>
      <trkpt lat="45.19784" lon="5.73004">
        <ele>294.549</ele>
        <time>2021-08-07T03:39:41Z</time>
      </trkpt>
      <trkpt lat="45.19781" lon="5.73001">
        <ele>294.983</ele>
        <time>2021-08-07T03:39:43Z</time>
      </trkpt>
      <trkpt lat="45.1977" lon="5.72992">
        <ele>296.722</ele>
        <time>2021-08-07T03:39:50Z</time>
      </trkpt>
      <trkpt lat="45.19765" lon="5.72985">
        <ele>297.929</ele>
        <time>2021-08-07T03:39:54Z</time>
      </trkpt>
      <trkpt lat="45.19762" lon="5.7298">
        <ele>298.26</ele>
        <time>2021-08-07T03:39:57Z</time>
      </trkpt>
      <trkpt lat="45.19751" lon="5.72964">
        <ele>300.366</ele>
        <time>2021-08-07T03:40:05Z</time>
      </trkpt>
      <trkpt lat="45.19749" lon="5.72958">
        <ele>300.863</ele>
        <time>2021-08-07T03:40:07Z</time>
      </trkpt>
      <trkpt lat="45.19743" lon="5.72946">
        <ele>302.116</ele>
        <time>2021-08-07T03:40:12Z</time>
      </trkpt>
      <trkpt lat="45.19732" lon="5.7293">
        <ele>304.047</ele>
        <time>2021-08-07T03:40:20Z</time>
      </trkpt>
      <trkpt lat="45.19726" lon="5.72919">
        <ele>305.227</ele>
        <time>2021-08-07T03:40:26Z</time>
      </trkpt>
      <trkpt lat="45.19716" lon="5.72908">
        <ele>306.296</ele>
        <time>2021-08-07T03:40:32Z</time>
      </trkpt>
      <trkpt lat="45.19706" lon="5.72892">
        <ele>307.508</ele>
        <time>2021-08-07T03:40:40Z</time>
      </trkpt>
      <trkpt lat="45.19698" lon="5.72876">
        <ele>308.753</ele>
        <time>2021-08-07T03:40:48Z</time>
      </trkpt>
      <trkpt lat="45.19694" lon="5.72864">
        <ele>310.112</ele>
        <time>2021-08-07T03:40:53Z</time>
      </trkpt>
      <trkpt lat="45.1969" lon="5.72861">
        <ele>310.543</ele>
        <time>2021-08-07T03:40:55Z</time>
      </trkpt>
      <trkpt lat="45.19688" lon="5.72855">
        <ele>310.889</ele>
        <time>2021-08-07T03:40:58Z</time>
      </trkpt>
      <trkpt lat="45.19695" lon="5.72858">
        <ele>312.087</ele>
        <time>2021-08-07T03:41:03Z</time>
      </trkpt>
      <trkpt lat="45.19704" lon="5.72869">
        <ele>313.016</ele>
        <time>2021-08-07T03:41:09Z</time>
      </trkpt>
      <trkpt lat="45.1971" lon="5.72872">
        <ele>314.407</ele>
        <time>2021-08-07T03:41:12Z</time>
      </trkpt>
      <trkpt lat="45.1972" lon="5.72879">
        <ele>315.427</ele>
        <time>2021-08-07T03:41:18Z</time>
      </trkpt>
      <trkpt lat="45.19721" lon="5.72881">
        <ele>315.63</ele>
        <time>2021-08-07T03:41:19Z</time>
      </trkpt>
      <trkpt lat="45.19736" lon="5.72891">
        <ele>317.615</ele>
        <time>2021-08-07T03:41:26Z</time>
      </trkpt>
      <trkpt lat="45.19749" lon="5.72898">
        <ele>318.753</ele>
        <time>2021-08-07T03:41:33Z</time>
      </trkpt>
      <trkpt lat="45.19753" lon="5.729">
        <ele>318.736</ele>
        <time>2021-08-07T03:41:35Z</time>
      </trkpt>
      <trkpt lat="45.19765" lon="5.72909">
        <ele>319.674</ele>
        <time>2021-08-07T03:41:43Z</time>
      </trkpt>
      <trkpt lat="45.19768" lon="5.72912">
        <ele>320.585</ele>
        <time>2021-08-07T03:41:45Z</time>
      </trkpt>
      <trkpt lat="45.1978" lon="5.72916">
        <ele>322.041</ele>
        <time>2021-08-07T03:41:52Z</time>
      </trkpt>
      <trkpt lat="45.19783" lon="5.72919">
        <ele>322.847</ele>
        <time>2021-08-07T03:41:54Z</time>
      </trkpt>
      <trkpt lat="45.19784" lon="5.72921">
        <ele>322.934</ele>
        <time>2021-08-07T03:41:55Z</time>
      </trkpt>
      <trkpt lat="45.19799" lon="5.72927">
        <ele>324.13</ele>
        <time>2021-08-07T03:42:03Z</time>
      </trkpt>
      <trkpt lat="45.198" lon="5.72924">
        <ele>324.912</ele>
        <time>2021-08-07T03:42:06Z</time>
      </trkpt>
      <trkpt lat="45.19788" lon="5.72913">
        <ele>327.117</ele>
        <time>2021-08-07T03:42:14Z</time>
      </trkpt>
      <trkpt lat="45.19779" lon="5.72903">
        <ele>328.416</ele>
        <time>2021-08-07T03:42:20Z</time>
      </trkpt>
      <trkpt lat="45.19772" lon="5.72894">
        <ele>329.405</ele>
        <time>2021-08-07T03:42:25Z</time>
      </trkpt>
      <trkpt lat="45.19764" lon="5.72884">
        <ele>330.775</ele>
        <time>2021-08-07T03:42:31Z</time>
      </trkpt>
      <trkpt lat="45.1976" lon="5.72876">
        <ele>331.725</ele>
        <time>2021-08-07T03:42:34Z</time>
      </trkpt>
      <trkpt lat="45.1975" lon="5.72863">
        <ele>332.998</ele>
        <time>2021-08-07T03:42:41Z</time>
      </trkpt>
      <trkpt lat="45.19741" lon="5.7285">
        <ele>334.484</ele>
        <time>2021-08-07T03:42:47Z</time>
      </trkpt>
      <trkpt lat="45.19741" lon="5.72844">
        <ele>335.101</ele>
        <time>2021-08-07T03:42:50Z</time>
      </trkpt>
      <trkpt lat="45.19748" lon="5.72843">
        <ele>335.481</ele>
        <time>2021-08-07T03:42:53Z</time>
      </trkpt>
      <trkpt lat="45.19754" lon="5.7285">
        <ele>336.123</ele>
        <time>2021-08-07T03:42:57Z</time>
      </trkpt>
      <trkpt lat="45.19758" lon="5.72857">
        <ele>336.82</ele>
        <time>2021-08-07T03:43:02Z</time>
      </trkpt>
      <trkpt lat="45.19767" lon="5.7288">
        <ele>339.349</ele>
        <time>2021-08-07T03:43:10Z</time>
      </trkpt>
      <trkpt lat="45.19773" lon="5.72881">
        <ele>340.136</ele>
        <time>2021-08-07T03:43:14Z</time>
      </trkpt>
      <trkpt lat="45.19782" lon="5.72889">
        <ele>341.646</ele>
        <time>2021-08-07T03:43:20Z</time>
      </trkpt>
      <trkpt lat="45.19796" lon="5.72894">
        <ele>343.235</ele>
        <time>2021-08-07T03:43:28Z</time>
      </trkpt>
      <trkpt lat="45.198" lon="5.72894">
        <ele>343.73</ele>
        <time>2021-08-07T03:43:31Z</time>
      </trkpt>
      <trkpt lat="45.19796" lon="5.72887">
        <ele>343.562</ele>
        <time>2021-08-07T03:43:35Z</time>
      </trkpt>
      <trkpt lat="45.19787" lon="5.72874">
        <ele>344.929</ele>
        <time>2021-08-07T03:43:42Z</time>
      </trkpt>
      <trkpt lat="45.19785" lon="5.7287">
        <ele>345.572</ele>
        <time>2021-08-07T03:43:44Z</time>
      </trkpt>
      <trkpt lat="45.19781" lon="5.72861">
        <ele>346.782</ele>
        <time>2021-08-07T03:43:49Z</time>
      </trkpt>
      <trkpt lat="45.19777" lon="5.72852">
        <ele>348.219</ele>
        <time>2021-08-07T03:43:54Z</time>
      </trkpt>
      <trkpt lat="45.19769" lon="5.72836">
        <ele>350.306</ele>
        <time>2021-08-07T03:44:01Z</time>
      </trkpt>
      <trkpt lat="45.19763" lon="5.72826">
        <ele>350.712</ele>
        <time>2021-08-07T03:44:06Z</time>
      </trkpt>
      <trkpt lat="45.19757" lon="5.72817">
        <ele>351.444</ele>
        <time>2021-08-07T03:44:11Z</time>
      </trkpt>
      <trkpt lat="45.19755" lon="5.72807">
        <ele>351.699</ele>
        <time>2021-08-07T03:44:16Z</time>
      </trkpt>
      <trkpt lat="45.19758" lon="5.72811">
        <ele>354.524</ele>
        <time>2021-08-07T03:44:20Z</time>
      </trkpt>
      <trkpt lat="45.19768" lon="5.72824">
        <ele>355.227</ele>
        <time>2021-08-07T03:44:28Z</time>
      </trkpt>
      <trkpt lat="45.19777" lon="5.72841">
        <ele>355.982</ele>
        <time>2021-08-07T03:44:36Z</time>
      </trkpt>
      <trkpt lat="45.19789" lon="5.7285">
        <ele>358.42</ele>
        <time>2021-08-07T03:44:43Z</time>
      </trkpt>
      <trkpt lat="45.19797" lon="5.72856">
        <ele>359.611</ele>
        <time>2021-08-07T03:44:48Z</time>
      </trkpt>
      <trkpt lat="45.19809" lon="5.72863">
        <ele>360.775</ele>
        <time>2021-08-07T03:44:56Z</time>
      </trkpt>
      <trkpt lat="45.19812" lon="5.72862">
        <ele>360.809</ele>
        <time>2021-08-07T03:44:59Z</time>
      </trkpt>
      <trkpt lat="45.19804" lon="5.72846">
        <ele>362.091</ele>
        <time>2021-08-07T03:45:07Z</time>
      </trkpt>
      <trkpt lat="45.19795" lon="5.72838">
        <ele>362.867</ele>
        <time>2021-08-07T03:45:12Z</time>
      </trkpt>
      <trkpt lat="45.19786" lon="5.72819">
        <ele>363.9</ele>
        <time>2021-08-07T03:45:19Z</time>
      </trkpt>
      <trkpt lat="45.19786" lon="5.72818">
        <ele>364.396</ele>
        <time>2021-08-07T03:45:20Z</time>
      </trkpt>
      <trkpt lat="45.19802" lon="5.7282">
        <ele>365.448</ele>
        <time>2021-08-07T03:45:27Z</time>
      </trkpt>
      <trkpt lat="45.19814" lon="5.72826">
        <ele>366.913</ele>
        <time>2021-08-07T03:45:34Z</time>
      </trkpt>
      <trkpt lat="45.1982" lon="5.72827">
        <ele>367.119</ele>
        <time>2021-08-07T03:45:37Z</time>
      </trkpt>
      <trkpt lat="45.19829" lon="5.72842">
        <ele>369.563</ele>
        <time>2021-08-07T03:45:46Z</time>
      </trkpt>
      <trkpt lat="45.19828" lon="5.72842">
        <ele>370.279</ele>
        <time>2021-08-07T03:45:47Z</time>
      </trkpt>
      <trkpt lat="45.19816" lon="5.72833">
        <ele>370.86</ele>
        <time>2021-08-07T03:45:55Z</time>
      </trkpt>
      <trkpt lat="45.19812" lon="5.72829">
        <ele>371.329</ele>
        <time>2021-08-07T03:45:57Z</time>
      </trkpt>
      <trkpt lat="45.19813" lon="5.72824">
        <ele>372.509</ele>
        <time>2021-08-07T03:46:01Z</time>
      </trkpt>
      <trkpt lat="45.19819" lon="5.72828">
        <ele>372.49</ele>
        <time>2021-08-07T03:46:05Z</time>
      </trkpt>
      <trkpt lat="45.19823" lon="5.7283">
        <ele>374.136</ele>
        <time>2021-08-07T03:46:08Z</time>
      </trkpt>
      <trkpt lat="45.19833" lon="5.72832">
        <ele>375.039</ele>
        <time>2021-08-07T03:46:13Z</time>
      </trkpt>
      <trkpt lat="45.19841" lon="5.72835">
        <ele>375.403</ele>
        <time>2021-08-07T03:46:19Z</time>
      </trkpt>
      <trkpt lat="45.19837" lon="5.72828">
        <ele>375.883</ele>
        <time>2021-08-07T03:46:23Z</time>
      </trkpt>
      <trkpt lat="45.1983" lon="5.72822">
        <ele>376.444</ele>
        <time>2021-08-07T03:46:28Z</time>
      </trkpt>
      <trkpt lat="45.1982" lon="5.72812">
        <ele>377.882</ele>
        <time>2021-08-07T03:46:35Z</time>
      </trkpt>
      <trkpt lat="45.19808" lon="5.72802">
        <ele>380.141</ele>
        <time>2021-08-07T03:46:43Z</time>
      </trkpt>
      <trkpt lat="45.198" lon="5.72795">
        <ele>381.27</ele>
        <time>2021-08-07T03:46:48Z</time>
      </trkpt>
      <trkpt lat="45.19796" lon="5.7279">
        <ele>381.838</ele>
        <time>2021-08-07T03:46:51Z</time>
      </trkpt>
      <trkpt lat="45.19799" lon="5.72781">
        <ele>382.181</ele>
        <time>2021-08-07T03:46:56Z</time>
      </trkpt>
      <trkpt lat="45.19811" lon="5.72787">
        <ele>384.124</ele>
        <time>2021-08-07T03:47:03Z</time>
      </trkpt>
      <trkpt lat="45.19815" lon="5.7279">
        <ele>384.919</ele>
        <time>2021-08-07T03:47:06Z</time>
      </trkpt>
      <trkpt lat="45.19822" lon="5.72789">
        <ele>385.839</ele>
        <time>2021-08-07T03:47:10Z</time>
      </trkpt>
      <trkpt lat="45.19836" lon="5.72798">
        <ele>386.675</ele>
        <time>2021-08-07T03:47:18Z</time>
      </trkpt>
      <trkpt lat="45.19843" lon="5.72804">
        <ele>388.288</ele>
        <time>2021-08-07T03:47:22Z</time>
      </trkpt>
      <trkpt lat="45.19842" lon="5.72801">
        <ele>388.806</ele>
        <time>2021-08-07T03:47:26Z</time>
      </trkpt>
      <trkpt lat="45.1983" lon="5.72794">
        <ele>391.329</ele>
        <time>2021-08-07T03:47:33Z</time>
      </trkpt>
      <trkpt lat="45.19828" lon="5.72793">
        <ele>391.32</ele>
        <time>2021-08-07T03:47:34Z</time>
      </trkpt>
      <trkpt lat="45.19814" lon="5.72777">
        <ele>392.576</ele>
        <time>2021-08-07T03:47:44Z</time>
      </trkpt>
      <trkpt lat="45.19809" lon="5.72772">
        <ele>393.129</ele>
        <time>2021-08-07T03:47:48Z</time>
      </trkpt>
      <trkpt lat="45.19798" lon="5.72758">
        <ele>395.292</ele>
        <time>2021-08-07T03:47:57Z</time>
      </trkpt>
      <trkpt lat="45.19793" lon="5.72753">
        <ele>396.461</ele>
        <time>2021-08-07T03:48:01Z</time>
      </trkpt>
      <trkpt lat="45.19789" lon="5.72743">
        <ele>397.392</ele>
        <time>2021-08-07T03:48:06Z</time>
      </trkpt>
      <trkpt lat="45.19797" lon="5.7274">
        <ele>398.853</ele>
        <time>2021-08-07T03:48:12Z</time>
      </trkpt>
      <trkpt lat="45.19808" lon="5.72746">
        <ele>398.991</ele>
        <time>2021-08-07T03:48:18Z</time>
      </trkpt>
      <trkpt lat="45.19819" lon="5.72758">
        <ele>399.968</ele>
        <time>2021-08-07T03:48:25Z</time>
      </trkpt>
      <trkpt lat="45.19824" lon="5.72761">
        <ele>400.487</ele>
        <time>2021-08-07T03:48:28Z</time>
      </trkpt>
      <trkpt lat="45.19832" lon="5.72765">
        <ele>401.249</ele>
        <time>2021-08-07T03:48:32Z</time>
      </trkpt>
      <trkpt lat="45.19842" lon="5.72773">
        <ele>402.717</ele>
        <time>2021-08-07T03:48:38Z</time>
      </trkpt>
      <trkpt lat="45.19852" lon="5.72781">
        <ele>404.051</ele>
        <time>2021-08-07T03:48:46Z</time>
      </trkpt>
      <trkpt lat="45.19853" lon="5.72779">
        <ele>404.191</ele>
        <time>2021-08-07T03:48:47Z</time>
      </trkpt>
      <trkpt lat="45.19847" lon="5.72772">
        <ele>405.195</ele>
        <time>2021-08-07T03:48:52Z</time>
      </trkpt>
      <trkpt lat="45.1985" lon="5.72769">
        <ele>406.738</ele>
        <time>2021-08-07T03:48:58Z</time>
      </trkpt>
      <trkpt lat="45.19854" lon="5.72774">
        <ele>408.446</ele>
        <time>2021-08-07T03:49:04Z</time>
      </trkpt>
      <trkpt lat="45.19854" lon="5.72775">
        <ele>410.538</ele>
        <time>2021-08-07T03:49:11Z</time>
      </trkpt>
      <trkpt lat="45.19857" lon="5.72768">
        <ele>413.632</ele>
        <time>2021-08-07T03:49:18Z</time>
      </trkpt>
      <trkpt lat="45.19861" lon="5.72761">
        <ele>417.109</ele>
        <time>2021-08-07T03:49:26Z</time>
      </trkpt>
      <trkpt lat="45.19863" lon="5.72757">
        <ele>419.665</ele>
        <time>2021-08-07T03:49:30Z</time>
      </trkpt>
      <trkpt lat="45.19868" lon="5.72747">
        <ele>421.436</ele>
        <time>2021-08-07T03:49:41Z</time>
      </trkpt>
      <trkpt lat="45.19853" lon="5.72747">
        <ele>422.989</ele>
        <time>2021-08-07T03:49:47Z</time>
      </trkpt>
      <trkpt lat="45.19856" lon="5.72757">
        <ele>424.81</ele>
        <time>2021-08-07T03:49:52Z</time>
      </trkpt>
      <trkpt lat="45.19858" lon="5.7276">
        <ele>427.374</ele>
        <time>2021-08-07T03:49:59Z</time>
      </trkpt>
      <trkpt lat="45.19858" lon="5.72759">
        <ele>427.843</ele>
        <time>2021-08-07T03:50:00Z</time>
      </trkpt>
      <trkpt lat="45.19854" lon="5.7275">
        <ele>428.651</ele>
        <time>2021-08-07T03:50:06Z</time>
      </trkpt>
      <trkpt lat="45.19854" lon="5.72749">
        <ele>429.131</ele>
        <time>2021-08-07T03:50:07Z</time>
      </trkpt>
      <trkpt lat="45.19851" lon="5.72748">
        <ele>428.935</ele>
        <time>2021-08-07T03:50:09Z</time>
      </trkpt>
      <trkpt lat="45.19849" lon="5.7275">
        <ele>430.028</ele>
        <time>2021-08-07T03:50:15Z</time>
      </trkpt>
      <trkpt lat="45.19847" lon="5.72755">
        <ele>433.482</ele>
        <time>2021-08-07T03:50:22Z</time>
      </trkpt>
      <trkpt lat="45.19832" lon="5.72747">
        <ele>431.526</ele>
        <time>2021-08-07T03:50:28Z</time>
      </trkpt>
      <trkpt lat="45.19832" lon="5.7273">
        <ele>432.105</ele>
        <time>2021-08-07T03:50:33Z</time>
      </trkpt>
      <trkpt lat="45.19818" lon="5.72709">
        <ele>431.529</ele>
        <time>2021-08-07T03:50:42Z</time>
      </trkpt>
      <trkpt lat="45.19806" lon="5.72699">
        <ele>431.249</ele>
        <time>2021-08-07T03:50:48Z</time>
      </trkpt>
      <trkpt lat="45.1979" lon="5.7268">
        <ele>430.473</ele>
        <time>2021-08-07T03:50:56Z</time>
      </trkpt>
      <trkpt lat="45.19786" lon="5.72676">
        <ele>430.299</ele>
        <time>2021-08-07T03:50:58Z</time>
      </trkpt>
      <trkpt lat="45.19778" lon="5.7268">
        <ele>430.485</ele>
        <time>2021-08-07T03:51:02Z</time>
      </trkpt>
      <trkpt lat="45.19771" lon="5.72673">
        <ele>430.227</ele>
        <time>2021-08-07T03:51:07Z</time>
      </trkpt>
      <trkpt lat="45.19772" lon="5.7267">
        <ele>430.408</ele>
        <time>2021-08-07T03:51:08Z</time>
      </trkpt>
      <trkpt lat="45.19775" lon="5.72665">
        <ele>430.335</ele>
        <time>2021-08-07T03:51:10Z</time>
      </trkpt>
      <trkpt lat="45.19767" lon="5.72654">
        <ele>430.536</ele>
        <time>2021-08-07T03:51:15Z</time>
      </trkpt>
      <trkpt lat="45.19749" lon="5.72632">
        <ele>430.305</ele>
        <time>2021-08-07T03:51:24Z</time>
      </trkpt>
      <trkpt lat="45.19747" lon="5.7263">
        <ele>430.677</ele>
        <time>2021-08-07T03:51:25Z</time>
      </trkpt>
      <trkpt lat="45.19739" lon="5.72624">
        <ele>430.933</ele>
        <time>2021-08-07T03:51:30Z</time>
      </trkpt>
      <trkpt lat="45.19742" lon="5.72612">
        <ele>430.349</ele>
        <time>2021-08-07T03:51:34Z</time>
      </trkpt>
      <trkpt lat="45.19742" lon="5.72594">
        <ele>430.223</ele>
        <time>2021-08-07T03:51:39Z</time>
      </trkpt>
      <trkpt lat="45.19743" lon="5.72565">
        <ele>430.279</ele>
        <time>2021-08-07T03:51:47Z</time>
      </trkpt>
      <trkpt lat="45.19744" lon="5.7254">
        <ele>430.076</ele>
        <time>2021-08-07T03:51:54Z</time>
      </trkpt>
      <trkpt lat="45.19743" lon="5.72534">
        <ele>430.06</ele>
        <time>2021-08-07T03:51:56Z</time>
      </trkpt>
      <trkpt lat="45.19732" lon="5.72527">
        <ele>430.272</ele>
        <time>2021-08-07T03:52:02Z</time>
      </trkpt>
      <trkpt lat="45.19733" lon="5.72511">
        <ele>430.753</ele>
        <time>2021-08-07T03:52:07Z</time>
      </trkpt>
      <trkpt lat="45.19737" lon="5.72505">
        <ele>430.277</ele>
        <time>2021-08-07T03:52:09Z</time>
      </trkpt>
      <trkpt lat="45.19745" lon="5.72507">
        <ele>430.08</ele>
        <time>2021-08-07T03:52:13Z</time>
      </trkpt>
      <trkpt lat="45.19751" lon="5.72502">
        <ele>429.918</ele>
        <time>2021-08-07T03:52:17Z</time>
      </trkpt>
      <trkpt lat="45.19764" lon="5.7248">
        <ele>429.868</ele>
        <time>2021-08-07T03:52:25Z</time>
      </trkpt>
      <trkpt lat="45.19774" lon="5.7246">
        <ele>429.928</ele>
        <time>2021-08-07T03:52:32Z</time>
      </trkpt>
      <trkpt lat="45.19782" lon="5.72446">
        <ele>429.76</ele>
        <time>2021-08-07T03:52:38Z</time>
      </trkpt>
      <trkpt lat="45.19791" lon="5.72429">
        <ele>430.2</ele>
        <time>2021-08-07T03:52:43Z</time>
      </trkpt>
      <trkpt lat="45.19794" lon="5.72421">
        <ele>430.331</ele>
        <time>2021-08-07T03:52:46Z</time>
      </trkpt>
      <trkpt lat="45.19792" lon="5.724">
        <ele>430.801</ele>
        <time>2021-08-07T03:52:52Z</time>
      </trkpt>
      <trkpt lat="45.19796" lon="5.72376">
        <ele>430.861</ele>
        <time>2021-08-07T03:52:58Z</time>
      </trkpt>
      <trkpt lat="45.19809" lon="5.72349">
        <ele>430.884</ele>
        <time>2021-08-07T03:53:06Z</time>
      </trkpt>
      <trkpt lat="45.19819" lon="5.72327">
        <ele>430.65</ele>
        <time>2021-08-07T03:53:13Z</time>
      </trkpt>
      <trkpt lat="45.19822" lon="5.72323">
        <ele>430.72</ele>
        <time>2021-08-07T03:53:15Z</time>
      </trkpt>
      <trkpt lat="45.19825" lon="5.72307">
        <ele>431.056</ele>
        <time>2021-08-07T03:53:21Z</time>
      </trkpt>
      <trkpt lat="45.19827" lon="5.72301">
        <ele>430.675</ele>
        <time>2021-08-07T03:53:23Z</time>
      </trkpt>
      <trkpt lat="45.1983" lon="5.72301">
        <ele>430.781</ele>
        <time>2021-08-07T03:53:27Z</time>
      </trkpt>
      <trkpt lat="45.19821" lon="5.72324">
        <ele>430.883</ele>
        <time>2021-08-07T03:53:33Z</time>
      </trkpt>
      <trkpt lat="45.19819" lon="5.72331">
        <ele>430.776</ele>
        <time>2021-08-07T03:53:35Z</time>
      </trkpt>
      <trkpt lat="45.19808" lon="5.72351">
        <ele>430.528</ele>
        <time>2021-08-07T03:53:43Z</time>
      </trkpt>
      <trkpt lat="45.19798" lon="5.7237">
        <ele>430.903</ele>
        <time>2021-08-07T03:53:48Z</time>
      </trkpt>
      <trkpt lat="45.19793" lon="5.72389">
        <ele>431.203</ele>
        <time>2021-08-07T03:53:54Z</time>
      </trkpt>
      <trkpt lat="45.19789" lon="5.72419">
        <ele>430.548</ele>
        <time>2021-08-07T03:54:01Z</time>
      </trkpt>
      <trkpt lat="45.19785" lon="5.72442">
        <ele>429.448</ele>
        <time>2021-08-07T03:54:08Z</time>
      </trkpt>
      <trkpt lat="45.19786" lon="5.7246">
        <ele>430.518</ele>
        <time>2021-08-07T03:54:14Z</time>
      </trkpt>
      <trkpt lat="45.19783" lon="5.72477">
        <ele>431.163</ele>
        <time>2021-08-07T03:54:19Z</time>
      </trkpt>
      <trkpt lat="45.19781" lon="5.72491">
        <ele>431.342</ele>
        <time>2021-08-07T03:54:24Z</time>
      </trkpt>
      <trkpt lat="45.1978" lon="5.72494">
        <ele>431.104</ele>
        <time>2021-08-07T03:54:25Z</time>
      </trkpt>
      <trkpt lat="45.19776" lon="5.72508">
        <ele>432.058</ele>
        <time>2021-08-07T03:54:32Z</time>
      </trkpt>
      <trkpt lat="45.19769" lon="5.72526">
        <ele>433.335</ele>
        <time>2021-08-07T03:54:39Z</time>
      </trkpt>
      <trkpt lat="45.19768" lon="5.72529">
        <ele>433.549</ele>
        <time>2021-08-07T03:54:40Z</time>
      </trkpt>
      <trkpt lat="45.19768" lon="5.72542">
        <ele>435.155</ele>
        <time>2021-08-07T03:54:44Z</time>
      </trkpt>
      <trkpt lat="45.19765" lon="5.72558">
        <ele>436.504</ele>
        <time>2021-08-07T03:54:50Z</time>
      </trkpt>
      <trkpt lat="45.19766" lon="5.72574">
        <ele>438.556</ele>
        <time>2021-08-07T03:54:56Z</time>
      </trkpt>
      <trkpt lat="45.19767" lon="5.72579">
        <ele>438.34</ele>
        <time>2021-08-07T03:54:58Z</time>
      </trkpt>
      <trkpt lat="45.19769" lon="5.72584">
        <ele>439.219</ele>
        <time>2021-08-07T03:55:00Z</time>
      </trkpt>
      <trkpt lat="45.19771" lon="5.72584">
        <ele>439.028</ele>
        <time>2021-08-07T03:55:02Z</time>
      </trkpt>
      <trkpt lat="45.19775" lon="5.72577">
        <ele>438.948</ele>
        <time>2021-08-07T03:55:06Z</time>
      </trkpt>
      <trkpt lat="45.19779" lon="5.72563">
        <ele>439.89</ele>
        <time>2021-08-07T03:55:11Z</time>
      </trkpt>
      <trkpt lat="45.19781" lon="5.72559">
        <ele>440.116</ele>
        <time>2021-08-07T03:55:13Z</time>
      </trkpt>
      <trkpt lat="45.19783" lon="5.72547">
        <ele>440.971</ele>
        <time>2021-08-07T03:55:18Z</time>
      </trkpt>
      <trkpt lat="45.19785" lon="5.72538">
        <ele>441.864</ele>
        <time>2021-08-07T03:55:22Z</time>
      </trkpt>
      <trkpt lat="45.19792" lon="5.72519">
        <ele>443.277</ele>
        <time>2021-08-07T03:55:29Z</time>
      </trkpt>
      <trkpt lat="45.19798" lon="5.72496">
        <ele>443.254</ele>
        <time>2021-08-07T03:55:35Z</time>
      </trkpt>
      <trkpt lat="45.198" lon="5.72485">
        <ele>443.093</ele>
        <time>2021-08-07T03:55:38Z</time>
      </trkpt>
      <trkpt lat="45.19803" lon="5.72465">
        <ele>443.303</ele>
        <time>2021-08-07T03:55:44Z</time>
      </trkpt>
      <trkpt lat="45.19806" lon="5.72439">
        <ele>442.578</ele>
        <time>2021-08-07T03:55:52Z</time>
      </trkpt>
      <trkpt lat="45.19805" lon="5.72417">
        <ele>442.081</ele>
        <time>2021-08-07T03:55:59Z</time>
      </trkpt>
      <trkpt lat="45.19804" lon="5.72394">
        <ele>441.582</ele>
        <time>2021-08-07T03:56:06Z</time>
      </trkpt>
      <trkpt lat="45.19813" lon="5.72374">
        <ele>441.285</ele>
        <time>2021-08-07T03:56:12Z</time>
      </trkpt>
      <trkpt lat="45.19823" lon="5.72364">
        <ele>441.259</ele>
        <time>2021-08-07T03:56:17Z</time>
      </trkpt>
      <trkpt lat="45.19825" lon="5.72359">
        <ele>441.471</ele>
        <time>2021-08-07T03:56:20Z</time>
      </trkpt>
      <trkpt lat="45.19822" lon="5.7237">
        <ele>441.686</ele>
        <time>2021-08-07T03:56:25Z</time>
      </trkpt>
      <trkpt lat="45.19808" lon="5.72382">
        <ele>441.493</ele>
        <time>2021-08-07T03:56:31Z</time>
      </trkpt>
      <trkpt lat="45.19801" lon="5.72401">
        <ele>441.763</ele>
        <time>2021-08-07T03:56:37Z</time>
      </trkpt>
      <trkpt lat="45.198" lon="5.72408">
        <ele>441.53</ele>
        <time>2021-08-07T03:56:39Z</time>
      </trkpt>
      <trkpt lat="45.19799" lon="5.72427">
        <ele>441.665</ele>
        <time>2021-08-07T03:56:44Z</time>
      </trkpt>
      <trkpt lat="45.19797" lon="5.72438">
        <ele>441.653</ele>
        <time>2021-08-07T03:56:47Z</time>
      </trkpt>
      <trkpt lat="45.19796" lon="5.72452">
        <ele>442.331</ele>
        <time>2021-08-07T03:56:51Z</time>
      </trkpt>
      <trkpt lat="45.19798" lon="5.72459">
        <ele>441.858</ele>
        <time>2021-08-07T03:56:54Z</time>
      </trkpt>
      <trkpt lat="45.19795" lon="5.7248">
        <ele>442.633</ele>
        <time>2021-08-07T03:57:01Z</time>
      </trkpt>
      <trkpt lat="45.19793" lon="5.72494">
        <ele>442.09</ele>
        <time>2021-08-07T03:57:06Z</time>
      </trkpt>
      <trkpt lat="45.19793" lon="5.72497">
        <ele>442.311</ele>
        <time>2021-08-07T03:57:07Z</time>
      </trkpt>
      <trkpt lat="45.19792" lon="5.7251">
        <ele>442.379</ele>
        <time>2021-08-07T03:57:11Z</time>
      </trkpt>
      <trkpt lat="45.19788" lon="5.72534">
        <ele>443.249</ele>
        <time>2021-08-07T03:57:18Z</time>
      </trkpt>
      <trkpt lat="45.19787" lon="5.7256">
        <ele>444.736</ele>
        <time>2021-08-07T03:57:26Z</time>
      </trkpt>
      <trkpt lat="45.19785" lon="5.7258">
        <ele>446.413</ele>
        <time>2021-08-07T03:57:33Z</time>
      </trkpt>
      <trkpt lat="45.19785" lon="5.72598">
        <ele>447.878</ele>
        <time>2021-08-07T03:57:40Z</time>
      </trkpt>
      <trkpt lat="45.19788" lon="5.72611">
        <ele>449.338</ele>
        <time>2021-08-07T03:57:45Z</time>
      </trkpt>
      <trkpt lat="45.19789" lon="5.72614">
        <ele>449.376</ele>
        <time>2021-08-07T03:57:46Z</time>
      </trkpt>
      <trkpt lat="45.198" lon="5.72629">
        <ele>450.642</ele>
        <time>2021-08-07T03:57:53Z</time>
      </trkpt>
      <trkpt lat="45.19809" lon="5.7264">
        <ele>452.034</ele>
        <time>2021-08-07T03:58:01Z</time>
      </trkpt>
      <trkpt lat="45.1981" lon="5.72642">
        <ele>452.708</ele>
        <time>2021-08-07T03:58:02Z</time>
      </trkpt>
      <trkpt lat="45.19822" lon="5.7265">
        <ele>453.495</ele>
        <time>2021-08-07T03:58:08Z</time>
      </trkpt>
      <trkpt lat="45.19833" lon="5.72663">
        <ele>454.33</ele>
        <time>2021-08-07T03:58:16Z</time>
      </trkpt>
      <trkpt lat="45.19845" lon="5.72678">
        <ele>455.76</ele>
        <time>2021-08-07T03:58:24Z</time>
      </trkpt>
      <trkpt lat="45.19854" lon="5.72685">
        <ele>456.213</ele>
        <time>2021-08-07T03:58:29Z</time>
      </trkpt>
      <trkpt lat="45.1986" lon="5.72691">
        <ele>457.011</ele>
        <time>2021-08-07T03:58:33Z</time>
      </trkpt>
      <trkpt lat="45.19863" lon="5.72691">
        <ele>457.515</ele>
        <time>2021-08-07T03:58:36Z</time>
      </trkpt>
      <trkpt lat="45.19857" lon="5.72683">
        <ele>458.567</ele>
        <time>2021-08-07T03:58:40Z</time>
      </trkpt>
      <trkpt lat="45.19854" lon="5.72679">
        <ele>458.812</ele>
        <time>2021-08-07T03:58:42Z</time>
      </trkpt>
      <trkpt lat="45.19845" lon="5.72667">
        <ele>459.573</ele>
        <time>2021-08-07T03:58:48Z</time>
      </trkpt>
      <trkpt lat="45.1984" lon="5.72656">
        <ele>460.704</ele>
        <time>2021-08-07T03:58:53Z</time>
      </trkpt>
      <trkpt lat="45.19832" lon="5.72643">
        <ele>461.501</ele>
        <time>2021-08-07T03:58:59Z</time>
      </trkpt>
      <trkpt lat="45.1983" lon="5.72635">
        <ele>462.172</ele>
        <time>2021-08-07T03:59:02Z</time>
      </trkpt>
      <trkpt lat="45.19823" lon="5.7262">
        <ele>462.974</ele>
        <time>2021-08-07T03:59:09Z</time>
      </trkpt>
      <trkpt lat="45.19824" lon="5.7261">
        <ele>463.205</ele>
        <time>2021-08-07T03:59:12Z</time>
      </trkpt>
      <trkpt lat="45.19824" lon="5.72595">
        <ele>463.889</ele>
        <time>2021-08-07T03:59:17Z</time>
      </trkpt>
      <trkpt lat="45.19824" lon="5.72576">
        <ele>464.904</ele>
        <time>2021-08-07T03:59:24Z</time>
      </trkpt>
      <trkpt lat="45.19824" lon="5.72571">
        <ele>465.598</ele>
        <time>2021-08-07T03:59:26Z</time>
      </trkpt>
      <trkpt lat="45.19825" lon="5.72565">
        <ele>465.83</ele>
        <time>2021-08-07T03:59:28Z</time>
      </trkpt>
      <trkpt lat="45.19825" lon="5.7255">
        <ele>466.584</ele>
        <time>2021-08-07T03:59:34Z</time>
      </trkpt>
      <trkpt lat="45.19825" lon="5.72537">
        <ele>467.224</ele>
        <time>2021-08-07T03:59:39Z</time>
      </trkpt>
      <trkpt lat="45.19828" lon="5.72512">
        <ele>469.437</ele>
        <time>2021-08-07T03:59:47Z</time>
      </trkpt>
      <trkpt lat="45.19831" lon="5.72491">
        <ele>470.76</ele>
        <time>2021-08-07T03:59:54Z</time>
      </trkpt>
      <trkpt lat="45.19835" lon="5.72472">
        <ele>472.411</ele>
        <time>2021-08-07T04:00:02Z</time>
      </trkpt>
      <trkpt lat="45.1984" lon="5.72448">
        <ele>474.119</ele>
        <time>2021-08-07T04:00:11Z</time>
      </trkpt>
      <trkpt lat="45.19843" lon="5.72442">
        <ele>474.432</ele>
        <time>2021-08-07T04:00:14Z</time>
      </trkpt>
      <trkpt lat="45.1985" lon="5.72444">
        <ele>474.853</ele>
        <time>2021-08-07T04:00:19Z</time>
      </trkpt>
      <trkpt lat="45.19851" lon="5.72476">
        <ele>476.605</ele>
        <time>2021-08-07T04:00:30Z</time>
      </trkpt>
      <trkpt lat="45.1985" lon="5.72479">
        <ele>476.605</ele>
        <time>2021-08-07T04:00:31Z</time>
      </trkpt>
      <trkpt lat="45.19846" lon="5.725">
        <ele>479.461</ele>
        <time>2021-08-07T04:00:38Z</time>
      </trkpt>
      <trkpt lat="45.19847" lon="5.72505">
        <ele>480.398</ele>
        <time>2021-08-07T04:00:40Z</time>
      </trkpt>
      <trkpt lat="45.19848" lon="5.72513">
        <ele>481.231</ele>
        <time>2021-08-07T04:00:44Z</time>
      </trkpt>
      <trkpt lat="45.19851" lon="5.72534">
        <ele>482.196</ele>
        <time>2021-08-07T04:00:52Z</time>
      </trkpt>
      <trkpt lat="45.19852" lon="5.72547">
        <ele>483.614</ele>
        <time>2021-08-07T04:00:57Z</time>
      </trkpt>
      <trkpt lat="45.1986" lon="5.72553">
        <ele>483.933</ele>
        <time>2021-08-07T04:01:03Z</time>
      </trkpt>
      <trkpt lat="45.19858" lon="5.72546">
        <ele>484.49</ele>
        <time>2021-08-07T04:01:06Z</time>
      </trkpt>
      <trkpt lat="45.19857" lon="5.72528">
        <ele>485.617</ele>
        <time>2021-08-07T04:01:12Z</time>
      </trkpt>
      <trkpt lat="45.19856" lon="5.72507">
        <ele>486.97</ele>
        <time>2021-08-07T04:01:19Z</time>
      </trkpt>
      <trkpt lat="45.19857" lon="5.72495">
        <ele>487.446</ele>
        <time>2021-08-07T04:01:22Z</time>
      </trkpt>
      <trkpt lat="45.19861" lon="5.72485">
        <ele>489.706</ele>
        <time>2021-08-07T04:01:29Z</time>
      </trkpt>
      <trkpt lat="45.19862" lon="5.72485">
        <ele>489.712</ele>
        <time>2021-08-07T04:01:30Z</time>
      </trkpt>
      <trkpt lat="45.19866" lon="5.72482">
        <ele>491.14</ele>
        <time>2021-08-07T04:01:33Z</time>
      </trkpt>
      <trkpt lat="45.1987" lon="5.72479">
        <ele>494.533</ele>
        <time>2021-08-07T04:01:37Z</time>
      </trkpt>
      <trkpt lat="45.19878" lon="5.72473">
        <ele>495.49</ele>
        <time>2021-08-07T04:01:42Z</time>
      </trkpt>
      <trkpt lat="45.19885" lon="5.72477">
        <ele>498.283</ele>
        <time>2021-08-07T04:01:48Z</time>
      </trkpt>
      <trkpt lat="45.19882" lon="5.72493">
        <ele>498.55</ele>
        <time>2021-08-07T04:01:53Z</time>
      </trkpt>
      <trkpt lat="45.1988" lon="5.72519">
        <ele>498.539</ele>
        <time>2021-08-07T04:02:00Z</time>
      </trkpt>
      <trkpt lat="45.19885" lon="5.72539">
        <ele>499.664</ele>
        <time>2021-08-07T04:02:07Z</time>
      </trkpt>
      <trkpt lat="45.19885" lon="5.72542">
        <ele>500.381</ele>
        <time>2021-08-07T04:02:10Z</time>
      </trkpt>
      <trkpt lat="45.19883" lon="5.72549">
        <ele>503.216</ele>
        <time>2021-08-07T04:02:17Z</time>
      </trkpt>
      <trkpt lat="45.19882" lon="5.72551">
        <ele>503.244</ele>
        <time>2021-08-07T04:02:19Z</time>
      </trkpt>
      <trkpt lat="45.19879" lon="5.72566">
        <ele>503.564</ele>
        <time>2021-08-07T04:02:26Z</time>
      </trkpt>
      <trkpt lat="45.19878" lon="5.72566">
        <ele>503.359</ele>
        <time>2021-08-07T04:02:27Z</time>
      </trkpt>
      <trkpt lat="45.19875" lon="5.72549">
        <ele>503.485</ele>
        <time>2021-08-07T04:02:34Z</time>
      </trkpt>
      <trkpt lat="45.19873" lon="5.72539">
        <ele>503.226</ele>
        <time>2021-08-07T04:02:37Z</time>
      </trkpt>
      <trkpt lat="45.1987" lon="5.72516">
        <ele>503.525</ele>
        <time>2021-08-07T04:02:44Z</time>
      </trkpt>
      <trkpt lat="45.19869" lon="5.72509">
        <ele>503.143</ele>
        <time>2021-08-07T04:02:46Z</time>
      </trkpt>
      <trkpt lat="45.1987" lon="5.72502">
        <ele>503.244</ele>
        <time>2021-08-07T04:02:50Z</time>
      </trkpt>
      <trkpt lat="45.19871" lon="5.72512">
        <ele>503.377</ele>
        <time>2021-08-07T04:02:54Z</time>
      </trkpt>
      <trkpt lat="45.19872" lon="5.72532">
        <ele>502.85</ele>
        <time>2021-08-07T04:03:00Z</time>
      </trkpt>
      <trkpt lat="45.19875" lon="5.72547">
        <ele>503.138</ele>
        <time>2021-08-07T04:03:06Z</time>
      </trkpt>
      <trkpt lat="45.19877" lon="5.72544">
        <ele>501.738</ele>
        <time>2021-08-07T04:03:10Z</time>
      </trkpt>
      <trkpt lat="45.19877" lon="5.72542">
        <ele>501.188</ele>
        <time>2021-08-07T04:03:12Z</time>
      </trkpt>
      <trkpt lat="45.19877" lon="5.72532">
        <ele>498.634</ele>
        <time>2021-08-07T04:03:19Z</time>
      </trkpt>
      <trkpt lat="45.19877" lon="5.72519">
        <ele>498.068</ele>
        <time>2021-08-07T04:03:24Z</time>
      </trkpt>
      <trkpt lat="45.19876" lon="5.72511">
        <ele>498.198</ele>
        <time>2021-08-07T04:03:26Z</time>
      </trkpt>
      <trkpt lat="45.1988" lon="5.72488">
        <ele>498.164</ele>
        <time>2021-08-07T04:03:32Z</time>
      </trkpt>
      <trkpt lat="45.19879" lon="5.72487">
        <ele>497.277</ele>
        <time>2021-08-07T04:03:37Z</time>
      </trkpt>
      <trkpt lat="45.19879" lon="5.72486">
        <ele>495.643</ele>
        <time>2021-08-07T04:03:40Z</time>
      </trkpt>
      <trkpt lat="45.19871" lon="5.72487">
        <ele>492.255</ele>
        <time>2021-08-07T04:03:47Z</time>
      </trkpt>
      <trkpt lat="45.19863" lon="5.72483">
        <ele>488.436</ele>
        <time>2021-08-07T04:03:52Z</time>
      </trkpt>
      <trkpt lat="45.19862" lon="5.72482">
        <ele>488.471</ele>
        <time>2021-08-07T04:03:53Z</time>
      </trkpt>
      <trkpt lat="45.19864" lon="5.72477">
        <ele>487.343</ele>
        <time>2021-08-07T04:04:00Z</time>
      </trkpt>
      <trkpt lat="45.19874" lon="5.72475">
        <ele>488.102</ele>
        <time>2021-08-07T04:04:04Z</time>
      </trkpt>
      <trkpt lat="45.19888" lon="5.72467">
        <ele>488.162</ele>
        <time>2021-08-07T04:04:11Z</time>
      </trkpt>
      <trkpt lat="45.19889" lon="5.72464">
        <ele>488.186</ele>
        <time>2021-08-07T04:04:16Z</time>
      </trkpt>
      <trkpt lat="45.19898" lon="5.72442">
        <ele>487.265</ele>
        <time>2021-08-07T04:04:22Z</time>
      </trkpt>
      <trkpt lat="45.19901" lon="5.7244">
        <ele>486.435</ele>
        <time>2021-08-07T04:04:23Z</time>
      </trkpt>
      <trkpt lat="45.19906" lon="5.72436">
        <ele>485.631</ele>
        <time>2021-08-07T04:04:25Z</time>
      </trkpt>
      <trkpt lat="45.19921" lon="5.72427">
        <ele>484.344</ele>
        <time>2021-08-07T04:04:31Z</time>
      </trkpt>
      <trkpt lat="45.19937" lon="5.7242">
        <ele>484.276</ele>
        <time>2021-08-07T04:04:37Z</time>
      </trkpt>
      <trkpt lat="45.19957" lon="5.72419">
        <ele>484.183</ele>
        <time>2021-08-07T04:04:44Z</time>
      </trkpt>
      <trkpt lat="45.19972" lon="5.72421">
        <ele>485.488</ele>
        <time>2021-08-07T04:04:51Z</time>
      </trkpt>
      <trkpt lat="45.19979" lon="5.72422">
        <ele>486.812</ele>
        <time>2021-08-07T04:04:54Z</time>
      </trkpt>
      <trkpt lat="45.19988" lon="5.72424">
        <ele>488.026</ele>
        <time>2021-08-07T04:04:59Z</time>
      </trkpt>
      <trkpt lat="45.20004" lon="5.72424">
        <ele>489.444</ele>
        <time>2021-08-07T04:05:06Z</time>
      </trkpt>
      <trkpt lat="45.20014" lon="5.72426">
        <ele>490.972</ele>
        <time>2021-08-07T04:05:12Z</time>
      </trkpt>
      <trkpt lat="45.20016" lon="5.72425">
        <ele>491.251</ele>
        <time>2021-08-07T04:05:13Z</time>
      </trkpt>
      <trkpt lat="45.20034" lon="5.72427">
        <ele>492.925</ele>
        <time>2021-08-07T04:05:21Z</time>
      </trkpt>
      <trkpt lat="45.20046" lon="5.72428">
        <ele>495.677</ele>
        <time>2021-08-07T04:05:28Z</time>
      </trkpt>
      <trkpt lat="45.2006" lon="5.72431">
        <ele>496.94</ele>
        <time>2021-08-07T04:05:35Z</time>
      </trkpt>
      <trkpt lat="45.20071" lon="5.72446">
        <ele>498.614</ele>
        <time>2021-08-07T04:05:43Z</time>
      </trkpt>
      <trkpt lat="45.20075" lon="5.72467">
        <ele>499.514</ele>
        <time>2021-08-07T04:05:51Z</time>
      </trkpt>
      <trkpt lat="45.20078" lon="5.72478">
        <ele>500.093</ele>
        <time>2021-08-07T04:05:55Z</time>
      </trkpt>
      <trkpt lat="45.20075" lon="5.72492">
        <ele>500.376</ele>
        <time>2021-08-07T04:05:59Z</time>
      </trkpt>
      <trkpt lat="45.20066" lon="5.72515">
        <ele>501.676</ele>
        <time>2021-08-07T04:06:06Z</time>
      </trkpt>
      <trkpt lat="45.20065" lon="5.72529">
        <ele>501.665</ele>
        <time>2021-08-07T04:06:10Z</time>
      </trkpt>
      <trkpt lat="45.20078" lon="5.72543">
        <ele>502.122</ele>
        <time>2021-08-07T04:06:16Z</time>
      </trkpt>
      <trkpt lat="45.2009" lon="5.72544">
        <ele>505.022</ele>
        <time>2021-08-07T04:06:22Z</time>
      </trkpt>
      <trkpt lat="45.20096" lon="5.72545">
        <ele>506.266</ele>
        <time>2021-08-07T04:06:26Z</time>
      </trkpt>
      <trkpt lat="45.20107" lon="5.72542">
        <ele>508.867</ele>
        <time>2021-08-07T04:06:33Z</time>
      </trkpt>
      <trkpt lat="45.20108" lon="5.72542">
        <ele>509.229</ele>
        <time>2021-08-07T04:06:34Z</time>
      </trkpt>
      <trkpt lat="45.20114" lon="5.72545">
        <ele>509.936</ele>
        <time>2021-08-07T04:06:38Z</time>
      </trkpt>
      <trkpt lat="45.20116" lon="5.72543">
        <ele>510.285</ele>
        <time>2021-08-07T04:06:40Z</time>
      </trkpt>
      <trkpt lat="45.20112" lon="5.72531">
        <ele>511.392</ele>
        <time>2021-08-07T04:06:47Z</time>
      </trkpt>
      <trkpt lat="45.20112" lon="5.72521">
        <ele>512.821</ele>
        <time>2021-08-07T04:06:53Z</time>
      </trkpt>
      <trkpt lat="45.20116" lon="5.72511">
        <ele>515.136</ele>
        <time>2021-08-07T04:07:00Z</time>
      </trkpt>
      <trkpt lat="45.20123" lon="5.725">
        <ele>517.357</ele>
        <time>2021-08-07T04:07:08Z</time>
      </trkpt>
      <trkpt lat="45.20129" lon="5.72491">
        <ele>519.406</ele>
        <time>2021-08-07T04:07:15Z</time>
      </trkpt>
      <trkpt lat="45.20132" lon="5.72482">
        <ele>521.78</ele>
        <time>2021-08-07T04:07:22Z</time>
      </trkpt>
      <trkpt lat="45.20137" lon="5.72469">
        <ele>524.243</ele>
        <time>2021-08-07T04:07:30Z</time>
      </trkpt>
      <trkpt lat="45.2014" lon="5.72476">
        <ele>525.911</ele>
        <time>2021-08-07T04:07:37Z</time>
      </trkpt>
      <trkpt lat="45.20143" lon="5.72479">
        <ele>528.618</ele>
        <time>2021-08-07T04:07:44Z</time>
      </trkpt>
      <trkpt lat="45.20148" lon="5.72482">
        <ele>530.762</ele>
        <time>2021-08-07T04:07:51Z</time>
      </trkpt>
      <trkpt lat="45.20153" lon="5.7248">
        <ele>532.957</ele>
        <time>2021-08-07T04:07:59Z</time>
      </trkpt>
      <trkpt lat="45.20156" lon="5.72473">
        <ele>535.103</ele>
        <time>2021-08-07T04:08:06Z</time>
      </trkpt>
      <trkpt lat="45.20161" lon="5.72472">
        <ele>537.238</ele>
        <time>2021-08-07T04:08:13Z</time>
      </trkpt>
      <trkpt lat="45.20167" lon="5.72479">
        <ele>539.521</ele>
        <time>2021-08-07T04:08:22Z</time>
      </trkpt>
      <trkpt lat="45.2017" lon="5.72485">
        <ele>541.575</ele>
        <time>2021-08-07T04:08:29Z</time>
      </trkpt>
      <trkpt lat="45.20175" lon="5.7249">
        <ele>542.445</ele>
        <time>2021-08-07T04:08:34Z</time>
      </trkpt>
      <trkpt lat="45.20185" lon="5.72495">
        <ele>545.291</ele>
        <time>2021-08-07T04:08:43Z</time>
      </trkpt>
      <trkpt lat="45.20187" lon="5.72502">
        <ele>546.294</ele>
        <time>2021-08-07T04:08:48Z</time>
      </trkpt>
      <trkpt lat="45.20197" lon="5.7251">
        <ele>548.654</ele>
        <time>2021-08-07T04:08:56Z</time>
      </trkpt>
      <trkpt lat="45.20204" lon="5.72519">
        <ele>550.216</ele>
        <time>2021-08-07T04:09:03Z</time>
      </trkpt>
      <trkpt lat="45.20212" lon="5.72524">
        <ele>552.06</ele>
        <time>2021-08-07T04:09:11Z</time>
      </trkpt>
      <trkpt lat="45.20218" lon="5.72525">
        <ele>553.832</ele>
        <time>2021-08-07T04:09:17Z</time>
      </trkpt>
      <trkpt lat="45.20225" lon="5.72522">
        <ele>555.365</ele>
        <time>2021-08-07T04:09:24Z</time>
      </trkpt>
      <trkpt lat="45.20232" lon="5.72524">
        <ele>557.332</ele>
        <time>2021-08-07T04:09:31Z</time>
      </trkpt>
      <trkpt lat="45.20234" lon="5.72521">
        <ele>557.835</ele>
        <time>2021-08-07T04:09:35Z</time>
      </trkpt>
      <trkpt lat="45.2024" lon="5.7252">
        <ele>559.909</ele>
        <time>2021-08-07T04:09:41Z</time>
      </trkpt>
      <trkpt lat="45.20243" lon="5.7252">
        <ele>560.616</ele>
        <time>2021-08-07T04:09:46Z</time>
      </trkpt>
      <trkpt lat="45.2025" lon="5.72519">
        <ele>562.716</ele>
        <time>2021-08-07T04:09:54Z</time>
      </trkpt>
      <trkpt lat="45.20262" lon="5.7252">
        <ele>565.852</ele>
        <time>2021-08-07T04:10:05Z</time>
      </trkpt>
      <trkpt lat="45.20268" lon="5.72517">
        <ele>567.866</ele>
        <time>2021-08-07T04:10:11Z</time>
      </trkpt>
      <trkpt lat="45.20278" lon="5.72518">
        <ele>569.216</ele>
        <time>2021-08-07T04:10:19Z</time>
      </trkpt>
      <trkpt lat="45.20287" lon="5.72521">
        <ele>571.284</ele>
        <time>2021-08-07T04:10:27Z</time>
      </trkpt>
      <trkpt lat="45.20298" lon="5.7252">
        <ele>573.451</ele>
        <time>2021-08-07T04:10:34Z</time>
      </trkpt>
      <trkpt lat="45.20299" lon="5.72519">
        <ele>573.265</ele>
        <time>2021-08-07T04:10:35Z</time>
      </trkpt>
      <trkpt lat="45.20308" lon="5.72519">
        <ele>574.678</ele>
        <time>2021-08-07T04:10:42Z</time>
      </trkpt>
      <trkpt lat="45.20314" lon="5.7252">
        <ele>575.863</ele>
        <time>2021-08-07T04:10:48Z</time>
      </trkpt>
      <trkpt lat="45.20322" lon="5.72519">
        <ele>578.321</ele>
        <time>2021-08-07T04:10:55Z</time>
      </trkpt>
      <trkpt lat="45.20326" lon="5.72519">
        <ele>580.414</ele>
        <time>2021-08-07T04:11:01Z</time>
      </trkpt>
      <trkpt lat="45.20335" lon="5.72519">
        <ele>583.422</ele>
        <time>2021-08-07T04:11:13Z</time>
      </trkpt>
      <trkpt lat="45.20344" lon="5.72519">
        <ele>586.525</ele>
        <time>2021-08-07T04:11:28Z</time>
      </trkpt>
      <trkpt lat="45.20351" lon="5.72522">
        <ele>588.784</ele>
        <time>2021-08-07T04:11:35Z</time>
      </trkpt>
      <trkpt lat="45.20353" lon="5.72522">
        <ele>590.593</ele>
        <time>2021-08-07T04:11:40Z</time>
      </trkpt>
      <trkpt lat="45.20356" lon="5.72519">
        <ele>591.921</ele>
        <time>2021-08-07T04:11:45Z</time>
      </trkpt>
      <trkpt lat="45.20358" lon="5.72521">
        <ele>595.369</ele>
        <time>2021-08-07T04:11:53Z</time>
      </trkpt>
      <trkpt lat="45.20366" lon="5.72523">
        <ele>596.629</ele>
        <time>2021-08-07T04:12:02Z</time>
      </trkpt>
      <trkpt lat="45.20375" lon="5.72526">
        <ele>597.423</ele>
        <time>2021-08-07T04:12:08Z</time>
      </trkpt>
      <trkpt lat="45.20378" lon="5.72533">
        <ele>598.241</ele>
        <time>2021-08-07T04:12:13Z</time>
      </trkpt>
      <trkpt lat="45.20384" lon="5.72537">
        <ele>601.174</ele>
        <time>2021-08-07T04:12:25Z</time>
      </trkpt>
      <trkpt lat="45.2039" lon="5.72543">
        <ele>603.435</ele>
        <time>2021-08-07T04:12:31Z</time>
      </trkpt>
      <trkpt lat="45.20395" lon="5.7254">
        <ele>605.547</ele>
        <time>2021-08-07T04:12:38Z</time>
      </trkpt>
      <trkpt lat="45.20397" lon="5.72537">
        <ele>606.957</ele>
        <time>2021-08-07T04:12:41Z</time>
      </trkpt>
      <trkpt lat="45.204" lon="5.72536">
        <ele>607.311</ele>
        <time>2021-08-07T04:12:44Z</time>
      </trkpt>
      <trkpt lat="45.20406" lon="5.72539">
        <ele>609.223</ele>
        <time>2021-08-07T04:12:52Z</time>
      </trkpt>
      <trkpt lat="45.2041" lon="5.72536">
        <ele>610.931</ele>
        <time>2021-08-07T04:12:57Z</time>
      </trkpt>
      <trkpt lat="45.20412" lon="5.72532">
        <ele>612.893</ele>
        <time>2021-08-07T04:13:05Z</time>
      </trkpt>
      <trkpt lat="45.20415" lon="5.72531">
        <ele>614.16</ele>
        <time>2021-08-07T04:13:07Z</time>
      </trkpt>
      <trkpt lat="45.20421" lon="5.72526">
        <ele>616.148</ele>
        <time>2021-08-07T04:13:13Z</time>
      </trkpt>
      <trkpt lat="45.20422" lon="5.7252">
        <ele>617.158</ele>
        <time>2021-08-07T04:13:19Z</time>
      </trkpt>
      <trkpt lat="45.20427" lon="5.72516">
        <ele>618.648</ele>
        <time>2021-08-07T04:13:25Z</time>
      </trkpt>
      <trkpt lat="45.20432" lon="5.72516">
        <ele>620.283</ele>
        <time>2021-08-07T04:13:30Z</time>
      </trkpt>
      <trkpt lat="45.20436" lon="5.72518">
        <ele>622.26</ele>
        <time>2021-08-07T04:13:36Z</time>
      </trkpt>
      <trkpt lat="45.20439" lon="5.72514">
        <ele>624.48</ele>
        <time>2021-08-07T04:13:42Z</time>
      </trkpt>
      <trkpt lat="45.2044" lon="5.72514">
        <ele>624.931</ele>
        <time>2021-08-07T04:13:43Z</time>
      </trkpt>
      <trkpt lat="45.20446" lon="5.72514">
        <ele>625.548</ele>
        <time>2021-08-07T04:13:47Z</time>
      </trkpt>
      <trkpt lat="45.20457" lon="5.72526">
        <ele>627.081</ele>
        <time>2021-08-07T04:13:56Z</time>
      </trkpt>
      <trkpt lat="45.20462" lon="5.72536">
        <ele>627.688</ele>
        <time>2021-08-07T04:14:02Z</time>
      </trkpt>
      <trkpt lat="45.2047" lon="5.72547">
        <ele>628.428</ele>
        <time>2021-08-07T04:14:10Z</time>
      </trkpt>
      <trkpt lat="45.20474" lon="5.72555">
        <ele>630.003</ele>
        <time>2021-08-07T04:14:15Z</time>
      </trkpt>
      <trkpt lat="45.20478" lon="5.72561">
        <ele>630.586</ele>
        <time>2021-08-07T04:14:19Z</time>
      </trkpt>
      <trkpt lat="45.2048" lon="5.72564">
        <ele>631.328</ele>
        <time>2021-08-07T04:14:21Z</time>
      </trkpt>
      <trkpt lat="45.2049" lon="5.72556">
        <ele>632.51</ele>
        <time>2021-08-07T04:14:29Z</time>
      </trkpt>
      <trkpt lat="45.20486" lon="5.72546">
        <ele>634.408</ele>
        <time>2021-08-07T04:14:35Z</time>
      </trkpt>
      <trkpt lat="45.20487" lon="5.72542">
        <ele>634.713</ele>
        <time>2021-08-07T04:14:37Z</time>
      </trkpt>
      <trkpt lat="45.20484" lon="5.72525">
        <ele>636.785</ele>
        <time>2021-08-07T04:14:45Z</time>
      </trkpt>
      <trkpt lat="45.20485" lon="5.72505">
        <ele>637.276</ele>
        <time>2021-08-07T04:14:53Z</time>
      </trkpt>
      <trkpt lat="45.20484" lon="5.72502">
        <ele>637.808</ele>
        <time>2021-08-07T04:14:54Z</time>
      </trkpt>
      <trkpt lat="45.20479" lon="5.7249">
        <ele>637.02</ele>
        <time>2021-08-07T04:14:59Z</time>
      </trkpt>
      <trkpt lat="45.20468" lon="5.72488">
        <ele>636.447</ele>
        <time>2021-08-07T04:15:04Z</time>
      </trkpt>
      <trkpt lat="45.20454" lon="5.72482">
        <ele>636.994</ele>
        <time>2021-08-07T04:15:11Z</time>
      </trkpt>
      <trkpt lat="45.20452" lon="5.72481">
        <ele>637.325</ele>
        <time>2021-08-07T04:15:12Z</time>
      </trkpt>
      <trkpt lat="45.20441" lon="5.72473">
        <ele>637.06</ele>
        <time>2021-08-07T04:15:19Z</time>
      </trkpt>
      <trkpt lat="45.2043" lon="5.72468">
        <ele>636.029</ele>
        <time>2021-08-07T04:15:26Z</time>
      </trkpt>
      <trkpt lat="45.20412" lon="5.72451">
        <ele>636.49</ele>
        <time>2021-08-07T04:15:34Z</time>
      </trkpt>
      <trkpt lat="45.2041" lon="5.72448">
        <ele>636.286</ele>
        <time>2021-08-07T04:15:35Z</time>
      </trkpt>
      <trkpt lat="45.20405" lon="5.72445">
        <ele>637.828</ele>
        <time>2021-08-07T04:15:38Z</time>
      </trkpt>
      <trkpt lat="45.20403" lon="5.72441">
        <ele>639.355</ele>
        <time>2021-08-07T04:15:44Z</time>
      </trkpt>
      <trkpt lat="45.20401" lon="5.72439">
        <ele>639.509</ele>
        <time>2021-08-07T04:15:47Z</time>
      </trkpt>
      <trkpt lat="45.20392" lon="5.72442">
        <ele>640.959</ele>
        <time>2021-08-07T04:15:53Z</time>
      </trkpt>
      <trkpt lat="45.20386" lon="5.72433">
        <ele>640.652</ele>
        <time>2021-08-07T04:16:00Z</time>
      </trkpt>
      <trkpt lat="45.20393" lon="5.72428">
        <ele>641.578</ele>
        <time>2021-08-07T04:16:06Z</time>
      </trkpt>
      <trkpt lat="45.20397" lon="5.72427">
        <ele>642.239</ele>
        <time>2021-08-07T04:16:08Z</time>
      </trkpt>
      <trkpt lat="45.204" lon="5.72416">
        <ele>642.731</ele>
        <time>2021-08-07T04:16:15Z</time>
      </trkpt>
      <trkpt lat="45.20402" lon="5.72424">
        <ele>642.646</ele>
        <time>2021-08-07T04:16:20Z</time>
      </trkpt>
      <trkpt lat="45.20408" lon="5.72428">
        <ele>642.829</ele>
        <time>2021-08-07T04:16:24Z</time>
      </trkpt>
      <trkpt lat="45.20421" lon="5.72426">
        <ele>641.894</ele>
        <time>2021-08-07T04:16:32Z</time>
      </trkpt>
      <trkpt lat="45.20426" lon="5.72421">
        <ele>641.198</ele>
        <time>2021-08-07T04:16:36Z</time>
      </trkpt>
      <trkpt lat="45.20434" lon="5.7242">
        <ele>641.424</ele>
        <time>2021-08-07T04:16:42Z</time>
      </trkpt>
      <trkpt lat="45.20443" lon="5.72422">
        <ele>641.594</ele>
        <time>2021-08-07T04:16:47Z</time>
      </trkpt>
      <trkpt lat="45.20446" lon="5.72424">
        <ele>641.618</ele>
        <time>2021-08-07T04:16:49Z</time>
      </trkpt>
      <trkpt lat="45.20457" lon="5.72429">
        <ele>642.311</ele>
        <time>2021-08-07T04:16:55Z</time>
      </trkpt>
      <trkpt lat="45.20474" lon="5.72433">
        <ele>642.04</ele>
        <time>2021-08-07T04:17:02Z</time>
      </trkpt>
      <trkpt lat="45.20481" lon="5.72428">
        <ele>642.711</ele>
        <time>2021-08-07T04:17:05Z</time>
      </trkpt>
      <trkpt lat="45.2049" lon="5.72434">
        <ele>643.095</ele>
        <time>2021-08-07T04:17:11Z</time>
      </trkpt>
      <trkpt lat="45.20503" lon="5.7244">
        <ele>643.531</ele>
        <time>2021-08-07T04:17:19Z</time>
      </trkpt>
      <trkpt lat="45.20513" lon="5.72441">
        <ele>644.181</ele>
        <time>2021-08-07T04:17:25Z</time>
      </trkpt>
      <trkpt lat="45.20518" lon="5.72445">
        <ele>643.497</ele>
        <time>2021-08-07T04:17:29Z</time>
      </trkpt>
      <trkpt lat="45.20519" lon="5.72447">
        <ele>643.569</ele>
        <time>2021-08-07T04:17:31Z</time>
      </trkpt>
      <trkpt lat="45.20525" lon="5.72448">
        <ele>643.159</ele>
        <time>2021-08-07T04:17:35Z</time>
      </trkpt>
      <trkpt lat="45.20533" lon="5.72455">
        <ele>641.546</ele>
        <time>2021-08-07T04:17:42Z</time>
      </trkpt>
      <trkpt lat="45.20543" lon="5.72463">
        <ele>640.709</ele>
        <time>2021-08-07T04:17:49Z</time>
      </trkpt>
      <trkpt lat="45.2055" lon="5.72472">
        <ele>640.509</ele>
        <time>2021-08-07T04:17:55Z</time>
      </trkpt>
      <trkpt lat="45.20558" lon="5.72479">
        <ele>640.854</ele>
        <time>2021-08-07T04:18:01Z</time>
      </trkpt>
      <trkpt lat="45.20564" lon="5.72485">
        <ele>641.19</ele>
        <time>2021-08-07T04:18:06Z</time>
      </trkpt>
      <trkpt lat="45.20566" lon="5.72489">
        <ele>641.359</ele>
        <time>2021-08-07T04:18:08Z</time>
      </trkpt>
      <trkpt lat="45.20572" lon="5.72508">
        <ele>641.074</ele>
        <time>2021-08-07T04:18:16Z</time>
      </trkpt>
      <trkpt lat="45.20574" lon="5.72513">
        <ele>641.221</ele>
        <time>2021-08-07T04:18:18Z</time>
      </trkpt>
      <trkpt lat="45.20577" lon="5.72522">
        <ele>641.614</ele>
        <time>2021-08-07T04:18:22Z</time>
      </trkpt>
      <trkpt lat="45.20577" lon="5.72545">
        <ele>640.661</ele>
        <time>2021-08-07T04:18:31Z</time>
      </trkpt>
      <trkpt lat="45.20578" lon="5.72552">
        <ele>639.816</ele>
        <time>2021-08-07T04:18:34Z</time>
      </trkpt>
      <trkpt lat="45.2058" lon="5.72562">
        <ele>639.046</ele>
        <time>2021-08-07T04:18:38Z</time>
      </trkpt>
      <trkpt lat="45.20585" lon="5.72576">
        <ele>640.188</ele>
        <time>2021-08-07T04:18:45Z</time>
      </trkpt>
      <trkpt lat="45.20595" lon="5.72585">
        <ele>640.374</ele>
        <time>2021-08-07T04:18:50Z</time>
      </trkpt>
      <trkpt lat="45.20597" lon="5.72586">
        <ele>640.86</ele>
        <time>2021-08-07T04:18:51Z</time>
      </trkpt>
      <trkpt lat="45.20609" lon="5.72597">
        <ele>642.167</ele>
        <time>2021-08-07T04:18:58Z</time>
      </trkpt>
      <trkpt lat="45.20627" lon="5.72604">
        <ele>643.458</ele>
        <time>2021-08-07T04:19:06Z</time>
      </trkpt>
      <trkpt lat="45.20629" lon="5.72604">
        <ele>644.004</ele>
        <time>2021-08-07T04:19:07Z</time>
      </trkpt>
      <trkpt lat="45.20642" lon="5.72602">
        <ele>644.78</ele>
        <time>2021-08-07T04:19:14Z</time>
      </trkpt>
      <trkpt lat="45.20658" lon="5.7259">
        <ele>645.986</ele>
        <time>2021-08-07T04:19:23Z</time>
      </trkpt>
      <trkpt lat="45.20663" lon="5.72586">
        <ele>646.28</ele>
        <time>2021-08-07T04:19:26Z</time>
      </trkpt>
      <trkpt lat="45.20673" lon="5.72574">
        <ele>648.727</ele>
        <time>2021-08-07T04:19:34Z</time>
      </trkpt>
      <trkpt lat="45.20684" lon="5.72569">
        <ele>650.473</ele>
        <time>2021-08-07T04:19:41Z</time>
      </trkpt>
      <trkpt lat="45.20694" lon="5.72565">
        <ele>652.481</ele>
        <time>2021-08-07T04:19:48Z</time>
      </trkpt>
      <trkpt lat="45.20698" lon="5.72569">
        <ele>652.577</ele>
        <time>2021-08-07T04:19:54Z</time>
      </trkpt>
      <trkpt lat="45.20706" lon="5.72574">
        <ele>653.666</ele>
        <time>2021-08-07T04:20:02Z</time>
      </trkpt>
      <trkpt lat="45.20716" lon="5.72574">
        <ele>655.834</ele>
        <time>2021-08-07T04:20:10Z</time>
      </trkpt>
      <trkpt lat="45.20722" lon="5.72578">
        <ele>658.08</ele>
        <time>2021-08-07T04:20:17Z</time>
      </trkpt>
      <trkpt lat="45.20725" lon="5.7258">
        <ele>659.458</ele>
        <time>2021-08-07T04:20:20Z</time>
      </trkpt>
      <trkpt lat="45.20732" lon="5.72582">
        <ele>661.566</ele>
        <time>2021-08-07T04:20:27Z</time>
      </trkpt>
      <trkpt lat="45.20733" lon="5.72583">
        <ele>661.422</ele>
        <time>2021-08-07T04:20:28Z</time>
      </trkpt>
      <trkpt lat="45.20738" lon="5.72594">
        <ele>662.571</ele>
        <time>2021-08-07T04:20:33Z</time>
      </trkpt>
      <trkpt lat="45.2074" lon="5.72606">
        <ele>664.986</ele>
        <time>2021-08-07T04:20:42Z</time>
      </trkpt>
      <trkpt lat="45.20741" lon="5.72613">
        <ele>667.113</ele>
        <time>2021-08-07T04:20:49Z</time>
      </trkpt>
      <trkpt lat="45.20749" lon="5.7261">
        <ele>668.568</ele>
        <time>2021-08-07T04:20:57Z</time>
      </trkpt>
      <trkpt lat="45.20756" lon="5.72608">
        <ele>670.989</ele>
        <time>2021-08-07T04:21:04Z</time>
      </trkpt>
      <trkpt lat="45.20763" lon="5.72606">
        <ele>672.467</ele>
        <time>2021-08-07T04:21:11Z</time>
      </trkpt>
      <trkpt lat="45.20769" lon="5.72613">
        <ele>674.66</ele>
        <time>2021-08-07T04:21:19Z</time>
      </trkpt>
      <trkpt lat="45.20769" lon="5.72614">
        <ele>674.791</ele>
        <time>2021-08-07T04:21:20Z</time>
      </trkpt>
      <trkpt lat="45.20771" lon="5.72626">
        <ele>676.52</ele>
        <time>2021-08-07T04:21:27Z</time>
      </trkpt>
      <trkpt lat="45.20771" lon="5.7264">
        <ele>679.026</ele>
        <time>2021-08-07T04:21:35Z</time>
      </trkpt>
      <trkpt lat="45.20772" lon="5.72645">
        <ele>679.994</ele>
        <time>2021-08-07T04:21:40Z</time>
      </trkpt>
      <trkpt lat="45.20775" lon="5.72646">
        <ele>681.57</ele>
        <time>2021-08-07T04:21:43Z</time>
      </trkpt>
      <trkpt lat="45.20782" lon="5.72642">
        <ele>683.037</ele>
        <time>2021-08-07T04:21:52Z</time>
      </trkpt>
      <trkpt lat="45.20784" lon="5.72641">
        <ele>684.071</ele>
        <time>2021-08-07T04:21:54Z</time>
      </trkpt>
      <trkpt lat="45.20791" lon="5.72637">
        <ele>684.817</ele>
        <time>2021-08-07T04:22:01Z</time>
      </trkpt>
      <trkpt lat="45.20795" lon="5.72627">
        <ele>686.182</ele>
        <time>2021-08-07T04:22:08Z</time>
      </trkpt>
      <trkpt lat="45.20798" lon="5.72625">
        <ele>688.326</ele>
        <time>2021-08-07T04:22:14Z</time>
      </trkpt>
      <trkpt lat="45.20799" lon="5.72627">
        <ele>688.485</ele>
        <time>2021-08-07T04:22:15Z</time>
      </trkpt>
      <trkpt lat="45.208" lon="5.72629">
        <ele>688.943</ele>
        <time>2021-08-07T04:22:17Z</time>
      </trkpt>
      <trkpt lat="45.20803" lon="5.72634">
        <ele>690.098</ele>
        <time>2021-08-07T04:22:21Z</time>
      </trkpt>
      <trkpt lat="45.20806" lon="5.72643">
        <ele>692.163</ele>
        <time>2021-08-07T04:22:29Z</time>
      </trkpt>
      <trkpt lat="45.20807" lon="5.72654">
        <ele>694.307</ele>
        <time>2021-08-07T04:22:38Z</time>
      </trkpt>
      <trkpt lat="45.20807" lon="5.72661">
        <ele>696.405</ele>
        <time>2021-08-07T04:22:44Z</time>
      </trkpt>
      <trkpt lat="45.20811" lon="5.72666">
        <ele>698.199</ele>
        <time>2021-08-07T04:22:51Z</time>
      </trkpt>
      <trkpt lat="45.20811" lon="5.72666">
        <ele>698.24</ele>
        <time>2021-08-07T04:22:52Z</time>
      </trkpt>
      <trkpt lat="45.20821" lon="5.72664">
        <ele>699.853</ele>
        <time>2021-08-07T04:23:00Z</time>
      </trkpt>
      <trkpt lat="45.20825" lon="5.72659">
        <ele>701.761</ele>
        <time>2021-08-07T04:23:07Z</time>
      </trkpt>
      <trkpt lat="45.20829" lon="5.72659">
        <ele>703.004</ele>
        <time>2021-08-07T04:23:14Z</time>
      </trkpt>
      <trkpt lat="45.20833" lon="5.72665">
        <ele>704.211</ele>
        <time>2021-08-07T04:23:21Z</time>
      </trkpt>
      <trkpt lat="45.20835" lon="5.72676">
        <ele>706.948</ele>
        <time>2021-08-07T04:23:30Z</time>
      </trkpt>
      <trkpt lat="45.20836" lon="5.72688">
        <ele>709.37</ele>
        <time>2021-08-07T04:23:39Z</time>
      </trkpt>
      <trkpt lat="45.20837" lon="5.72693">
        <ele>712.33</ele>
        <time>2021-08-07T04:23:46Z</time>
      </trkpt>
      <trkpt lat="45.20842" lon="5.7269">
        <ele>712.953</ele>
        <time>2021-08-07T04:23:52Z</time>
      </trkpt>
      <trkpt lat="45.20847" lon="5.72687">
        <ele>714.363</ele>
        <time>2021-08-07T04:23:59Z</time>
      </trkpt>
      <trkpt lat="45.20856" lon="5.72683">
        <ele>715.852</ele>
        <time>2021-08-07T04:24:07Z</time>
      </trkpt>
      <trkpt lat="45.20859" lon="5.72683">
        <ele>716.532</ele>
        <time>2021-08-07T04:24:10Z</time>
      </trkpt>
      <trkpt lat="45.20868" lon="5.72681">
        <ele>718.979</ele>
        <time>2021-08-07T04:24:18Z</time>
      </trkpt>
      <trkpt lat="45.20873" lon="5.72676">
        <ele>719.335</ele>
        <time>2021-08-07T04:24:24Z</time>
      </trkpt>
      <trkpt lat="45.20884" lon="5.72672">
        <ele>721.088</ele>
        <time>2021-08-07T04:24:31Z</time>
      </trkpt>
      <trkpt lat="45.2089" lon="5.72671">
        <ele>722.595</ele>
        <time>2021-08-07T04:24:37Z</time>
      </trkpt>
      <trkpt lat="45.20896" lon="5.7267">
        <ele>724.248</ele>
        <time>2021-08-07T04:24:43Z</time>
      </trkpt>
      <trkpt lat="45.20904" lon="5.72667">
        <ele>726.403</ele>
        <time>2021-08-07T04:24:49Z</time>
      </trkpt>
      <trkpt lat="45.20911" lon="5.72669">
        <ele>728.743</ele>
        <time>2021-08-07T04:24:57Z</time>
      </trkpt>
      <trkpt lat="45.20914" lon="5.72671">
        <ele>730.205</ele>
        <time>2021-08-07T04:25:00Z</time>
      </trkpt>
      <trkpt lat="45.20914" lon="5.72673">
        <ele>730.208</ele>
        <time>2021-08-07T04:25:01Z</time>
      </trkpt>
      <trkpt lat="45.20918" lon="5.72677">
        <ele>731.509</ele>
        <time>2021-08-07T04:25:04Z</time>
      </trkpt>
      <trkpt lat="45.20927" lon="5.72682">
        <ele>732.719</ele>
        <time>2021-08-07T04:25:12Z</time>
      </trkpt>
      <trkpt lat="45.20933" lon="5.7269">
        <ele>733.834</ele>
        <time>2021-08-07T04:25:18Z</time>
      </trkpt>
      <trkpt lat="45.20936" lon="5.72701">
        <ele>735.726</ele>
        <time>2021-08-07T04:25:25Z</time>
      </trkpt>
      <trkpt lat="45.20946" lon="5.72706">
        <ele>738.744</ele>
        <time>2021-08-07T04:25:34Z</time>
      </trkpt>
      <trkpt lat="45.20952" lon="5.7271">
        <ele>740.288</ele>
        <time>2021-08-07T04:25:42Z</time>
      </trkpt>
      <trkpt lat="45.20959" lon="5.72718">
        <ele>742.782</ele>
        <time>2021-08-07T04:25:50Z</time>
      </trkpt>
      <trkpt lat="45.20966" lon="5.72726">
        <ele>745.272</ele>
        <time>2021-08-07T04:25:57Z</time>
      </trkpt>
      <trkpt lat="45.2097" lon="5.72734">
        <ele>746.662</ele>
        <time>2021-08-07T04:26:03Z</time>
      </trkpt>
      <trkpt lat="45.20975" lon="5.72742">
        <ele>748.665</ele>
        <time>2021-08-07T04:26:11Z</time>
      </trkpt>
      <trkpt lat="45.20978" lon="5.72749">
        <ele>751.887</ele>
        <time>2021-08-07T04:26:19Z</time>
      </trkpt>
      <trkpt lat="45.20978" lon="5.7275">
        <ele>752.156</ele>
        <time>2021-08-07T04:26:20Z</time>
      </trkpt>
      <trkpt lat="45.2098" lon="5.72753">
        <ele>753.39</ele>
        <time>2021-08-07T04:26:24Z</time>
      </trkpt>
      <trkpt lat="45.20988" lon="5.72759">
        <ele>755.265</ele>
        <time>2021-08-07T04:26:33Z</time>
      </trkpt>
      <trkpt lat="45.20988" lon="5.72751">
        <ele>757.359</ele>
        <time>2021-08-07T04:26:41Z</time>
      </trkpt>
      <trkpt lat="45.20995" lon="5.72751">
        <ele>760.025</ele>
        <time>2021-08-07T04:26:50Z</time>
      </trkpt>
      <trkpt lat="45.20999" lon="5.72745">
        <ele>761.899</ele>
        <time>2021-08-07T04:26:59Z</time>
      </trkpt>
      <trkpt lat="45.21006" lon="5.72742">
        <ele>764.918</ele>
        <time>2021-08-07T04:27:08Z</time>
      </trkpt>
      <trkpt lat="45.21011" lon="5.72739">
        <ele>766.365</ele>
        <time>2021-08-07T04:27:14Z</time>
      </trkpt>
      <trkpt lat="45.21018" lon="5.7274">
        <ele>768.361</ele>
        <time>2021-08-07T04:27:22Z</time>
      </trkpt>
      <trkpt lat="45.2102" lon="5.72739">
        <ele>769.893</ele>
        <time>2021-08-07T04:27:25Z</time>
      </trkpt>
      <trkpt lat="45.21025" lon="5.72739">
        <ele>771.234</ele>
        <time>2021-08-07T04:27:32Z</time>
      </trkpt>
      <trkpt lat="45.2103" lon="5.72739">
        <ele>773.027</ele>
        <time>2021-08-07T04:27:39Z</time>
      </trkpt>
      <trkpt lat="45.21033" lon="5.72738">
        <ele>773.881</ele>
        <time>2021-08-07T04:27:46Z</time>
      </trkpt>
      <trkpt lat="45.21038" lon="5.7274">
        <ele>774.877</ele>
        <time>2021-08-07T04:27:53Z</time>
      </trkpt>
      <trkpt lat="45.21042" lon="5.72743">
        <ele>775.586</ele>
        <time>2021-08-07T04:27:57Z</time>
      </trkpt>
      <trkpt lat="45.21045" lon="5.7276">
        <ele>776.94</ele>
        <time>2021-08-07T04:28:06Z</time>
      </trkpt>
      <trkpt lat="45.21048" lon="5.7277">
        <ele>778.124</ele>
        <time>2021-08-07T04:28:11Z</time>
      </trkpt>
      <trkpt lat="45.21058" lon="5.72788">
        <ele>778.314</ele>
        <time>2021-08-07T04:28:19Z</time>
      </trkpt>
      <trkpt lat="45.21059" lon="5.7279">
        <ele>778.472</ele>
        <time>2021-08-07T04:28:20Z</time>
      </trkpt>
      <trkpt lat="45.21067" lon="5.72804">
        <ele>778.629</ele>
        <time>2021-08-07T04:28:26Z</time>
      </trkpt>
      <trkpt lat="45.21075" lon="5.72822">
        <ele>780.481</ele>
        <time>2021-08-07T04:28:34Z</time>
      </trkpt>
      <trkpt lat="45.21081" lon="5.72831">
        <ele>781.869</ele>
        <time>2021-08-07T04:28:39Z</time>
      </trkpt>
      <trkpt lat="45.21085" lon="5.72836">
        <ele>782.655</ele>
        <time>2021-08-07T04:28:43Z</time>
      </trkpt>
      <trkpt lat="45.21088" lon="5.72839">
        <ele>782.577</ele>
        <time>2021-08-07T04:28:45Z</time>
      </trkpt>
      <trkpt lat="45.21097" lon="5.72849">
        <ele>782.855</ele>
        <time>2021-08-07T04:28:52Z</time>
      </trkpt>
      <trkpt lat="45.21105" lon="5.72858">
        <ele>785.099</ele>
        <time>2021-08-07T04:29:00Z</time>
      </trkpt>
      <trkpt lat="45.21112" lon="5.72869">
        <ele>787.504</ele>
        <time>2021-08-07T04:29:08Z</time>
      </trkpt>
      <trkpt lat="45.21117" lon="5.72875">
        <ele>787.837</ele>
        <time>2021-08-07T04:29:14Z</time>
      </trkpt>
      <trkpt lat="45.21122" lon="5.72878">
        <ele>789.068</ele>
        <time>2021-08-07T04:29:19Z</time>
      </trkpt>
      <trkpt lat="45.21131" lon="5.72883">
        <ele>791.64</ele>
        <time>2021-08-07T04:29:27Z</time>
      </trkpt>
      <trkpt lat="45.2114" lon="5.72885">
        <ele>793.467</ele>
        <time>2021-08-07T04:29:34Z</time>
      </trkpt>
      <trkpt lat="45.21141" lon="5.72885">
        <ele>793.665</ele>
        <time>2021-08-07T04:29:35Z</time>
      </trkpt>
      <trkpt lat="45.21151" lon="5.72888">
        <ele>794.883</ele>
        <time>2021-08-07T04:29:42Z</time>
      </trkpt>
      <trkpt lat="45.21159" lon="5.72891">
        <ele>796.741</ele>
        <time>2021-08-07T04:29:49Z</time>
      </trkpt>
      <trkpt lat="45.21171" lon="5.72898">
        <ele>798.377</ele>
        <time>2021-08-07T04:29:57Z</time>
      </trkpt>
      <trkpt lat="45.21183" lon="5.72907">
        <ele>800.174</ele>
        <time>2021-08-07T04:30:06Z</time>
      </trkpt>
      <trkpt lat="45.21193" lon="5.72916">
        <ele>802.278</ele>
        <time>2021-08-07T04:30:13Z</time>
      </trkpt>
      <trkpt lat="45.212" lon="5.72925">
        <ele>804.22</ele>
        <time>2021-08-07T04:30:20Z</time>
      </trkpt>
      <trkpt lat="45.21208" lon="5.72938">
        <ele>806.451</ele>
        <time>2021-08-07T04:30:29Z</time>
      </trkpt>
      <trkpt lat="45.21212" lon="5.7294">
        <ele>808.234</ele>
        <time>2021-08-07T04:30:34Z</time>
      </trkpt>
      <trkpt lat="45.2121" lon="5.72937">
        <ele>808.74</ele>
        <time>2021-08-07T04:30:39Z</time>
      </trkpt>
      <trkpt lat="45.2121" lon="5.72929">
        <ele>810.36</ele>
        <time>2021-08-07T04:30:46Z</time>
      </trkpt>
      <trkpt lat="45.21213" lon="5.7292">
        <ele>811.941</ele>
        <time>2021-08-07T04:30:54Z</time>
      </trkpt>
      <trkpt lat="45.21217" lon="5.72919">
        <ele>812.843</ele>
        <time>2021-08-07T04:31:00Z</time>
      </trkpt>
      <trkpt lat="45.21221" lon="5.7292">
        <ele>813.609</ele>
        <time>2021-08-07T04:31:07Z</time>
      </trkpt>
      <trkpt lat="45.21224" lon="5.72921">
        <ele>814.914</ele>
        <time>2021-08-07T04:31:11Z</time>
      </trkpt>
      <trkpt lat="45.21224" lon="5.72923">
        <ele>815.482</ele>
        <time>2021-08-07T04:31:12Z</time>
      </trkpt>
      <trkpt lat="45.21229" lon="5.72932">
        <ele>817.524</ele>
        <time>2021-08-07T04:31:21Z</time>
      </trkpt>
      <trkpt lat="45.21234" lon="5.72934">
        <ele>818.786</ele>
        <time>2021-08-07T04:31:28Z</time>
      </trkpt>
      <trkpt lat="45.21235" lon="5.72935">
        <ele>818.727</ele>
        <time>2021-08-07T04:31:29Z</time>
      </trkpt>
      <trkpt lat="45.21237" lon="5.72936">
        <ele>819.376</ele>
        <time>2021-08-07T04:31:31Z</time>
      </trkpt>
      <trkpt lat="45.21246" lon="5.72935">
        <ele>821.399</ele>
        <time>2021-08-07T04:31:38Z</time>
      </trkpt>
      <trkpt lat="45.21251" lon="5.72939">
        <ele>822.387</ele>
        <time>2021-08-07T04:31:43Z</time>
      </trkpt>
      <trkpt lat="45.21255" lon="5.72946">
        <ele>823.685</ele>
        <time>2021-08-07T04:31:50Z</time>
      </trkpt>
      <trkpt lat="45.21259" lon="5.72947">
        <ele>824.992</ele>
        <time>2021-08-07T04:31:55Z</time>
      </trkpt>
      <trkpt lat="45.21267" lon="5.72949">
        <ele>827.447</ele>
        <time>2021-08-07T04:32:02Z</time>
      </trkpt>
      <trkpt lat="45.21269" lon="5.72951">
        <ele>828.517</ele>
        <time>2021-08-07T04:32:03Z</time>
      </trkpt>
      <trkpt lat="45.2127" lon="5.72956">
        <ele>829.043</ele>
        <time>2021-08-07T04:32:07Z</time>
      </trkpt>
      <trkpt lat="45.21273" lon="5.7296">
        <ele>830.587</ele>
        <time>2021-08-07T04:32:11Z</time>
      </trkpt>
      <trkpt lat="45.21283" lon="5.72967">
        <ele>832.54</ele>
        <time>2021-08-07T04:32:19Z</time>
      </trkpt>
      <trkpt lat="45.21293" lon="5.72975">
        <ele>833.846</ele>
        <time>2021-08-07T04:32:27Z</time>
      </trkpt>
      <trkpt lat="45.21299" lon="5.72978">
        <ele>835.889</ele>
        <time>2021-08-07T04:32:33Z</time>
      </trkpt>
      <trkpt lat="45.21305" lon="5.72983">
        <ele>837.053</ele>
        <time>2021-08-07T04:32:40Z</time>
      </trkpt>
      <trkpt lat="45.21307" lon="5.72988">
        <ele>837.441</ele>
        <time>2021-08-07T04:32:43Z</time>
      </trkpt>
      <trkpt lat="45.21313" lon="5.72999">
        <ele>838.587</ele>
        <time>2021-08-07T04:32:51Z</time>
      </trkpt>
      <trkpt lat="45.21317" lon="5.73007">
        <ele>840.183</ele>
        <time>2021-08-07T04:32:57Z</time>
      </trkpt>
      <trkpt lat="45.21324" lon="5.73016">
        <ele>842.912</ele>
        <time>2021-08-07T04:33:05Z</time>
      </trkpt>
      <trkpt lat="45.21326" lon="5.73018">
        <ele>844.627</ele>
        <time>2021-08-07T04:33:08Z</time>
      </trkpt>
      <trkpt lat="45.21333" lon="5.73025">
        <ele>846.256</ele>
        <time>2021-08-07T04:33:15Z</time>
      </trkpt>
      <trkpt lat="45.21342" lon="5.73034">
        <ele>847.705</ele>
        <time>2021-08-07T04:33:24Z</time>
      </trkpt>
      <trkpt lat="45.21349" lon="5.73042">
        <ele>849.078</ele>
        <time>2021-08-07T04:33:31Z</time>
      </trkpt>
      <trkpt lat="45.21353" lon="5.7305">
        <ele>851.441</ele>
        <time>2021-08-07T04:33:38Z</time>
      </trkpt>
      <trkpt lat="45.21356" lon="5.73056">
        <ele>852.332</ele>
        <time>2021-08-07T04:33:42Z</time>
      </trkpt>
      <trkpt lat="45.21367" lon="5.73065">
        <ele>853.763</ele>
        <time>2021-08-07T04:33:51Z</time>
      </trkpt>
      <trkpt lat="45.21369" lon="5.73067">
        <ele>854.276</ele>
        <time>2021-08-07T04:33:53Z</time>
      </trkpt>
      <trkpt lat="45.21376" lon="5.7308">
        <ele>854.472</ele>
        <time>2021-08-07T04:33:59Z</time>
      </trkpt>
      <trkpt lat="45.21385" lon="5.73094">
        <ele>855.689</ele>
        <time>2021-08-07T04:34:07Z</time>
      </trkpt>
      <trkpt lat="45.21387" lon="5.73096">
        <ele>856.318</ele>
        <time>2021-08-07T04:34:09Z</time>
      </trkpt>
      <trkpt lat="45.21398" lon="5.73111">
        <ele>857.279</ele>
        <time>2021-08-07T04:34:18Z</time>
      </trkpt>
      <trkpt lat="45.21406" lon="5.73121">
        <ele>857.526</ele>
        <time>2021-08-07T04:34:24Z</time>
      </trkpt>
      <trkpt lat="45.21414" lon="5.73137">
        <ele>859.225</ele>
        <time>2021-08-07T04:34:32Z</time>
      </trkpt>
      <trkpt lat="45.21415" lon="5.7314">
        <ele>860.417</ele>
        <time>2021-08-07T04:34:34Z</time>
      </trkpt>
      <trkpt lat="45.21424" lon="5.73144">
        <ele>861.8</ele>
        <time>2021-08-07T04:34:41Z</time>
      </trkpt>
      <trkpt lat="45.21431" lon="5.7315">
        <ele>862.863</ele>
        <time>2021-08-07T04:34:48Z</time>
      </trkpt>
      <trkpt lat="45.21434" lon="5.73152">
        <ele>863.022</ele>
        <time>2021-08-07T04:34:50Z</time>
      </trkpt>
      <trkpt lat="45.21444" lon="5.73155">
        <ele>865.642</ele>
        <time>2021-08-07T04:34:56Z</time>
      </trkpt>
      <trkpt lat="45.21457" lon="5.73161">
        <ele>868.052</ele>
        <time>2021-08-07T04:35:03Z</time>
      </trkpt>
      <trkpt lat="45.21463" lon="5.73171">
        <ele>868.768</ele>
        <time>2021-08-07T04:35:09Z</time>
      </trkpt>
      <trkpt lat="45.21466" lon="5.7318">
        <ele>871.161</ele>
        <time>2021-08-07T04:35:16Z</time>
      </trkpt>
      <trkpt lat="45.21471" lon="5.73185">
        <ele>873.404</ele>
        <time>2021-08-07T04:35:20Z</time>
      </trkpt>
      <trkpt lat="45.21475" lon="5.73196">
        <ele>874.669</ele>
        <time>2021-08-07T04:35:26Z</time>
      </trkpt>
      <trkpt lat="45.21474" lon="5.73215">
        <ele>874.832</ele>
        <time>2021-08-07T04:35:33Z</time>
      </trkpt>
      <trkpt lat="45.21478" lon="5.73222">
        <ele>876.527</ele>
        <time>2021-08-07T04:35:39Z</time>
      </trkpt>
      <trkpt lat="45.21476" lon="5.73221">
        <ele>875.447</ele>
        <time>2021-08-07T04:36:01Z</time>
      </trkpt>
      <trkpt lat="45.21482" lon="5.73226">
        <ele>876.685</ele>
        <time>2021-08-07T04:36:08Z</time>
      </trkpt>
      <trkpt lat="45.2149" lon="5.73234">
        <ele>878.419</ele>
        <time>2021-08-07T04:36:16Z</time>
      </trkpt>
      <trkpt lat="45.2149" lon="5.73242">
        <ele>879.787</ele>
        <time>2021-08-07T04:36:21Z</time>
      </trkpt>
      <trkpt lat="45.21501" lon="5.73252">
        <ele>880.926</ele>
        <time>2021-08-07T04:36:29Z</time>
      </trkpt>
      <trkpt lat="45.21512" lon="5.7326">
        <ele>882.531</ele>
        <time>2021-08-07T04:36:35Z</time>
      </trkpt>
      <trkpt lat="45.21511" lon="5.7328">
        <ele>881.686</ele>
        <time>2021-08-07T04:36:41Z</time>
      </trkpt>
      <trkpt lat="45.21511" lon="5.73285">
        <ele>881.68</ele>
        <time>2021-08-07T04:36:43Z</time>
      </trkpt>
      <trkpt lat="45.21513" lon="5.73299">
        <ele>882.749</ele>
        <time>2021-08-07T04:36:48Z</time>
      </trkpt>
      <trkpt lat="45.21512" lon="5.73309">
        <ele>884.296</ele>
        <time>2021-08-07T04:36:54Z</time>
      </trkpt>
      <trkpt lat="45.21528" lon="5.73316">
        <ele>885.951</ele>
        <time>2021-08-07T04:37:03Z</time>
      </trkpt>
      <trkpt lat="45.21533" lon="5.73318">
        <ele>886.953</ele>
        <time>2021-08-07T04:37:06Z</time>
      </trkpt>
      <trkpt lat="45.21541" lon="5.73321">
        <ele>888.396</ele>
        <time>2021-08-07T04:37:13Z</time>
      </trkpt>
      <trkpt lat="45.2155" lon="5.73324">
        <ele>889.032</ele>
        <time>2021-08-07T04:37:21Z</time>
      </trkpt>
      <trkpt lat="45.21556" lon="5.73324">
        <ele>891.187</ele>
        <time>2021-08-07T04:37:25Z</time>
      </trkpt>
      <trkpt lat="45.21569" lon="5.73333">
        <ele>893.409</ele>
        <time>2021-08-07T04:37:34Z</time>
      </trkpt>
      <trkpt lat="45.21576" lon="5.73335">
        <ele>893.78</ele>
        <time>2021-08-07T04:37:38Z</time>
      </trkpt>
      <trkpt lat="45.21591" lon="5.73346">
        <ele>896.108</ele>
        <time>2021-08-07T04:37:46Z</time>
      </trkpt>
      <trkpt lat="45.21601" lon="5.73358">
        <ele>897.656</ele>
        <time>2021-08-07T04:37:54Z</time>
      </trkpt>
      <trkpt lat="45.21606" lon="5.7337">
        <ele>898.677</ele>
        <time>2021-08-07T04:38:00Z</time>
      </trkpt>
      <trkpt lat="45.21611" lon="5.73377">
        <ele>900.385</ele>
        <time>2021-08-07T04:38:06Z</time>
      </trkpt>
      <trkpt lat="45.21622" lon="5.73382">
        <ele>903.762</ele>
        <time>2021-08-07T04:38:14Z</time>
      </trkpt>
      <trkpt lat="45.21625" lon="5.73384">
        <ele>903.907</ele>
        <time>2021-08-07T04:38:16Z</time>
      </trkpt>
      <trkpt lat="45.21636" lon="5.73391">
        <ele>904.824</ele>
        <time>2021-08-07T04:38:23Z</time>
      </trkpt>
      <trkpt lat="45.21644" lon="5.73398">
        <ele>905.816</ele>
        <time>2021-08-07T04:38:28Z</time>
      </trkpt>
      <trkpt lat="45.21648" lon="5.73405">
        <ele>906.95</ele>
        <time>2021-08-07T04:38:32Z</time>
      </trkpt>
      <trkpt lat="45.21651" lon="5.73415">
        <ele>907.428</ele>
        <time>2021-08-07T04:38:36Z</time>
      </trkpt>
      <trkpt lat="45.21654" lon="5.73429">
        <ele>907.91</ele>
        <time>2021-08-07T04:38:41Z</time>
      </trkpt>
      <trkpt lat="45.21659" lon="5.73448">
        <ele>908.728</ele>
        <time>2021-08-07T04:38:49Z</time>
      </trkpt>
      <trkpt lat="45.21665" lon="5.73472">
        <ele>910.076</ele>
        <time>2021-08-07T04:38:58Z</time>
      </trkpt>
      <trkpt lat="45.2167" lon="5.73482">
        <ele>911.29</ele>
        <time>2021-08-07T04:39:04Z</time>
      </trkpt>
      <trkpt lat="45.21672" lon="5.73476">
        <ele>912.951</ele>
        <time>2021-08-07T04:39:09Z</time>
      </trkpt>
      <trkpt lat="45.21672" lon="5.73467">
        <ele>914.187</ele>
        <time>2021-08-07T04:39:14Z</time>
      </trkpt>
      <trkpt lat="45.21673" lon="5.73455">
        <ele>915.662</ele>
        <time>2021-08-07T04:39:20Z</time>
      </trkpt>
      <trkpt lat="45.21676" lon="5.73436">
        <ele>917.653</ele>
        <time>2021-08-07T04:39:30Z</time>
      </trkpt>
      <trkpt lat="45.21676" lon="5.73425">
        <ele>919.539</ele>
        <time>2021-08-07T04:39:37Z</time>
      </trkpt>
      <trkpt lat="45.21676" lon="5.73423">
        <ele>919.694</ele>
        <time>2021-08-07T04:39:38Z</time>
      </trkpt>
      <trkpt lat="45.21674" lon="5.73418">
        <ele>920.947</ele>
        <time>2021-08-07T04:39:44Z</time>
      </trkpt>
      <trkpt lat="45.2167" lon="5.73417">
        <ele>921.503</ele>
        <time>2021-08-07T04:39:47Z</time>
      </trkpt>
      <trkpt lat="45.21669" lon="5.7341">
        <ele>922.904</ele>
        <time>2021-08-07T04:39:50Z</time>
      </trkpt>
      <trkpt lat="45.21667" lon="5.73402">
        <ele>924.674</ele>
        <time>2021-08-07T04:39:54Z</time>
      </trkpt>
      <trkpt lat="45.21666" lon="5.73389">
        <ele>926.985</ele>
        <time>2021-08-07T04:40:02Z</time>
      </trkpt>
      <trkpt lat="45.2166" lon="5.73377">
        <ele>928.955</ele>
        <time>2021-08-07T04:40:10Z</time>
      </trkpt>
      <trkpt lat="45.21656" lon="5.7337">
        <ele>931.224</ele>
        <time>2021-08-07T04:40:16Z</time>
      </trkpt>
      <trkpt lat="45.21645" lon="5.73363">
        <ele>933.703</ele>
        <time>2021-08-07T04:40:25Z</time>
      </trkpt>
      <trkpt lat="45.21643" lon="5.73353">
        <ele>934.441</ele>
        <time>2021-08-07T04:40:32Z</time>
      </trkpt>
      <trkpt lat="45.21644" lon="5.73343">
        <ele>935.81</ele>
        <time>2021-08-07T04:40:36Z</time>
      </trkpt>
      <trkpt lat="45.21646" lon="5.7333">
        <ele>937.569</ele>
        <time>2021-08-07T04:40:43Z</time>
      </trkpt>
      <trkpt lat="45.21645" lon="5.73328">
        <ele>938.489</ele>
        <time>2021-08-07T04:40:46Z</time>
      </trkpt>
      <trkpt lat="45.21645" lon="5.73319">
        <ele>940.601</ele>
        <time>2021-08-07T04:40:50Z</time>
      </trkpt>
      <trkpt lat="45.21645" lon="5.73302">
        <ele>942.295</ele>
        <time>2021-08-07T04:40:58Z</time>
      </trkpt>
      <trkpt lat="45.21643" lon="5.73287">
        <ele>944.12</ele>
        <time>2021-08-07T04:41:06Z</time>
      </trkpt>
      <trkpt lat="45.21636" lon="5.73273">
        <ele>944.939</ele>
        <time>2021-08-07T04:41:14Z</time>
      </trkpt>
      <trkpt lat="45.21625" lon="5.73258">
        <ele>948.49</ele>
        <time>2021-08-07T04:41:24Z</time>
      </trkpt>
      <trkpt lat="45.21624" lon="5.73257">
        <ele>948.497</ele>
        <time>2021-08-07T04:41:25Z</time>
      </trkpt>
      <trkpt lat="45.21617" lon="5.73251">
        <ele>949.404</ele>
        <time>2021-08-07T04:41:34Z</time>
      </trkpt>
      <trkpt lat="45.21616" lon="5.73252">
        <ele>949.666</ele>
        <time>2021-08-07T04:41:44Z</time>
      </trkpt>
      <trkpt lat="45.21616" lon="5.7326">
        <ele>949.656</ele>
        <time>2021-08-07T04:42:04Z</time>
      </trkpt>
      <trkpt lat="45.21616" lon="5.73259">
        <ele>950.119</ele>
        <time>2021-08-07T04:42:40Z</time>
      </trkpt>
      <trkpt lat="45.21617" lon="5.73246">
        <ele>950.3</ele>
        <time>2021-08-07T04:42:56Z</time>
      </trkpt>
      <trkpt lat="45.21612" lon="5.73237">
        <ele>951.876</ele>
        <time>2021-08-07T04:43:03Z</time>
      </trkpt>
      <trkpt lat="45.21609" lon="5.73232">
        <ele>953.064</ele>
        <time>2021-08-07T04:43:09Z</time>
      </trkpt>
      <trkpt lat="45.21604" lon="5.73227">
        <ele>954.238</ele>
        <time>2021-08-07T04:43:16Z</time>
      </trkpt>
      <trkpt lat="45.21597" lon="5.73215">
        <ele>956.585</ele>
        <time>2021-08-07T04:43:24Z</time>
      </trkpt>
      <trkpt lat="45.21589" lon="5.73206">
        <ele>958.578</ele>
        <time>2021-08-07T04:43:31Z</time>
      </trkpt>
      <trkpt lat="45.21581" lon="5.73199">
        <ele>959.745</ele>
        <time>2021-08-07T04:43:38Z</time>
      </trkpt>
      <trkpt lat="45.21573" lon="5.73194">
        <ele>961.225</ele>
        <time>2021-08-07T04:43:45Z</time>
      </trkpt>
      <trkpt lat="45.21572" lon="5.73193">
        <ele>961.612</ele>
        <time>2021-08-07T04:43:46Z</time>
      </trkpt>
      <trkpt lat="45.21566" lon="5.73181">
        <ele>964.253</ele>
        <time>2021-08-07T04:43:53Z</time>
      </trkpt>
      <trkpt lat="45.21567" lon="5.73174">
        <ele>965.904</ele>
        <time>2021-08-07T04:43:58Z</time>
      </trkpt>
      <trkpt lat="45.21567" lon="5.73162">
        <ele>967.775</ele>
        <time>2021-08-07T04:44:05Z</time>
      </trkpt>
      <trkpt lat="45.21573" lon="5.73156">
        <ele>970.513</ele>
        <time>2021-08-07T04:44:14Z</time>
      </trkpt>
      <trkpt lat="45.21571" lon="5.73149">
        <ele>972.647</ele>
        <time>2021-08-07T04:44:22Z</time>
      </trkpt>
      <trkpt lat="45.21572" lon="5.73147">
        <ele>973.832</ele>
        <time>2021-08-07T04:44:25Z</time>
      </trkpt>
      <trkpt lat="45.21575" lon="5.73141">
        <ele>975.802</ele>
        <time>2021-08-07T04:44:32Z</time>
      </trkpt>
      <trkpt lat="45.21578" lon="5.73138">
        <ele>977.256</ele>
        <time>2021-08-07T04:44:38Z</time>
      </trkpt>
      <trkpt lat="45.21579" lon="5.73134">
        <ele>978.677</ele>
        <time>2021-08-07T04:44:45Z</time>
      </trkpt>
      <trkpt lat="45.21581" lon="5.73128">
        <ele>980.046</ele>
        <time>2021-08-07T04:44:51Z</time>
      </trkpt>
      <trkpt lat="45.21583" lon="5.73125">
        <ele>981.325</ele>
        <time>2021-08-07T04:44:54Z</time>
      </trkpt>
      <trkpt lat="45.21589" lon="5.73115">
        <ele>983.509</ele>
        <time>2021-08-07T04:45:02Z</time>
      </trkpt>
      <trkpt lat="45.21595" lon="5.73117">
        <ele>984.037</ele>
        <time>2021-08-07T04:45:08Z</time>
      </trkpt>
      <trkpt lat="45.216" lon="5.73121">
        <ele>985.659</ele>
        <time>2021-08-07T04:45:14Z</time>
      </trkpt>
      <trkpt lat="45.21602" lon="5.7312">
        <ele>986.633</ele>
        <time>2021-08-07T04:45:17Z</time>
      </trkpt>
      <trkpt lat="45.21611" lon="5.73123">
        <ele>988.08</ele>
        <time>2021-08-07T04:45:25Z</time>
      </trkpt>
      <trkpt lat="45.21617" lon="5.73128">
        <ele>989.958</ele>
        <time>2021-08-07T04:45:32Z</time>
      </trkpt>
      <trkpt lat="45.21623" lon="5.7313">
        <ele>991.45</ele>
        <time>2021-08-07T04:45:38Z</time>
      </trkpt>
      <trkpt lat="45.21629" lon="5.73129">
        <ele>992.745</ele>
        <time>2021-08-07T04:45:43Z</time>
      </trkpt>
      <trkpt lat="45.21639" lon="5.73131">
        <ele>994.615</ele>
        <time>2021-08-07T04:45:50Z</time>
      </trkpt>
      <trkpt lat="45.21648" lon="5.73132">
        <ele>995.905</ele>
        <time>2021-08-07T04:45:57Z</time>
      </trkpt>
      <trkpt lat="45.21652" lon="5.73131">
        <ele>998.227</ele>
        <time>2021-08-07T04:46:01Z</time>
      </trkpt>
      <trkpt lat="45.21658" lon="5.7313">
        <ele>1001.375</ele>
        <time>2021-08-07T04:46:08Z</time>
      </trkpt>
      <trkpt lat="45.21665" lon="5.73134">
        <ele>1002.488</ele>
        <time>2021-08-07T04:46:14Z</time>
      </trkpt>
      <trkpt lat="45.21669" lon="5.73135">
        <ele>1003.371</ele>
        <time>2021-08-07T04:46:21Z</time>
      </trkpt>
      <trkpt lat="45.21673" lon="5.73141">
        <ele>1004.943</ele>
        <time>2021-08-07T04:46:26Z</time>
      </trkpt>
      <trkpt lat="45.21675" lon="5.73149">
        <ele>1006.301</ele>
        <time>2021-08-07T04:46:33Z</time>
      </trkpt>
      <trkpt lat="45.21677" lon="5.73152">
        <ele>1007.651</ele>
        <time>2021-08-07T04:46:36Z</time>
      </trkpt>
      <trkpt lat="45.2168" lon="5.73159">
        <ele>1009.772</ele>
        <time>2021-08-07T04:46:43Z</time>
      </trkpt>
      <trkpt lat="45.21682" lon="5.73164">
        <ele>1011.187</ele>
        <time>2021-08-07T04:46:49Z</time>
      </trkpt>
      <trkpt lat="45.21685" lon="5.73171">
        <ele>1013.062</ele>
        <time>2021-08-07T04:46:56Z</time>
      </trkpt>
      <trkpt lat="45.2169" lon="5.73179">
        <ele>1014.823</ele>
        <time>2021-08-07T04:47:03Z</time>
      </trkpt>
      <trkpt lat="45.21693" lon="5.73184">
        <ele>1015.558</ele>
        <time>2021-08-07T04:47:07Z</time>
      </trkpt>
      <trkpt lat="45.21697" lon="5.7319">
        <ele>1015.559</ele>
        <time>2021-08-07T04:47:12Z</time>
      </trkpt>
      <trkpt lat="45.21701" lon="5.73197">
        <ele>1015.622</ele>
        <time>2021-08-07T04:47:16Z</time>
      </trkpt>
      <trkpt lat="45.21708" lon="5.73208">
        <ele>1016.401</ele>
        <time>2021-08-07T04:47:23Z</time>
      </trkpt>
      <trkpt lat="45.21716" lon="5.73217">
        <ele>1017.307</ele>
        <time>2021-08-07T04:47:31Z</time>
      </trkpt>
      <trkpt lat="45.21722" lon="5.73213">
        <ele>1019.639</ele>
        <time>2021-08-07T04:47:39Z</time>
      </trkpt>
      <trkpt lat="45.21728" lon="5.73209">
        <ele>1021.37</ele>
        <time>2021-08-07T04:47:46Z</time>
      </trkpt>
      <trkpt lat="45.21731" lon="5.73204">
        <ele>1021.39</ele>
        <time>2021-08-07T04:47:49Z</time>
      </trkpt>
      <trkpt lat="45.21737" lon="5.73202">
        <ele>1021.455</ele>
        <time>2021-08-07T04:47:53Z</time>
      </trkpt>
      <trkpt lat="45.21745" lon="5.732">
        <ele>1020.795</ele>
        <time>2021-08-07T04:48:01Z</time>
      </trkpt>
      <trkpt lat="45.21748" lon="5.73202">
        <ele>1020.499</ele>
        <time>2021-08-07T04:48:03Z</time>
      </trkpt>
      <trkpt lat="45.21755" lon="5.73211">
        <ele>1021.814</ele>
        <time>2021-08-07T04:48:11Z</time>
      </trkpt>
      <trkpt lat="45.21758" lon="5.73217">
        <ele>1024.276</ele>
        <time>2021-08-07T04:48:19Z</time>
      </trkpt>
      <trkpt lat="45.21766" lon="5.73228">
        <ele>1024.803</ele>
        <time>2021-08-07T04:48:27Z</time>
      </trkpt>
      <trkpt lat="45.21772" lon="5.73232">
        <ele>1023.292</ele>
        <time>2021-08-07T04:48:33Z</time>
      </trkpt>
      <trkpt lat="45.21777" lon="5.73242">
        <ele>1025.093</ele>
        <time>2021-08-07T04:48:40Z</time>
      </trkpt>
      <trkpt lat="45.21782" lon="5.73252">
        <ele>1026.235</ele>
        <time>2021-08-07T04:48:47Z</time>
      </trkpt>
      <trkpt lat="45.21783" lon="5.73254">
        <ele>1026.88</ele>
        <time>2021-08-07T04:48:48Z</time>
      </trkpt>
      <trkpt lat="45.21783" lon="5.73259">
        <ele>1027.924</ele>
        <time>2021-08-07T04:48:51Z</time>
      </trkpt>
      <trkpt lat="45.21777" lon="5.73268">
        <ele>1029.298</ele>
        <time>2021-08-07T04:48:57Z</time>
      </trkpt>
      <trkpt lat="45.21782" lon="5.73274">
        <ele>1030.799</ele>
        <time>2021-08-07T04:49:04Z</time>
      </trkpt>
      <trkpt lat="45.21787" lon="5.73278">
        <ele>1032.652</ele>
        <time>2021-08-07T04:49:10Z</time>
      </trkpt>
      <trkpt lat="45.21792" lon="5.73283">
        <ele>1033.373</ele>
        <time>2021-08-07T04:49:16Z</time>
      </trkpt>
      <trkpt lat="45.21799" lon="5.73293">
        <ele>1034.219</ele>
        <time>2021-08-07T04:49:23Z</time>
      </trkpt>
      <trkpt lat="45.21803" lon="5.73302">
        <ele>1036.042</ele>
        <time>2021-08-07T04:49:28Z</time>
      </trkpt>
      <trkpt lat="45.21804" lon="5.73303">
        <ele>1036.45</ele>
        <time>2021-08-07T04:49:29Z</time>
      </trkpt>
      <trkpt lat="45.21811" lon="5.73307">
        <ele>1037.172</ele>
        <time>2021-08-07T04:49:33Z</time>
      </trkpt>
      <trkpt lat="45.2182" lon="5.73316">
        <ele>1037.923</ele>
        <time>2021-08-07T04:49:40Z</time>
      </trkpt>
      <trkpt lat="45.21822" lon="5.73317">
        <ele>1038.961</ele>
        <time>2021-08-07T04:49:41Z</time>
      </trkpt>
      <trkpt lat="45.21833" lon="5.73329">
        <ele>1040.698</ele>
        <time>2021-08-07T04:49:49Z</time>
      </trkpt>
      <trkpt lat="45.21836" lon="5.73332">
        <ele>1041.368</ele>
        <time>2021-08-07T04:49:52Z</time>
      </trkpt>
      <trkpt lat="45.21844" lon="5.73342">
        <ele>1041.792</ele>
        <time>2021-08-07T04:50:00Z</time>
      </trkpt>
      <trkpt lat="45.21845" lon="5.73344">
        <ele>1041.64</ele>
        <time>2021-08-07T04:50:08Z</time>
      </trkpt>
      <trkpt lat="45.21849" lon="5.73347">
        <ele>1042.055</ele>
        <time>2021-08-07T04:50:22Z</time>
      </trkpt>
      <trkpt lat="45.21844" lon="5.73358">
        <ele>1042.003</ele>
        <time>2021-08-07T04:50:32Z</time>
      </trkpt>
      <trkpt lat="45.21844" lon="5.73359">
        <ele>1042.423</ele>
        <time>2021-08-07T04:50:43Z</time>
      </trkpt>
      <trkpt lat="45.21845" lon="5.73356">
        <ele>1042.019</ele>
        <time>2021-08-07T04:51:04Z</time>
      </trkpt>
      <trkpt lat="45.21849" lon="5.73349">
        <ele>1042.798</ele>
        <time>2021-08-07T04:51:11Z</time>
      </trkpt>
      <trkpt lat="45.21854" lon="5.7335">
        <ele>1041.263</ele>
        <time>2021-08-07T04:51:20Z</time>
      </trkpt>
      <trkpt lat="45.21858" lon="5.73352">
        <ele>1038.555</ele>
        <time>2021-08-07T04:51:28Z</time>
      </trkpt>
      <trkpt lat="45.21864" lon="5.73353">
        <ele>1037.615</ele>
        <time>2021-08-07T04:51:35Z</time>
      </trkpt>
      <trkpt lat="45.21866" lon="5.73355">
        <ele>1037.203</ele>
        <time>2021-08-07T04:51:37Z</time>
      </trkpt>
      <trkpt lat="45.21875" lon="5.73361">
        <ele>1035.269</ele>
        <time>2021-08-07T04:51:45Z</time>
      </trkpt>
      <trkpt lat="45.21877" lon="5.73361">
        <ele>1034.485</ele>
        <time>2021-08-07T04:51:46Z</time>
      </trkpt>
      <trkpt lat="45.21888" lon="5.73369">
        <ele>1034.451</ele>
        <time>2021-08-07T04:51:53Z</time>
      </trkpt>
      <trkpt lat="45.21896" lon="5.73375">
        <ele>1035.538</ele>
        <time>2021-08-07T04:52:00Z</time>
      </trkpt>
      <trkpt lat="45.21897" lon="5.73374">
        <ele>1035.204</ele>
        <time>2021-08-07T04:52:02Z</time>
      </trkpt>
      <trkpt lat="45.21901" lon="5.73375">
        <ele>1036.488</ele>
        <time>2021-08-07T04:52:06Z</time>
      </trkpt>
      <trkpt lat="45.21911" lon="5.73382">
        <ele>1035.073</ele>
        <time>2021-08-07T04:52:14Z</time>
      </trkpt>
      <trkpt lat="45.21921" lon="5.73396">
        <ele>1034.501</ele>
        <time>2021-08-07T04:52:21Z</time>
      </trkpt>
      <trkpt lat="45.21928" lon="5.73413">
        <ele>1036.029</ele>
        <time>2021-08-07T04:52:29Z</time>
      </trkpt>
      <trkpt lat="45.21929" lon="5.73416">
        <ele>1036.474</ele>
        <time>2021-08-07T04:52:30Z</time>
      </trkpt>
      <trkpt lat="45.21938" lon="5.73425">
        <ele>1038.274</ele>
        <time>2021-08-07T04:52:37Z</time>
      </trkpt>
      <trkpt lat="45.21943" lon="5.73426">
        <ele>1038.207</ele>
        <time>2021-08-07T04:52:41Z</time>
      </trkpt>
      <trkpt lat="45.2196" lon="5.73423">
        <ele>1039.159</ele>
        <time>2021-08-07T04:52:49Z</time>
      </trkpt>
      <trkpt lat="45.21974" lon="5.73428">
        <ele>1040.326</ele>
        <time>2021-08-07T04:52:55Z</time>
      </trkpt>
      <trkpt lat="45.21986" lon="5.73435">
        <ele>1041.639</ele>
        <time>2021-08-07T04:53:02Z</time>
      </trkpt>
      <trkpt lat="45.2199" lon="5.73438">
        <ele>1043.643</ele>
        <time>2021-08-07T04:53:06Z</time>
      </trkpt>
      <trkpt lat="45.22006" lon="5.73437">
        <ele>1043.769</ele>
        <time>2021-08-07T04:53:15Z</time>
      </trkpt>
      <trkpt lat="45.22017" lon="5.73445">
        <ele>1042.379</ele>
        <time>2021-08-07T04:53:21Z</time>
      </trkpt>
      <trkpt lat="45.22026" lon="5.73456">
        <ele>1041.396</ele>
        <time>2021-08-07T04:53:28Z</time>
      </trkpt>
      <trkpt lat="45.22032" lon="5.73461">
        <ele>1039.896</ele>
        <time>2021-08-07T04:53:34Z</time>
      </trkpt>
      <trkpt lat="45.22047" lon="5.7347">
        <ele>1037.706</ele>
        <time>2021-08-07T04:53:42Z</time>
      </trkpt>
      <trkpt lat="45.22057" lon="5.73478">
        <ele>1034.588</ele>
        <time>2021-08-07T04:53:49Z</time>
      </trkpt>
      <trkpt lat="45.22061" lon="5.73481">
        <ele>1034.578</ele>
        <time>2021-08-07T04:53:52Z</time>
      </trkpt>
      <trkpt lat="45.22066" lon="5.73488">
        <ele>1034.304</ele>
        <time>2021-08-07T04:53:57Z</time>
      </trkpt>
      <trkpt lat="45.2208" lon="5.73495">
        <ele>1032.503</ele>
        <time>2021-08-07T04:54:05Z</time>
      </trkpt>
      <trkpt lat="45.22093" lon="5.73503">
        <ele>1030.166</ele>
        <time>2021-08-07T04:54:10Z</time>
      </trkpt>
      <trkpt lat="45.22102" lon="5.73507">
        <ele>1028.081</ele>
        <time>2021-08-07T04:54:17Z</time>
      </trkpt>
      <trkpt lat="45.22109" lon="5.73512">
        <ele>1027.28</ele>
        <time>2021-08-07T04:54:24Z</time>
      </trkpt>
      <trkpt lat="45.22114" lon="5.73514">
        <ele>1025.066</ele>
        <time>2021-08-07T04:54:30Z</time>
      </trkpt>
      <trkpt lat="45.22116" lon="5.73513">
        <ele>1024.309</ele>
        <time>2021-08-07T04:54:32Z</time>
      </trkpt>
      <trkpt lat="45.22122" lon="5.73518">
        <ele>1023.311</ele>
        <time>2021-08-07T04:54:37Z</time>
      </trkpt>
      <trkpt lat="45.22119" lon="5.73532">
        <ele>1021.401</ele>
        <time>2021-08-07T04:54:42Z</time>
      </trkpt>
      <trkpt lat="45.22128" lon="5.73539">
        <ele>1019.653</ele>
        <time>2021-08-07T04:54:49Z</time>
      </trkpt>
      <trkpt lat="45.22133" lon="5.7354">
        <ele>1018.172</ele>
        <time>2021-08-07T04:54:53Z</time>
      </trkpt>
      <trkpt lat="45.22143" lon="5.73543">
        <ele>1016.517</ele>
        <time>2021-08-07T04:55:00Z</time>
      </trkpt>
      <trkpt lat="45.22154" lon="5.73543">
        <ele>1013.614</ele>
        <time>2021-08-07T04:55:06Z</time>
      </trkpt>
      <trkpt lat="45.22155" lon="5.73544">
        <ele>1013.883</ele>
        <time>2021-08-07T04:55:07Z</time>
      </trkpt>
      <trkpt lat="45.22163" lon="5.7355">
        <ele>1012.02</ele>
        <time>2021-08-07T04:55:14Z</time>
      </trkpt>
      <trkpt lat="45.22165" lon="5.73554">
        <ele>1010.928</ele>
        <time>2021-08-07T04:55:17Z</time>
      </trkpt>
      <trkpt lat="45.22168" lon="5.73558">
        <ele>1009.921</ele>
        <time>2021-08-07T04:55:19Z</time>
      </trkpt>
      <trkpt lat="45.22174" lon="5.73568">
        <ele>1009.387</ele>
        <time>2021-08-07T04:55:25Z</time>
      </trkpt>
      <trkpt lat="45.22175" lon="5.73569">
        <ele>1008.762</ele>
        <time>2021-08-07T04:55:27Z</time>
      </trkpt>
      <trkpt lat="45.22179" lon="5.73572">
        <ele>1007.615</ele>
        <time>2021-08-07T04:55:29Z</time>
      </trkpt>
      <trkpt lat="45.22183" lon="5.73587">
        <ele>1006.896</ele>
        <time>2021-08-07T04:55:36Z</time>
      </trkpt>
      <trkpt lat="45.22184" lon="5.73589">
        <ele>1006.522</ele>
        <time>2021-08-07T04:55:38Z</time>
      </trkpt>
      <trkpt lat="45.22188" lon="5.73594">
        <ele>1005.971</ele>
        <time>2021-08-07T04:55:41Z</time>
      </trkpt>
      <trkpt lat="45.2219" lon="5.73602">
        <ele>1005.662</ele>
        <time>2021-08-07T04:55:45Z</time>
      </trkpt>
      <trkpt lat="45.22199" lon="5.73613">
        <ele>1004.611</ele>
        <time>2021-08-07T04:55:50Z</time>
      </trkpt>
      <trkpt lat="45.22204" lon="5.73618">
        <ele>1003.947</ele>
        <time>2021-08-07T04:55:52Z</time>
      </trkpt>
      <trkpt lat="45.22217" lon="5.73622">
        <ele>1003.302</ele>
        <time>2021-08-07T04:55:56Z</time>
      </trkpt>
      <trkpt lat="45.22227" lon="5.73628">
        <ele>1001.624</ele>
        <time>2021-08-07T04:56:00Z</time>
      </trkpt>
      <trkpt lat="45.22235" lon="5.73635">
        <ele>1000.812</ele>
        <time>2021-08-07T04:56:04Z</time>
      </trkpt>
      <trkpt lat="45.22246" lon="5.73642">
        <ele>1000.195</ele>
        <time>2021-08-07T04:56:07Z</time>
      </trkpt>
      <trkpt lat="45.22259" lon="5.73647">
        <ele>998.683</ele>
        <time>2021-08-07T04:56:13Z</time>
      </trkpt>
      <trkpt lat="45.22268" lon="5.73652">
        <ele>996.841</ele>
        <time>2021-08-07T04:56:20Z</time>
      </trkpt>
      <trkpt lat="45.2227" lon="5.7365">
        <ele>996.234</ele>
        <time>2021-08-07T04:56:22Z</time>
      </trkpt>
      <trkpt lat="45.22281" lon="5.73653">
        <ele>994.632</ele>
        <time>2021-08-07T04:56:28Z</time>
      </trkpt>
      <trkpt lat="45.22292" lon="5.73652">
        <ele>992.469</ele>
        <time>2021-08-07T04:56:34Z</time>
      </trkpt>
      <trkpt lat="45.22305" lon="5.73656">
        <ele>990.164</ele>
        <time>2021-08-07T04:56:41Z</time>
      </trkpt>
      <trkpt lat="45.22308" lon="5.73656">
        <ele>988.929</ele>
        <time>2021-08-07T04:56:44Z</time>
      </trkpt>
      <trkpt lat="45.22319" lon="5.73659">
        <ele>987.746</ele>
        <time>2021-08-07T04:56:50Z</time>
      </trkpt>
      <trkpt lat="45.22328" lon="5.7366">
        <ele>985.572</ele>
        <time>2021-08-07T04:56:56Z</time>
      </trkpt>
      <trkpt lat="45.22334" lon="5.73661">
        <ele>984.365</ele>
        <time>2021-08-07T04:57:01Z</time>
      </trkpt>
      <trkpt lat="45.22348" lon="5.73664">
        <ele>983.488</ele>
        <time>2021-08-07T04:57:06Z</time>
      </trkpt>
      <trkpt lat="45.22366" lon="5.73673">
        <ele>982.509</ele>
        <time>2021-08-07T04:57:13Z</time>
      </trkpt>
      <trkpt lat="45.22373" lon="5.73676">
        <ele>982.148</ele>
        <time>2021-08-07T04:57:16Z</time>
      </trkpt>
      <trkpt lat="45.22378" lon="5.73682">
        <ele>981.875</ele>
        <time>2021-08-07T04:57:20Z</time>
      </trkpt>
      <trkpt lat="45.22387" lon="5.73686">
        <ele>983.052</ele>
        <time>2021-08-07T04:57:27Z</time>
      </trkpt>
      <trkpt lat="45.224" lon="5.73691">
        <ele>984.423</ele>
        <time>2021-08-07T04:57:35Z</time>
      </trkpt>
      <trkpt lat="45.22407" lon="5.73691">
        <ele>986.666</ele>
        <time>2021-08-07T04:57:42Z</time>
      </trkpt>
      <trkpt lat="45.22416" lon="5.73694">
        <ele>989.523</ele>
        <time>2021-08-07T04:57:49Z</time>
      </trkpt>
      <trkpt lat="45.22421" lon="5.73697">
        <ele>991.432</ele>
        <time>2021-08-07T04:57:56Z</time>
      </trkpt>
      <trkpt lat="45.22426" lon="5.73692">
        <ele>992.156</ele>
        <time>2021-08-07T04:58:01Z</time>
      </trkpt>
      <trkpt lat="45.22437" lon="5.73691">
        <ele>994.128</ele>
        <time>2021-08-07T04:58:09Z</time>
      </trkpt>
      <trkpt lat="45.22449" lon="5.73699">
        <ele>994.934</ele>
        <time>2021-08-07T04:58:14Z</time>
      </trkpt>
      <trkpt lat="45.22457" lon="5.73696">
        <ele>993.854</ele>
        <time>2021-08-07T04:58:20Z</time>
      </trkpt>
      <trkpt lat="45.22464" lon="5.73696">
        <ele>994.821</ele>
        <time>2021-08-07T04:58:26Z</time>
      </trkpt>
      <trkpt lat="45.22466" lon="5.73696">
        <ele>995.21</ele>
        <time>2021-08-07T04:58:27Z</time>
      </trkpt>
      <trkpt lat="45.22473" lon="5.73697">
        <ele>997.033</ele>
        <time>2021-08-07T04:58:32Z</time>
      </trkpt>
      <trkpt lat="45.22479" lon="5.73696">
        <ele>999.155</ele>
        <time>2021-08-07T04:58:39Z</time>
      </trkpt>
      <trkpt lat="45.22483" lon="5.73692">
        <ele>1000.371</ele>
        <time>2021-08-07T04:58:46Z</time>
      </trkpt>
      <trkpt lat="45.22487" lon="5.73691">
        <ele>1001.011</ele>
        <time>2021-08-07T04:58:50Z</time>
      </trkpt>
      <trkpt lat="45.22495" lon="5.73688">
        <ele>1003.207</ele>
        <time>2021-08-07T04:58:59Z</time>
      </trkpt>
      <trkpt lat="45.22502" lon="5.73685">
        <ele>1004.526</ele>
        <time>2021-08-07T04:59:06Z</time>
      </trkpt>
      <trkpt lat="45.22512" lon="5.73687">
        <ele>1006.971</ele>
        <time>2021-08-07T04:59:14Z</time>
      </trkpt>
      <trkpt lat="45.22516" lon="5.73689">
        <ele>1008.885</ele>
        <time>2021-08-07T04:59:19Z</time>
      </trkpt>
      <trkpt lat="45.22524" lon="5.73692">
        <ele>1011.965</ele>
        <time>2021-08-07T04:59:26Z</time>
      </trkpt>
      <trkpt lat="45.22531" lon="5.73691">
        <ele>1012.885</ele>
        <time>2021-08-07T04:59:32Z</time>
      </trkpt>
      <trkpt lat="45.22537" lon="5.73694">
        <ele>1013.775</ele>
        <time>2021-08-07T04:59:37Z</time>
      </trkpt>
      <trkpt lat="45.22544" lon="5.73695">
        <ele>1014.5</ele>
        <time>2021-08-07T04:59:43Z</time>
      </trkpt>
      <trkpt lat="45.22551" lon="5.73697">
        <ele>1016.826</ele>
        <time>2021-08-07T04:59:50Z</time>
      </trkpt>
      <trkpt lat="45.22557" lon="5.73701">
        <ele>1017.804</ele>
        <time>2021-08-07T04:59:55Z</time>
      </trkpt>
      <trkpt lat="45.22562" lon="5.73708">
        <ele>1018.64</ele>
        <time>2021-08-07T04:59:59Z</time>
      </trkpt>
      <trkpt lat="45.2257" lon="5.73714">
        <ele>1018.41</ele>
        <time>2021-08-07T05:00:04Z</time>
      </trkpt>
      <trkpt lat="45.22575" lon="5.73711">
        <ele>1018.669</ele>
        <time>2021-08-07T05:00:08Z</time>
      </trkpt>
      <trkpt lat="45.22588" lon="5.73715">
        <ele>1021.108</ele>
        <time>2021-08-07T05:00:16Z</time>
      </trkpt>
      <trkpt lat="45.22594" lon="5.73721">
        <ele>1022.386</ele>
        <time>2021-08-07T05:00:21Z</time>
      </trkpt>
      <trkpt lat="45.22602" lon="5.73728">
        <ele>1024.043</ele>
        <time>2021-08-07T05:00:28Z</time>
      </trkpt>
      <trkpt lat="45.2261" lon="5.73733">
        <ele>1026.138</ele>
        <time>2021-08-07T05:00:34Z</time>
      </trkpt>
      <trkpt lat="45.22616" lon="5.73738">
        <ele>1027.052</ele>
        <time>2021-08-07T05:00:38Z</time>
      </trkpt>
      <trkpt lat="45.22627" lon="5.73748">
        <ele>1027.328</ele>
        <time>2021-08-07T05:00:45Z</time>
      </trkpt>
      <trkpt lat="45.22634" lon="5.73754">
        <ele>1027.137</ele>
        <time>2021-08-07T05:00:51Z</time>
      </trkpt>
      <trkpt lat="45.22638" lon="5.73757">
        <ele>1026.77</ele>
        <time>2021-08-07T05:00:54Z</time>
      </trkpt>
      <trkpt lat="45.22645" lon="5.73768">
        <ele>1027.55</ele>
        <time>2021-08-07T05:01:01Z</time>
      </trkpt>
      <trkpt lat="45.2265" lon="5.73771">
        <ele>1027.955</ele>
        <time>2021-08-07T05:01:04Z</time>
      </trkpt>
      <trkpt lat="45.22661" lon="5.73777">
        <ele>1030.1</ele>
        <time>2021-08-07T05:01:10Z</time>
      </trkpt>
      <trkpt lat="45.22669" lon="5.73784">
        <ele>1030.999</ele>
        <time>2021-08-07T05:01:15Z</time>
      </trkpt>
      <trkpt lat="45.22683" lon="5.73796">
        <ele>1031.628</ele>
        <time>2021-08-07T05:01:24Z</time>
      </trkpt>
      <trkpt lat="45.22695" lon="5.738">
        <ele>1032.624</ele>
        <time>2021-08-07T05:01:31Z</time>
      </trkpt>
      <trkpt lat="45.22704" lon="5.73803">
        <ele>1033.516</ele>
        <time>2021-08-07T05:01:36Z</time>
      </trkpt>
      <trkpt lat="45.22714" lon="5.7381">
        <ele>1033.344</ele>
        <time>2021-08-07T05:01:42Z</time>
      </trkpt>
      <trkpt lat="45.22719" lon="5.73814">
        <ele>1033.466</ele>
        <time>2021-08-07T05:01:44Z</time>
      </trkpt>
      <trkpt lat="45.22734" lon="5.73819">
        <ele>1032.743</ele>
        <time>2021-08-07T05:01:51Z</time>
      </trkpt>
      <trkpt lat="45.22747" lon="5.73825">
        <ele>1032.628</ele>
        <time>2021-08-07T05:01:57Z</time>
      </trkpt>
      <trkpt lat="45.22751" lon="5.73829">
        <ele>1032.206</ele>
        <time>2021-08-07T05:01:59Z</time>
      </trkpt>
      <trkpt lat="45.22762" lon="5.73835">
        <ele>1032.456</ele>
        <time>2021-08-07T05:02:03Z</time>
      </trkpt>
      <trkpt lat="45.22766" lon="5.73837">
        <ele>1032.62</ele>
        <time>2021-08-07T05:02:05Z</time>
      </trkpt>
      <trkpt lat="45.2277" lon="5.73841">
        <ele>1033.623</ele>
        <time>2021-08-07T05:02:08Z</time>
      </trkpt>
      <trkpt lat="45.22776" lon="5.73843">
        <ele>1032.924</ele>
        <time>2021-08-07T05:02:12Z</time>
      </trkpt>
      <trkpt lat="45.22797" lon="5.73854">
        <ele>1031.748</ele>
        <time>2021-08-07T05:02:22Z</time>
      </trkpt>
      <trkpt lat="45.22814" lon="5.73861">
        <ele>1030.289</ele>
        <time>2021-08-07T05:02:28Z</time>
      </trkpt>
      <trkpt lat="45.22825" lon="5.73865">
        <ele>1029.461</ele>
        <time>2021-08-07T05:02:34Z</time>
      </trkpt>
      <trkpt lat="45.22828" lon="5.73868">
        <ele>1028.677</ele>
        <time>2021-08-07T05:02:36Z</time>
      </trkpt>
      <trkpt lat="45.22841" lon="5.73872">
        <ele>1028.24</ele>
        <time>2021-08-07T05:02:42Z</time>
      </trkpt>
      <trkpt lat="45.22848" lon="5.73871">
        <ele>1028.9</ele>
        <time>2021-08-07T05:02:46Z</time>
      </trkpt>
      <trkpt lat="45.22857" lon="5.73877">
        <ele>1026.775</ele>
        <time>2021-08-07T05:02:50Z</time>
      </trkpt>
      <trkpt lat="45.22873" lon="5.73874">
        <ele>1026.875</ele>
        <time>2021-08-07T05:02:56Z</time>
      </trkpt>
      <trkpt lat="45.22878" lon="5.73872">
        <ele>1026.696</ele>
        <time>2021-08-07T05:02:58Z</time>
      </trkpt>
      <trkpt lat="45.22883" lon="5.73868">
        <ele>1026.923</ele>
        <time>2021-08-07T05:03:01Z</time>
      </trkpt>
      <trkpt lat="45.22887" lon="5.73869">
        <ele>1026.792</ele>
        <time>2021-08-07T05:03:03Z</time>
      </trkpt>
      <trkpt lat="45.22901" lon="5.73865">
        <ele>1025.796</ele>
        <time>2021-08-07T05:03:09Z</time>
      </trkpt>
      <trkpt lat="45.22913" lon="5.73863">
        <ele>1025.603</ele>
        <time>2021-08-07T05:03:15Z</time>
      </trkpt>
      <trkpt lat="45.22927" lon="5.73862">
        <ele>1024.731</ele>
        <time>2021-08-07T05:03:21Z</time>
      </trkpt>
      <trkpt lat="45.22929" lon="5.73862">
        <ele>1024.213</ele>
        <time>2021-08-07T05:03:22Z</time>
      </trkpt>
      <trkpt lat="45.22941" lon="5.73868">
        <ele>1022.956</ele>
        <time>2021-08-07T05:03:29Z</time>
      </trkpt>
      <trkpt lat="45.22941" lon="5.73882">
        <ele>1021.113</ele>
        <time>2021-08-07T05:03:35Z</time>
      </trkpt>
      <trkpt lat="45.22943" lon="5.73891">
        <ele>1019.479</ele>
        <time>2021-08-07T05:03:38Z</time>
      </trkpt>
      <trkpt lat="45.22944" lon="5.73898">
        <ele>1018.34</ele>
        <time>2021-08-07T05:03:40Z</time>
      </trkpt>
      <trkpt lat="45.2295" lon="5.73925">
        <ele>1018.161</ele>
        <time>2021-08-07T05:03:47Z</time>
      </trkpt>
      <trkpt lat="45.22957" lon="5.73946">
        <ele>1018.417</ele>
        <time>2021-08-07T05:03:54Z</time>
      </trkpt>
      <trkpt lat="45.22971" lon="5.73962">
        <ele>1018.338</ele>
        <time>2021-08-07T05:04:01Z</time>
      </trkpt>
      <trkpt lat="45.22986" lon="5.73969">
        <ele>1018.583</ele>
        <time>2021-08-07T05:04:07Z</time>
      </trkpt>
      <trkpt lat="45.22999" lon="5.73972">
        <ele>1018.575</ele>
        <time>2021-08-07T05:04:14Z</time>
      </trkpt>
      <trkpt lat="45.23014" lon="5.73974">
        <ele>1019.406</ele>
        <time>2021-08-07T05:04:21Z</time>
      </trkpt>
      <trkpt lat="45.23029" lon="5.73978">
        <ele>1019.375</ele>
        <time>2021-08-07T05:04:26Z</time>
      </trkpt>
      <trkpt lat="45.2304" lon="5.73976">
        <ele>1019.527</ele>
        <time>2021-08-07T05:04:31Z</time>
      </trkpt>
      <trkpt lat="45.23053" lon="5.7397">
        <ele>1020.153</ele>
        <time>2021-08-07T05:04:38Z</time>
      </trkpt>
      <trkpt lat="45.23066" lon="5.73968">
        <ele>1022.413</ele>
        <time>2021-08-07T05:04:45Z</time>
      </trkpt>
      <trkpt lat="45.23068" lon="5.73968">
        <ele>1022.647</ele>
        <time>2021-08-07T05:04:46Z</time>
      </trkpt>
      <trkpt lat="45.23084" lon="5.73973">
        <ele>1024.862</ele>
        <time>2021-08-07T05:04:53Z</time>
      </trkpt>
      <trkpt lat="45.23086" lon="5.73974">
        <ele>1025.15</ele>
        <time>2021-08-07T05:04:54Z</time>
      </trkpt>
      <trkpt lat="45.23091" lon="5.73978">
        <ele>1026.303</ele>
        <time>2021-08-07T05:04:59Z</time>
      </trkpt>
      <trkpt lat="45.23092" lon="5.73978">
        <ele>1026.379</ele>
        <time>2021-08-07T05:05:00Z</time>
      </trkpt>
      <trkpt lat="45.23093" lon="5.73977">
        <ele>1026.267</ele>
        <time>2021-08-07T05:05:02Z</time>
      </trkpt>
      <trkpt lat="45.2311" lon="5.73977">
        <ele>1026.869</ele>
        <time>2021-08-07T05:05:10Z</time>
      </trkpt>
      <trkpt lat="45.23121" lon="5.73978">
        <ele>1027.041</ele>
        <time>2021-08-07T05:05:15Z</time>
      </trkpt>
      <trkpt lat="45.23135" lon="5.73981">
        <ele>1028.485</ele>
        <time>2021-08-07T05:05:22Z</time>
      </trkpt>
      <trkpt lat="45.23147" lon="5.73985">
        <ele>1028.514</ele>
        <time>2021-08-07T05:05:28Z</time>
      </trkpt>
      <trkpt lat="45.23157" lon="5.73988">
        <ele>1027.785</ele>
        <time>2021-08-07T05:05:33Z</time>
      </trkpt>
      <trkpt lat="45.23165" lon="5.73994">
        <ele>1025.485</ele>
        <time>2021-08-07T05:05:39Z</time>
      </trkpt>
      <trkpt lat="45.2318" lon="5.74">
        <ele>1024.702</ele>
        <time>2021-08-07T05:05:46Z</time>
      </trkpt>
      <trkpt lat="45.23186" lon="5.74004">
        <ele>1023.74</ele>
        <time>2021-08-07T05:05:51Z</time>
      </trkpt>
      <trkpt lat="45.232" lon="5.74016">
        <ele>1022.041</ele>
        <time>2021-08-07T05:05:57Z</time>
      </trkpt>
      <trkpt lat="45.23216" lon="5.74029">
        <ele>1024.416</ele>
        <time>2021-08-07T05:06:05Z</time>
      </trkpt>
      <trkpt lat="45.2322" lon="5.74046">
        <ele>1024.979</ele>
        <time>2021-08-07T05:06:10Z</time>
      </trkpt>
      <trkpt lat="45.23222" lon="5.74066">
        <ele>1026.247</ele>
        <time>2021-08-07T05:06:16Z</time>
      </trkpt>
      <trkpt lat="45.23219" lon="5.74088">
        <ele>1026.507</ele>
        <time>2021-08-07T05:06:23Z</time>
      </trkpt>
      <trkpt lat="45.2322" lon="5.74103">
        <ele>1026.922</ele>
        <time>2021-08-07T05:06:27Z</time>
      </trkpt>
      <trkpt lat="45.23217" lon="5.74116">
        <ele>1026.833</ele>
        <time>2021-08-07T05:06:32Z</time>
      </trkpt>
      <trkpt lat="45.23227" lon="5.74129">
        <ele>1025.971</ele>
        <time>2021-08-07T05:06:39Z</time>
      </trkpt>
      <trkpt lat="45.23237" lon="5.74134">
        <ele>1026.347</ele>
        <time>2021-08-07T05:06:44Z</time>
      </trkpt>
      <trkpt lat="45.23252" lon="5.74142">
        <ele>1027.474</ele>
        <time>2021-08-07T05:06:51Z</time>
      </trkpt>
      <trkpt lat="45.23268" lon="5.74162">
        <ele>1026.693</ele>
        <time>2021-08-07T05:06:59Z</time>
      </trkpt>
      <trkpt lat="45.23279" lon="5.74181">
        <ele>1025.958</ele>
        <time>2021-08-07T05:07:06Z</time>
      </trkpt>
      <trkpt lat="45.23284" lon="5.74184">
        <ele>1024.697</ele>
        <time>2021-08-07T05:07:09Z</time>
      </trkpt>
      <trkpt lat="45.233" lon="5.74193">
        <ele>1024.936</ele>
        <time>2021-08-07T05:07:16Z</time>
      </trkpt>
      <trkpt lat="45.23308" lon="5.74199">
        <ele>1024.947</ele>
        <time>2021-08-07T05:07:19Z</time>
      </trkpt>
      <trkpt lat="45.23327" lon="5.74207">
        <ele>1024.685</ele>
        <time>2021-08-07T05:07:27Z</time>
      </trkpt>
      <trkpt lat="45.23344" lon="5.74217">
        <ele>1024.963</ele>
        <time>2021-08-07T05:07:35Z</time>
      </trkpt>
      <trkpt lat="45.23359" lon="5.74229">
        <ele>1024.995</ele>
        <time>2021-08-07T05:07:42Z</time>
      </trkpt>
      <trkpt lat="45.23374" lon="5.7424">
        <ele>1025.059</ele>
        <time>2021-08-07T05:07:47Z</time>
      </trkpt>
      <trkpt lat="45.23387" lon="5.74251">
        <ele>1024.95</ele>
        <time>2021-08-07T05:07:53Z</time>
      </trkpt>
      <trkpt lat="45.23392" lon="5.74253">
        <ele>1024.472</ele>
        <time>2021-08-07T05:07:56Z</time>
      </trkpt>
      <trkpt lat="45.23409" lon="5.74262">
        <ele>1022.358</ele>
        <time>2021-08-07T05:08:04Z</time>
      </trkpt>
      <trkpt lat="45.23416" lon="5.74267">
        <ele>1019.599</ele>
        <time>2021-08-07T05:08:08Z</time>
      </trkpt>
      <trkpt lat="45.23419" lon="5.74269">
        <ele>1019.539</ele>
        <time>2021-08-07T05:08:10Z</time>
      </trkpt>
      <trkpt lat="45.23426" lon="5.7427">
        <ele>1017.896</ele>
        <time>2021-08-07T05:08:14Z</time>
      </trkpt>
      <trkpt lat="45.23443" lon="5.74278">
        <ele>1015.352</ele>
        <time>2021-08-07T05:08:22Z</time>
      </trkpt>
      <trkpt lat="45.23455" lon="5.74287">
        <ele>1013.471</ele>
        <time>2021-08-07T05:08:30Z</time>
      </trkpt>
      <trkpt lat="45.23464" lon="5.74292">
        <ele>1011.439</ele>
        <time>2021-08-07T05:08:37Z</time>
      </trkpt>
      <trkpt lat="45.2347" lon="5.74295">
        <ele>1010.08</ele>
        <time>2021-08-07T05:08:40Z</time>
      </trkpt>
      <trkpt lat="45.23472" lon="5.74295">
        <ele>1009.688</ele>
        <time>2021-08-07T05:08:41Z</time>
      </trkpt>
      <trkpt lat="45.23477" lon="5.74294">
        <ele>1008.208</ele>
        <time>2021-08-07T05:08:45Z</time>
      </trkpt>
      <trkpt lat="45.23479" lon="5.74296">
        <ele>1007.014</ele>
        <time>2021-08-07T05:08:47Z</time>
      </trkpt>
      <trkpt lat="45.23491" lon="5.74306">
        <ele>1003.954</ele>
        <time>2021-08-07T05:08:55Z</time>
      </trkpt>
      <trkpt lat="45.23498" lon="5.74308">
        <ele>1001.626</ele>
        <time>2021-08-07T05:09:00Z</time>
      </trkpt>
      <trkpt lat="45.23501" lon="5.74311">
        <ele>1000.78</ele>
        <time>2021-08-07T05:09:02Z</time>
      </trkpt>
      <trkpt lat="45.23507" lon="5.74312">
        <ele>999.885</ele>
        <time>2021-08-07T05:09:05Z</time>
      </trkpt>
      <trkpt lat="45.23521" lon="5.74311">
        <ele>997.133</ele>
        <time>2021-08-07T05:09:13Z</time>
      </trkpt>
      <trkpt lat="45.23527" lon="5.74309">
        <ele>995.105</ele>
        <time>2021-08-07T05:09:17Z</time>
      </trkpt>
      <trkpt lat="45.23528" lon="5.74309">
        <ele>994.902</ele>
        <time>2021-08-07T05:09:18Z</time>
      </trkpt>
      <trkpt lat="45.23539" lon="5.7431">
        <ele>992.902</ele>
        <time>2021-08-07T05:09:23Z</time>
      </trkpt>
      <trkpt lat="45.2354" lon="5.7431">
        <ele>992.073</ele>
        <time>2021-08-07T05:09:24Z</time>
      </trkpt>
      <trkpt lat="45.23554" lon="5.74307">
        <ele>990.406</ele>
        <time>2021-08-07T05:09:31Z</time>
      </trkpt>
      <trkpt lat="45.23561" lon="5.74304">
        <ele>988.14</ele>
        <time>2021-08-07T05:09:37Z</time>
      </trkpt>
      <trkpt lat="45.23569" lon="5.743">
        <ele>985.549</ele>
        <time>2021-08-07T05:09:42Z</time>
      </trkpt>
      <trkpt lat="45.23572" lon="5.74297">
        <ele>984.936</ele>
        <time>2021-08-07T05:09:44Z</time>
      </trkpt>
      <trkpt lat="45.23578" lon="5.74295">
        <ele>981.578</ele>
        <time>2021-08-07T05:09:50Z</time>
      </trkpt>
      <trkpt lat="45.23584" lon="5.7429">
        <ele>979.474</ele>
        <time>2021-08-07T05:09:55Z</time>
      </trkpt>
      <trkpt lat="45.2359" lon="5.74289">
        <ele>978.106</ele>
        <time>2021-08-07T05:09:58Z</time>
      </trkpt>
      <trkpt lat="45.23597" lon="5.74286">
        <ele>976.79</ele>
        <time>2021-08-07T05:10:03Z</time>
      </trkpt>
      <trkpt lat="45.23606" lon="5.74285">
        <ele>974.743</ele>
        <time>2021-08-07T05:10:10Z</time>
      </trkpt>
      <trkpt lat="45.23617" lon="5.74278">
        <ele>972.936</ele>
        <time>2021-08-07T05:10:16Z</time>
      </trkpt>
      <trkpt lat="45.23621" lon="5.74273">
        <ele>972.422</ele>
        <time>2021-08-07T05:10:19Z</time>
      </trkpt>
      <trkpt lat="45.23629" lon="5.74268">
        <ele>969.228</ele>
        <time>2021-08-07T05:10:25Z</time>
      </trkpt>
      <trkpt lat="45.23633" lon="5.74267">
        <ele>968.504</ele>
        <time>2021-08-07T05:10:27Z</time>
      </trkpt>
      <trkpt lat="45.23645" lon="5.74264">
        <ele>966.301</ele>
        <time>2021-08-07T05:10:35Z</time>
      </trkpt>
      <trkpt lat="45.23646" lon="5.74262">
        <ele>966.193</ele>
        <time>2021-08-07T05:10:36Z</time>
      </trkpt>
      <trkpt lat="45.23657" lon="5.74262">
        <ele>964.063</ele>
        <time>2021-08-07T05:10:42Z</time>
      </trkpt>
      <trkpt lat="45.23662" lon="5.74259">
        <ele>962.485</ele>
        <time>2021-08-07T05:10:45Z</time>
      </trkpt>
      <trkpt lat="45.23666" lon="5.74255">
        <ele>961.192</ele>
        <time>2021-08-07T05:10:48Z</time>
      </trkpt>
      <trkpt lat="45.23673" lon="5.74252">
        <ele>959.469</ele>
        <time>2021-08-07T05:10:53Z</time>
      </trkpt>
      <trkpt lat="45.23684" lon="5.74245">
        <ele>958.272</ele>
        <time>2021-08-07T05:11:01Z</time>
      </trkpt>
      <trkpt lat="45.23687" lon="5.74242">
        <ele>957.734</ele>
        <time>2021-08-07T05:11:03Z</time>
      </trkpt>
      <trkpt lat="45.23697" lon="5.74232">
        <ele>955.538</ele>
        <time>2021-08-07T05:11:10Z</time>
      </trkpt>
      <trkpt lat="45.237" lon="5.74229">
        <ele>954.864</ele>
        <time>2021-08-07T05:11:12Z</time>
      </trkpt>
      <trkpt lat="45.23712" lon="5.74209">
        <ele>952.912</ele>
        <time>2021-08-07T05:11:19Z</time>
      </trkpt>
      <trkpt lat="45.23721" lon="5.74201">
        <ele>951.36</ele>
        <time>2021-08-07T05:11:25Z</time>
      </trkpt>
      <trkpt lat="45.23728" lon="5.74195">
        <ele>949.421</ele>
        <time>2021-08-07T05:11:32Z</time>
      </trkpt>
      <trkpt lat="45.23728" lon="5.74193">
        <ele>949.611</ele>
        <time>2021-08-07T05:11:33Z</time>
      </trkpt>
      <trkpt lat="45.23735" lon="5.74188">
        <ele>946.241</ele>
        <time>2021-08-07T05:11:39Z</time>
      </trkpt>
      <trkpt lat="45.23742" lon="5.7418">
        <ele>943.463</ele>
        <time>2021-08-07T05:11:48Z</time>
      </trkpt>
      <trkpt lat="45.23757" lon="5.74168">
        <ele>939.677</ele>
        <time>2021-08-07T05:12:02Z</time>
      </trkpt>
      <trkpt lat="45.23758" lon="5.74167">
        <ele>939.377</ele>
        <time>2021-08-07T05:12:03Z</time>
      </trkpt>
      <trkpt lat="45.23769" lon="5.74164">
        <ele>936.31</ele>
        <time>2021-08-07T05:12:12Z</time>
      </trkpt>
      <trkpt lat="45.23776" lon="5.74164">
        <ele>935.617</ele>
        <time>2021-08-07T05:12:17Z</time>
      </trkpt>
      <trkpt lat="45.23778" lon="5.74163">
        <ele>935.422</ele>
        <time>2021-08-07T05:12:19Z</time>
      </trkpt>
      <trkpt lat="45.23783" lon="5.74159">
        <ele>934.002</ele>
        <time>2021-08-07T05:12:23Z</time>
      </trkpt>
      <trkpt lat="45.23786" lon="5.74157">
        <ele>932.07</ele>
        <time>2021-08-07T05:12:28Z</time>
      </trkpt>
      <trkpt lat="45.23791" lon="5.74156">
        <ele>931.424</ele>
        <time>2021-08-07T05:12:30Z</time>
      </trkpt>
      <trkpt lat="45.23803" lon="5.74153">
        <ele>929.287</ele>
        <time>2021-08-07T05:12:36Z</time>
      </trkpt>
      <trkpt lat="45.23805" lon="5.74152">
        <ele>929.285</ele>
        <time>2021-08-07T05:12:37Z</time>
      </trkpt>
      <trkpt lat="45.23817" lon="5.74146">
        <ele>926.54</ele>
        <time>2021-08-07T05:12:44Z</time>
      </trkpt>
      <trkpt lat="45.23821" lon="5.74143">
        <ele>925.455</ele>
        <time>2021-08-07T05:12:48Z</time>
      </trkpt>
      <trkpt lat="45.23827" lon="5.74139">
        <ele>923.958</ele>
        <time>2021-08-07T05:12:52Z</time>
      </trkpt>
      <trkpt lat="45.23829" lon="5.74139">
        <ele>924.284</ele>
        <time>2021-08-07T05:12:54Z</time>
      </trkpt>
      <trkpt lat="45.23834" lon="5.74137">
        <ele>922.806</ele>
        <time>2021-08-07T05:12:57Z</time>
      </trkpt>
      <trkpt lat="45.23839" lon="5.74134">
        <ele>922.714</ele>
        <time>2021-08-07T05:13:00Z</time>
      </trkpt>
      <trkpt lat="45.23845" lon="5.74129">
        <ele>920.21</ele>
        <time>2021-08-07T05:13:06Z</time>
      </trkpt>
      <trkpt lat="45.23849" lon="5.74122">
        <ele>917.674</ele>
        <time>2021-08-07T05:13:12Z</time>
      </trkpt>
      <trkpt lat="45.2385" lon="5.74117">
        <ele>916.019</ele>
        <time>2021-08-07T05:13:15Z</time>
      </trkpt>
      <trkpt lat="45.23852" lon="5.7411">
        <ele>915.417</ele>
        <time>2021-08-07T05:13:21Z</time>
      </trkpt>
      <trkpt lat="45.23852" lon="5.74108">
        <ele>915.249</ele>
        <time>2021-08-07T05:13:25Z</time>
      </trkpt>
      <trkpt lat="45.23855" lon="5.74105">
        <ele>914.351</ele>
        <time>2021-08-07T05:13:27Z</time>
      </trkpt>
      <trkpt lat="45.23867" lon="5.74098">
        <ele>912.815</ele>
        <time>2021-08-07T05:13:33Z</time>
      </trkpt>
      <trkpt lat="45.23869" lon="5.74092">
        <ele>912.191</ele>
        <time>2021-08-07T05:13:36Z</time>
      </trkpt>
      <trkpt lat="45.23872" lon="5.74089">
        <ele>910.861</ele>
        <time>2021-08-07T05:13:39Z</time>
      </trkpt>
      <trkpt lat="45.23873" lon="5.74087">
        <ele>910.627</ele>
        <time>2021-08-07T05:13:41Z</time>
      </trkpt>
      <trkpt lat="45.23883" lon="5.74083">
        <ele>907.644</ele>
        <time>2021-08-07T05:13:48Z</time>
      </trkpt>
      <trkpt lat="45.23894" lon="5.74082">
        <ele>906.191</ele>
        <time>2021-08-07T05:13:54Z</time>
      </trkpt>
      <trkpt lat="45.23901" lon="5.74083">
        <ele>904.501</ele>
        <time>2021-08-07T05:13:58Z</time>
      </trkpt>
      <trkpt lat="45.23903" lon="5.74082">
        <ele>904.081</ele>
        <time>2021-08-07T05:13:59Z</time>
      </trkpt>
      <trkpt lat="45.2391" lon="5.74086">
        <ele>901.776</ele>
        <time>2021-08-07T05:14:04Z</time>
      </trkpt>
      <trkpt lat="45.23913" lon="5.74093">
        <ele>900.079</ele>
        <time>2021-08-07T05:14:08Z</time>
      </trkpt>
      <trkpt lat="45.23914" lon="5.74097">
        <ele>898.298</ele>
        <time>2021-08-07T05:14:10Z</time>
      </trkpt>
      <trkpt lat="45.23917" lon="5.74101">
        <ele>896.221</ele>
        <time>2021-08-07T05:14:14Z</time>
      </trkpt>
      <trkpt lat="45.23927" lon="5.74104">
        <ele>894.85</ele>
        <time>2021-08-07T05:14:19Z</time>
      </trkpt>
      <trkpt lat="45.23937" lon="5.74104">
        <ele>892.394</ele>
        <time>2021-08-07T05:14:25Z</time>
      </trkpt>
      <trkpt lat="45.23938" lon="5.74103">
        <ele>891.329</ele>
        <time>2021-08-07T05:14:27Z</time>
      </trkpt>
      <trkpt lat="45.23942" lon="5.741">
        <ele>888.228</ele>
        <time>2021-08-07T05:14:36Z</time>
      </trkpt>
      <trkpt lat="45.23947" lon="5.74097">
        <ele>887.146</ele>
        <time>2021-08-07T05:14:43Z</time>
      </trkpt>
      <trkpt lat="45.23949" lon="5.74096">
        <ele>885.717</ele>
        <time>2021-08-07T05:14:51Z</time>
      </trkpt>
      <trkpt lat="45.23953" lon="5.74096">
        <ele>884.798</ele>
        <time>2021-08-07T05:14:56Z</time>
      </trkpt>
      <trkpt lat="45.23961" lon="5.74089">
        <ele>883.357</ele>
        <time>2021-08-07T05:15:03Z</time>
      </trkpt>
      <trkpt lat="45.2397" lon="5.74082">
        <ele>881.135</ele>
        <time>2021-08-07T05:15:08Z</time>
      </trkpt>
      <trkpt lat="45.23975" lon="5.7408">
        <ele>880.205</ele>
        <time>2021-08-07T05:15:11Z</time>
      </trkpt>
      <trkpt lat="45.23982" lon="5.74074">
        <ele>878.946</ele>
        <time>2021-08-07T05:15:15Z</time>
      </trkpt>
      <trkpt lat="45.23994" lon="5.7406">
        <ele>875.341</ele>
        <time>2021-08-07T05:15:24Z</time>
      </trkpt>
      <trkpt lat="45.24004" lon="5.7405">
        <ele>874.312</ele>
        <time>2021-08-07T05:15:30Z</time>
      </trkpt>
      <trkpt lat="45.24015" lon="5.74043">
        <ele>873.055</ele>
        <time>2021-08-07T05:15:35Z</time>
      </trkpt>
      <trkpt lat="45.24021" lon="5.74037">
        <ele>869.848</ele>
        <time>2021-08-07T05:15:39Z</time>
      </trkpt>
      <trkpt lat="45.24028" lon="5.74027">
        <ele>868.215</ele>
        <time>2021-08-07T05:15:44Z</time>
      </trkpt>
      <trkpt lat="45.24031" lon="5.74024">
        <ele>868.128</ele>
        <time>2021-08-07T05:15:46Z</time>
      </trkpt>
      <trkpt lat="45.24042" lon="5.74013">
        <ele>866.024</ele>
        <time>2021-08-07T05:15:53Z</time>
      </trkpt>
      <trkpt lat="45.24048" lon="5.74004">
        <ele>865.088</ele>
        <time>2021-08-07T05:15:57Z</time>
      </trkpt>
      <trkpt lat="45.24054" lon="5.73992">
        <ele>862.654</ele>
        <time>2021-08-07T05:16:03Z</time>
      </trkpt>
      <trkpt lat="45.2406" lon="5.73983">
        <ele>861.568</ele>
        <time>2021-08-07T05:16:07Z</time>
      </trkpt>
      <trkpt lat="45.24063" lon="5.73978">
        <ele>861.251</ele>
        <time>2021-08-07T05:16:09Z</time>
      </trkpt>
      <trkpt lat="45.24072" lon="5.73972">
        <ele>858.822</ele>
        <time>2021-08-07T05:16:14Z</time>
      </trkpt>
      <trkpt lat="45.24079" lon="5.73968">
        <ele>857.047</ele>
        <time>2021-08-07T05:16:18Z</time>
      </trkpt>
      <trkpt lat="45.24087" lon="5.73965">
        <ele>854.608</ele>
        <time>2021-08-07T05:16:23Z</time>
      </trkpt>
      <trkpt lat="45.24096" lon="5.73961">
        <ele>852.943</ele>
        <time>2021-08-07T05:16:28Z</time>
      </trkpt>
      <trkpt lat="45.24111" lon="5.73951">
        <ele>851.426</ele>
        <time>2021-08-07T05:16:35Z</time>
      </trkpt>
      <trkpt lat="45.2412" lon="5.73946">
        <ele>849.267</ele>
        <time>2021-08-07T05:16:41Z</time>
      </trkpt>
      <trkpt lat="45.24124" lon="5.73945">
        <ele>848.564</ele>
        <time>2021-08-07T05:16:43Z</time>
      </trkpt>
      <trkpt lat="45.24128" lon="5.73944">
        <ele>847.857</ele>
        <time>2021-08-07T05:16:45Z</time>
      </trkpt>
      <trkpt lat="45.24149" lon="5.73945">
        <ele>845.657</ele>
        <time>2021-08-07T05:16:51Z</time>
      </trkpt>
      <trkpt lat="45.24156" lon="5.73944">
        <ele>843.868</ele>
        <time>2021-08-07T05:16:54Z</time>
      </trkpt>
      <trkpt lat="45.24166" lon="5.73943">
        <ele>842.275</ele>
        <time>2021-08-07T05:16:58Z</time>
      </trkpt>
      <trkpt lat="45.24179" lon="5.73946">
        <ele>840.577</ele>
        <time>2021-08-07T05:17:06Z</time>
      </trkpt>
      <trkpt lat="45.24185" lon="5.7395">
        <ele>839.968</ele>
        <time>2021-08-07T05:17:10Z</time>
      </trkpt>
      <trkpt lat="45.24201" lon="5.7396">
        <ele>839.432</ele>
        <time>2021-08-07T05:17:16Z</time>
      </trkpt>
      <trkpt lat="45.24212" lon="5.73975">
        <ele>840.201</ele>
        <time>2021-08-07T05:17:22Z</time>
      </trkpt>
      <trkpt lat="45.24218" lon="5.73988">
        <ele>839.545</ele>
        <time>2021-08-07T05:17:27Z</time>
      </trkpt>
      <trkpt lat="45.2422" lon="5.73994">
        <ele>838.066</ele>
        <time>2021-08-07T05:17:29Z</time>
      </trkpt>
      <trkpt lat="45.2423" lon="5.7401">
        <ele>837.07</ele>
        <time>2021-08-07T05:17:35Z</time>
      </trkpt>
      <trkpt lat="45.24232" lon="5.74017">
        <ele>836.629</ele>
        <time>2021-08-07T05:17:38Z</time>
      </trkpt>
      <trkpt lat="45.2425" lon="5.74037">
        <ele>836.605</ele>
        <time>2021-08-07T05:17:45Z</time>
      </trkpt>
      <trkpt lat="45.24257" lon="5.74044">
        <ele>836.404</ele>
        <time>2021-08-07T05:17:48Z</time>
      </trkpt>
      <trkpt lat="45.2427" lon="5.74054">
        <ele>834.474</ele>
        <time>2021-08-07T05:17:54Z</time>
      </trkpt>
      <trkpt lat="45.24272" lon="5.74056">
        <ele>834.484</ele>
        <time>2021-08-07T05:17:55Z</time>
      </trkpt>
      <trkpt lat="45.2428" lon="5.74062">
        <ele>834.569</ele>
        <time>2021-08-07T05:17:58Z</time>
      </trkpt>
      <trkpt lat="45.24287" lon="5.74074">
        <ele>831.991</ele>
        <time>2021-08-07T05:18:04Z</time>
      </trkpt>
      <trkpt lat="45.2429" lon="5.74078">
        <ele>830.559</ele>
        <time>2021-08-07T05:18:06Z</time>
      </trkpt>
      <trkpt lat="45.24295" lon="5.74081">
        <ele>829.172</ele>
        <time>2021-08-07T05:18:09Z</time>
      </trkpt>
      <trkpt lat="45.24306" lon="5.74086">
        <ele>828.177</ele>
        <time>2021-08-07T05:18:14Z</time>
      </trkpt>
      <trkpt lat="45.24323" lon="5.74094">
        <ele>825.919</ele>
        <time>2021-08-07T05:18:20Z</time>
      </trkpt>
      <trkpt lat="45.24328" lon="5.74099">
        <ele>825.544</ele>
        <time>2021-08-07T05:18:22Z</time>
      </trkpt>
      <trkpt lat="45.24339" lon="5.74111">
        <ele>823.162</ele>
        <time>2021-08-07T05:18:28Z</time>
      </trkpt>
      <trkpt lat="45.24346" lon="5.74117">
        <ele>821.232</ele>
        <time>2021-08-07T05:18:32Z</time>
      </trkpt>
      <trkpt lat="45.24347" lon="5.74122">
        <ele>820.139</ele>
        <time>2021-08-07T05:18:34Z</time>
      </trkpt>
      <trkpt lat="45.24349" lon="5.74127">
        <ele>819.904</ele>
        <time>2021-08-07T05:18:36Z</time>
      </trkpt>
      <trkpt lat="45.24353" lon="5.74135">
        <ele>818.296</ele>
        <time>2021-08-07T05:18:39Z</time>
      </trkpt>
      <trkpt lat="45.2436" lon="5.74148">
        <ele>816.452</ele>
        <time>2021-08-07T05:18:45Z</time>
      </trkpt>
      <trkpt lat="45.24369" lon="5.74164">
        <ele>814.196</ele>
        <time>2021-08-07T05:18:50Z</time>
      </trkpt>
      <trkpt lat="45.24384" lon="5.74171">
        <ele>812.808</ele>
        <time>2021-08-07T05:18:55Z</time>
      </trkpt>
      <trkpt lat="45.24405" lon="5.74194">
        <ele>810.088</ele>
        <time>2021-08-07T05:19:07Z</time>
      </trkpt>
      <trkpt lat="45.24424" lon="5.74207">
        <ele>806.303</ele>
        <time>2021-08-07T05:19:14Z</time>
      </trkpt>
      <trkpt lat="45.24428" lon="5.74216">
        <ele>805.537</ele>
        <time>2021-08-07T05:19:17Z</time>
      </trkpt>
      <trkpt lat="45.24446" lon="5.74235">
        <ele>805.217</ele>
        <time>2021-08-07T05:19:25Z</time>
      </trkpt>
      <trkpt lat="45.24456" lon="5.74245">
        <ele>804.508</ele>
        <time>2021-08-07T05:19:31Z</time>
      </trkpt>
      <trkpt lat="45.24466" lon="5.74256">
        <ele>802.282</ele>
        <time>2021-08-07T05:19:38Z</time>
      </trkpt>
      <trkpt lat="45.24473" lon="5.74261">
        <ele>800.682</ele>
        <time>2021-08-07T05:19:42Z</time>
      </trkpt>
      <trkpt lat="45.24479" lon="5.74261">
        <ele>798.641</ele>
        <time>2021-08-07T05:19:46Z</time>
      </trkpt>
      <trkpt lat="45.24482" lon="5.74261">
        <ele>797.601</ele>
        <time>2021-08-07T05:19:48Z</time>
      </trkpt>
      <trkpt lat="45.24492" lon="5.74262">
        <ele>795.719</ele>
        <time>2021-08-07T05:19:55Z</time>
      </trkpt>
      <trkpt lat="45.24496" lon="5.7426">
        <ele>794.12</ele>
        <time>2021-08-07T05:19:57Z</time>
      </trkpt>
      <trkpt lat="45.245" lon="5.74263">
        <ele>792.881</ele>
        <time>2021-08-07T05:20:00Z</time>
      </trkpt>
      <trkpt lat="45.24503" lon="5.74267">
        <ele>794.016</ele>
        <time>2021-08-07T05:20:06Z</time>
      </trkpt>
      <trkpt lat="45.24508" lon="5.74266">
        <ele>792.4</ele>
        <time>2021-08-07T05:20:19Z</time>
      </trkpt>
      <trkpt lat="45.24503" lon="5.74266">
        <ele>792.751</ele>
        <time>2021-08-07T05:20:25Z</time>
      </trkpt>
      <trkpt lat="45.245" lon="5.74256">
        <ele>792.424</ele>
        <time>2021-08-07T05:20:29Z</time>
      </trkpt>
      <trkpt lat="45.2449" lon="5.7423">
        <ele>790.214</ele>
        <time>2021-08-07T05:20:37Z</time>
      </trkpt>
      <trkpt lat="45.24489" lon="5.74224">
        <ele>789.289</ele>
        <time>2021-08-07T05:20:39Z</time>
      </trkpt>
      <trkpt lat="45.24484" lon="5.74209">
        <ele>789.268</ele>
        <time>2021-08-07T05:20:43Z</time>
      </trkpt>
      <trkpt lat="45.24482" lon="5.74202">
        <ele>789.098</ele>
        <time>2021-08-07T05:20:45Z</time>
      </trkpt>
      <trkpt lat="45.24482" lon="5.74196">
        <ele>789.066</ele>
        <time>2021-08-07T05:20:47Z</time>
      </trkpt>
      <trkpt lat="45.24481" lon="5.74174">
        <ele>787.71</ele>
        <time>2021-08-07T05:20:52Z</time>
      </trkpt>
      <trkpt lat="45.24468" lon="5.74143">
        <ele>784.48</ele>
        <time>2021-08-07T05:21:01Z</time>
      </trkpt>
      <trkpt lat="45.24461" lon="5.74127">
        <ele>781.932</ele>
        <time>2021-08-07T05:21:07Z</time>
      </trkpt>
      <trkpt lat="45.24457" lon="5.74112">
        <ele>780.105</ele>
        <time>2021-08-07T05:21:11Z</time>
      </trkpt>
      <trkpt lat="45.24452" lon="5.74074">
        <ele>778.451</ele>
        <time>2021-08-07T05:21:20Z</time>
      </trkpt>
      <trkpt lat="45.24449" lon="5.74047">
        <ele>776.668</ele>
        <time>2021-08-07T05:21:27Z</time>
      </trkpt>
      <trkpt lat="45.24443" lon="5.74024">
        <ele>775.847</ele>
        <time>2021-08-07T05:21:33Z</time>
      </trkpt>
      <trkpt lat="45.24435" lon="5.73997">
        <ele>774.667</ele>
        <time>2021-08-07T05:21:40Z</time>
      </trkpt>
      <trkpt lat="45.24428" lon="5.73972">
        <ele>774.872</ele>
        <time>2021-08-07T05:21:46Z</time>
      </trkpt>
      <trkpt lat="45.24422" lon="5.73951">
        <ele>776.169</ele>
        <time>2021-08-07T05:21:52Z</time>
      </trkpt>
      <trkpt lat="45.24419" lon="5.73928">
        <ele>776.698</ele>
        <time>2021-08-07T05:21:58Z</time>
      </trkpt>
      <trkpt lat="45.24418" lon="5.73915">
        <ele>776.977</ele>
        <time>2021-08-07T05:22:03Z</time>
      </trkpt>
      <trkpt lat="45.24416" lon="5.73911">
        <ele>776.792</ele>
        <time>2021-08-07T05:22:13Z</time>
      </trkpt>
      <trkpt lat="45.24415" lon="5.73912">
        <ele>776.448</ele>
        <time>2021-08-07T05:22:25Z</time>
      </trkpt>
      <trkpt lat="45.24417" lon="5.73939">
        <ele>776.725</ele>
        <time>2021-08-07T05:22:33Z</time>
      </trkpt>
      <trkpt lat="45.24423" lon="5.73964">
        <ele>775.442</ele>
        <time>2021-08-07T05:22:40Z</time>
      </trkpt>
      <trkpt lat="45.24428" lon="5.73986">
        <ele>773.981</ele>
        <time>2021-08-07T05:22:46Z</time>
      </trkpt>
      <trkpt lat="45.24433" lon="5.74006">
        <ele>774.411</ele>
        <time>2021-08-07T05:22:52Z</time>
      </trkpt>
      <trkpt lat="45.24436" lon="5.74028">
        <ele>775.034</ele>
        <time>2021-08-07T05:22:58Z</time>
      </trkpt>
      <trkpt lat="45.24443" lon="5.74047">
        <ele>776.19</ele>
        <time>2021-08-07T05:23:04Z</time>
      </trkpt>
      <trkpt lat="45.24445" lon="5.74068">
        <ele>776.506</ele>
        <time>2021-08-07T05:23:10Z</time>
      </trkpt>
      <trkpt lat="45.24448" lon="5.74096">
        <ele>778.485</ele>
        <time>2021-08-07T05:23:18Z</time>
      </trkpt>
      <trkpt lat="45.24454" lon="5.74116">
        <ele>779.88</ele>
        <time>2021-08-07T05:23:24Z</time>
      </trkpt>
      <trkpt lat="45.24458" lon="5.74136">
        <ele>781.499</ele>
        <time>2021-08-07T05:23:31Z</time>
      </trkpt>
      <trkpt lat="45.24455" lon="5.74139">
        <ele>782.093</ele>
        <time>2021-08-07T05:23:39Z</time>
      </trkpt>
      <trkpt lat="45.24459" lon="5.74137">
        <ele>782.449</ele>
        <time>2021-08-07T05:24:05Z</time>
      </trkpt>
      <trkpt lat="45.24462" lon="5.74139">
        <ele>782.413</ele>
        <time>2021-08-07T05:24:33Z</time>
      </trkpt>
      <trkpt lat="45.24466" lon="5.74138">
        <ele>782.384</ele>
        <time>2021-08-07T05:24:55Z</time>
      </trkpt>
      <trkpt lat="45.24474" lon="5.74151">
        <ele>783.859</ele>
        <time>2021-08-07T05:25:01Z</time>
      </trkpt>
      <trkpt lat="45.24479" lon="5.74168">
        <ele>786.087</ele>
        <time>2021-08-07T05:25:08Z</time>
      </trkpt>
      <trkpt lat="45.24479" lon="5.74176">
        <ele>787.03</ele>
        <time>2021-08-07T05:25:11Z</time>
      </trkpt>
      <trkpt lat="45.24482" lon="5.74195">
        <ele>787.652</ele>
        <time>2021-08-07T05:25:18Z</time>
      </trkpt>
      <trkpt lat="45.24484" lon="5.74211">
        <ele>788.557</ele>
        <time>2021-08-07T05:25:23Z</time>
      </trkpt>
      <trkpt lat="45.24487" lon="5.74223">
        <ele>788.776</ele>
        <time>2021-08-07T05:25:29Z</time>
      </trkpt>
      <trkpt lat="45.24491" lon="5.74232">
        <ele>788.705</ele>
        <time>2021-08-07T05:25:33Z</time>
      </trkpt>
      <trkpt lat="45.24497" lon="5.7425">
        <ele>791.002</ele>
        <time>2021-08-07T05:25:40Z</time>
      </trkpt>
      <trkpt lat="45.24499" lon="5.74258">
        <ele>792.812</ele>
        <time>2021-08-07T05:25:44Z</time>
      </trkpt>
      <trkpt lat="45.24497" lon="5.74261">
        <ele>793.735</ele>
        <time>2021-08-07T05:25:46Z</time>
      </trkpt>
      <trkpt lat="45.24485" lon="5.74266">
        <ele>794.18</ele>
        <time>2021-08-07T05:25:53Z</time>
      </trkpt>
      <trkpt lat="45.2448" lon="5.74267">
        <ele>795.384</ele>
        <time>2021-08-07T05:25:56Z</time>
      </trkpt>
      <trkpt lat="45.24478" lon="5.74267">
        <ele>796.702</ele>
        <time>2021-08-07T05:25:58Z</time>
      </trkpt>
      <trkpt lat="45.24474" lon="5.74266">
        <ele>797.324</ele>
        <time>2021-08-07T05:26:00Z</time>
      </trkpt>
      <trkpt lat="45.24464" lon="5.74262">
        <ele>800.206</ele>
        <time>2021-08-07T05:26:08Z</time>
      </trkpt>
      <trkpt lat="45.24463" lon="5.74262">
        <ele>800.353</ele>
        <time>2021-08-07T05:26:10Z</time>
      </trkpt>
      <trkpt lat="45.24461" lon="5.7426">
        <ele>800.942</ele>
        <time>2021-08-07T05:26:14Z</time>
      </trkpt>
      <trkpt lat="45.24449" lon="5.74253">
        <ele>802.054</ele>
        <time>2021-08-07T05:26:23Z</time>
      </trkpt>
      <trkpt lat="45.24449" lon="5.74252">
        <ele>803.212</ele>
        <time>2021-08-07T05:26:25Z</time>
      </trkpt>
      <trkpt lat="45.24449" lon="5.7425">
        <ele>803.917</ele>
        <time>2021-08-07T05:26:27Z</time>
      </trkpt>
      <trkpt lat="45.24443" lon="5.74245">
        <ele>805.282</ele>
        <time>2021-08-07T05:26:31Z</time>
      </trkpt>
      <trkpt lat="45.24431" lon="5.74236">
        <ele>805.448</ele>
        <time>2021-08-07T05:26:38Z</time>
      </trkpt>
      <trkpt lat="45.24422" lon="5.74224">
        <ele>805.777</ele>
        <time>2021-08-07T05:26:45Z</time>
      </trkpt>
      <trkpt lat="45.2441" lon="5.74215">
        <ele>806.877</ele>
        <time>2021-08-07T05:26:51Z</time>
      </trkpt>
      <trkpt lat="45.2441" lon="5.74216">
        <ele>807.858</ele>
        <time>2021-08-07T05:26:53Z</time>
      </trkpt>
      <trkpt lat="45.24406" lon="5.74212">
        <ele>808.822</ele>
        <time>2021-08-07T05:26:56Z</time>
      </trkpt>
      <trkpt lat="45.24389" lon="5.74201">
        <ele>809.652</ele>
        <time>2021-08-07T05:27:03Z</time>
      </trkpt>
      <trkpt lat="45.24387" lon="5.74201">
        <ele>810.141</ele>
        <time>2021-08-07T05:27:04Z</time>
      </trkpt>
      <trkpt lat="45.2438" lon="5.74187">
        <ele>810.677</ele>
        <time>2021-08-07T05:27:11Z</time>
      </trkpt>
      <trkpt lat="45.24368" lon="5.74172">
        <ele>812.616</ele>
        <time>2021-08-07T05:27:19Z</time>
      </trkpt>
      <trkpt lat="45.24366" lon="5.74169">
        <ele>813.524</ele>
        <time>2021-08-07T05:27:21Z</time>
      </trkpt>
      <trkpt lat="45.24358" lon="5.7416">
        <ele>814.542</ele>
        <time>2021-08-07T05:27:27Z</time>
      </trkpt>
      <trkpt lat="45.24355" lon="5.74151">
        <ele>815.13</ele>
        <time>2021-08-07T05:27:31Z</time>
      </trkpt>
      <trkpt lat="45.24348" lon="5.7414">
        <ele>816.276</ele>
        <time>2021-08-07T05:27:37Z</time>
      </trkpt>
      <trkpt lat="45.24343" lon="5.74129">
        <ele>818.145</ele>
        <time>2021-08-07T05:27:42Z</time>
      </trkpt>
      <trkpt lat="45.24342" lon="5.74126">
        <ele>818.907</ele>
        <time>2021-08-07T05:27:44Z</time>
      </trkpt>
      <trkpt lat="45.24337" lon="5.74121">
        <ele>820.182</ele>
        <time>2021-08-07T05:27:49Z</time>
      </trkpt>
      <trkpt lat="45.24328" lon="5.7411">
        <ele>822.357</ele>
        <time>2021-08-07T05:27:57Z</time>
      </trkpt>
      <trkpt lat="45.24324" lon="5.74107">
        <ele>823.57</ele>
        <time>2021-08-07T05:28:01Z</time>
      </trkpt>
      <trkpt lat="45.24319" lon="5.74104">
        <ele>823.816</ele>
        <time>2021-08-07T05:28:04Z</time>
      </trkpt>
      <trkpt lat="45.24309" lon="5.74098">
        <ele>825.172</ele>
        <time>2021-08-07T05:28:10Z</time>
      </trkpt>
      <trkpt lat="45.24304" lon="5.74093">
        <ele>826.081</ele>
        <time>2021-08-07T05:28:15Z</time>
      </trkpt>
      <trkpt lat="45.24299" lon="5.74091">
        <ele>827.943</ele>
        <time>2021-08-07T05:28:20Z</time>
      </trkpt>
      <trkpt lat="45.24296" lon="5.74092">
        <ele>828.325</ele>
        <time>2021-08-07T05:28:22Z</time>
      </trkpt>
      <trkpt lat="45.24293" lon="5.74091">
        <ele>829.042</ele>
        <time>2021-08-07T05:28:25Z</time>
      </trkpt>
      <trkpt lat="45.24288" lon="5.74086">
        <ele>830.958</ele>
        <time>2021-08-07T05:28:28Z</time>
      </trkpt>
      <trkpt lat="45.24278" lon="5.74083">
        <ele>832.965</ele>
        <time>2021-08-07T05:28:34Z</time>
      </trkpt>
      <trkpt lat="45.24271" lon="5.74073">
        <ele>833.761</ele>
        <time>2021-08-07T05:28:41Z</time>
      </trkpt>
      <trkpt lat="45.24262" lon="5.7406">
        <ele>834.417</ele>
        <time>2021-08-07T05:28:48Z</time>
      </trkpt>
      <trkpt lat="45.24255" lon="5.74052">
        <ele>835.489</ele>
        <time>2021-08-07T05:28:53Z</time>
      </trkpt>
      <trkpt lat="45.24254" lon="5.7405">
        <ele>835.492</ele>
        <time>2021-08-07T05:28:54Z</time>
      </trkpt>
      <trkpt lat="45.24245" lon="5.74041">
        <ele>835.949</ele>
        <time>2021-08-07T05:29:01Z</time>
      </trkpt>
      <trkpt lat="45.24239" lon="5.74038">
        <ele>835.804</ele>
        <time>2021-08-07T05:29:05Z</time>
      </trkpt>
      <trkpt lat="45.24236" lon="5.74034">
        <ele>836.393</ele>
        <time>2021-08-07T05:29:07Z</time>
      </trkpt>
      <trkpt lat="45.24229" lon="5.74017">
        <ele>836.793</ele>
        <time>2021-08-07T05:29:12Z</time>
      </trkpt>
      <trkpt lat="45.24221" lon="5.7401">
        <ele>836.906</ele>
        <time>2021-08-07T05:29:15Z</time>
      </trkpt>
      <trkpt lat="45.24212" lon="5.73989">
        <ele>837.724</ele>
        <time>2021-08-07T05:29:23Z</time>
      </trkpt>
      <trkpt lat="45.24212" lon="5.73987">
        <ele>837.871</ele>
        <time>2021-08-07T05:29:24Z</time>
      </trkpt>
      <trkpt lat="45.24197" lon="5.73967">
        <ele>838.994</ele>
        <time>2021-08-07T05:29:34Z</time>
      </trkpt>
      <trkpt lat="45.24185" lon="5.73956">
        <ele>838.926</ele>
        <time>2021-08-07T05:29:42Z</time>
      </trkpt>
      <trkpt lat="45.24175" lon="5.73952">
        <ele>839.698</ele>
        <time>2021-08-07T05:29:48Z</time>
      </trkpt>
      <trkpt lat="45.24173" lon="5.73952">
        <ele>840.39</ele>
        <time>2021-08-07T05:29:49Z</time>
      </trkpt>
      <trkpt lat="45.24161" lon="5.73947">
        <ele>841.745</ele>
        <time>2021-08-07T05:29:54Z</time>
      </trkpt>
      <trkpt lat="45.24151" lon="5.73944">
        <ele>843.602</ele>
        <time>2021-08-07T05:30:00Z</time>
      </trkpt>
      <trkpt lat="45.24145" lon="5.73944">
        <ele>844.576</ele>
        <time>2021-08-07T05:30:05Z</time>
      </trkpt>
      <trkpt lat="45.24142" lon="5.73942">
        <ele>845.014</ele>
        <time>2021-08-07T05:30:07Z</time>
      </trkpt>
      <trkpt lat="45.24133" lon="5.73943">
        <ele>846.321</ele>
        <time>2021-08-07T05:30:12Z</time>
      </trkpt>
      <trkpt lat="45.24123" lon="5.73938">
        <ele>848.198</ele>
        <time>2021-08-07T05:30:18Z</time>
      </trkpt>
      <trkpt lat="45.24119" lon="5.73941">
        <ele>849.234</ele>
        <time>2021-08-07T05:30:22Z</time>
      </trkpt>
      <trkpt lat="45.24112" lon="5.73946">
        <ele>850.471</ele>
        <time>2021-08-07T05:30:28Z</time>
      </trkpt>
      <trkpt lat="45.24105" lon="5.73954">
        <ele>852.481</ele>
        <time>2021-08-07T05:30:34Z</time>
      </trkpt>
      <trkpt lat="45.24099" lon="5.73963">
        <ele>853.916</ele>
        <time>2021-08-07T05:30:38Z</time>
      </trkpt>
      <trkpt lat="45.24096" lon="5.73968">
        <ele>854.082</ele>
        <time>2021-08-07T05:30:43Z</time>
      </trkpt>
      <trkpt lat="45.24085" lon="5.73972">
        <ele>856.694</ele>
        <time>2021-08-07T05:30:50Z</time>
      </trkpt>
      <trkpt lat="45.24079" lon="5.73974">
        <ele>858.015</ele>
        <time>2021-08-07T05:30:55Z</time>
      </trkpt>
      <trkpt lat="45.24073" lon="5.73977">
        <ele>858.049</ele>
        <time>2021-08-07T05:31:01Z</time>
      </trkpt>
      <trkpt lat="45.24065" lon="5.73981">
        <ele>860.275</ele>
        <time>2021-08-07T05:31:08Z</time>
      </trkpt>
      <trkpt lat="45.24062" lon="5.73984">
        <ele>860.961</ele>
        <time>2021-08-07T05:31:11Z</time>
      </trkpt>
      <trkpt lat="45.24056" lon="5.73991">
        <ele>861.678</ele>
        <time>2021-08-07T05:31:18Z</time>
      </trkpt>
      <trkpt lat="45.24051" lon="5.74002">
        <ele>862.893</ele>
        <time>2021-08-07T05:31:25Z</time>
      </trkpt>
      <trkpt lat="45.2405" lon="5.74004">
        <ele>863.103</ele>
        <time>2021-08-07T05:31:26Z</time>
      </trkpt>
      <trkpt lat="45.24047" lon="5.74008">
        <ele>863.5</ele>
        <time>2021-08-07T05:31:29Z</time>
      </trkpt>
      <trkpt lat="45.24041" lon="5.74016">
        <ele>865.471</ele>
        <time>2021-08-07T05:31:37Z</time>
      </trkpt>
      <trkpt lat="45.24034" lon="5.74022">
        <ele>866.62</ele>
        <time>2021-08-07T05:31:43Z</time>
      </trkpt>
      <trkpt lat="45.2403" lon="5.74027">
        <ele>868.15</ele>
        <time>2021-08-07T05:31:47Z</time>
      </trkpt>
      <trkpt lat="45.24027" lon="5.74029">
        <ele>868.887</ele>
        <time>2021-08-07T05:31:49Z</time>
      </trkpt>
      <trkpt lat="45.24021" lon="5.74034">
        <ele>870.105</ele>
        <time>2021-08-07T05:31:54Z</time>
      </trkpt>
      <trkpt lat="45.24019" lon="5.74036">
        <ele>870.598</ele>
        <time>2021-08-07T05:31:56Z</time>
      </trkpt>
      <trkpt lat="45.24008" lon="5.74047">
        <ele>871.567</ele>
        <time>2021-08-07T05:32:04Z</time>
      </trkpt>
      <trkpt lat="45.24002" lon="5.74058">
        <ele>872.55</ele>
        <time>2021-08-07T05:32:11Z</time>
      </trkpt>
      <trkpt lat="45.23998" lon="5.74061">
        <ele>873.93</ele>
        <time>2021-08-07T05:32:14Z</time>
      </trkpt>
      <trkpt lat="45.23991" lon="5.74066">
        <ele>875.696</ele>
        <time>2021-08-07T05:32:21Z</time>
      </trkpt>
      <trkpt lat="45.23986" lon="5.74067">
        <ele>876.19</ele>
        <time>2021-08-07T05:32:25Z</time>
      </trkpt>
      <trkpt lat="45.23975" lon="5.74081">
        <ele>877.038</ele>
        <time>2021-08-07T05:32:33Z</time>
      </trkpt>
      <trkpt lat="45.23968" lon="5.74087">
        <ele>879.104</ele>
        <time>2021-08-07T05:32:40Z</time>
      </trkpt>
      <trkpt lat="45.23963" lon="5.74094">
        <ele>881.441</ele>
        <time>2021-08-07T05:32:47Z</time>
      </trkpt>
      <trkpt lat="45.23955" lon="5.74103">
        <ele>883.468</ele>
        <time>2021-08-07T05:32:54Z</time>
      </trkpt>
      <trkpt lat="45.23945" lon="5.74114">
        <ele>885.786</ele>
        <time>2021-08-07T05:33:03Z</time>
      </trkpt>
      <trkpt lat="45.2394" lon="5.74116">
        <ele>886.694</ele>
        <time>2021-08-07T05:33:06Z</time>
      </trkpt>
      <trkpt lat="45.23936" lon="5.74123">
        <ele>889.732</ele>
        <time>2021-08-07T05:33:14Z</time>
      </trkpt>
      <trkpt lat="45.23928" lon="5.74125">
        <ele>890.946</ele>
        <time>2021-08-07T05:33:21Z</time>
      </trkpt>
      <trkpt lat="45.23918" lon="5.74117">
        <ele>892.856</ele>
        <time>2021-08-07T05:33:27Z</time>
      </trkpt>
      <trkpt lat="45.23914" lon="5.74113">
        <ele>893.718</ele>
        <time>2021-08-07T05:33:31Z</time>
      </trkpt>
      <trkpt lat="45.2391" lon="5.74107">
        <ele>896.37</ele>
        <time>2021-08-07T05:33:36Z</time>
      </trkpt>
      <trkpt lat="45.23909" lon="5.74098">
        <ele>898.365</ele>
        <time>2021-08-07T05:33:42Z</time>
      </trkpt>
      <trkpt lat="45.23909" lon="5.74095">
        <ele>898.16</ele>
        <time>2021-08-07T05:33:43Z</time>
      </trkpt>
      <trkpt lat="45.23909" lon="5.74092">
        <ele>899.586</ele>
        <time>2021-08-07T05:33:45Z</time>
      </trkpt>
      <trkpt lat="45.23905" lon="5.74083">
        <ele>901.919</ele>
        <time>2021-08-07T05:33:52Z</time>
      </trkpt>
      <trkpt lat="45.23898" lon="5.74086">
        <ele>902.88</ele>
        <time>2021-08-07T05:33:58Z</time>
      </trkpt>
      <trkpt lat="45.23895" lon="5.74085">
        <ele>903.848</ele>
        <time>2021-08-07T05:34:01Z</time>
      </trkpt>
      <trkpt lat="45.23889" lon="5.74081">
        <ele>905.363</ele>
        <time>2021-08-07T05:34:08Z</time>
      </trkpt>
      <trkpt lat="45.23885" lon="5.74081">
        <ele>906.917</ele>
        <time>2021-08-07T05:34:11Z</time>
      </trkpt>
      <trkpt lat="45.23883" lon="5.74081">
        <ele>906.931</ele>
        <time>2021-08-07T05:34:12Z</time>
      </trkpt>
      <trkpt lat="45.23875" lon="5.74084">
        <ele>909.148</ele>
        <time>2021-08-07T05:34:20Z</time>
      </trkpt>
      <trkpt lat="45.23866" lon="5.74091">
        <ele>910.816</ele>
        <time>2021-08-07T05:34:29Z</time>
      </trkpt>
      <trkpt lat="45.23859" lon="5.74099">
        <ele>912.826</ele>
        <time>2021-08-07T05:34:37Z</time>
      </trkpt>
      <trkpt lat="45.23858" lon="5.74108">
        <ele>914.089</ele>
        <time>2021-08-07T05:34:42Z</time>
      </trkpt>
      <trkpt lat="45.23857" lon="5.74113">
        <ele>915.565</ele>
        <time>2021-08-07T05:34:46Z</time>
      </trkpt>
      <trkpt lat="45.23854" lon="5.74123">
        <ele>917.43</ele>
        <time>2021-08-07T05:34:52Z</time>
      </trkpt>
      <trkpt lat="45.23846" lon="5.74129">
        <ele>918.358</ele>
        <time>2021-08-07T05:35:00Z</time>
      </trkpt>
      <trkpt lat="45.23841" lon="5.74133">
        <ele>920.377</ele>
        <time>2021-08-07T05:35:06Z</time>
      </trkpt>
      <trkpt lat="45.23837" lon="5.74135">
        <ele>920.846</ele>
        <time>2021-08-07T05:35:10Z</time>
      </trkpt>
      <trkpt lat="45.23834" lon="5.74141">
        <ele>921.894</ele>
        <time>2021-08-07T05:35:14Z</time>
      </trkpt>
      <trkpt lat="45.2383" lon="5.74142">
        <ele>922.598</ele>
        <time>2021-08-07T05:35:18Z</time>
      </trkpt>
      <trkpt lat="45.23817" lon="5.74147">
        <ele>925.691</ele>
        <time>2021-08-07T05:35:27Z</time>
      </trkpt>
      <trkpt lat="45.23808" lon="5.74153">
        <ele>927.141</ele>
        <time>2021-08-07T05:35:35Z</time>
      </trkpt>
      <trkpt lat="45.23807" lon="5.74155">
        <ele>927.788</ele>
        <time>2021-08-07T05:35:38Z</time>
      </trkpt>
      <trkpt lat="45.23798" lon="5.74156">
        <ele>930.294</ele>
        <time>2021-08-07T05:35:45Z</time>
      </trkpt>
      <trkpt lat="45.23788" lon="5.74161">
        <ele>931.762</ele>
        <time>2021-08-07T05:35:53Z</time>
      </trkpt>
      <trkpt lat="45.23781" lon="5.74162">
        <ele>932.821</ele>
        <time>2021-08-07T05:36:00Z</time>
      </trkpt>
      <trkpt lat="45.23779" lon="5.74166">
        <ele>933.168</ele>
        <time>2021-08-07T05:36:02Z</time>
      </trkpt>
      <trkpt lat="45.23772" lon="5.74172">
        <ele>935.342</ele>
        <time>2021-08-07T05:36:08Z</time>
      </trkpt>
      <trkpt lat="45.23768" lon="5.74178">
        <ele>937.036</ele>
        <time>2021-08-07T05:36:14Z</time>
      </trkpt>
      <trkpt lat="45.23761" lon="5.74181">
        <ele>938.406</ele>
        <time>2021-08-07T05:36:21Z</time>
      </trkpt>
      <trkpt lat="45.23758" lon="5.74184">
        <ele>940.148</ele>
        <time>2021-08-07T05:36:29Z</time>
      </trkpt>
      <trkpt lat="45.23751" lon="5.74191">
        <ele>942.865</ele>
        <time>2021-08-07T05:36:36Z</time>
      </trkpt>
      <trkpt lat="45.23751" lon="5.74192">
        <ele>943.032</ele>
        <time>2021-08-07T05:36:37Z</time>
      </trkpt>
      <trkpt lat="45.23748" lon="5.74193">
        <ele>943.895</ele>
        <time>2021-08-07T05:36:42Z</time>
      </trkpt>
      <trkpt lat="45.23746" lon="5.74194">
        <ele>944.354</ele>
        <time>2021-08-07T05:36:44Z</time>
      </trkpt>
      <trkpt lat="45.23741" lon="5.742">
        <ele>947.243</ele>
        <time>2021-08-07T05:36:49Z</time>
      </trkpt>
      <trkpt lat="45.23737" lon="5.74202">
        <ele>948.02</ele>
        <time>2021-08-07T05:36:51Z</time>
      </trkpt>
      <trkpt lat="45.23732" lon="5.74207">
        <ele>949.635</ele>
        <time>2021-08-07T05:36:57Z</time>
      </trkpt>
      <trkpt lat="45.23725" lon="5.74214">
        <ele>950.398</ele>
        <time>2021-08-07T05:37:04Z</time>
      </trkpt>
      <trkpt lat="45.23718" lon="5.74216">
        <ele>952.366</ele>
        <time>2021-08-07T05:37:12Z</time>
      </trkpt>
      <trkpt lat="45.23711" lon="5.74215">
        <ele>953.431</ele>
        <time>2021-08-07T05:37:15Z</time>
      </trkpt>
      <trkpt lat="45.23709" lon="5.74217">
        <ele>954.054</ele>
        <time>2021-08-07T05:37:17Z</time>
      </trkpt>
      <trkpt lat="45.23703" lon="5.74227">
        <ele>955.435</ele>
        <time>2021-08-07T05:37:23Z</time>
      </trkpt>
      <trkpt lat="45.23698" lon="5.74233">
        <ele>956.046</ele>
        <time>2021-08-07T05:37:30Z</time>
      </trkpt>
      <trkpt lat="45.23691" lon="5.74239">
        <ele>957.456</ele>
        <time>2021-08-07T05:37:36Z</time>
      </trkpt>
      <trkpt lat="45.23683" lon="5.74247">
        <ele>958.502</ele>
        <time>2021-08-07T05:37:44Z</time>
      </trkpt>
      <trkpt lat="45.23683" lon="5.74249">
        <ele>959.688</ele>
        <time>2021-08-07T05:37:45Z</time>
      </trkpt>
      <trkpt lat="45.23678" lon="5.74255">
        <ele>960.386</ele>
        <time>2021-08-07T05:37:50Z</time>
      </trkpt>
      <trkpt lat="45.23674" lon="5.7426">
        <ele>961.77</ele>
        <time>2021-08-07T05:37:53Z</time>
      </trkpt>
      <trkpt lat="45.23673" lon="5.74261">
        <ele>962.249</ele>
        <time>2021-08-07T05:37:54Z</time>
      </trkpt>
      <trkpt lat="45.23666" lon="5.74264">
        <ele>963.835</ele>
        <time>2021-08-07T05:38:00Z</time>
      </trkpt>
      <trkpt lat="45.23654" lon="5.74269">
        <ele>965.36</ele>
        <time>2021-08-07T05:38:08Z</time>
      </trkpt>
      <trkpt lat="45.23645" lon="5.74269">
        <ele>967.016</ele>
        <time>2021-08-07T05:38:15Z</time>
      </trkpt>
      <trkpt lat="45.23637" lon="5.74273">
        <ele>968.259</ele>
        <time>2021-08-07T05:38:21Z</time>
      </trkpt>
      <trkpt lat="45.23635" lon="5.74272">
        <ele>969.569</ele>
        <time>2021-08-07T05:38:23Z</time>
      </trkpt>
      <trkpt lat="45.23627" lon="5.74277">
        <ele>971.114</ele>
        <time>2021-08-07T05:38:30Z</time>
      </trkpt>
      <trkpt lat="45.23622" lon="5.74282">
        <ele>972.615</ele>
        <time>2021-08-07T05:38:37Z</time>
      </trkpt>
      <trkpt lat="45.23615" lon="5.74287">
        <ele>973.983</ele>
        <time>2021-08-07T05:38:45Z</time>
      </trkpt>
      <trkpt lat="45.23606" lon="5.74292">
        <ele>974.884</ele>
        <time>2021-08-07T05:38:51Z</time>
      </trkpt>
      <trkpt lat="45.236" lon="5.74295">
        <ele>976.702</ele>
        <time>2021-08-07T05:38:56Z</time>
      </trkpt>
      <trkpt lat="45.23593" lon="5.74297">
        <ele>977.989</ele>
        <time>2021-08-07T05:39:04Z</time>
      </trkpt>
      <trkpt lat="45.23587" lon="5.74301">
        <ele>979.806</ele>
        <time>2021-08-07T05:39:10Z</time>
      </trkpt>
      <trkpt lat="45.2358" lon="5.74306">
        <ele>981.854</ele>
        <time>2021-08-07T05:39:16Z</time>
      </trkpt>
      <trkpt lat="45.2358" lon="5.74306">
        <ele>982.738</ele>
        <time>2021-08-07T05:39:17Z</time>
      </trkpt>
      <trkpt lat="45.23577" lon="5.74311">
        <ele>986.392</ele>
        <time>2021-08-07T05:39:24Z</time>
      </trkpt>
      <trkpt lat="45.23571" lon="5.7431">
        <ele>988.118</ele>
        <time>2021-08-07T05:39:30Z</time>
      </trkpt>
      <trkpt lat="45.23563" lon="5.7431">
        <ele>990.472</ele>
        <time>2021-08-07T05:39:38Z</time>
      </trkpt>
      <trkpt lat="45.2356" lon="5.74312">
        <ele>991.566</ele>
        <time>2021-08-07T05:39:41Z</time>
      </trkpt>
      <trkpt lat="45.23554" lon="5.74309">
        <ele>993.598</ele>
        <time>2021-08-07T05:39:49Z</time>
      </trkpt>
      <trkpt lat="45.2355" lon="5.74311">
        <ele>993.709</ele>
        <time>2021-08-07T05:39:51Z</time>
      </trkpt>
      <trkpt lat="45.23535" lon="5.74319">
        <ele>996.54</ele>
        <time>2021-08-07T05:40:00Z</time>
      </trkpt>
      <trkpt lat="45.23529" lon="5.74322">
        <ele>999.092</ele>
        <time>2021-08-07T05:40:06Z</time>
      </trkpt>
      <trkpt lat="45.23528" lon="5.74321">
        <ele>999.317</ele>
        <time>2021-08-07T05:40:07Z</time>
      </trkpt>
      <trkpt lat="45.23518" lon="5.74322">
        <ele>1000.337</ele>
        <time>2021-08-07T05:40:13Z</time>
      </trkpt>
      <trkpt lat="45.23509" lon="5.74323">
        <ele>1002.789</ele>
        <time>2021-08-07T05:40:21Z</time>
      </trkpt>
      <trkpt lat="45.235" lon="5.74318">
        <ele>1004.06</ele>
        <time>2021-08-07T05:40:26Z</time>
      </trkpt>
      <trkpt lat="45.23496" lon="5.74319">
        <ele>1005.833</ele>
        <time>2021-08-07T05:40:33Z</time>
      </trkpt>
      <trkpt lat="45.23489" lon="5.74317">
        <ele>1007.072</ele>
        <time>2021-08-07T05:40:39Z</time>
      </trkpt>
      <trkpt lat="45.23486" lon="5.74318">
        <ele>1008.47</ele>
        <time>2021-08-07T05:40:42Z</time>
      </trkpt>
      <trkpt lat="45.23479" lon="5.74314">
        <ele>1011.683</ele>
        <time>2021-08-07T05:40:53Z</time>
      </trkpt>
      <trkpt lat="45.23472" lon="5.74309">
        <ele>1014.153</ele>
        <time>2021-08-07T05:41:00Z</time>
      </trkpt>
      <trkpt lat="45.23468" lon="5.74308">
        <ele>1015.707</ele>
        <time>2021-08-07T05:41:05Z</time>
      </trkpt>
      <trkpt lat="45.2346" lon="5.74296">
        <ele>1016.866</ele>
        <time>2021-08-07T05:41:13Z</time>
      </trkpt>
      <trkpt lat="45.23453" lon="5.74291">
        <ele>1018.648</ele>
        <time>2021-08-07T05:41:19Z</time>
      </trkpt>
      <trkpt lat="45.2344" lon="5.74286">
        <ele>1020.934</ele>
        <time>2021-08-07T05:41:27Z</time>
      </trkpt>
      <trkpt lat="45.23434" lon="5.74278">
        <ele>1021.455</ele>
        <time>2021-08-07T05:41:32Z</time>
      </trkpt>
      <trkpt lat="45.23425" lon="5.74273">
        <ele>1022.837</ele>
        <time>2021-08-07T05:41:38Z</time>
      </trkpt>
      <trkpt lat="45.23415" lon="5.74268">
        <ele>1026.638</ele>
        <time>2021-08-07T05:41:45Z</time>
      </trkpt>
      <trkpt lat="45.23413" lon="5.74267">
        <ele>1026.305</ele>
        <time>2021-08-07T05:41:46Z</time>
      </trkpt>
      <trkpt lat="45.23405" lon="5.74267">
        <ele>1028.117</ele>
        <time>2021-08-07T05:41:49Z</time>
      </trkpt>
      <trkpt lat="45.23403" lon="5.74266">
        <ele>1027.969</ele>
        <time>2021-08-07T05:41:51Z</time>
      </trkpt>
      <trkpt lat="45.23389" lon="5.74262">
        <ele>1028.871</ele>
        <time>2021-08-07T05:41:59Z</time>
      </trkpt>
      <trkpt lat="45.23388" lon="5.74263">
        <ele>1029.093</ele>
        <time>2021-08-07T05:42:00Z</time>
      </trkpt>
      <trkpt lat="45.23385" lon="5.74273">
        <ele>1028.045</ele>
        <time>2021-08-07T05:42:08Z</time>
      </trkpt>
      <trkpt lat="45.23385" lon="5.74275">
        <ele>1027.575</ele>
        <time>2021-08-07T05:42:09Z</time>
      </trkpt>
      <trkpt lat="45.23384" lon="5.74285">
        <ele>1024.262</ele>
        <time>2021-08-07T05:42:13Z</time>
      </trkpt>
      <trkpt lat="45.23382" lon="5.74289">
        <ele>1023.469</ele>
        <time>2021-08-07T05:42:15Z</time>
      </trkpt>
      <trkpt lat="45.23374" lon="5.74307">
        <ele>1021.528</ele>
        <time>2021-08-07T05:42:22Z</time>
      </trkpt>
      <trkpt lat="45.23374" lon="5.74319">
        <ele>1020.975</ele>
        <time>2021-08-07T05:42:26Z</time>
      </trkpt>
      <trkpt lat="45.23374" lon="5.7433">
        <ele>1020.302</ele>
        <time>2021-08-07T05:42:30Z</time>
      </trkpt>
      <trkpt lat="45.23374" lon="5.74336">
        <ele>1020.159</ele>
        <time>2021-08-07T05:42:32Z</time>
      </trkpt>
      <trkpt lat="45.23375" lon="5.74349">
        <ele>1019.138</ele>
        <time>2021-08-07T05:42:37Z</time>
      </trkpt>
      <trkpt lat="45.23378" lon="5.74359">
        <ele>1018.162</ele>
        <time>2021-08-07T05:42:41Z</time>
      </trkpt>
      <trkpt lat="45.23383" lon="5.74367">
        <ele>1016.786</ele>
        <time>2021-08-07T05:42:44Z</time>
      </trkpt>
      <trkpt lat="45.23402" lon="5.74375">
        <ele>1019.032</ele>
        <time>2021-08-07T05:42:52Z</time>
      </trkpt>
      <trkpt lat="45.23416" lon="5.7438">
        <ele>1019.369</ele>
        <time>2021-08-07T05:42:58Z</time>
      </trkpt>
      <trkpt lat="45.23429" lon="5.74394">
        <ele>1019.881</ele>
        <time>2021-08-07T05:43:05Z</time>
      </trkpt>
      <trkpt lat="45.23443" lon="5.74409">
        <ele>1021.194</ele>
        <time>2021-08-07T05:43:12Z</time>
      </trkpt>
      <trkpt lat="45.23456" lon="5.7442">
        <ele>1021.507</ele>
        <time>2021-08-07T05:43:19Z</time>
      </trkpt>
      <trkpt lat="45.23471" lon="5.7443">
        <ele>1021.841</ele>
        <time>2021-08-07T05:43:26Z</time>
      </trkpt>
      <trkpt lat="45.23485" lon="5.74441">
        <ele>1021.54</ele>
        <time>2021-08-07T05:43:32Z</time>
      </trkpt>
      <trkpt lat="45.23498" lon="5.74455">
        <ele>1020.658</ele>
        <time>2021-08-07T05:43:39Z</time>
      </trkpt>
      <trkpt lat="45.23507" lon="5.74464">
        <ele>1019.688</ele>
        <time>2021-08-07T05:43:43Z</time>
      </trkpt>
      <trkpt lat="45.23515" lon="5.7448">
        <ele>1018.088</ele>
        <time>2021-08-07T05:43:49Z</time>
      </trkpt>
      <trkpt lat="45.23509" lon="5.74506">
        <ele>1016.015</ele>
        <time>2021-08-07T05:43:57Z</time>
      </trkpt>
      <trkpt lat="45.23507" lon="5.74529">
        <ele>1016.146</ele>
        <time>2021-08-07T05:44:04Z</time>
      </trkpt>
      <trkpt lat="45.23504" lon="5.74549">
        <ele>1014.941</ele>
        <time>2021-08-07T05:44:10Z</time>
      </trkpt>
      <trkpt lat="45.23501" lon="5.74568">
        <ele>1012.953</ele>
        <time>2021-08-07T05:44:15Z</time>
      </trkpt>
      <trkpt lat="45.23493" lon="5.74588">
        <ele>1012.773</ele>
        <time>2021-08-07T05:44:22Z</time>
      </trkpt>
      <trkpt lat="45.23486" lon="5.74598">
        <ele>1011.318</ele>
        <time>2021-08-07T05:44:27Z</time>
      </trkpt>
      <trkpt lat="45.23482" lon="5.74611">
        <ele>1009.553</ele>
        <time>2021-08-07T05:44:34Z</time>
      </trkpt>
      <trkpt lat="45.23472" lon="5.7461">
        <ele>1006.695</ele>
        <time>2021-08-07T05:44:41Z</time>
      </trkpt>
      <trkpt lat="45.23467" lon="5.74603">
        <ele>1007.101</ele>
        <time>2021-08-07T05:44:46Z</time>
      </trkpt>
      <trkpt lat="45.23463" lon="5.74592">
        <ele>1005.314</ele>
        <time>2021-08-07T05:44:52Z</time>
      </trkpt>
      <trkpt lat="45.23453" lon="5.74585">
        <ele>1002.552</ele>
        <time>2021-08-07T05:45:01Z</time>
      </trkpt>
      <trkpt lat="45.23452" lon="5.74583">
        <ele>1001.548</ele>
        <time>2021-08-07T05:45:03Z</time>
      </trkpt>
      <trkpt lat="45.23439" lon="5.74576">
        <ele>999.877</ele>
        <time>2021-08-07T05:45:09Z</time>
      </trkpt>
      <trkpt lat="45.23437" lon="5.74573">
        <ele>999.246</ele>
        <time>2021-08-07T05:45:11Z</time>
      </trkpt>
      <trkpt lat="45.23426" lon="5.74579">
        <ele>995.665</ele>
        <time>2021-08-07T05:45:18Z</time>
      </trkpt>
      <trkpt lat="45.23418" lon="5.74584">
        <ele>993.636</ele>
        <time>2021-08-07T05:45:25Z</time>
      </trkpt>
      <trkpt lat="45.23407" lon="5.74582">
        <ele>993.546</ele>
        <time>2021-08-07T05:45:30Z</time>
      </trkpt>
      <trkpt lat="45.23401" lon="5.74577">
        <ele>993.641</ele>
        <time>2021-08-07T05:45:34Z</time>
      </trkpt>
      <trkpt lat="45.23394" lon="5.74574">
        <ele>992.213</ele>
        <time>2021-08-07T05:45:37Z</time>
      </trkpt>
      <trkpt lat="45.23389" lon="5.7457">
        <ele>991.825</ele>
        <time>2021-08-07T05:45:40Z</time>
      </trkpt>
      <trkpt lat="45.2337" lon="5.74562">
        <ele>989.952</ele>
        <time>2021-08-07T05:45:48Z</time>
      </trkpt>
      <trkpt lat="45.23355" lon="5.74547">
        <ele>988.821</ele>
        <time>2021-08-07T05:45:55Z</time>
      </trkpt>
      <trkpt lat="45.23343" lon="5.74542">
        <ele>987.722</ele>
        <time>2021-08-07T05:46:00Z</time>
      </trkpt>
      <trkpt lat="45.23332" lon="5.74537">
        <ele>986.797</ele>
        <time>2021-08-07T05:46:05Z</time>
      </trkpt>
      <trkpt lat="45.23331" lon="5.74538">
        <ele>986.099</ele>
        <time>2021-08-07T05:46:06Z</time>
      </trkpt>
      <trkpt lat="45.23318" lon="5.74534">
        <ele>984.089</ele>
        <time>2021-08-07T05:46:13Z</time>
      </trkpt>
      <trkpt lat="45.2331" lon="5.74528">
        <ele>981.351</ele>
        <time>2021-08-07T05:46:20Z</time>
      </trkpt>
      <trkpt lat="45.23306" lon="5.74527">
        <ele>978.329</ele>
        <time>2021-08-07T05:46:27Z</time>
      </trkpt>
      <trkpt lat="45.23304" lon="5.74527">
        <ele>978.085</ele>
        <time>2021-08-07T05:46:28Z</time>
      </trkpt>
      <trkpt lat="45.23294" lon="5.74527">
        <ele>976.592</ele>
        <time>2021-08-07T05:46:35Z</time>
      </trkpt>
      <trkpt lat="45.23287" lon="5.7453">
        <ele>974.01</ele>
        <time>2021-08-07T05:46:42Z</time>
      </trkpt>
      <trkpt lat="45.2328" lon="5.74525">
        <ele>972.62</ele>
        <time>2021-08-07T05:46:48Z</time>
      </trkpt>
      <trkpt lat="45.23273" lon="5.7452">
        <ele>970.327</ele>
        <time>2021-08-07T05:46:53Z</time>
      </trkpt>
      <trkpt lat="45.23263" lon="5.74516">
        <ele>967.478</ele>
        <time>2021-08-07T05:47:01Z</time>
      </trkpt>
      <trkpt lat="45.23254" lon="5.74511">
        <ele>965.114</ele>
        <time>2021-08-07T05:47:08Z</time>
      </trkpt>
      <trkpt lat="45.23252" lon="5.7451">
        <ele>962.021</ele>
        <time>2021-08-07T05:47:11Z</time>
      </trkpt>
      <trkpt lat="45.2325" lon="5.74509">
        <ele>962.08</ele>
        <time>2021-08-07T05:47:12Z</time>
      </trkpt>
      <trkpt lat="45.23248" lon="5.74506">
        <ele>960.897</ele>
        <time>2021-08-07T05:47:16Z</time>
      </trkpt>
      <trkpt lat="45.23238" lon="5.74505">
        <ele>959.422</ele>
        <time>2021-08-07T05:47:23Z</time>
      </trkpt>
      <trkpt lat="45.23232" lon="5.745">
        <ele>958.065</ele>
        <time>2021-08-07T05:47:27Z</time>
      </trkpt>
      <trkpt lat="45.23223" lon="5.74492">
        <ele>956.006</ele>
        <time>2021-08-07T05:47:33Z</time>
      </trkpt>
      <trkpt lat="45.23214" lon="5.74486">
        <ele>953.345</ele>
        <time>2021-08-07T05:47:40Z</time>
      </trkpt>
      <trkpt lat="45.2321" lon="5.74484">
        <ele>952.879</ele>
        <time>2021-08-07T05:47:42Z</time>
      </trkpt>
      <trkpt lat="45.23207" lon="5.74482">
        <ele>952.862</ele>
        <time>2021-08-07T05:47:44Z</time>
      </trkpt>
      <trkpt lat="45.23199" lon="5.7448">
        <ele>951.089</ele>
        <time>2021-08-07T05:47:49Z</time>
      </trkpt>
      <trkpt lat="45.23191" lon="5.74481">
        <ele>948.933</ele>
        <time>2021-08-07T05:47:53Z</time>
      </trkpt>
      <trkpt lat="45.2319" lon="5.74479">
        <ele>947.005</ele>
        <time>2021-08-07T05:47:54Z</time>
      </trkpt>
      <trkpt lat="45.2318" lon="5.74472">
        <ele>945.766</ele>
        <time>2021-08-07T05:48:01Z</time>
      </trkpt>
      <trkpt lat="45.23176" lon="5.74473">
        <ele>944.265</ele>
        <time>2021-08-07T05:48:03Z</time>
      </trkpt>
      <trkpt lat="45.23171" lon="5.74469">
        <ele>943.293</ele>
        <time>2021-08-07T05:48:07Z</time>
      </trkpt>
      <trkpt lat="45.23166" lon="5.74464">
        <ele>941.773</ele>
        <time>2021-08-07T05:48:11Z</time>
      </trkpt>
      <trkpt lat="45.23164" lon="5.74464">
        <ele>941.223</ele>
        <time>2021-08-07T05:48:13Z</time>
      </trkpt>
      <trkpt lat="45.23161" lon="5.74461">
        <ele>940.495</ele>
        <time>2021-08-07T05:48:15Z</time>
      </trkpt>
      <trkpt lat="45.23159" lon="5.7446">
        <ele>939.71</ele>
        <time>2021-08-07T05:48:17Z</time>
      </trkpt>
      <trkpt lat="45.2315" lon="5.74458">
        <ele>937.317</ele>
        <time>2021-08-07T05:48:24Z</time>
      </trkpt>
      <trkpt lat="45.23147" lon="5.74457">
        <ele>936.251</ele>
        <time>2021-08-07T05:48:26Z</time>
      </trkpt>
      <trkpt lat="45.23138" lon="5.74454">
        <ele>934.886</ele>
        <time>2021-08-07T05:48:32Z</time>
      </trkpt>
      <trkpt lat="45.23134" lon="5.74452">
        <ele>933.245</ele>
        <time>2021-08-07T05:48:35Z</time>
      </trkpt>
      <trkpt lat="45.23126" lon="5.74453">
        <ele>930.313</ele>
        <time>2021-08-07T05:48:40Z</time>
      </trkpt>
      <trkpt lat="45.23114" lon="5.7445">
        <ele>926.647</ele>
        <time>2021-08-07T05:48:47Z</time>
      </trkpt>
      <trkpt lat="45.23104" lon="5.74448">
        <ele>924.605</ele>
        <time>2021-08-07T05:48:53Z</time>
      </trkpt>
      <trkpt lat="45.231" lon="5.74446">
        <ele>923.502</ele>
        <time>2021-08-07T05:48:55Z</time>
      </trkpt>
      <trkpt lat="45.23092" lon="5.74444">
        <ele>921.444</ele>
        <time>2021-08-07T05:49:01Z</time>
      </trkpt>
      <trkpt lat="45.2309" lon="5.74443">
        <ele>921.259</ele>
        <time>2021-08-07T05:49:02Z</time>
      </trkpt>
      <trkpt lat="45.23079" lon="5.74436">
        <ele>917.25</ele>
        <time>2021-08-07T05:49:09Z</time>
      </trkpt>
      <trkpt lat="45.23078" lon="5.74436">
        <ele>917.158</ele>
        <time>2021-08-07T05:49:10Z</time>
      </trkpt>
      <trkpt lat="45.23069" lon="5.74437">
        <ele>914.894</ele>
        <time>2021-08-07T05:49:15Z</time>
      </trkpt>
      <trkpt lat="45.23057" lon="5.74435">
        <ele>911.739</ele>
        <time>2021-08-07T05:49:23Z</time>
      </trkpt>
      <trkpt lat="45.23052" lon="5.74432">
        <ele>911.275</ele>
        <time>2021-08-07T05:49:25Z</time>
      </trkpt>
      <trkpt lat="45.23041" lon="5.74424">
        <ele>909.343</ele>
        <time>2021-08-07T05:49:30Z</time>
      </trkpt>
      <trkpt lat="45.23034" lon="5.74421">
        <ele>907.428</ele>
        <time>2021-08-07T05:49:33Z</time>
      </trkpt>
      <trkpt lat="45.23033" lon="5.74421">
        <ele>906.907</ele>
        <time>2021-08-07T05:49:34Z</time>
      </trkpt>
      <trkpt lat="45.2303" lon="5.74419">
        <ele>906.383</ele>
        <time>2021-08-07T05:49:36Z</time>
      </trkpt>
      <trkpt lat="45.23018" lon="5.74412">
        <ele>902.519</ele>
        <time>2021-08-07T05:49:44Z</time>
      </trkpt>
      <trkpt lat="45.23008" lon="5.74411">
        <ele>900.246</ele>
        <time>2021-08-07T05:49:50Z</time>
      </trkpt>
      <trkpt lat="45.22996" lon="5.74407">
        <ele>897.3</ele>
        <time>2021-08-07T05:49:56Z</time>
      </trkpt>
      <trkpt lat="45.22993" lon="5.74407">
        <ele>896.196</ele>
        <time>2021-08-07T05:49:58Z</time>
      </trkpt>
      <trkpt lat="45.22981" lon="5.74398">
        <ele>893.647</ele>
        <time>2021-08-07T05:50:05Z</time>
      </trkpt>
      <trkpt lat="45.22973" lon="5.74396">
        <ele>891.253</ele>
        <time>2021-08-07T05:50:11Z</time>
      </trkpt>
      <trkpt lat="45.22965" lon="5.74401">
        <ele>888.109</ele>
        <time>2021-08-07T05:50:18Z</time>
      </trkpt>
      <trkpt lat="45.22959" lon="5.74404">
        <ele>885.981</ele>
        <time>2021-08-07T05:50:22Z</time>
      </trkpt>
      <trkpt lat="45.22955" lon="5.74403">
        <ele>885.258</ele>
        <time>2021-08-07T05:50:24Z</time>
      </trkpt>
      <trkpt lat="45.22951" lon="5.74402">
        <ele>883.989</ele>
        <time>2021-08-07T05:50:27Z</time>
      </trkpt>
      <trkpt lat="45.22942" lon="5.74403">
        <ele>881.139</ele>
        <time>2021-08-07T05:50:34Z</time>
      </trkpt>
      <trkpt lat="45.22941" lon="5.74403">
        <ele>881.2</ele>
        <time>2021-08-07T05:50:35Z</time>
      </trkpt>
      <trkpt lat="45.22932" lon="5.74411">
        <ele>877.964</ele>
        <time>2021-08-07T05:50:42Z</time>
      </trkpt>
      <trkpt lat="45.22925" lon="5.74411">
        <ele>874.574</ele>
        <time>2021-08-07T05:50:49Z</time>
      </trkpt>
      <trkpt lat="45.22919" lon="5.74416">
        <ele>873.057</ele>
        <time>2021-08-07T05:50:55Z</time>
      </trkpt>
      <trkpt lat="45.22915" lon="5.74417">
        <ele>870.703</ele>
        <time>2021-08-07T05:51:01Z</time>
      </trkpt>
      <trkpt lat="45.22913" lon="5.74417">
        <ele>869.24</ele>
        <time>2021-08-07T05:51:03Z</time>
      </trkpt>
      <trkpt lat="45.22909" lon="5.74419">
        <ele>867.117</ele>
        <time>2021-08-07T05:51:09Z</time>
      </trkpt>
      <trkpt lat="45.22904" lon="5.74418">
        <ele>864.668</ele>
        <time>2021-08-07T05:51:15Z</time>
      </trkpt>
      <trkpt lat="45.22903" lon="5.74424">
        <ele>862.702</ele>
        <time>2021-08-07T05:51:22Z</time>
      </trkpt>
      <trkpt lat="45.22902" lon="5.74425">
        <ele>861.002</ele>
        <time>2021-08-07T05:51:24Z</time>
      </trkpt>
      <trkpt lat="45.229" lon="5.74425">
        <ele>860.555</ele>
        <time>2021-08-07T05:51:25Z</time>
      </trkpt>
      <trkpt lat="45.22892" lon="5.74424">
        <ele>857.943</ele>
        <time>2021-08-07T05:51:32Z</time>
      </trkpt>
      <trkpt lat="45.22886" lon="5.74424">
        <ele>855.411</ele>
        <time>2021-08-07T05:51:38Z</time>
      </trkpt>
      <trkpt lat="45.2288" lon="5.74423">
        <ele>853.182</ele>
        <time>2021-08-07T05:51:42Z</time>
      </trkpt>
      <trkpt lat="45.22878" lon="5.74423">
        <ele>852.18</ele>
        <time>2021-08-07T05:51:44Z</time>
      </trkpt>
      <trkpt lat="45.22875" lon="5.74424">
        <ele>851.026</ele>
        <time>2021-08-07T05:51:46Z</time>
      </trkpt>
      <trkpt lat="45.22874" lon="5.74431">
        <ele>850.087</ele>
        <time>2021-08-07T05:51:50Z</time>
      </trkpt>
      <trkpt lat="45.22867" lon="5.74428">
        <ele>848.514</ele>
        <time>2021-08-07T05:51:57Z</time>
      </trkpt>
      <trkpt lat="45.22861" lon="5.74428">
        <ele>845.926</ele>
        <time>2021-08-07T05:52:05Z</time>
      </trkpt>
      <trkpt lat="45.22855" lon="5.74426">
        <ele>843.064</ele>
        <time>2021-08-07T05:52:12Z</time>
      </trkpt>
      <trkpt lat="45.22851" lon="5.74426">
        <ele>840.786</ele>
        <time>2021-08-07T05:52:16Z</time>
      </trkpt>
      <trkpt lat="45.22839" lon="5.74439">
        <ele>838.551</ele>
        <time>2021-08-07T05:52:24Z</time>
      </trkpt>
      <trkpt lat="45.22833" lon="5.74441">
        <ele>836.519</ele>
        <time>2021-08-07T05:52:31Z</time>
      </trkpt>
      <trkpt lat="45.22828" lon="5.74441">
        <ele>834.72</ele>
        <time>2021-08-07T05:52:38Z</time>
      </trkpt>
      <trkpt lat="45.22824" lon="5.74444">
        <ele>832.844</ele>
        <time>2021-08-07T05:52:42Z</time>
      </trkpt>
      <trkpt lat="45.22816" lon="5.74443">
        <ele>829.326</ele>
        <time>2021-08-07T05:52:49Z</time>
      </trkpt>
      <trkpt lat="45.2281" lon="5.74448">
        <ele>827.036</ele>
        <time>2021-08-07T05:52:54Z</time>
      </trkpt>
      <trkpt lat="45.22803" lon="5.74453">
        <ele>824.94</ele>
        <time>2021-08-07T05:53:00Z</time>
      </trkpt>
      <trkpt lat="45.22799" lon="5.74457">
        <ele>823.835</ele>
        <time>2021-08-07T05:53:04Z</time>
      </trkpt>
      <trkpt lat="45.2279" lon="5.74457">
        <ele>821.218</ele>
        <time>2021-08-07T05:53:11Z</time>
      </trkpt>
      <trkpt lat="45.22788" lon="5.74457">
        <ele>820.274</ele>
        <time>2021-08-07T05:53:13Z</time>
      </trkpt>
      <trkpt lat="45.2278" lon="5.7446">
        <ele>817.383</ele>
        <time>2021-08-07T05:53:19Z</time>
      </trkpt>
      <trkpt lat="45.22773" lon="5.74466">
        <ele>815.124</ele>
        <time>2021-08-07T05:53:25Z</time>
      </trkpt>
      <trkpt lat="45.22768" lon="5.7447">
        <ele>813.334</ele>
        <time>2021-08-07T05:53:29Z</time>
      </trkpt>
      <trkpt lat="45.22759" lon="5.74475">
        <ele>810.165</ele>
        <time>2021-08-07T05:53:36Z</time>
      </trkpt>
      <trkpt lat="45.22752" lon="5.74474">
        <ele>808.276</ele>
        <time>2021-08-07T05:53:41Z</time>
      </trkpt>
      <trkpt lat="45.22743" lon="5.74477">
        <ele>807.075</ele>
        <time>2021-08-07T05:53:47Z</time>
      </trkpt>
      <trkpt lat="45.22738" lon="5.74478">
        <ele>804.466</ele>
        <time>2021-08-07T05:53:51Z</time>
      </trkpt>
      <trkpt lat="45.22731" lon="5.74478">
        <ele>801.03</ele>
        <time>2021-08-07T05:53:57Z</time>
      </trkpt>
      <trkpt lat="45.2272" lon="5.74479">
        <ele>798.321</ele>
        <time>2021-08-07T05:54:03Z</time>
      </trkpt>
      <trkpt lat="45.22715" lon="5.74479">
        <ele>798.003</ele>
        <time>2021-08-07T05:54:06Z</time>
      </trkpt>
      <trkpt lat="45.22703" lon="5.74479">
        <ele>795.773</ele>
        <time>2021-08-07T05:54:13Z</time>
      </trkpt>
      <trkpt lat="45.22699" lon="5.74478">
        <ele>794.763</ele>
        <time>2021-08-07T05:54:15Z</time>
      </trkpt>
      <trkpt lat="45.22692" lon="5.74474">
        <ele>792.478</ele>
        <time>2021-08-07T05:54:21Z</time>
      </trkpt>
      <trkpt lat="45.2269" lon="5.74473">
        <ele>791.619</ele>
        <time>2021-08-07T05:54:23Z</time>
      </trkpt>
      <trkpt lat="45.2268" lon="5.74468">
        <ele>789.375</ele>
        <time>2021-08-07T05:54:31Z</time>
      </trkpt>
      <trkpt lat="45.22678" lon="5.74469">
        <ele>788.875</ele>
        <time>2021-08-07T05:54:32Z</time>
      </trkpt>
      <trkpt lat="45.22674" lon="5.74471">
        <ele>787.654</ele>
        <time>2021-08-07T05:54:34Z</time>
      </trkpt>
      <trkpt lat="45.22663" lon="5.74478">
        <ele>784.465</ele>
        <time>2021-08-07T05:54:41Z</time>
      </trkpt>
      <trkpt lat="45.22652" lon="5.74483">
        <ele>782.446</ele>
        <time>2021-08-07T05:54:47Z</time>
      </trkpt>
      <trkpt lat="45.2264" lon="5.74488">
        <ele>780.042</ele>
        <time>2021-08-07T05:54:54Z</time>
      </trkpt>
      <trkpt lat="45.22632" lon="5.74491">
        <ele>778.178</ele>
        <time>2021-08-07T05:55:01Z</time>
      </trkpt>
      <trkpt lat="45.22625" lon="5.74493">
        <ele>777.366</ele>
        <time>2021-08-07T05:55:06Z</time>
      </trkpt>
      <trkpt lat="45.22617" lon="5.74499">
        <ele>774.298</ele>
        <time>2021-08-07T05:55:12Z</time>
      </trkpt>
      <trkpt lat="45.22616" lon="5.74498">
        <ele>774.446</ele>
        <time>2021-08-07T05:55:13Z</time>
      </trkpt>
      <trkpt lat="45.22611" lon="5.74501">
        <ele>771.84</ele>
        <time>2021-08-07T05:55:18Z</time>
      </trkpt>
      <trkpt lat="45.22606" lon="5.74507">
        <ele>768.897</ele>
        <time>2021-08-07T05:55:24Z</time>
      </trkpt>
      <trkpt lat="45.22598" lon="5.74518">
        <ele>766.557</ele>
        <time>2021-08-07T05:55:30Z</time>
      </trkpt>
      <trkpt lat="45.22595" lon="5.74521">
        <ele>765.946</ele>
        <time>2021-08-07T05:55:32Z</time>
      </trkpt>
      <trkpt lat="45.22591" lon="5.74528">
        <ele>763.937</ele>
        <time>2021-08-07T05:55:38Z</time>
      </trkpt>
      <trkpt lat="45.22589" lon="5.74533">
        <ele>761.764</ele>
        <time>2021-08-07T05:55:43Z</time>
      </trkpt>
      <trkpt lat="45.22589" lon="5.74541">
        <ele>758.179</ele>
        <time>2021-08-07T05:55:49Z</time>
      </trkpt>
      <trkpt lat="45.22589" lon="5.74544">
        <ele>758.073</ele>
        <time>2021-08-07T05:55:50Z</time>
      </trkpt>
      <trkpt lat="45.22588" lon="5.74553">
        <ele>756.649</ele>
        <time>2021-08-07T05:55:54Z</time>
      </trkpt>
      <trkpt lat="45.22585" lon="5.74572">
        <ele>753.633</ele>
        <time>2021-08-07T05:56:02Z</time>
      </trkpt>
      <trkpt lat="45.22585" lon="5.74573">
        <ele>753.46</ele>
        <time>2021-08-07T05:56:03Z</time>
      </trkpt>
      <trkpt lat="45.22584" lon="5.74583">
        <ele>750.348</ele>
        <time>2021-08-07T05:56:08Z</time>
      </trkpt>
      <trkpt lat="45.22578" lon="5.74597">
        <ele>747.161</ele>
        <time>2021-08-07T05:56:15Z</time>
      </trkpt>
      <trkpt lat="45.22576" lon="5.74606">
        <ele>745.042</ele>
        <time>2021-08-07T05:56:21Z</time>
      </trkpt>
      <trkpt lat="45.22568" lon="5.74616">
        <ele>741.409</ele>
        <time>2021-08-07T05:56:28Z</time>
      </trkpt>
      <trkpt lat="45.22567" lon="5.74618">
        <ele>741.131</ele>
        <time>2021-08-07T05:56:29Z</time>
      </trkpt>
      <trkpt lat="45.22556" lon="5.74629">
        <ele>740.145</ele>
        <time>2021-08-07T05:56:36Z</time>
      </trkpt>
      <trkpt lat="45.22549" lon="5.74637">
        <ele>737.628</ele>
        <time>2021-08-07T05:56:43Z</time>
      </trkpt>
      <trkpt lat="45.22539" lon="5.7465">
        <ele>734.841</ele>
        <time>2021-08-07T05:56:50Z</time>
      </trkpt>
      <trkpt lat="45.22535" lon="5.74654">
        <ele>733.372</ele>
        <time>2021-08-07T05:56:53Z</time>
      </trkpt>
      <trkpt lat="45.22522" lon="5.7466">
        <ele>727.488</ele>
        <time>2021-08-07T05:57:04Z</time>
      </trkpt>
      <trkpt lat="45.22517" lon="5.74664">
        <ele>727.488</ele>
        <time>2021-08-07T05:57:07Z</time>
      </trkpt>
      <trkpt lat="45.22513" lon="5.74667">
        <ele>725.834</ele>
        <time>2021-08-07T05:57:09Z</time>
      </trkpt>
      <trkpt lat="45.22508" lon="5.74672">
        <ele>724.192</ele>
        <time>2021-08-07T05:57:13Z</time>
      </trkpt>
      <trkpt lat="45.22505" lon="5.74675">
        <ele>723.194</ele>
        <time>2021-08-07T05:57:15Z</time>
      </trkpt>
      <trkpt lat="45.22496" lon="5.7468">
        <ele>721.416</ele>
        <time>2021-08-07T05:57:20Z</time>
      </trkpt>
      <trkpt lat="45.22492" lon="5.74684">
        <ele>719.987</ele>
        <time>2021-08-07T05:57:23Z</time>
      </trkpt>
      <trkpt lat="45.22485" lon="5.7469">
        <ele>718.153</ele>
        <time>2021-08-07T05:57:27Z</time>
      </trkpt>
      <trkpt lat="45.22482" lon="5.74691">
        <ele>716.97</ele>
        <time>2021-08-07T05:57:29Z</time>
      </trkpt>
      <trkpt lat="45.22477" lon="5.74692">
        <ele>715.219</ele>
        <time>2021-08-07T05:57:32Z</time>
      </trkpt>
      <trkpt lat="45.22474" lon="5.74692">
        <ele>714.118</ele>
        <time>2021-08-07T05:57:34Z</time>
      </trkpt>
      <trkpt lat="45.22467" lon="5.74689">
        <ele>712.454</ele>
        <time>2021-08-07T05:57:39Z</time>
      </trkpt>
      <trkpt lat="45.22458" lon="5.74687">
        <ele>709.829</ele>
        <time>2021-08-07T05:57:44Z</time>
      </trkpt>
      <trkpt lat="45.2245" lon="5.74682">
        <ele>708.178</ele>
        <time>2021-08-07T05:57:48Z</time>
      </trkpt>
      <trkpt lat="45.22445" lon="5.74681">
        <ele>707.002</ele>
        <time>2021-08-07T05:57:51Z</time>
      </trkpt>
      <trkpt lat="45.22437" lon="5.74678">
        <ele>706.274</ele>
        <time>2021-08-07T05:57:56Z</time>
      </trkpt>
      <trkpt lat="45.2243" lon="5.74679">
        <ele>704.556</ele>
        <time>2021-08-07T05:58:00Z</time>
      </trkpt>
      <trkpt lat="45.22425" lon="5.74678">
        <ele>702.679</ele>
        <time>2021-08-07T05:58:04Z</time>
      </trkpt>
      <trkpt lat="45.22416" lon="5.74674">
        <ele>699.235</ele>
        <time>2021-08-07T05:58:09Z</time>
      </trkpt>
      <trkpt lat="45.22405" lon="5.74677">
        <ele>696.76</ele>
        <time>2021-08-07T05:58:16Z</time>
      </trkpt>
      <trkpt lat="45.22405" lon="5.74681">
        <ele>695.469</ele>
        <time>2021-08-07T05:58:19Z</time>
      </trkpt>
      <trkpt lat="45.22408" lon="5.7469">
        <ele>693.624</ele>
        <time>2021-08-07T05:58:24Z</time>
      </trkpt>
      <trkpt lat="45.22414" lon="5.747">
        <ele>691.356</ele>
        <time>2021-08-07T05:58:30Z</time>
      </trkpt>
      <trkpt lat="45.22417" lon="5.74705">
        <ele>688.755</ele>
        <time>2021-08-07T05:58:33Z</time>
      </trkpt>
      <trkpt lat="45.22417" lon="5.7471">
        <ele>688.041</ele>
        <time>2021-08-07T05:58:35Z</time>
      </trkpt>
      <trkpt lat="45.22413" lon="5.74721">
        <ele>685.102</ele>
        <time>2021-08-07T05:58:42Z</time>
      </trkpt>
      <trkpt lat="45.22412" lon="5.74725">
        <ele>683.698</ele>
        <time>2021-08-07T05:58:46Z</time>
      </trkpt>
      <trkpt lat="45.22411" lon="5.74727">
        <ele>682.377</ele>
        <time>2021-08-07T05:58:48Z</time>
      </trkpt>
      <trkpt lat="45.22405" lon="5.74735">
        <ele>678.904</ele>
        <time>2021-08-07T05:58:55Z</time>
      </trkpt>
      <trkpt lat="45.22404" lon="5.74736">
        <ele>678.411</ele>
        <time>2021-08-07T05:58:56Z</time>
      </trkpt>
      <trkpt lat="45.22397" lon="5.74752">
        <ele>677.191</ele>
        <time>2021-08-07T05:59:05Z</time>
      </trkpt>
      <trkpt lat="45.22391" lon="5.74764">
        <ele>675.263</ele>
        <time>2021-08-07T05:59:12Z</time>
      </trkpt>
      <trkpt lat="45.22386" lon="5.74775">
        <ele>672.74</ele>
        <time>2021-08-07T05:59:18Z</time>
      </trkpt>
      <trkpt lat="45.22383" lon="5.74781">
        <ele>671.956</ele>
        <time>2021-08-07T05:59:20Z</time>
      </trkpt>
      <trkpt lat="45.22377" lon="5.74788">
        <ele>670.57</ele>
        <time>2021-08-07T05:59:23Z</time>
      </trkpt>
      <trkpt lat="45.22372" lon="5.74795">
        <ele>669.337</ele>
        <time>2021-08-07T05:59:26Z</time>
      </trkpt>
      <trkpt lat="45.22367" lon="5.74802">
        <ele>667.808</ele>
        <time>2021-08-07T05:59:30Z</time>
      </trkpt>
      <trkpt lat="45.22361" lon="5.74805">
        <ele>665.432</ele>
        <time>2021-08-07T05:59:36Z</time>
      </trkpt>
      <trkpt lat="45.22357" lon="5.74808">
        <ele>662.132</ele>
        <time>2021-08-07T05:59:41Z</time>
      </trkpt>
      <trkpt lat="45.22356" lon="5.74809">
        <ele>662.354</ele>
        <time>2021-08-07T05:59:42Z</time>
      </trkpt>
      <trkpt lat="45.2235" lon="5.7481">
        <ele>660.497</ele>
        <time>2021-08-07T05:59:48Z</time>
      </trkpt>
      <trkpt lat="45.22346" lon="5.74814">
        <ele>658.96</ele>
        <time>2021-08-07T05:59:51Z</time>
      </trkpt>
      <trkpt lat="45.22342" lon="5.7482">
        <ele>656.729</ele>
        <time>2021-08-07T05:59:55Z</time>
      </trkpt>
      <trkpt lat="45.22338" lon="5.74827">
        <ele>655.359</ele>
        <time>2021-08-07T06:00:01Z</time>
      </trkpt>
      <trkpt lat="45.22339" lon="5.7483">
        <ele>654.65</ele>
        <time>2021-08-07T06:00:03Z</time>
      </trkpt>
      <trkpt lat="45.2234" lon="5.74837">
        <ele>652.551</ele>
        <time>2021-08-07T06:00:07Z</time>
      </trkpt>
      <trkpt lat="45.22341" lon="5.74841">
        <ele>650.983</ele>
        <time>2021-08-07T06:00:10Z</time>
      </trkpt>
      <trkpt lat="45.22344" lon="5.74852">
        <ele>648.859</ele>
        <time>2021-08-07T06:00:17Z</time>
      </trkpt>
      <trkpt lat="45.22344" lon="5.74864">
        <ele>646.398</ele>
        <time>2021-08-07T06:00:22Z</time>
      </trkpt>
      <trkpt lat="45.22346" lon="5.7487">
        <ele>645.702</ele>
        <time>2021-08-07T06:00:24Z</time>
      </trkpt>
      <trkpt lat="45.22354" lon="5.74885">
        <ele>644.176</ele>
        <time>2021-08-07T06:00:31Z</time>
      </trkpt>
      <trkpt lat="45.22362" lon="5.74906">
        <ele>639.375</ele>
        <time>2021-08-07T06:00:39Z</time>
      </trkpt>
      <trkpt lat="45.22363" lon="5.74909">
        <ele>638.484</ele>
        <time>2021-08-07T06:00:40Z</time>
      </trkpt>
      <trkpt lat="45.22357" lon="5.74928">
        <ele>634.231</ele>
        <time>2021-08-07T06:00:48Z</time>
      </trkpt>
      <trkpt lat="45.22355" lon="5.7494">
        <ele>632.04</ele>
        <time>2021-08-07T06:00:53Z</time>
      </trkpt>
      <trkpt lat="45.22354" lon="5.74953">
        <ele>630.497</ele>
        <time>2021-08-07T06:00:58Z</time>
      </trkpt>
      <trkpt lat="45.22355" lon="5.74965">
        <ele>627.66</ele>
        <time>2021-08-07T06:01:02Z</time>
      </trkpt>
      <trkpt lat="45.22358" lon="5.74971">
        <ele>625.927</ele>
        <time>2021-08-07T06:01:05Z</time>
      </trkpt>
      <trkpt lat="45.22359" lon="5.74972">
        <ele>625.929</ele>
        <time>2021-08-07T06:01:06Z</time>
      </trkpt>
      <trkpt lat="45.22374" lon="5.74961">
        <ele>625.668</ele>
        <time>2021-08-07T06:01:15Z</time>
      </trkpt>
      <trkpt lat="45.22385" lon="5.74939">
        <ele>626.568</ele>
        <time>2021-08-07T06:01:23Z</time>
      </trkpt>
      <trkpt lat="45.22392" lon="5.74921">
        <ele>627.653</ele>
        <time>2021-08-07T06:01:29Z</time>
      </trkpt>
      <trkpt lat="45.224" lon="5.74908">
        <ele>628.594</ele>
        <time>2021-08-07T06:01:35Z</time>
      </trkpt>
      <trkpt lat="45.22411" lon="5.74901">
        <ele>629.849</ele>
        <time>2021-08-07T06:01:42Z</time>
      </trkpt>
      <trkpt lat="45.22418" lon="5.74896">
        <ele>630.802</ele>
        <time>2021-08-07T06:01:46Z</time>
      </trkpt>
      <trkpt lat="45.22424" lon="5.74894">
        <ele>631.216</ele>
        <time>2021-08-07T06:01:50Z</time>
      </trkpt>
      <trkpt lat="45.22439" lon="5.74891">
        <ele>631.699</ele>
        <time>2021-08-07T06:01:57Z</time>
      </trkpt>
      <trkpt lat="45.22446" lon="5.74892">
        <ele>632.075</ele>
        <time>2021-08-07T06:02:00Z</time>
      </trkpt>
      <trkpt lat="45.22469" lon="5.74895">
        <ele>632.328</ele>
        <time>2021-08-07T06:02:08Z</time>
      </trkpt>
      <trkpt lat="45.22485" lon="5.749">
        <ele>631.913</ele>
        <time>2021-08-07T06:02:15Z</time>
      </trkpt>
      <trkpt lat="45.22507" lon="5.74907">
        <ele>632.795</ele>
        <time>2021-08-07T06:02:23Z</time>
      </trkpt>
      <trkpt lat="45.22511" lon="5.74907">
        <ele>632.364</ele>
        <time>2021-08-07T06:02:24Z</time>
      </trkpt>
      <trkpt lat="45.22531" lon="5.74916">
        <ele>634.068</ele>
        <time>2021-08-07T06:02:31Z</time>
      </trkpt>
      <trkpt lat="45.2254" lon="5.74922">
        <ele>633.444</ele>
        <time>2021-08-07T06:02:36Z</time>
      </trkpt>
      <trkpt lat="45.22555" lon="5.74937">
        <ele>635.406</ele>
        <time>2021-08-07T06:02:43Z</time>
      </trkpt>
      <trkpt lat="45.22559" lon="5.74939">
        <ele>635.112</ele>
        <time>2021-08-07T06:02:45Z</time>
      </trkpt>
      <trkpt lat="45.22566" lon="5.74947">
        <ele>636.597</ele>
        <time>2021-08-07T06:02:49Z</time>
      </trkpt>
      <trkpt lat="45.2259" lon="5.74954">
        <ele>637.75</ele>
        <time>2021-08-07T06:02:59Z</time>
      </trkpt>
      <trkpt lat="45.22609" lon="5.74955">
        <ele>640</ele>
        <time>2021-08-07T06:03:07Z</time>
      </trkpt>
      <trkpt lat="45.22626" lon="5.74962">
        <ele>641.354</ele>
        <time>2021-08-07T06:03:14Z</time>
      </trkpt>
      <trkpt lat="45.22642" lon="5.74971">
        <ele>641.208</ele>
        <time>2021-08-07T06:03:21Z</time>
      </trkpt>
      <trkpt lat="45.22659" lon="5.74988">
        <ele>641.666</ele>
        <time>2021-08-07T06:03:29Z</time>
      </trkpt>
      <trkpt lat="45.22677" lon="5.75">
        <ele>642.628</ele>
        <time>2021-08-07T06:03:37Z</time>
      </trkpt>
      <trkpt lat="45.22694" lon="5.75016">
        <ele>643.721</ele>
        <time>2021-08-07T06:03:45Z</time>
      </trkpt>
      <trkpt lat="45.22708" lon="5.75035">
        <ele>644.711</ele>
        <time>2021-08-07T06:03:54Z</time>
      </trkpt>
      <trkpt lat="45.2272" lon="5.75047">
        <ele>645.492</ele>
        <time>2021-08-07T06:04:00Z</time>
      </trkpt>
      <trkpt lat="45.22738" lon="5.75059">
        <ele>647.771</ele>
        <time>2021-08-07T06:04:08Z</time>
      </trkpt>
      <trkpt lat="45.22749" lon="5.75059">
        <ele>649.281</ele>
        <time>2021-08-07T06:04:14Z</time>
      </trkpt>
      <trkpt lat="45.22762" lon="5.75048">
        <ele>651.158</ele>
        <time>2021-08-07T06:04:22Z</time>
      </trkpt>
      <trkpt lat="45.22768" lon="5.75039">
        <ele>652.575</ele>
        <time>2021-08-07T06:04:26Z</time>
      </trkpt>
      <trkpt lat="45.22772" lon="5.75029">
        <ele>653.494</ele>
        <time>2021-08-07T06:04:32Z</time>
      </trkpt>
      <trkpt lat="45.22771" lon="5.75033">
        <ele>653.426</ele>
        <time>2021-08-07T06:04:45Z</time>
      </trkpt>
      <trkpt lat="45.22775" lon="5.7503">
        <ele>653.183</ele>
        <time>2021-08-07T06:05:09Z</time>
      </trkpt>
      <trkpt lat="45.22771" lon="5.75034">
        <ele>653.163</ele>
        <time>2021-08-07T06:05:13Z</time>
      </trkpt>
      <trkpt lat="45.22768" lon="5.75046">
        <ele>652.041</ele>
        <time>2021-08-07T06:05:17Z</time>
      </trkpt>
      <trkpt lat="45.2276" lon="5.75055">
        <ele>649.586</ele>
        <time>2021-08-07T06:05:22Z</time>
      </trkpt>
      <trkpt lat="45.22746" lon="5.75057">
        <ele>647.808</ele>
        <time>2021-08-07T06:05:28Z</time>
      </trkpt>
      <trkpt lat="45.2273" lon="5.75046">
        <ele>646.29</ele>
        <time>2021-08-07T06:05:34Z</time>
      </trkpt>
      <trkpt lat="45.22715" lon="5.75032">
        <ele>645.717</ele>
        <time>2021-08-07T06:05:40Z</time>
      </trkpt>
      <trkpt lat="45.22696" lon="5.75017">
        <ele>643.526</ele>
        <time>2021-08-07T06:05:48Z</time>
      </trkpt>
      <trkpt lat="45.22673" lon="5.74999">
        <ele>640.981</ele>
        <time>2021-08-07T06:05:57Z</time>
      </trkpt>
      <trkpt lat="45.22654" lon="5.7498">
        <ele>640.369</ele>
        <time>2021-08-07T06:06:04Z</time>
      </trkpt>
      <trkpt lat="45.22637" lon="5.74967">
        <ele>639.615</ele>
        <time>2021-08-07T06:06:11Z</time>
      </trkpt>
      <trkpt lat="45.22616" lon="5.74956">
        <ele>636.942</ele>
        <time>2021-08-07T06:06:19Z</time>
      </trkpt>
      <trkpt lat="45.22595" lon="5.74949">
        <ele>636.018</ele>
        <time>2021-08-07T06:06:26Z</time>
      </trkpt>
      <trkpt lat="45.22571" lon="5.74941">
        <ele>635.305</ele>
        <time>2021-08-07T06:06:34Z</time>
      </trkpt>
      <trkpt lat="45.22557" lon="5.74928">
        <ele>634.487</ele>
        <time>2021-08-07T06:06:41Z</time>
      </trkpt>
      <trkpt lat="45.22542" lon="5.74921">
        <ele>633.847</ele>
        <time>2021-08-07T06:06:47Z</time>
      </trkpt>
      <trkpt lat="45.22525" lon="5.74907">
        <ele>632.738</ele>
        <time>2021-08-07T06:06:54Z</time>
      </trkpt>
      <trkpt lat="45.22501" lon="5.74898">
        <ele>631.114</ele>
        <time>2021-08-07T06:07:01Z</time>
      </trkpt>
      <trkpt lat="45.22481" lon="5.7489">
        <ele>631.116</ele>
        <time>2021-08-07T06:07:08Z</time>
      </trkpt>
      <trkpt lat="45.22461" lon="5.74885">
        <ele>630.885</ele>
        <time>2021-08-07T06:07:15Z</time>
      </trkpt>
      <trkpt lat="45.22436" lon="5.74885">
        <ele>629.325</ele>
        <time>2021-08-07T06:07:23Z</time>
      </trkpt>
      <trkpt lat="45.22416" lon="5.74891">
        <ele>628.589</ele>
        <time>2021-08-07T06:07:29Z</time>
      </trkpt>
      <trkpt lat="45.22399" lon="5.74912">
        <ele>627.051</ele>
        <time>2021-08-07T06:07:36Z</time>
      </trkpt>
      <trkpt lat="45.22384" lon="5.74947">
        <ele>624.651</ele>
        <time>2021-08-07T06:07:45Z</time>
      </trkpt>
      <trkpt lat="45.22372" lon="5.74977">
        <ele>623.534</ele>
        <time>2021-08-07T06:07:52Z</time>
      </trkpt>
      <trkpt lat="45.22358" lon="5.74987">
        <ele>623.123</ele>
        <time>2021-08-07T06:07:58Z</time>
      </trkpt>
      <trkpt lat="45.22354" lon="5.74985">
        <ele>623.314</ele>
        <time>2021-08-07T06:08:03Z</time>
      </trkpt>
      <trkpt lat="45.22354" lon="5.74983">
        <ele>623.272</ele>
        <time>2021-08-07T06:08:12Z</time>
      </trkpt>
      <trkpt lat="45.22354" lon="5.74982">
        <ele>622.725</ele>
        <time>2021-08-07T06:08:21Z</time>
      </trkpt>
      <trkpt lat="45.22356" lon="5.74976">
        <ele>623.168</ele>
        <time>2021-08-07T06:08:25Z</time>
      </trkpt>
      <trkpt lat="45.22356" lon="5.74966">
        <ele>623.741</ele>
        <time>2021-08-07T06:08:32Z</time>
      </trkpt>
      <trkpt lat="45.22355" lon="5.74971">
        <ele>623.77</ele>
        <time>2021-08-07T06:08:46Z</time>
      </trkpt>
      <trkpt lat="45.22356" lon="5.7496">
        <ele>623.758</ele>
        <time>2021-08-07T06:08:59Z</time>
      </trkpt>
      <trkpt lat="45.22357" lon="5.74955">
        <ele>625.931</ele>
        <time>2021-08-07T06:09:01Z</time>
      </trkpt>
      <trkpt lat="45.22358" lon="5.74946">
        <ele>628.645</ele>
        <time>2021-08-07T06:09:07Z</time>
      </trkpt>
      <trkpt lat="45.22359" lon="5.7494">
        <ele>630.506</ele>
        <time>2021-08-07T06:09:10Z</time>
      </trkpt>
      <trkpt lat="45.22358" lon="5.74935">
        <ele>631.043</ele>
        <time>2021-08-07T06:09:12Z</time>
      </trkpt>
      <trkpt lat="45.22363" lon="5.74925">
        <ele>632.241</ele>
        <time>2021-08-07T06:09:20Z</time>
      </trkpt>
      <trkpt lat="45.22365" lon="5.74917">
        <ele>633.714</ele>
        <time>2021-08-07T06:09:24Z</time>
      </trkpt>
      <trkpt lat="45.22365" lon="5.7491">
        <ele>635.081</ele>
        <time>2021-08-07T06:09:27Z</time>
      </trkpt>
      <trkpt lat="45.22363" lon="5.74907">
        <ele>635.807</ele>
        <time>2021-08-07T06:09:29Z</time>
      </trkpt>
      <trkpt lat="45.22356" lon="5.74892">
        <ele>638.299</ele>
        <time>2021-08-07T06:09:37Z</time>
      </trkpt>
      <trkpt lat="45.22353" lon="5.74879">
        <ele>640.043</ele>
        <time>2021-08-07T06:09:42Z</time>
      </trkpt>
      <trkpt lat="45.22349" lon="5.7487">
        <ele>640.943</ele>
        <time>2021-08-07T06:09:47Z</time>
      </trkpt>
      <trkpt lat="45.22346" lon="5.74866">
        <ele>642.491</ele>
        <time>2021-08-07T06:09:50Z</time>
      </trkpt>
      <trkpt lat="45.22343" lon="5.74861">
        <ele>644.229</ele>
        <time>2021-08-07T06:09:54Z</time>
      </trkpt>
      <trkpt lat="45.22343" lon="5.74856">
        <ele>646.327</ele>
        <time>2021-08-07T06:09:59Z</time>
      </trkpt>
      <trkpt lat="45.22342" lon="5.74854">
        <ele>646.539</ele>
        <time>2021-08-07T06:10:01Z</time>
      </trkpt>
      <trkpt lat="45.2234" lon="5.74846">
        <ele>647.635</ele>
        <time>2021-08-07T06:10:06Z</time>
      </trkpt>
      <trkpt lat="45.22335" lon="5.74845">
        <ele>649.025</ele>
        <time>2021-08-07T06:10:11Z</time>
      </trkpt>
      <trkpt lat="45.22332" lon="5.74843">
        <ele>651.413</ele>
        <time>2021-08-07T06:10:15Z</time>
      </trkpt>
      <trkpt lat="45.22328" lon="5.74836">
        <ele>652.942</ele>
        <time>2021-08-07T06:10:23Z</time>
      </trkpt>
      <trkpt lat="45.22328" lon="5.74832">
        <ele>654.408</ele>
        <time>2021-08-07T06:10:28Z</time>
      </trkpt>
      <trkpt lat="45.22335" lon="5.74826">
        <ele>655.14</ele>
        <time>2021-08-07T06:10:34Z</time>
      </trkpt>
      <trkpt lat="45.22337" lon="5.74823">
        <ele>656.165</ele>
        <time>2021-08-07T06:10:36Z</time>
      </trkpt>
      <trkpt lat="45.2234" lon="5.74819">
        <ele>657.479</ele>
        <time>2021-08-07T06:10:40Z</time>
      </trkpt>
      <trkpt lat="45.22343" lon="5.74816">
        <ele>657.947</ele>
        <time>2021-08-07T06:10:42Z</time>
      </trkpt>
      <trkpt lat="45.22349" lon="5.74813">
        <ele>659.496</ele>
        <time>2021-08-07T06:10:50Z</time>
      </trkpt>
      <trkpt lat="45.22356" lon="5.74808">
        <ele>659.966</ele>
        <time>2021-08-07T06:10:59Z</time>
      </trkpt>
      <trkpt lat="45.22359" lon="5.74804">
        <ele>661.948</ele>
        <time>2021-08-07T06:11:05Z</time>
      </trkpt>
      <trkpt lat="45.22361" lon="5.74802">
        <ele>663.575</ele>
        <time>2021-08-07T06:11:08Z</time>
      </trkpt>
      <trkpt lat="45.22367" lon="5.74794">
        <ele>665.112</ele>
        <time>2021-08-07T06:11:14Z</time>
      </trkpt>
      <trkpt lat="45.2237" lon="5.74786">
        <ele>666.753</ele>
        <time>2021-08-07T06:11:20Z</time>
      </trkpt>
      <trkpt lat="45.22376" lon="5.74778">
        <ele>667.668</ele>
        <time>2021-08-07T06:11:26Z</time>
      </trkpt>
      <trkpt lat="45.2238" lon="5.74774">
        <ele>668.698</ele>
        <time>2021-08-07T06:11:32Z</time>
      </trkpt>
      <trkpt lat="45.22383" lon="5.74771">
        <ele>670.503</ele>
        <time>2021-08-07T06:11:37Z</time>
      </trkpt>
      <trkpt lat="45.22384" lon="5.7477">
        <ele>671.157</ele>
        <time>2021-08-07T06:11:39Z</time>
      </trkpt>
      <trkpt lat="45.22386" lon="5.74762">
        <ele>672.772</ele>
        <time>2021-08-07T06:11:45Z</time>
      </trkpt>
      <trkpt lat="45.22387" lon="5.7476">
        <ele>673.156</ele>
        <time>2021-08-07T06:11:46Z</time>
      </trkpt>
      <trkpt lat="45.22394" lon="5.74751">
        <ele>674.418</ele>
        <time>2021-08-07T06:11:54Z</time>
      </trkpt>
      <trkpt lat="45.22396" lon="5.74746">
        <ele>675.704</ele>
        <time>2021-08-07T06:11:58Z</time>
      </trkpt>
      <trkpt lat="45.22397" lon="5.74743">
        <ele>675.945</ele>
        <time>2021-08-07T06:12:00Z</time>
      </trkpt>
      <trkpt lat="45.22402" lon="5.74735">
        <ele>678.454</ele>
        <time>2021-08-07T06:12:08Z</time>
      </trkpt>
      <trkpt lat="45.22405" lon="5.74732">
        <ele>679.717</ele>
        <time>2021-08-07T06:12:12Z</time>
      </trkpt>
      <trkpt lat="45.22412" lon="5.74726">
        <ele>682.442</ele>
        <time>2021-08-07T06:12:19Z</time>
      </trkpt>
      <trkpt lat="45.22413" lon="5.74719">
        <ele>683.233</ele>
        <time>2021-08-07T06:12:24Z</time>
      </trkpt>
      <trkpt lat="45.22414" lon="5.74715">
        <ele>684.577</ele>
        <time>2021-08-07T06:12:29Z</time>
      </trkpt>
      <trkpt lat="45.22414" lon="5.7471">
        <ele>684.601</ele>
        <time>2021-08-07T06:12:33Z</time>
      </trkpt>
      <trkpt lat="45.2241" lon="5.74705">
        <ele>687.226</ele>
        <time>2021-08-07T06:12:40Z</time>
      </trkpt>
      <trkpt lat="45.22407" lon="5.74701">
        <ele>687.691</ele>
        <time>2021-08-07T06:12:44Z</time>
      </trkpt>
      <trkpt lat="45.224" lon="5.74691">
        <ele>691.464</ele>
        <time>2021-08-07T06:12:53Z</time>
      </trkpt>
      <trkpt lat="45.224" lon="5.74682">
        <ele>693.207</ele>
        <time>2021-08-07T06:12:59Z</time>
      </trkpt>
      <trkpt lat="45.224" lon="5.74679">
        <ele>692.887</ele>
        <time>2021-08-07T06:13:00Z</time>
      </trkpt>
      <trkpt lat="45.22407" lon="5.74676">
        <ele>695.336</ele>
        <time>2021-08-07T06:13:08Z</time>
      </trkpt>
      <trkpt lat="45.2241" lon="5.74677">
        <ele>696.403</ele>
        <time>2021-08-07T06:13:11Z</time>
      </trkpt>
      <trkpt lat="45.2242" lon="5.7468">
        <ele>698.883</ele>
        <time>2021-08-07T06:13:20Z</time>
      </trkpt>
      <trkpt lat="45.22426" lon="5.74678">
        <ele>700.559</ele>
        <time>2021-08-07T06:13:27Z</time>
      </trkpt>
      <trkpt lat="45.22432" lon="5.74678">
        <ele>701.486</ele>
        <time>2021-08-07T06:13:34Z</time>
      </trkpt>
      <trkpt lat="45.22439" lon="5.74684">
        <ele>703.394</ele>
        <time>2021-08-07T06:13:41Z</time>
      </trkpt>
      <trkpt lat="45.2244" lon="5.74684">
        <ele>703.731</ele>
        <time>2021-08-07T06:13:42Z</time>
      </trkpt>
      <trkpt lat="45.22451" lon="5.74685">
        <ele>705.165</ele>
        <time>2021-08-07T06:13:49Z</time>
      </trkpt>
      <trkpt lat="45.22456" lon="5.74687">
        <ele>706.98</ele>
        <time>2021-08-07T06:13:54Z</time>
      </trkpt>
      <trkpt lat="45.22456" lon="5.74687">
        <ele>707.682</ele>
        <time>2021-08-07T06:13:56Z</time>
      </trkpt>
      <trkpt lat="45.22463" lon="5.74688">
        <ele>709.144</ele>
        <time>2021-08-07T06:14:02Z</time>
      </trkpt>
      <trkpt lat="45.22472" lon="5.74685">
        <ele>710.979</ele>
        <time>2021-08-07T06:14:10Z</time>
      </trkpt>
      <trkpt lat="45.2248" lon="5.74685">
        <ele>711.94</ele>
        <time>2021-08-07T06:14:16Z</time>
      </trkpt>
      <trkpt lat="45.2249" lon="5.74679">
        <ele>714.237</ele>
        <time>2021-08-07T06:14:25Z</time>
      </trkpt>
      <trkpt lat="45.22496" lon="5.74674">
        <ele>715.975</ele>
        <time>2021-08-07T06:14:32Z</time>
      </trkpt>
      <trkpt lat="45.225" lon="5.7467">
        <ele>716.751</ele>
        <time>2021-08-07T06:14:37Z</time>
      </trkpt>
      <trkpt lat="45.22506" lon="5.74666">
        <ele>718.302</ele>
        <time>2021-08-07T06:14:44Z</time>
      </trkpt>
      <trkpt lat="45.2251" lon="5.74663">
        <ele>720.843</ele>
        <time>2021-08-07T06:14:51Z</time>
      </trkpt>
      <trkpt lat="45.22513" lon="5.7466">
        <ele>722.216</ele>
        <time>2021-08-07T06:14:55Z</time>
      </trkpt>
      <trkpt lat="45.22521" lon="5.74655">
        <ele>725.267</ele>
        <time>2021-08-07T06:15:03Z</time>
      </trkpt>
      <trkpt lat="45.22523" lon="5.74654">
        <ele>726.328</ele>
        <time>2021-08-07T06:15:05Z</time>
      </trkpt>
      <trkpt lat="45.22531" lon="5.74649">
        <ele>727.627</ele>
        <time>2021-08-07T06:15:14Z</time>
      </trkpt>
      <trkpt lat="45.22536" lon="5.74645">
        <ele>729.525</ele>
        <time>2021-08-07T06:15:20Z</time>
      </trkpt>
      <trkpt lat="45.22541" lon="5.74641">
        <ele>731.457</ele>
        <time>2021-08-07T06:15:26Z</time>
      </trkpt>
      <trkpt lat="45.22545" lon="5.74636">
        <ele>733.159</ele>
        <time>2021-08-07T06:15:30Z</time>
      </trkpt>
      <trkpt lat="45.22552" lon="5.74627">
        <ele>735.252</ele>
        <time>2021-08-07T06:15:39Z</time>
      </trkpt>
      <trkpt lat="45.22552" lon="5.74625">
        <ele>735.257</ele>
        <time>2021-08-07T06:15:40Z</time>
      </trkpt>
      <trkpt lat="45.22552" lon="5.74617">
        <ele>737.603</ele>
        <time>2021-08-07T06:15:48Z</time>
      </trkpt>
      <trkpt lat="45.22549" lon="5.7461">
        <ele>739.588</ele>
        <time>2021-08-07T06:15:56Z</time>
      </trkpt>
      <trkpt lat="45.22547" lon="5.74599">
        <ele>741.748</ele>
        <time>2021-08-07T06:16:04Z</time>
      </trkpt>
      <trkpt lat="45.22547" lon="5.74597">
        <ele>742.127</ele>
        <time>2021-08-07T06:16:05Z</time>
      </trkpt>
      <trkpt lat="45.22542" lon="5.74589">
        <ele>743.962</ele>
        <time>2021-08-07T06:16:13Z</time>
      </trkpt>
      <trkpt lat="45.22539" lon="5.74585">
        <ele>746.038</ele>
        <time>2021-08-07T06:16:19Z</time>
      </trkpt>
      <trkpt lat="45.22536" lon="5.74584">
        <ele>747.024</ele>
        <time>2021-08-07T06:16:23Z</time>
      </trkpt>
      <trkpt lat="45.22529" lon="5.74579">
        <ele>748.543</ele>
        <time>2021-08-07T06:16:32Z</time>
      </trkpt>
      <trkpt lat="45.22523" lon="5.74571">
        <ele>750.687</ele>
        <time>2021-08-07T06:16:40Z</time>
      </trkpt>
      <trkpt lat="45.22517" lon="5.74564">
        <ele>752.451</ele>
        <time>2021-08-07T06:16:48Z</time>
      </trkpt>
      <trkpt lat="45.22514" lon="5.74561">
        <ele>753.145</ele>
        <time>2021-08-07T06:16:52Z</time>
      </trkpt>
      <trkpt lat="45.22507" lon="5.74552">
        <ele>753.966</ele>
        <time>2021-08-07T06:16:59Z</time>
      </trkpt>
      <trkpt lat="45.22505" lon="5.74547">
        <ele>755.429</ele>
        <time>2021-08-07T06:17:04Z</time>
      </trkpt>
      <trkpt lat="45.22499" lon="5.74539">
        <ele>757.203</ele>
        <time>2021-08-07T06:17:09Z</time>
      </trkpt>
      <trkpt lat="45.22493" lon="5.74535">
        <ele>757.228</ele>
        <time>2021-08-07T06:17:15Z</time>
      </trkpt>
      <trkpt lat="45.22483" lon="5.74528">
        <ele>758.668</ele>
        <time>2021-08-07T06:17:24Z</time>
      </trkpt>
      <trkpt lat="45.22478" lon="5.74526">
        <ele>760.347</ele>
        <time>2021-08-07T06:17:30Z</time>
      </trkpt>
      <trkpt lat="45.22469" lon="5.74526">
        <ele>762.485</ele>
        <time>2021-08-07T06:17:39Z</time>
      </trkpt>
      <trkpt lat="45.22465" lon="5.74521">
        <ele>763.652</ele>
        <time>2021-08-07T06:17:45Z</time>
      </trkpt>
      <trkpt lat="45.22461" lon="5.74514">
        <ele>764.417</ele>
        <time>2021-08-07T06:17:51Z</time>
      </trkpt>
      <trkpt lat="45.22454" lon="5.74505">
        <ele>766.434</ele>
        <time>2021-08-07T06:18:00Z</time>
      </trkpt>
      <trkpt lat="45.22453" lon="5.74504">
        <ele>766.893</ele>
        <time>2021-08-07T06:18:01Z</time>
      </trkpt>
      <trkpt lat="45.2245" lon="5.74498">
        <ele>768.613</ele>
        <time>2021-08-07T06:18:05Z</time>
      </trkpt>
      <trkpt lat="45.2245" lon="5.74495">
        <ele>768.855</ele>
        <time>2021-08-07T06:18:07Z</time>
      </trkpt>
      <trkpt lat="45.22448" lon="5.7448">
        <ele>771.887</ele>
        <time>2021-08-07T06:18:16Z</time>
      </trkpt>
      <trkpt lat="45.22447" lon="5.74471">
        <ele>772.416</ele>
        <time>2021-08-07T06:18:23Z</time>
      </trkpt>
      <trkpt lat="45.22443" lon="5.74464">
        <ele>774.459</ele>
        <time>2021-08-07T06:18:29Z</time>
      </trkpt>
      <trkpt lat="45.22443" lon="5.74462">
        <ele>774.889</ele>
        <time>2021-08-07T06:18:30Z</time>
      </trkpt>
      <trkpt lat="45.2244" lon="5.74453">
        <ele>776.383</ele>
        <time>2021-08-07T06:18:38Z</time>
      </trkpt>
      <trkpt lat="45.2244" lon="5.74451">
        <ele>776.48</ele>
        <time>2021-08-07T06:18:39Z</time>
      </trkpt>
      <trkpt lat="45.22436" lon="5.74449">
        <ele>777.294</ele>
        <time>2021-08-07T06:18:42Z</time>
      </trkpt>
      <trkpt lat="45.22433" lon="5.74438">
        <ele>778.506</ele>
        <time>2021-08-07T06:18:50Z</time>
      </trkpt>
      <trkpt lat="45.22428" lon="5.74432">
        <ele>779.799</ele>
        <time>2021-08-07T06:18:56Z</time>
      </trkpt>
      <trkpt lat="45.22425" lon="5.74425">
        <ele>780.997</ele>
        <time>2021-08-07T06:19:02Z</time>
      </trkpt>
      <trkpt lat="45.22421" lon="5.74421">
        <ele>782.071</ele>
        <time>2021-08-07T06:19:07Z</time>
      </trkpt>
      <trkpt lat="45.22418" lon="5.74409">
        <ele>783.263</ele>
        <time>2021-08-07T06:19:15Z</time>
      </trkpt>
      <trkpt lat="45.22416" lon="5.74403">
        <ele>783.77</ele>
        <time>2021-08-07T06:19:19Z</time>
      </trkpt>
      <trkpt lat="45.22414" lon="5.74397">
        <ele>784.787</ele>
        <time>2021-08-07T06:19:25Z</time>
      </trkpt>
      <trkpt lat="45.22411" lon="5.74388">
        <ele>785.672</ele>
        <time>2021-08-07T06:19:30Z</time>
      </trkpt>
      <trkpt lat="45.22409" lon="5.74378">
        <ele>786.544</ele>
        <time>2021-08-07T06:19:36Z</time>
      </trkpt>
      <trkpt lat="45.22403" lon="5.74371">
        <ele>788.442</ele>
        <time>2021-08-07T06:19:44Z</time>
      </trkpt>
      <trkpt lat="45.22398" lon="5.74367">
        <ele>789.388</ele>
        <time>2021-08-07T06:19:49Z</time>
      </trkpt>
      <trkpt lat="45.22393" lon="5.74357">
        <ele>792.108</ele>
        <time>2021-08-07T06:19:57Z</time>
      </trkpt>
      <trkpt lat="45.22392" lon="5.74348">
        <ele>793.531</ele>
        <time>2021-08-07T06:20:03Z</time>
      </trkpt>
      <trkpt lat="45.22388" lon="5.74342">
        <ele>795.644</ele>
        <time>2021-08-07T06:20:12Z</time>
      </trkpt>
      <trkpt lat="45.22387" lon="5.7434">
        <ele>795.773</ele>
        <time>2021-08-07T06:20:14Z</time>
      </trkpt>
      <trkpt lat="45.22385" lon="5.74329">
        <ele>797.613</ele>
        <time>2021-08-07T06:20:20Z</time>
      </trkpt>
      <trkpt lat="45.22385" lon="5.74318">
        <ele>797.985</ele>
        <time>2021-08-07T06:20:26Z</time>
      </trkpt>
      <trkpt lat="45.22382" lon="5.74313">
        <ele>798.876</ele>
        <time>2021-08-07T06:20:31Z</time>
      </trkpt>
      <trkpt lat="45.22379" lon="5.74308">
        <ele>799.726</ele>
        <time>2021-08-07T06:20:36Z</time>
      </trkpt>
      <trkpt lat="45.22374" lon="5.74303">
        <ele>801.305</ele>
        <time>2021-08-07T06:20:43Z</time>
      </trkpt>
      <trkpt lat="45.2237" lon="5.74299">
        <ele>803.241</ele>
        <time>2021-08-07T06:20:48Z</time>
      </trkpt>
      <trkpt lat="45.22369" lon="5.74297">
        <ele>803.862</ele>
        <time>2021-08-07T06:20:50Z</time>
      </trkpt>
      <trkpt lat="45.22365" lon="5.74281">
        <ele>806.012</ele>
        <time>2021-08-07T06:20:58Z</time>
      </trkpt>
      <trkpt lat="45.2236" lon="5.7427">
        <ele>808.373</ele>
        <time>2021-08-07T06:21:06Z</time>
      </trkpt>
      <trkpt lat="45.22354" lon="5.7426">
        <ele>809.447</ele>
        <time>2021-08-07T06:21:14Z</time>
      </trkpt>
      <trkpt lat="45.22348" lon="5.74253">
        <ele>810.94</ele>
        <time>2021-08-07T06:21:21Z</time>
      </trkpt>
      <trkpt lat="45.22339" lon="5.74248">
        <ele>812.968</ele>
        <time>2021-08-07T06:21:30Z</time>
      </trkpt>
      <trkpt lat="45.22337" lon="5.74236">
        <ele>814.629</ele>
        <time>2021-08-07T06:21:36Z</time>
      </trkpt>
      <trkpt lat="45.22333" lon="5.74226">
        <ele>816.62</ele>
        <time>2021-08-07T06:21:42Z</time>
      </trkpt>
      <trkpt lat="45.22332" lon="5.74225">
        <ele>817.54</ele>
        <time>2021-08-07T06:21:44Z</time>
      </trkpt>
      <trkpt lat="45.2233" lon="5.7422">
        <ele>818.459</ele>
        <time>2021-08-07T06:21:50Z</time>
      </trkpt>
      <trkpt lat="45.22325" lon="5.74217">
        <ele>820.784</ele>
        <time>2021-08-07T06:21:56Z</time>
      </trkpt>
      <trkpt lat="45.22324" lon="5.74216">
        <ele>820.614</ele>
        <time>2021-08-07T06:21:57Z</time>
      </trkpt>
      <trkpt lat="45.2232" lon="5.7421">
        <ele>821.987</ele>
        <time>2021-08-07T06:22:03Z</time>
      </trkpt>
      <trkpt lat="45.22314" lon="5.74208">
        <ele>823.14</ele>
        <time>2021-08-07T06:22:08Z</time>
      </trkpt>
      <trkpt lat="45.22311" lon="5.74206">
        <ele>823.156</ele>
        <time>2021-08-07T06:22:11Z</time>
      </trkpt>
      <trkpt lat="45.22307" lon="5.74201">
        <ele>823.909</ele>
        <time>2021-08-07T06:22:15Z</time>
      </trkpt>
      <trkpt lat="45.22299" lon="5.74189">
        <ele>824.603</ele>
        <time>2021-08-07T06:22:22Z</time>
      </trkpt>
      <trkpt lat="45.22294" lon="5.74183">
        <ele>825.128</ele>
        <time>2021-08-07T06:22:28Z</time>
      </trkpt>
      <trkpt lat="45.22292" lon="5.74179">
        <ele>825.919</ele>
        <time>2021-08-07T06:22:31Z</time>
      </trkpt>
      <trkpt lat="45.22282" lon="5.74162">
        <ele>826.635</ele>
        <time>2021-08-07T06:22:41Z</time>
      </trkpt>
      <trkpt lat="45.22281" lon="5.74161">
        <ele>826.704</ele>
        <time>2021-08-07T06:22:42Z</time>
      </trkpt>
      <trkpt lat="45.22275" lon="5.74153">
        <ele>829.314</ele>
        <time>2021-08-07T06:22:48Z</time>
      </trkpt>
      <trkpt lat="45.22272" lon="5.74141">
        <ele>830.644</ele>
        <time>2021-08-07T06:22:56Z</time>
      </trkpt>
      <trkpt lat="45.22267" lon="5.74129">
        <ele>830.81</ele>
        <time>2021-08-07T06:23:03Z</time>
      </trkpt>
      <trkpt lat="45.22265" lon="5.74121">
        <ele>831.541</ele>
        <time>2021-08-07T06:23:08Z</time>
      </trkpt>
      <trkpt lat="45.22257" lon="5.74115">
        <ele>833.559</ele>
        <time>2021-08-07T06:23:15Z</time>
      </trkpt>
      <trkpt lat="45.22254" lon="5.74109">
        <ele>835.399</ele>
        <time>2021-08-07T06:23:20Z</time>
      </trkpt>
      <trkpt lat="45.22247" lon="5.74104">
        <ele>836.614</ele>
        <time>2021-08-07T06:23:27Z</time>
      </trkpt>
      <trkpt lat="45.22242" lon="5.74097">
        <ele>837.938</ele>
        <time>2021-08-07T06:23:33Z</time>
      </trkpt>
      <trkpt lat="45.22238" lon="5.74092">
        <ele>839.411</ele>
        <time>2021-08-07T06:23:38Z</time>
      </trkpt>
      <trkpt lat="45.22234" lon="5.74088">
        <ele>840.341</ele>
        <time>2021-08-07T06:23:42Z</time>
      </trkpt>
      <trkpt lat="45.22227" lon="5.74084">
        <ele>840.342</ele>
        <time>2021-08-07T06:23:47Z</time>
      </trkpt>
      <trkpt lat="45.2222" lon="5.74072">
        <ele>842.609</ele>
        <time>2021-08-07T06:23:55Z</time>
      </trkpt>
      <trkpt lat="45.22215" lon="5.74066">
        <ele>843.678</ele>
        <time>2021-08-07T06:24:01Z</time>
      </trkpt>
      <trkpt lat="45.22204" lon="5.74053">
        <ele>844.692</ele>
        <time>2021-08-07T06:24:10Z</time>
      </trkpt>
      <trkpt lat="45.22199" lon="5.74043">
        <ele>845.85</ele>
        <time>2021-08-07T06:24:16Z</time>
      </trkpt>
      <trkpt lat="45.22194" lon="5.74038">
        <ele>847.531</ele>
        <time>2021-08-07T06:24:20Z</time>
      </trkpt>
      <trkpt lat="45.22189" lon="5.74023">
        <ele>849.901</ele>
        <time>2021-08-07T06:24:29Z</time>
      </trkpt>
      <trkpt lat="45.22186" lon="5.74011">
        <ele>851.325</ele>
        <time>2021-08-07T06:24:37Z</time>
      </trkpt>
      <trkpt lat="45.22182" lon="5.74007">
        <ele>852.274</ele>
        <time>2021-08-07T06:24:42Z</time>
      </trkpt>
      <trkpt lat="45.22177" lon="5.73995">
        <ele>854.24</ele>
        <time>2021-08-07T06:24:48Z</time>
      </trkpt>
      <trkpt lat="45.22171" lon="5.73986">
        <ele>856.104</ele>
        <time>2021-08-07T06:24:55Z</time>
      </trkpt>
      <trkpt lat="45.22164" lon="5.73983">
        <ele>856.365</ele>
        <time>2021-08-07T06:25:01Z</time>
      </trkpt>
      <trkpt lat="45.2216" lon="5.73977">
        <ele>858.023</ele>
        <time>2021-08-07T06:25:07Z</time>
      </trkpt>
      <trkpt lat="45.22155" lon="5.73973">
        <ele>859.202</ele>
        <time>2021-08-07T06:25:12Z</time>
      </trkpt>
      <trkpt lat="45.22152" lon="5.73973">
        <ele>858.939</ele>
        <time>2021-08-07T06:25:14Z</time>
      </trkpt>
      <trkpt lat="45.22147" lon="5.73964">
        <ele>860.35</ele>
        <time>2021-08-07T06:25:19Z</time>
      </trkpt>
      <trkpt lat="45.22144" lon="5.73954">
        <ele>861.159</ele>
        <time>2021-08-07T06:25:25Z</time>
      </trkpt>
      <trkpt lat="45.22137" lon="5.73949">
        <ele>861.872</ele>
        <time>2021-08-07T06:25:31Z</time>
      </trkpt>
      <trkpt lat="45.22134" lon="5.73946">
        <ele>863.113</ele>
        <time>2021-08-07T06:25:34Z</time>
      </trkpt>
      <trkpt lat="45.2213" lon="5.7394">
        <ele>865.112</ele>
        <time>2021-08-07T06:25:39Z</time>
      </trkpt>
      <trkpt lat="45.22128" lon="5.73937">
        <ele>865.553</ele>
        <time>2021-08-07T06:25:41Z</time>
      </trkpt>
      <trkpt lat="45.22126" lon="5.73933">
        <ele>866.832</ele>
        <time>2021-08-07T06:25:44Z</time>
      </trkpt>
      <trkpt lat="45.22121" lon="5.73927">
        <ele>867.971</ele>
        <time>2021-08-07T06:25:50Z</time>
      </trkpt>
      <trkpt lat="45.22117" lon="5.73923">
        <ele>869.521</ele>
        <time>2021-08-07T06:25:55Z</time>
      </trkpt>
      <trkpt lat="45.2211" lon="5.73918">
        <ele>869.193</ele>
        <time>2021-08-07T06:26:02Z</time>
      </trkpt>
      <trkpt lat="45.22103" lon="5.73913">
        <ele>870.147</ele>
        <time>2021-08-07T06:26:08Z</time>
      </trkpt>
      <trkpt lat="45.22096" lon="5.73909">
        <ele>871.264</ele>
        <time>2021-08-07T06:26:15Z</time>
      </trkpt>
      <trkpt lat="45.22088" lon="5.73899">
        <ele>873.199</ele>
        <time>2021-08-07T06:26:23Z</time>
      </trkpt>
      <trkpt lat="45.22086" lon="5.73895">
        <ele>874.052</ele>
        <time>2021-08-07T06:26:26Z</time>
      </trkpt>
      <trkpt lat="45.22083" lon="5.73881">
        <ele>875.61</ele>
        <time>2021-08-07T06:26:33Z</time>
      </trkpt>
      <trkpt lat="45.2209" lon="5.73878">
        <ele>876.397</ele>
        <time>2021-08-07T06:26:39Z</time>
      </trkpt>
      <trkpt lat="45.22098" lon="5.73884">
        <ele>877.419</ele>
        <time>2021-08-07T06:26:46Z</time>
      </trkpt>
      <trkpt lat="45.22103" lon="5.73886">
        <ele>877.901</ele>
        <time>2021-08-07T06:26:50Z</time>
      </trkpt>
      <trkpt lat="45.22109" lon="5.73889">
        <ele>878.58</ele>
        <time>2021-08-07T06:26:55Z</time>
      </trkpt>
      <trkpt lat="45.22125" lon="5.73894">
        <ele>879.157</ele>
        <time>2021-08-07T06:27:03Z</time>
      </trkpt>
      <trkpt lat="45.22131" lon="5.73897">
        <ele>880.266</ele>
        <time>2021-08-07T06:27:07Z</time>
      </trkpt>
      <trkpt lat="45.22143" lon="5.739">
        <ele>882.225</ele>
        <time>2021-08-07T06:27:13Z</time>
      </trkpt>
      <trkpt lat="45.22153" lon="5.73902">
        <ele>882.931</ele>
        <time>2021-08-07T06:27:19Z</time>
      </trkpt>
      <trkpt lat="45.22162" lon="5.73904">
        <ele>884.26</ele>
        <time>2021-08-07T06:27:26Z</time>
      </trkpt>
      <trkpt lat="45.22171" lon="5.73911">
        <ele>885.439</ele>
        <time>2021-08-07T06:27:32Z</time>
      </trkpt>
      <trkpt lat="45.2218" lon="5.73913">
        <ele>886.648</ele>
        <time>2021-08-07T06:27:38Z</time>
      </trkpt>
      <trkpt lat="45.22182" lon="5.73914">
        <ele>886.699</ele>
        <time>2021-08-07T06:27:39Z</time>
      </trkpt>
      <trkpt lat="45.22187" lon="5.7392">
        <ele>886.934</ele>
        <time>2021-08-07T06:27:42Z</time>
      </trkpt>
      <trkpt lat="45.22198" lon="5.73931">
        <ele>888.497</ele>
        <time>2021-08-07T06:27:49Z</time>
      </trkpt>
      <trkpt lat="45.22199" lon="5.73932">
        <ele>888.65</ele>
        <time>2021-08-07T06:27:50Z</time>
      </trkpt>
      <trkpt lat="45.22205" lon="5.73934">
        <ele>888.678</ele>
        <time>2021-08-07T06:27:53Z</time>
      </trkpt>
      <trkpt lat="45.22217" lon="5.73953">
        <ele>889.71</ele>
        <time>2021-08-07T06:28:01Z</time>
      </trkpt>
      <trkpt lat="45.22219" lon="5.73958">
        <ele>890.061</ele>
        <time>2021-08-07T06:28:03Z</time>
      </trkpt>
      <trkpt lat="45.22227" lon="5.73968">
        <ele>890.426</ele>
        <time>2021-08-07T06:28:09Z</time>
      </trkpt>
      <trkpt lat="45.22233" lon="5.73973">
        <ele>891.482</ele>
        <time>2021-08-07T06:28:14Z</time>
      </trkpt>
      <trkpt lat="45.2224" lon="5.73976">
        <ele>892.002</ele>
        <time>2021-08-07T06:28:18Z</time>
      </trkpt>
      <trkpt lat="45.22252" lon="5.73985">
        <ele>892.716</ele>
        <time>2021-08-07T06:28:26Z</time>
      </trkpt>
      <trkpt lat="45.22266" lon="5.73991">
        <ele>894.06</ele>
        <time>2021-08-07T06:28:34Z</time>
      </trkpt>
      <trkpt lat="45.22269" lon="5.73995">
        <ele>894.61</ele>
        <time>2021-08-07T06:28:37Z</time>
      </trkpt>
      <trkpt lat="45.22273" lon="5.73995">
        <ele>894.94</ele>
        <time>2021-08-07T06:28:39Z</time>
      </trkpt>
      <trkpt lat="45.22283" lon="5.73999">
        <ele>896.035</ele>
        <time>2021-08-07T06:28:44Z</time>
      </trkpt>
      <trkpt lat="45.22286" lon="5.74001">
        <ele>896.437</ele>
        <time>2021-08-07T06:28:46Z</time>
      </trkpt>
      <trkpt lat="45.22299" lon="5.74006">
        <ele>897.385</ele>
        <time>2021-08-07T06:28:53Z</time>
      </trkpt>
      <trkpt lat="45.22309" lon="5.74008">
        <ele>897.612</ele>
        <time>2021-08-07T06:28:59Z</time>
      </trkpt>
      <trkpt lat="45.22323" lon="5.74012">
        <ele>900.463</ele>
        <time>2021-08-07T06:29:06Z</time>
      </trkpt>
      <trkpt lat="45.2233" lon="5.74018">
        <ele>900.182</ele>
        <time>2021-08-07T06:29:11Z</time>
      </trkpt>
      <trkpt lat="45.22342" lon="5.74025">
        <ele>901.678</ele>
        <time>2021-08-07T06:29:17Z</time>
      </trkpt>
      <trkpt lat="45.22343" lon="5.74026">
        <ele>901.68</ele>
        <time>2021-08-07T06:29:18Z</time>
      </trkpt>
      <trkpt lat="45.2235" lon="5.74036">
        <ele>903.433</ele>
        <time>2021-08-07T06:29:24Z</time>
      </trkpt>
      <trkpt lat="45.22365" lon="5.74046">
        <ele>904.348</ele>
        <time>2021-08-07T06:29:31Z</time>
      </trkpt>
      <trkpt lat="45.22378" lon="5.74059">
        <ele>904.205</ele>
        <time>2021-08-07T06:29:38Z</time>
      </trkpt>
      <trkpt lat="45.22384" lon="5.74065">
        <ele>903.614</ele>
        <time>2021-08-07T06:29:42Z</time>
      </trkpt>
      <trkpt lat="45.22386" lon="5.74066">
        <ele>903.948</ele>
        <time>2021-08-07T06:29:43Z</time>
      </trkpt>
      <trkpt lat="45.22399" lon="5.74065">
        <ele>904.79</ele>
        <time>2021-08-07T06:29:50Z</time>
      </trkpt>
      <trkpt lat="45.22401" lon="5.74066">
        <ele>904.715</ele>
        <time>2021-08-07T06:29:51Z</time>
      </trkpt>
      <trkpt lat="45.22414" lon="5.74078">
        <ele>906.091</ele>
        <time>2021-08-07T06:29:58Z</time>
      </trkpt>
      <trkpt lat="45.22425" lon="5.74087">
        <ele>906.989</ele>
        <time>2021-08-07T06:30:04Z</time>
      </trkpt>
      <trkpt lat="45.22439" lon="5.74095">
        <ele>908.53</ele>
        <time>2021-08-07T06:30:12Z</time>
      </trkpt>
      <trkpt lat="45.22447" lon="5.741">
        <ele>909.532</ele>
        <time>2021-08-07T06:30:17Z</time>
      </trkpt>
      <trkpt lat="45.22455" lon="5.74102">
        <ele>910.172</ele>
        <time>2021-08-07T06:30:21Z</time>
      </trkpt>
      <trkpt lat="45.22461" lon="5.74105">
        <ele>911.071</ele>
        <time>2021-08-07T06:30:25Z</time>
      </trkpt>
      <trkpt lat="45.22473" lon="5.74109">
        <ele>913.207</ele>
        <time>2021-08-07T06:30:33Z</time>
      </trkpt>
      <trkpt lat="45.22485" lon="5.74112">
        <ele>914.187</ele>
        <time>2021-08-07T06:30:40Z</time>
      </trkpt>
      <trkpt lat="45.22492" lon="5.74112">
        <ele>914.19</ele>
        <time>2021-08-07T06:30:44Z</time>
      </trkpt>
      <trkpt lat="45.22503" lon="5.74111">
        <ele>915.232</ele>
        <time>2021-08-07T06:30:50Z</time>
      </trkpt>
      <trkpt lat="45.22513" lon="5.74113">
        <ele>915.847</ele>
        <time>2021-08-07T06:30:56Z</time>
      </trkpt>
      <trkpt lat="45.22515" lon="5.74112">
        <ele>915.847</ele>
        <time>2021-08-07T06:30:57Z</time>
      </trkpt>
      <trkpt lat="45.22536" lon="5.7411">
        <ele>917.295</ele>
        <time>2021-08-07T06:31:08Z</time>
      </trkpt>
      <trkpt lat="45.2254" lon="5.7411">
        <ele>917.833</ele>
        <time>2021-08-07T06:31:11Z</time>
      </trkpt>
      <trkpt lat="45.22542" lon="5.74105">
        <ele>919.388</ele>
        <time>2021-08-07T06:31:13Z</time>
      </trkpt>
      <trkpt lat="45.22545" lon="5.74104">
        <ele>919.86</ele>
        <time>2021-08-07T06:31:15Z</time>
      </trkpt>
      <trkpt lat="45.22554" lon="5.74099">
        <ele>920.658</ele>
        <time>2021-08-07T06:31:19Z</time>
      </trkpt>
      <trkpt lat="45.22559" lon="5.74095">
        <ele>921.902</ele>
        <time>2021-08-07T06:31:22Z</time>
      </trkpt>
      <trkpt lat="45.22569" lon="5.74091">
        <ele>922.629</ele>
        <time>2021-08-07T06:31:27Z</time>
      </trkpt>
      <trkpt lat="45.22581" lon="5.74088">
        <ele>924.229</ele>
        <time>2021-08-07T06:31:34Z</time>
      </trkpt>
      <trkpt lat="45.22595" lon="5.74086">
        <ele>925.391</ele>
        <time>2021-08-07T06:31:41Z</time>
      </trkpt>
      <trkpt lat="45.22612" lon="5.7409">
        <ele>926.515</ele>
        <time>2021-08-07T06:31:50Z</time>
      </trkpt>
      <trkpt lat="45.22613" lon="5.74091">
        <ele>927.105</ele>
        <time>2021-08-07T06:31:51Z</time>
      </trkpt>
      <trkpt lat="45.22624" lon="5.74092">
        <ele>928.276</ele>
        <time>2021-08-07T06:31:57Z</time>
      </trkpt>
      <trkpt lat="45.22639" lon="5.74091">
        <ele>929.7</ele>
        <time>2021-08-07T06:32:04Z</time>
      </trkpt>
      <trkpt lat="45.22651" lon="5.74094">
        <ele>931.005</ele>
        <time>2021-08-07T06:32:10Z</time>
      </trkpt>
      <trkpt lat="45.22654" lon="5.74095">
        <ele>931.05</ele>
        <time>2021-08-07T06:32:12Z</time>
      </trkpt>
      <trkpt lat="45.22666" lon="5.74098">
        <ele>931.728</ele>
        <time>2021-08-07T06:32:18Z</time>
      </trkpt>
      <trkpt lat="45.22671" lon="5.74101">
        <ele>931.869</ele>
        <time>2021-08-07T06:32:22Z</time>
      </trkpt>
      <trkpt lat="45.22677" lon="5.74102">
        <ele>933.137</ele>
        <time>2021-08-07T06:32:25Z</time>
      </trkpt>
      <trkpt lat="45.22683" lon="5.74105">
        <ele>933.74</ele>
        <time>2021-08-07T06:32:30Z</time>
      </trkpt>
      <trkpt lat="45.22691" lon="5.74105">
        <ele>934.385</ele>
        <time>2021-08-07T06:32:35Z</time>
      </trkpt>
      <trkpt lat="45.22694" lon="5.74106">
        <ele>934.607</ele>
        <time>2021-08-07T06:32:37Z</time>
      </trkpt>
      <trkpt lat="45.227" lon="5.74109">
        <ele>934.719</ele>
        <time>2021-08-07T06:32:41Z</time>
      </trkpt>
      <trkpt lat="45.22712" lon="5.74109">
        <ele>936.45</ele>
        <time>2021-08-07T06:32:47Z</time>
      </trkpt>
      <trkpt lat="45.22724" lon="5.74112">
        <ele>936.965</ele>
        <time>2021-08-07T06:32:53Z</time>
      </trkpt>
      <trkpt lat="45.22733" lon="5.74112">
        <ele>937.696</ele>
        <time>2021-08-07T06:32:58Z</time>
      </trkpt>
      <trkpt lat="45.22747" lon="5.74119">
        <ele>939.883</ele>
        <time>2021-08-07T06:33:07Z</time>
      </trkpt>
      <trkpt lat="45.22758" lon="5.74125">
        <ele>941.154</ele>
        <time>2021-08-07T06:33:14Z</time>
      </trkpt>
      <trkpt lat="45.22761" lon="5.74126">
        <ele>941.537</ele>
        <time>2021-08-07T06:33:16Z</time>
      </trkpt>
      <trkpt lat="45.22775" lon="5.74133">
        <ele>943.106</ele>
        <time>2021-08-07T06:33:23Z</time>
      </trkpt>
      <trkpt lat="45.22792" lon="5.74139">
        <ele>943.651</ele>
        <time>2021-08-07T06:33:31Z</time>
      </trkpt>
      <trkpt lat="45.22805" lon="5.74144">
        <ele>945.815</ele>
        <time>2021-08-07T06:33:38Z</time>
      </trkpt>
      <trkpt lat="45.22811" lon="5.74146">
        <ele>946.7</ele>
        <time>2021-08-07T06:33:43Z</time>
      </trkpt>
      <trkpt lat="45.22815" lon="5.74148">
        <ele>947.403</ele>
        <time>2021-08-07T06:33:45Z</time>
      </trkpt>
      <trkpt lat="45.22817" lon="5.7415">
        <ele>947.491</ele>
        <time>2021-08-07T06:33:48Z</time>
      </trkpt>
      <trkpt lat="45.22834" lon="5.74152">
        <ele>949.177</ele>
        <time>2021-08-07T06:33:56Z</time>
      </trkpt>
      <trkpt lat="45.22847" lon="5.74158">
        <ele>950.906</ele>
        <time>2021-08-07T06:34:03Z</time>
      </trkpt>
      <trkpt lat="45.22856" lon="5.74161">
        <ele>951.144</ele>
        <time>2021-08-07T06:34:08Z</time>
      </trkpt>
      <trkpt lat="45.22866" lon="5.74163">
        <ele>952.088</ele>
        <time>2021-08-07T06:34:13Z</time>
      </trkpt>
      <trkpt lat="45.22878" lon="5.74172">
        <ele>953.237</ele>
        <time>2021-08-07T06:34:21Z</time>
      </trkpt>
      <trkpt lat="45.22886" lon="5.74178">
        <ele>954.54</ele>
        <time>2021-08-07T06:34:27Z</time>
      </trkpt>
      <trkpt lat="45.22891" lon="5.74183">
        <ele>955.871</ele>
        <time>2021-08-07T06:34:31Z</time>
      </trkpt>
      <trkpt lat="45.22894" lon="5.74183">
        <ele>956.582</ele>
        <time>2021-08-07T06:34:33Z</time>
      </trkpt>
      <trkpt lat="45.22908" lon="5.74188">
        <ele>957.53</ele>
        <time>2021-08-07T06:34:40Z</time>
      </trkpt>
      <trkpt lat="45.22913" lon="5.74189">
        <ele>958.104</ele>
        <time>2021-08-07T06:34:42Z</time>
      </trkpt>
      <trkpt lat="45.22921" lon="5.74193">
        <ele>958.814</ele>
        <time>2021-08-07T06:34:46Z</time>
      </trkpt>
      <trkpt lat="45.22926" lon="5.74195">
        <ele>959.175</ele>
        <time>2021-08-07T06:34:50Z</time>
      </trkpt>
      <trkpt lat="45.22938" lon="5.74203">
        <ele>960.943</ele>
        <time>2021-08-07T06:34:58Z</time>
      </trkpt>
      <trkpt lat="45.22943" lon="5.74205">
        <ele>961.117</ele>
        <time>2021-08-07T06:35:01Z</time>
      </trkpt>
      <trkpt lat="45.22956" lon="5.74211">
        <ele>963.139</ele>
        <time>2021-08-07T06:35:08Z</time>
      </trkpt>
      <trkpt lat="45.22967" lon="5.74213">
        <ele>963.386</ele>
        <time>2021-08-07T06:35:13Z</time>
      </trkpt>
      <trkpt lat="45.22979" lon="5.74221">
        <ele>964.428</ele>
        <time>2021-08-07T06:35:21Z</time>
      </trkpt>
      <trkpt lat="45.22983" lon="5.74225">
        <ele>965.957</ele>
        <time>2021-08-07T06:35:24Z</time>
      </trkpt>
      <trkpt lat="45.22998" lon="5.74226">
        <ele>967.273</ele>
        <time>2021-08-07T06:35:32Z</time>
      </trkpt>
      <trkpt lat="45.23009" lon="5.74229">
        <ele>967.992</ele>
        <time>2021-08-07T06:35:39Z</time>
      </trkpt>
      <trkpt lat="45.23013" lon="5.74231">
        <ele>969.414</ele>
        <time>2021-08-07T06:35:42Z</time>
      </trkpt>
      <trkpt lat="45.23018" lon="5.74233">
        <ele>969.763</ele>
        <time>2021-08-07T06:35:45Z</time>
      </trkpt>
      <trkpt lat="45.23027" lon="5.74236">
        <ele>970.891</ele>
        <time>2021-08-07T06:35:51Z</time>
      </trkpt>
      <trkpt lat="45.23048" lon="5.74246">
        <ele>970.894</ele>
        <time>2021-08-07T06:36:04Z</time>
      </trkpt>
      <trkpt lat="45.23056" lon="5.74249">
        <ele>972.923</ele>
        <time>2021-08-07T06:36:08Z</time>
      </trkpt>
      <trkpt lat="45.23063" lon="5.74253">
        <ele>974.353</ele>
        <time>2021-08-07T06:36:13Z</time>
      </trkpt>
      <trkpt lat="45.23068" lon="5.74256">
        <ele>975.008</ele>
        <time>2021-08-07T06:36:16Z</time>
      </trkpt>
      <trkpt lat="45.2308" lon="5.74261">
        <ele>976.316</ele>
        <time>2021-08-07T06:36:22Z</time>
      </trkpt>
      <trkpt lat="45.23083" lon="5.74263">
        <ele>976.898</ele>
        <time>2021-08-07T06:36:24Z</time>
      </trkpt>
      <trkpt lat="45.23094" lon="5.74266">
        <ele>977.773</ele>
        <time>2021-08-07T06:36:31Z</time>
      </trkpt>
      <trkpt lat="45.23101" lon="5.74268">
        <ele>977.803</ele>
        <time>2021-08-07T06:36:34Z</time>
      </trkpt>
      <trkpt lat="45.23111" lon="5.74269">
        <ele>979.01</ele>
        <time>2021-08-07T06:36:39Z</time>
      </trkpt>
      <trkpt lat="45.23121" lon="5.74277">
        <ele>980.55</ele>
        <time>2021-08-07T06:36:47Z</time>
      </trkpt>
      <trkpt lat="45.23122" lon="5.74278">
        <ele>980.741</ele>
        <time>2021-08-07T06:36:48Z</time>
      </trkpt>
      <trkpt lat="45.23134" lon="5.74279">
        <ele>982.028</ele>
        <time>2021-08-07T06:36:54Z</time>
      </trkpt>
      <trkpt lat="45.23136" lon="5.7428">
        <ele>981.738</ele>
        <time>2021-08-07T06:36:55Z</time>
      </trkpt>
      <trkpt lat="45.23141" lon="5.74283">
        <ele>982.724</ele>
        <time>2021-08-07T06:36:58Z</time>
      </trkpt>
      <trkpt lat="45.23156" lon="5.74286">
        <ele>983.82</ele>
        <time>2021-08-07T06:37:06Z</time>
      </trkpt>
      <trkpt lat="45.23161" lon="5.74286">
        <ele>984.099</ele>
        <time>2021-08-07T06:37:09Z</time>
      </trkpt>
      <trkpt lat="45.23173" lon="5.74291">
        <ele>985.872</ele>
        <time>2021-08-07T06:37:16Z</time>
      </trkpt>
      <trkpt lat="45.23186" lon="5.7429">
        <ele>988.409</ele>
        <time>2021-08-07T06:37:23Z</time>
      </trkpt>
      <trkpt lat="45.23189" lon="5.74291">
        <ele>989.292</ele>
        <time>2021-08-07T06:37:25Z</time>
      </trkpt>
      <trkpt lat="45.23204" lon="5.74299">
        <ele>991.054</ele>
        <time>2021-08-07T06:37:34Z</time>
      </trkpt>
      <trkpt lat="45.23213" lon="5.74303">
        <ele>991.976</ele>
        <time>2021-08-07T06:37:40Z</time>
      </trkpt>
      <trkpt lat="45.23227" lon="5.74308">
        <ele>992.398</ele>
        <time>2021-08-07T06:37:46Z</time>
      </trkpt>
      <trkpt lat="45.23243" lon="5.74316">
        <ele>994.547</ele>
        <time>2021-08-07T06:37:55Z</time>
      </trkpt>
      <trkpt lat="45.23258" lon="5.74325">
        <ele>995.895</ele>
        <time>2021-08-07T06:38:04Z</time>
      </trkpt>
      <trkpt lat="45.2327" lon="5.74335">
        <ele>997.94</ele>
        <time>2021-08-07T06:38:11Z</time>
      </trkpt>
      <trkpt lat="45.23272" lon="5.74336">
        <ele>998.041</ele>
        <time>2021-08-07T06:38:12Z</time>
      </trkpt>
      <trkpt lat="45.23286" lon="5.74346">
        <ele>999.484</ele>
        <time>2021-08-07T06:38:21Z</time>
      </trkpt>
      <trkpt lat="45.23299" lon="5.74356">
        <ele>1000.976</ele>
        <time>2021-08-07T06:38:29Z</time>
      </trkpt>
      <trkpt lat="45.23313" lon="5.74366">
        <ele>1002.454</ele>
        <time>2021-08-07T06:38:38Z</time>
      </trkpt>
      <trkpt lat="45.23323" lon="5.74374">
        <ele>1003.906</ele>
        <time>2021-08-07T06:38:45Z</time>
      </trkpt>
      <trkpt lat="45.23329" lon="5.74378">
        <ele>1004.937</ele>
        <time>2021-08-07T06:38:49Z</time>
      </trkpt>
      <trkpt lat="45.23336" lon="5.74379">
        <ele>1005.313</ele>
        <time>2021-08-07T06:38:53Z</time>
      </trkpt>
      <trkpt lat="45.23356" lon="5.74377">
        <ele>1006.512</ele>
        <time>2021-08-07T06:39:03Z</time>
      </trkpt>
      <trkpt lat="45.23358" lon="5.74377">
        <ele>1007.086</ele>
        <time>2021-08-07T06:39:04Z</time>
      </trkpt>
      <trkpt lat="45.23374" lon="5.74374">
        <ele>1008.37</ele>
        <time>2021-08-07T06:39:13Z</time>
      </trkpt>
      <trkpt lat="45.23379" lon="5.74369">
        <ele>1008.682</ele>
        <time>2021-08-07T06:39:17Z</time>
      </trkpt>
      <trkpt lat="45.2337" lon="5.74352">
        <ele>1011.12</ele>
        <time>2021-08-07T06:39:26Z</time>
      </trkpt>
      <trkpt lat="45.23368" lon="5.74348">
        <ele>1011.366</ele>
        <time>2021-08-07T06:39:28Z</time>
      </trkpt>
      <trkpt lat="45.23368" lon="5.74331">
        <ele>1012.421</ele>
        <time>2021-08-07T06:39:35Z</time>
      </trkpt>
      <trkpt lat="45.2337" lon="5.74312">
        <ele>1012.663</ele>
        <time>2021-08-07T06:39:41Z</time>
      </trkpt>
      <trkpt lat="45.2337" lon="5.74309">
        <ele>1012.815</ele>
        <time>2021-08-07T06:39:42Z</time>
      </trkpt>
      <trkpt lat="45.23373" lon="5.74298">
        <ele>1013.67</ele>
        <time>2021-08-07T06:39:46Z</time>
      </trkpt>
      <trkpt lat="45.23379" lon="5.74288">
        <ele>1014.711</ele>
        <time>2021-08-07T06:39:51Z</time>
      </trkpt>
      <trkpt lat="45.23381" lon="5.74278">
        <ele>1017.005</ele>
        <time>2021-08-07T06:39:58Z</time>
      </trkpt>
      <trkpt lat="45.23383" lon="5.74266">
        <ele>1018.56</ele>
        <time>2021-08-07T06:40:06Z</time>
      </trkpt>
      <trkpt lat="45.23384" lon="5.74263">
        <ele>1019.511</ele>
        <time>2021-08-07T06:40:08Z</time>
      </trkpt>
      <trkpt lat="45.23378" lon="5.74251">
        <ele>1019.403</ele>
        <time>2021-08-07T06:40:14Z</time>
      </trkpt>
      <trkpt lat="45.23366" lon="5.74239">
        <ele>1019.736</ele>
        <time>2021-08-07T06:40:21Z</time>
      </trkpt>
      <trkpt lat="45.23361" lon="5.74233">
        <ele>1020.121</ele>
        <time>2021-08-07T06:40:24Z</time>
      </trkpt>
      <trkpt lat="45.23346" lon="5.74224">
        <ele>1020.971</ele>
        <time>2021-08-07T06:40:32Z</time>
      </trkpt>
      <trkpt lat="45.23334" lon="5.74219">
        <ele>1020.022</ele>
        <time>2021-08-07T06:40:38Z</time>
      </trkpt>
      <trkpt lat="45.23324" lon="5.74213">
        <ele>1020.228</ele>
        <time>2021-08-07T06:40:43Z</time>
      </trkpt>
      <trkpt lat="45.2331" lon="5.74206">
        <ele>1020.431</ele>
        <time>2021-08-07T06:40:50Z</time>
      </trkpt>
      <trkpt lat="45.23307" lon="5.74204">
        <ele>1020.115</ele>
        <time>2021-08-07T06:40:51Z</time>
      </trkpt>
      <trkpt lat="45.23298" lon="5.74197">
        <ele>1020.775</ele>
        <time>2021-08-07T06:40:56Z</time>
      </trkpt>
      <trkpt lat="45.23294" lon="5.74197">
        <ele>1020.229</ele>
        <time>2021-08-07T06:40:58Z</time>
      </trkpt>
      <trkpt lat="45.2328" lon="5.74189">
        <ele>1021.265</ele>
        <time>2021-08-07T06:41:04Z</time>
      </trkpt>
      <trkpt lat="45.23278" lon="5.74187">
        <ele>1021.647</ele>
        <time>2021-08-07T06:41:05Z</time>
      </trkpt>
      <trkpt lat="45.23271" lon="5.74174">
        <ele>1022.992</ele>
        <time>2021-08-07T06:41:11Z</time>
      </trkpt>
      <trkpt lat="45.23264" lon="5.74165">
        <ele>1024.255</ele>
        <time>2021-08-07T06:41:16Z</time>
      </trkpt>
      <trkpt lat="45.23256" lon="5.74159">
        <ele>1022.845</ele>
        <time>2021-08-07T06:41:21Z</time>
      </trkpt>
      <trkpt lat="45.23251" lon="5.74154">
        <ele>1022.853</ele>
        <time>2021-08-07T06:41:24Z</time>
      </trkpt>
      <trkpt lat="45.23238" lon="5.74143">
        <ele>1021.889</ele>
        <time>2021-08-07T06:41:31Z</time>
      </trkpt>
      <trkpt lat="45.2323" lon="5.74139">
        <ele>1021.533</ele>
        <time>2021-08-07T06:41:34Z</time>
      </trkpt>
      <trkpt lat="45.23218" lon="5.74121">
        <ele>1023.249</ele>
        <time>2021-08-07T06:41:41Z</time>
      </trkpt>
      <trkpt lat="45.23217" lon="5.74118">
        <ele>1023.286</ele>
        <time>2021-08-07T06:41:42Z</time>
      </trkpt>
      <trkpt lat="45.23218" lon="5.74105">
        <ele>1023.462</ele>
        <time>2021-08-07T06:41:47Z</time>
      </trkpt>
      <trkpt lat="45.2322" lon="5.74085">
        <ele>1023.487</ele>
        <time>2021-08-07T06:41:53Z</time>
      </trkpt>
      <trkpt lat="45.23223" lon="5.74068">
        <ele>1021.091</ele>
        <time>2021-08-07T06:42:00Z</time>
      </trkpt>
      <trkpt lat="45.23226" lon="5.74058">
        <ele>1021.136</ele>
        <time>2021-08-07T06:42:03Z</time>
      </trkpt>
      <trkpt lat="45.23222" lon="5.74039">
        <ele>1019.735</ele>
        <time>2021-08-07T06:42:10Z</time>
      </trkpt>
      <trkpt lat="45.23221" lon="5.74037">
        <ele>1019.666</ele>
        <time>2021-08-07T06:42:11Z</time>
      </trkpt>
      <trkpt lat="45.23211" lon="5.74023">
        <ele>1019.847</ele>
        <time>2021-08-07T06:42:16Z</time>
      </trkpt>
      <trkpt lat="45.232" lon="5.74012">
        <ele>1020.14</ele>
        <time>2021-08-07T06:42:21Z</time>
      </trkpt>
      <trkpt lat="45.23188" lon="5.74003">
        <ele>1021.731</ele>
        <time>2021-08-07T06:42:28Z</time>
      </trkpt>
      <trkpt lat="45.23174" lon="5.73995">
        <ele>1022.362</ele>
        <time>2021-08-07T06:42:35Z</time>
      </trkpt>
      <trkpt lat="45.23163" lon="5.73994">
        <ele>1023.482</ele>
        <time>2021-08-07T06:42:40Z</time>
      </trkpt>
      <trkpt lat="45.23153" lon="5.73994">
        <ele>1023.817</ele>
        <time>2021-08-07T06:42:44Z</time>
      </trkpt>
      <trkpt lat="45.23145" lon="5.73989">
        <ele>1023.8</ele>
        <time>2021-08-07T06:42:48Z</time>
      </trkpt>
      <trkpt lat="45.23132" lon="5.73981">
        <ele>1022.955</ele>
        <time>2021-08-07T06:42:54Z</time>
      </trkpt>
      <trkpt lat="45.23116" lon="5.7398">
        <ele>1022.832</ele>
        <time>2021-08-07T06:43:00Z</time>
      </trkpt>
      <trkpt lat="45.23092" lon="5.73987">
        <ele>1022.461</ele>
        <time>2021-08-07T06:43:09Z</time>
      </trkpt>
      <trkpt lat="45.23087" lon="5.73984">
        <ele>1022.637</ele>
        <time>2021-08-07T06:43:12Z</time>
      </trkpt>
      <trkpt lat="45.23076" lon="5.73974">
        <ele>1021.518</ele>
        <time>2021-08-07T06:43:18Z</time>
      </trkpt>
      <trkpt lat="45.23065" lon="5.73971">
        <ele>1019.532</ele>
        <time>2021-08-07T06:43:23Z</time>
      </trkpt>
      <trkpt lat="45.23046" lon="5.73974">
        <ele>1017.805</ele>
        <time>2021-08-07T06:43:30Z</time>
      </trkpt>
      <trkpt lat="45.2303" lon="5.7398">
        <ele>1016.847</ele>
        <time>2021-08-07T06:43:37Z</time>
      </trkpt>
      <trkpt lat="45.23017" lon="5.73978">
        <ele>1016.453</ele>
        <time>2021-08-07T06:43:42Z</time>
      </trkpt>
      <trkpt lat="45.23001" lon="5.73973">
        <ele>1016.727</ele>
        <time>2021-08-07T06:43:48Z</time>
      </trkpt>
      <trkpt lat="45.22978" lon="5.73971">
        <ele>1015.852</ele>
        <time>2021-08-07T06:43:56Z</time>
      </trkpt>
      <trkpt lat="45.22963" lon="5.73963">
        <ele>1015.097</ele>
        <time>2021-08-07T06:44:02Z</time>
      </trkpt>
      <trkpt lat="45.22948" lon="5.73941">
        <ele>1014.504</ele>
        <time>2021-08-07T06:44:10Z</time>
      </trkpt>
      <trkpt lat="45.22943" lon="5.73909">
        <ele>1015.048</ele>
        <time>2021-08-07T06:44:18Z</time>
      </trkpt>
      <trkpt lat="45.22944" lon="5.73893">
        <ele>1015.956</ele>
        <time>2021-08-07T06:44:23Z</time>
      </trkpt>
      <trkpt lat="45.22943" lon="5.7388">
        <ele>1018.208</ele>
        <time>2021-08-07T06:44:30Z</time>
      </trkpt>
      <trkpt lat="45.22943" lon="5.7387">
        <ele>1019.398</ele>
        <time>2021-08-07T06:44:37Z</time>
      </trkpt>
      <trkpt lat="45.22936" lon="5.73868">
        <ele>1020.455</ele>
        <time>2021-08-07T06:44:41Z</time>
      </trkpt>
      <trkpt lat="45.22924" lon="5.73869">
        <ele>1021.448</ele>
        <time>2021-08-07T06:44:49Z</time>
      </trkpt>
      <trkpt lat="45.22919" lon="5.73868">
        <ele>1021.583</ele>
        <time>2021-08-07T06:44:52Z</time>
      </trkpt>
      <trkpt lat="45.2291" lon="5.73868">
        <ele>1021.767</ele>
        <time>2021-08-07T06:44:57Z</time>
      </trkpt>
      <trkpt lat="45.22896" lon="5.73873">
        <ele>1022.449</ele>
        <time>2021-08-07T06:45:03Z</time>
      </trkpt>
      <trkpt lat="45.2289" lon="5.73876">
        <ele>1022.635</ele>
        <time>2021-08-07T06:45:07Z</time>
      </trkpt>
      <trkpt lat="45.22875" lon="5.73887">
        <ele>1022.649</ele>
        <time>2021-08-07T06:45:13Z</time>
      </trkpt>
      <trkpt lat="45.22862" lon="5.73893">
        <ele>1022.891</ele>
        <time>2021-08-07T06:45:18Z</time>
      </trkpt>
      <trkpt lat="45.22848" lon="5.73887">
        <ele>1024.729</ele>
        <time>2021-08-07T06:45:25Z</time>
      </trkpt>
      <trkpt lat="45.2284" lon="5.73887">
        <ele>1024.834</ele>
        <time>2021-08-07T06:45:29Z</time>
      </trkpt>
      <trkpt lat="45.22836" lon="5.73884">
        <ele>1024.536</ele>
        <time>2021-08-07T06:45:31Z</time>
      </trkpt>
      <trkpt lat="45.22827" lon="5.73872">
        <ele>1026.314</ele>
        <time>2021-08-07T06:45:38Z</time>
      </trkpt>
      <trkpt lat="45.22815" lon="5.73865">
        <ele>1027.319</ele>
        <time>2021-08-07T06:45:45Z</time>
      </trkpt>
      <trkpt lat="45.22803" lon="5.73858">
        <ele>1027.953</ele>
        <time>2021-08-07T06:45:51Z</time>
      </trkpt>
      <trkpt lat="45.22783" lon="5.73854">
        <ele>1028.765</ele>
        <time>2021-08-07T06:45:59Z</time>
      </trkpt>
      <trkpt lat="45.22767" lon="5.73847">
        <ele>1028.994</ele>
        <time>2021-08-07T06:46:07Z</time>
      </trkpt>
      <trkpt lat="45.22755" lon="5.7384">
        <ele>1029.278</ele>
        <time>2021-08-07T06:46:13Z</time>
      </trkpt>
      <trkpt lat="45.22745" lon="5.73832">
        <ele>1028.915</ele>
        <time>2021-08-07T06:46:18Z</time>
      </trkpt>
      <trkpt lat="45.2273" lon="5.73828">
        <ele>1029.691</ele>
        <time>2021-08-07T06:46:25Z</time>
      </trkpt>
      <trkpt lat="45.22714" lon="5.73819">
        <ele>1030.78</ele>
        <time>2021-08-07T06:46:34Z</time>
      </trkpt>
      <trkpt lat="45.22702" lon="5.73817">
        <ele>1029.99</ele>
        <time>2021-08-07T06:46:40Z</time>
      </trkpt>
      <trkpt lat="45.22683" lon="5.7381">
        <ele>1029.048</ele>
        <time>2021-08-07T06:46:48Z</time>
      </trkpt>
      <trkpt lat="45.22679" lon="5.73804">
        <ele>1028.981</ele>
        <time>2021-08-07T06:46:50Z</time>
      </trkpt>
      <trkpt lat="45.22668" lon="5.73792">
        <ele>1028.517</ele>
        <time>2021-08-07T06:46:56Z</time>
      </trkpt>
      <trkpt lat="45.22665" lon="5.73791">
        <ele>1027.732</ele>
        <time>2021-08-07T06:46:58Z</time>
      </trkpt>
      <trkpt lat="45.22659" lon="5.7379">
        <ele>1026.465</ele>
        <time>2021-08-07T06:47:01Z</time>
      </trkpt>
      <trkpt lat="45.22652" lon="5.73785">
        <ele>1025.533</ele>
        <time>2021-08-07T06:47:04Z</time>
      </trkpt>
      <trkpt lat="45.22638" lon="5.73769">
        <ele>1025.28</ele>
        <time>2021-08-07T06:47:11Z</time>
      </trkpt>
      <trkpt lat="45.22634" lon="5.73766">
        <ele>1025.068</ele>
        <time>2021-08-07T06:47:14Z</time>
      </trkpt>
      <trkpt lat="45.22624" lon="5.73754">
        <ele>1025.019</ele>
        <time>2021-08-07T06:47:20Z</time>
      </trkpt>
      <trkpt lat="45.22613" lon="5.73745">
        <ele>1024.227</ele>
        <time>2021-08-07T06:47:26Z</time>
      </trkpt>
      <trkpt lat="45.22601" lon="5.73737">
        <ele>1023.009</ele>
        <time>2021-08-07T06:47:32Z</time>
      </trkpt>
      <trkpt lat="45.22591" lon="5.73729">
        <ele>1020.811</ele>
        <time>2021-08-07T06:47:40Z</time>
      </trkpt>
      <trkpt lat="45.22578" lon="5.73727">
        <ele>1018.721</ele>
        <time>2021-08-07T06:47:46Z</time>
      </trkpt>
      <trkpt lat="45.2257" lon="5.73726">
        <ele>1018.699</ele>
        <time>2021-08-07T06:47:50Z</time>
      </trkpt>
      <trkpt lat="45.2256" lon="5.73713">
        <ele>1017.257</ele>
        <time>2021-08-07T06:47:58Z</time>
      </trkpt>
      <trkpt lat="45.22559" lon="5.73712">
        <ele>1017.07</ele>
        <time>2021-08-07T06:47:59Z</time>
      </trkpt>
      <trkpt lat="45.22549" lon="5.7371">
        <ele>1014.836</ele>
        <time>2021-08-07T06:48:05Z</time>
      </trkpt>
      <trkpt lat="45.22541" lon="5.73703">
        <ele>1012.253</ele>
        <time>2021-08-07T06:48:11Z</time>
      </trkpt>
      <trkpt lat="45.2253" lon="5.73699">
        <ele>1009.726</ele>
        <time>2021-08-07T06:48:17Z</time>
      </trkpt>
      <trkpt lat="45.22528" lon="5.73698">
        <ele>1009.726</ele>
        <time>2021-08-07T06:48:18Z</time>
      </trkpt>
      <trkpt lat="45.22522" lon="5.73697">
        <ele>1008.391</ele>
        <time>2021-08-07T06:48:22Z</time>
      </trkpt>
      <trkpt lat="45.22514" lon="5.73695">
        <ele>1007.95</ele>
        <time>2021-08-07T06:48:28Z</time>
      </trkpt>
      <trkpt lat="45.22505" lon="5.73693">
        <ele>1005.595</ele>
        <time>2021-08-07T06:48:35Z</time>
      </trkpt>
      <trkpt lat="45.225" lon="5.73696">
        <ele>1004.328</ele>
        <time>2021-08-07T06:48:38Z</time>
      </trkpt>
      <trkpt lat="45.22495" lon="5.737">
        <ele>1001.658</ele>
        <time>2021-08-07T06:48:42Z</time>
      </trkpt>
      <trkpt lat="45.22489" lon="5.73703">
        <ele>1000.16</ele>
        <time>2021-08-07T06:48:47Z</time>
      </trkpt>
      <trkpt lat="45.2248" lon="5.73704">
        <ele>998.05</ele>
        <time>2021-08-07T06:48:54Z</time>
      </trkpt>
      <trkpt lat="45.22475" lon="5.73704">
        <ele>996.376</ele>
        <time>2021-08-07T06:48:58Z</time>
      </trkpt>
      <trkpt lat="45.22465" lon="5.73706">
        <ele>994.835</ele>
        <time>2021-08-07T06:49:04Z</time>
      </trkpt>
      <trkpt lat="45.22449" lon="5.73701">
        <ele>994.913</ele>
        <time>2021-08-07T06:49:12Z</time>
      </trkpt>
      <trkpt lat="45.22447" lon="5.73698">
        <ele>994.757</ele>
        <time>2021-08-07T06:49:18Z</time>
      </trkpt>
      <trkpt lat="45.22436" lon="5.73701">
        <ele>993.197</ele>
        <time>2021-08-07T06:49:24Z</time>
      </trkpt>
      <trkpt lat="45.22425" lon="5.73704">
        <ele>991.334</ele>
        <time>2021-08-07T06:49:31Z</time>
      </trkpt>
      <trkpt lat="45.22423" lon="5.73706">
        <ele>990.266</ele>
        <time>2021-08-07T06:49:34Z</time>
      </trkpt>
      <trkpt lat="45.22415" lon="5.73704">
        <ele>988.716</ele>
        <time>2021-08-07T06:49:41Z</time>
      </trkpt>
      <trkpt lat="45.22414" lon="5.73703">
        <ele>987.826</ele>
        <time>2021-08-07T06:49:42Z</time>
      </trkpt>
      <trkpt lat="45.22405" lon="5.73703">
        <ele>985.031</ele>
        <time>2021-08-07T06:49:48Z</time>
      </trkpt>
      <trkpt lat="45.22393" lon="5.73701">
        <ele>982.688</ele>
        <time>2021-08-07T06:49:55Z</time>
      </trkpt>
      <trkpt lat="45.22377" lon="5.73692">
        <ele>981.911</ele>
        <time>2021-08-07T06:50:02Z</time>
      </trkpt>
      <trkpt lat="45.22374" lon="5.73687">
        <ele>981.49</ele>
        <time>2021-08-07T06:50:05Z</time>
      </trkpt>
      <trkpt lat="45.22375" lon="5.7368">
        <ele>981.34</ele>
        <time>2021-08-07T06:50:08Z</time>
      </trkpt>
      <trkpt lat="45.2238" lon="5.7367">
        <ele>979.95</ele>
        <time>2021-08-07T06:50:13Z</time>
      </trkpt>
      <trkpt lat="45.2238" lon="5.73651">
        <ele>977.021</ele>
        <time>2021-08-07T06:50:21Z</time>
      </trkpt>
      <trkpt lat="45.22378" lon="5.73638">
        <ele>975.12</ele>
        <time>2021-08-07T06:50:27Z</time>
      </trkpt>
      <trkpt lat="45.22379" lon="5.73634">
        <ele>973.949</ele>
        <time>2021-08-07T06:50:29Z</time>
      </trkpt>
      <trkpt lat="45.22376" lon="5.73624">
        <ele>972.347</ele>
        <time>2021-08-07T06:50:34Z</time>
      </trkpt>
      <trkpt lat="45.22376" lon="5.73615">
        <ele>970.496</ele>
        <time>2021-08-07T06:50:40Z</time>
      </trkpt>
      <trkpt lat="45.22376" lon="5.73603">
        <ele>968.376</ele>
        <time>2021-08-07T06:50:46Z</time>
      </trkpt>
      <trkpt lat="45.22377" lon="5.73599">
        <ele>967.443</ele>
        <time>2021-08-07T06:50:48Z</time>
      </trkpt>
      <trkpt lat="45.22377" lon="5.73589">
        <ele>964.306</ele>
        <time>2021-08-07T06:50:55Z</time>
      </trkpt>
      <trkpt lat="45.22378" lon="5.73577">
        <ele>961.842</ele>
        <time>2021-08-07T06:51:02Z</time>
      </trkpt>
      <trkpt lat="45.22379" lon="5.73574">
        <ele>960.567</ele>
        <time>2021-08-07T06:51:05Z</time>
      </trkpt>
      <trkpt lat="45.22379" lon="5.73568">
        <ele>958.754</ele>
        <time>2021-08-07T06:51:11Z</time>
      </trkpt>
      <trkpt lat="45.22378" lon="5.73559">
        <ele>956.686</ele>
        <time>2021-08-07T06:51:18Z</time>
      </trkpt>
      <trkpt lat="45.22377" lon="5.73553">
        <ele>954.923</ele>
        <time>2021-08-07T06:51:22Z</time>
      </trkpt>
      <trkpt lat="45.22378" lon="5.73547">
        <ele>954.593</ele>
        <time>2021-08-07T06:51:25Z</time>
      </trkpt>
      <trkpt lat="45.22379" lon="5.7354">
        <ele>953.251</ele>
        <time>2021-08-07T06:51:28Z</time>
      </trkpt>
      <trkpt lat="45.22381" lon="5.73533">
        <ele>950.24</ele>
        <time>2021-08-07T06:51:33Z</time>
      </trkpt>
      <trkpt lat="45.22383" lon="5.73528">
        <ele>948.776</ele>
        <time>2021-08-07T06:51:36Z</time>
      </trkpt>
      <trkpt lat="45.22386" lon="5.73515">
        <ele>947.033</ele>
        <time>2021-08-07T06:51:42Z</time>
      </trkpt>
      <trkpt lat="45.2239" lon="5.73509">
        <ele>946.318</ele>
        <time>2021-08-07T06:51:45Z</time>
      </trkpt>
      <trkpt lat="45.22396" lon="5.73503">
        <ele>944.179</ele>
        <time>2021-08-07T06:51:50Z</time>
      </trkpt>
      <trkpt lat="45.22399" lon="5.73499">
        <ele>942.319</ele>
        <time>2021-08-07T06:51:52Z</time>
      </trkpt>
      <trkpt lat="45.22404" lon="5.73496">
        <ele>940.524</ele>
        <time>2021-08-07T06:51:56Z</time>
      </trkpt>
      <trkpt lat="45.22415" lon="5.73489">
        <ele>938.939</ele>
        <time>2021-08-07T06:52:04Z</time>
      </trkpt>
      <trkpt lat="45.2242" lon="5.73486">
        <ele>937.658</ele>
        <time>2021-08-07T06:52:10Z</time>
      </trkpt>
      <trkpt lat="45.22426" lon="5.73483">
        <ele>935.747</ele>
        <time>2021-08-07T06:52:15Z</time>
      </trkpt>
      <trkpt lat="45.22429" lon="5.73482">
        <ele>934.899</ele>
        <time>2021-08-07T06:52:17Z</time>
      </trkpt>
      <trkpt lat="45.22431" lon="5.73479">
        <ele>934.276</ele>
        <time>2021-08-07T06:52:19Z</time>
      </trkpt>
      <trkpt lat="45.22439" lon="5.7347">
        <ele>932.521</ele>
        <time>2021-08-07T06:52:24Z</time>
      </trkpt>
      <trkpt lat="45.22442" lon="5.73466">
        <ele>932.536</ele>
        <time>2021-08-07T06:52:26Z</time>
      </trkpt>
      <trkpt lat="45.22448" lon="5.73459">
        <ele>930.671</ele>
        <time>2021-08-07T06:52:32Z</time>
      </trkpt>
      <trkpt lat="45.22452" lon="5.73448">
        <ele>927.498</ele>
        <time>2021-08-07T06:52:38Z</time>
      </trkpt>
      <trkpt lat="45.22452" lon="5.73446">
        <ele>927.339</ele>
        <time>2021-08-07T06:52:39Z</time>
      </trkpt>
      <trkpt lat="45.22456" lon="5.73439">
        <ele>924.148</ele>
        <time>2021-08-07T06:52:46Z</time>
      </trkpt>
      <trkpt lat="45.22464" lon="5.73432">
        <ele>922.224</ele>
        <time>2021-08-07T06:52:53Z</time>
      </trkpt>
      <trkpt lat="45.22469" lon="5.73426">
        <ele>919.576</ele>
        <time>2021-08-07T06:52:59Z</time>
      </trkpt>
      <trkpt lat="45.22474" lon="5.73418">
        <ele>917.009</ele>
        <time>2021-08-07T06:53:06Z</time>
      </trkpt>
      <trkpt lat="45.22478" lon="5.73413">
        <ele>915.749</ele>
        <time>2021-08-07T06:53:12Z</time>
      </trkpt>
      <trkpt lat="45.22486" lon="5.73405">
        <ele>913.342</ele>
        <time>2021-08-07T06:53:18Z</time>
      </trkpt>
      <trkpt lat="45.22488" lon="5.73402">
        <ele>912.043</ele>
        <time>2021-08-07T06:53:20Z</time>
      </trkpt>
      <trkpt lat="45.22494" lon="5.73398">
        <ele>910.148</ele>
        <time>2021-08-07T06:53:25Z</time>
      </trkpt>
      <trkpt lat="45.22504" lon="5.73392">
        <ele>906.734</ele>
        <time>2021-08-07T06:53:32Z</time>
      </trkpt>
      <trkpt lat="45.22505" lon="5.73391">
        <ele>906.76</ele>
        <time>2021-08-07T06:53:33Z</time>
      </trkpt>
      <trkpt lat="45.22506" lon="5.73389">
        <ele>906.207</ele>
        <time>2021-08-07T06:53:34Z</time>
      </trkpt>
      <trkpt lat="45.22514" lon="5.73385">
        <ele>904.131</ele>
        <time>2021-08-07T06:53:41Z</time>
      </trkpt>
      <trkpt lat="45.22524" lon="5.73383">
        <ele>901.576</ele>
        <time>2021-08-07T06:53:48Z</time>
      </trkpt>
      <trkpt lat="45.22538" lon="5.73382">
        <ele>897.999</ele>
        <time>2021-08-07T06:53:56Z</time>
      </trkpt>
      <trkpt lat="45.22546" lon="5.73375">
        <ele>897.086</ele>
        <time>2021-08-07T06:54:01Z</time>
      </trkpt>
      <trkpt lat="45.22547" lon="5.73377">
        <ele>895.82</ele>
        <time>2021-08-07T06:54:06Z</time>
      </trkpt>
      <trkpt lat="45.22538" lon="5.73384">
        <ele>897.641</ele>
        <time>2021-08-07T06:54:13Z</time>
      </trkpt>
      <trkpt lat="45.22535" lon="5.73393">
        <ele>899.946</ele>
        <time>2021-08-07T06:54:21Z</time>
      </trkpt>
      <trkpt lat="45.22525" lon="5.73397">
        <ele>902.792</ele>
        <time>2021-08-07T06:54:29Z</time>
      </trkpt>
      <trkpt lat="45.22518" lon="5.734">
        <ele>903.441</ele>
        <time>2021-08-07T06:54:35Z</time>
      </trkpt>
      <trkpt lat="45.22509" lon="5.73402">
        <ele>906.467</ele>
        <time>2021-08-07T06:54:45Z</time>
      </trkpt>
      <trkpt lat="45.22503" lon="5.73404">
        <ele>908.118</ele>
        <time>2021-08-07T06:54:53Z</time>
      </trkpt>
      <trkpt lat="45.22497" lon="5.7341">
        <ele>911.45</ele>
        <time>2021-08-07T06:55:01Z</time>
      </trkpt>
      <trkpt lat="45.22493" lon="5.73416">
        <ele>912.935</ele>
        <time>2021-08-07T06:55:07Z</time>
      </trkpt>
      <trkpt lat="45.22489" lon="5.73417">
        <ele>915.093</ele>
        <time>2021-08-07T06:55:14Z</time>
      </trkpt>
      <trkpt lat="45.22484" lon="5.73422">
        <ele>916.835</ele>
        <time>2021-08-07T06:55:20Z</time>
      </trkpt>
      <trkpt lat="45.22483" lon="5.73427">
        <ele>917.594</ele>
        <time>2021-08-07T06:55:26Z</time>
      </trkpt>
      <trkpt lat="45.22482" lon="5.73435">
        <ele>919.681</ele>
        <time>2021-08-07T06:55:34Z</time>
      </trkpt>
      <trkpt lat="45.22473" lon="5.73437">
        <ele>921.512</ele>
        <time>2021-08-07T06:55:41Z</time>
      </trkpt>
      <trkpt lat="45.2247" lon="5.73437">
        <ele>921.754</ele>
        <time>2021-08-07T06:55:43Z</time>
      </trkpt>
      <trkpt lat="45.22461" lon="5.73438">
        <ele>922.897</ele>
        <time>2021-08-07T06:55:49Z</time>
      </trkpt>
      <trkpt lat="45.22452" lon="5.73432">
        <ele>923.742</ele>
        <time>2021-08-07T06:55:55Z</time>
      </trkpt>
      <trkpt lat="45.22445" lon="5.73432">
        <ele>924.507</ele>
        <time>2021-08-07T06:56:01Z</time>
      </trkpt>
      <trkpt lat="45.22436" lon="5.73433">
        <ele>925.415</ele>
        <time>2021-08-07T06:56:07Z</time>
      </trkpt>
      <trkpt lat="45.22423" lon="5.73431">
        <ele>926.441</ele>
        <time>2021-08-07T06:56:13Z</time>
      </trkpt>
      <trkpt lat="45.2241" lon="5.73437">
        <ele>926.816</ele>
        <time>2021-08-07T06:56:21Z</time>
      </trkpt>
      <trkpt lat="45.22403" lon="5.73435">
        <ele>927.98</ele>
        <time>2021-08-07T06:56:25Z</time>
      </trkpt>
      <trkpt lat="45.22395" lon="5.73432">
        <ele>929.069</ele>
        <time>2021-08-07T06:56:34Z</time>
      </trkpt>
      <trkpt lat="45.22392" lon="5.73431">
        <ele>929.032</ele>
        <time>2021-08-07T06:56:36Z</time>
      </trkpt>
      <trkpt lat="45.22379" lon="5.73422">
        <ele>929.565</ele>
        <time>2021-08-07T06:56:44Z</time>
      </trkpt>
      <trkpt lat="45.22371" lon="5.73421">
        <ele>931.13</ele>
        <time>2021-08-07T06:56:50Z</time>
      </trkpt>
      <trkpt lat="45.2236" lon="5.73419">
        <ele>933.003</ele>
        <time>2021-08-07T06:57:01Z</time>
      </trkpt>
      <trkpt lat="45.22353" lon="5.73419">
        <ele>934.636</ele>
        <time>2021-08-07T06:57:10Z</time>
      </trkpt>
      <trkpt lat="45.22345" lon="5.73425">
        <ele>935.885</ele>
        <time>2021-08-07T06:57:16Z</time>
      </trkpt>
      <trkpt lat="45.22339" lon="5.7342">
        <ele>937.929</ele>
        <time>2021-08-07T06:57:23Z</time>
      </trkpt>
      <trkpt lat="45.22325" lon="5.73416">
        <ele>939.73</ele>
        <time>2021-08-07T06:57:33Z</time>
      </trkpt>
      <trkpt lat="45.22316" lon="5.73415">
        <ele>941.396</ele>
        <time>2021-08-07T06:57:39Z</time>
      </trkpt>
      <trkpt lat="45.22308" lon="5.73414">
        <ele>942.748</ele>
        <time>2021-08-07T06:57:46Z</time>
      </trkpt>
      <trkpt lat="45.22303" lon="5.73411">
        <ele>943.686</ele>
        <time>2021-08-07T06:57:53Z</time>
      </trkpt>
      <trkpt lat="45.22299" lon="5.73409">
        <ele>944.754</ele>
        <time>2021-08-07T06:57:59Z</time>
      </trkpt>
      <trkpt lat="45.22294" lon="5.73411">
        <ele>946.786</ele>
        <time>2021-08-07T06:58:04Z</time>
      </trkpt>
      <trkpt lat="45.22286" lon="5.73411">
        <ele>948.582</ele>
        <time>2021-08-07T06:58:11Z</time>
      </trkpt>
      <trkpt lat="45.22277" lon="5.7341">
        <ele>949.791</ele>
        <time>2021-08-07T06:58:18Z</time>
      </trkpt>
      <trkpt lat="45.22271" lon="5.73407">
        <ele>951.947</ele>
        <time>2021-08-07T06:58:24Z</time>
      </trkpt>
      <trkpt lat="45.2227" lon="5.73405">
        <ele>951.754</ele>
        <time>2021-08-07T06:58:25Z</time>
      </trkpt>
      <trkpt lat="45.22265" lon="5.73403">
        <ele>952.798</ele>
        <time>2021-08-07T06:58:31Z</time>
      </trkpt>
      <trkpt lat="45.2226" lon="5.73402">
        <ele>954.229</ele>
        <time>2021-08-07T06:58:37Z</time>
      </trkpt>
      <trkpt lat="45.22254" lon="5.734">
        <ele>956.539</ele>
        <time>2021-08-07T06:58:44Z</time>
      </trkpt>
      <trkpt lat="45.22248" lon="5.73402">
        <ele>958.691</ele>
        <time>2021-08-07T06:58:53Z</time>
      </trkpt>
      <trkpt lat="45.22244" lon="5.73408">
        <ele>960.045</ele>
        <time>2021-08-07T06:59:00Z</time>
      </trkpt>
      <trkpt lat="45.22238" lon="5.7341">
        <ele>961.962</ele>
        <time>2021-08-07T06:59:08Z</time>
      </trkpt>
      <trkpt lat="45.22234" lon="5.73412">
        <ele>965.449</ele>
        <time>2021-08-07T06:59:16Z</time>
      </trkpt>
      <trkpt lat="45.22233" lon="5.73412">
        <ele>965.718</ele>
        <time>2021-08-07T06:59:17Z</time>
      </trkpt>
      <trkpt lat="45.22224" lon="5.73408">
        <ele>967.487</ele>
        <time>2021-08-07T06:59:25Z</time>
      </trkpt>
      <trkpt lat="45.22215" lon="5.73409">
        <ele>969.418</ele>
        <time>2021-08-07T06:59:33Z</time>
      </trkpt>
      <trkpt lat="45.2221" lon="5.73406">
        <ele>971.447</ele>
        <time>2021-08-07T06:59:39Z</time>
      </trkpt>
      <trkpt lat="45.22204" lon="5.73406">
        <ele>973.146</ele>
        <time>2021-08-07T06:59:45Z</time>
      </trkpt>
      <trkpt lat="45.22203" lon="5.73406">
        <ele>974.065</ele>
        <time>2021-08-07T06:59:48Z</time>
      </trkpt>
      <trkpt lat="45.22199" lon="5.73405">
        <ele>975.439</ele>
        <time>2021-08-07T06:59:54Z</time>
      </trkpt>
      <trkpt lat="45.22192" lon="5.73403">
        <ele>978.811</ele>
        <time>2021-08-07T07:00:05Z</time>
      </trkpt>
      <trkpt lat="45.2219" lon="5.73404">
        <ele>979.711</ele>
        <time>2021-08-07T07:00:09Z</time>
      </trkpt>
      <trkpt lat="45.22186" lon="5.73405">
        <ele>981.417</ele>
        <time>2021-08-07T07:00:15Z</time>
      </trkpt>
      <trkpt lat="45.2218" lon="5.73403">
        <ele>983.292</ele>
        <time>2021-08-07T07:00:22Z</time>
      </trkpt>
      <trkpt lat="45.22175" lon="5.73402">
        <ele>985.32</ele>
        <time>2021-08-07T07:00:29Z</time>
      </trkpt>
      <trkpt lat="45.22171" lon="5.73403">
        <ele>987.609</ele>
        <time>2021-08-07T07:00:41Z</time>
      </trkpt>
      <trkpt lat="45.22167" lon="5.73404">
        <ele>989.737</ele>
        <time>2021-08-07T07:00:49Z</time>
      </trkpt>
      <trkpt lat="45.22164" lon="5.73404">
        <ele>991.565</ele>
        <time>2021-08-07T07:00:55Z</time>
      </trkpt>
      <trkpt lat="45.22154" lon="5.73402">
        <ele>994.309</ele>
        <time>2021-08-07T07:01:07Z</time>
      </trkpt>
      <trkpt lat="45.22145" lon="5.73405">
        <ele>996.199</ele>
        <time>2021-08-07T07:01:15Z</time>
      </trkpt>
      <trkpt lat="45.22139" lon="5.73403">
        <ele>998.423</ele>
        <time>2021-08-07T07:01:21Z</time>
      </trkpt>
      <trkpt lat="45.22129" lon="5.73405">
        <ele>999.382</ele>
        <time>2021-08-07T07:01:26Z</time>
      </trkpt>
      <trkpt lat="45.22122" lon="5.73403">
        <ele>1000.076</ele>
        <time>2021-08-07T07:01:31Z</time>
      </trkpt>
      <trkpt lat="45.22115" lon="5.73399">
        <ele>1002.156</ele>
        <time>2021-08-07T07:01:39Z</time>
      </trkpt>
      <trkpt lat="45.22108" lon="5.734">
        <ele>1003.443</ele>
        <time>2021-08-07T07:01:46Z</time>
      </trkpt>
      <trkpt lat="45.22107" lon="5.73399">
        <ele>1004.076</ele>
        <time>2021-08-07T07:01:49Z</time>
      </trkpt>
      <trkpt lat="45.22103" lon="5.73395">
        <ele>1005.033</ele>
        <time>2021-08-07T07:01:55Z</time>
      </trkpt>
      <trkpt lat="45.22099" lon="5.73396">
        <ele>1007.31</ele>
        <time>2021-08-07T07:02:02Z</time>
      </trkpt>
      <trkpt lat="45.22098" lon="5.73395">
        <ele>1008.931</ele>
        <time>2021-08-07T07:02:04Z</time>
      </trkpt>
      <trkpt lat="45.22096" lon="5.7339">
        <ele>1010.748</ele>
        <time>2021-08-07T07:02:07Z</time>
      </trkpt>
      <trkpt lat="45.22093" lon="5.73382">
        <ele>1012.231</ele>
        <time>2021-08-07T07:02:14Z</time>
      </trkpt>
      <trkpt lat="45.22085" lon="5.73379">
        <ele>1013.562</ele>
        <time>2021-08-07T07:02:21Z</time>
      </trkpt>
      <trkpt lat="45.22085" lon="5.73381">
        <ele>1013.823</ele>
        <time>2021-08-07T07:02:23Z</time>
      </trkpt>
      <trkpt lat="45.22082" lon="5.73393">
        <ele>1014.944</ele>
        <time>2021-08-07T07:02:31Z</time>
      </trkpt>
      <trkpt lat="45.22085" lon="5.73402">
        <ele>1016.763</ele>
        <time>2021-08-07T07:02:37Z</time>
      </trkpt>
      <trkpt lat="45.22086" lon="5.73414">
        <ele>1017.89</ele>
        <time>2021-08-07T07:02:45Z</time>
      </trkpt>
      <trkpt lat="45.22089" lon="5.73428">
        <ele>1020.919</ele>
        <time>2021-08-07T07:02:53Z</time>
      </trkpt>
      <trkpt lat="45.22093" lon="5.73432">
        <ele>1022.993</ele>
        <time>2021-08-07T07:03:00Z</time>
      </trkpt>
      <trkpt lat="45.22094" lon="5.73437">
        <ele>1024.608</ele>
        <time>2021-08-07T07:03:06Z</time>
      </trkpt>
      <trkpt lat="45.22096" lon="5.73441">
        <ele>1027.411</ele>
        <time>2021-08-07T07:03:16Z</time>
      </trkpt>
      <trkpt lat="45.22097" lon="5.73449">
        <ele>1029.049</ele>
        <time>2021-08-07T07:03:22Z</time>
      </trkpt>
      <trkpt lat="45.2209" lon="5.73455">
        <ele>1030.195</ele>
        <time>2021-08-07T07:03:28Z</time>
      </trkpt>
      <trkpt lat="45.22083" lon="5.73459">
        <ele>1031.343</ele>
        <time>2021-08-07T07:03:34Z</time>
      </trkpt>
      <trkpt lat="45.22077" lon="5.73464">
        <ele>1034.161</ele>
        <time>2021-08-07T07:03:43Z</time>
      </trkpt>
      <trkpt lat="45.22074" lon="5.73467">
        <ele>1035.875</ele>
        <time>2021-08-07T07:03:49Z</time>
      </trkpt>
      <trkpt lat="45.22074" lon="5.73473">
        <ele>1036.212</ele>
        <time>2021-08-07T07:03:56Z</time>
      </trkpt>
      <trkpt lat="45.22069" lon="5.73482">
        <ele>1038.308</ele>
        <time>2021-08-07T07:04:04Z</time>
      </trkpt>
      <trkpt lat="45.22064" lon="5.73485">
        <ele>1039.413</ele>
        <time>2021-08-07T07:04:08Z</time>
      </trkpt>
      <trkpt lat="45.22053" lon="5.73481">
        <ele>1041.33</ele>
        <time>2021-08-07T07:04:17Z</time>
      </trkpt>
      <trkpt lat="45.22045" lon="5.73475">
        <ele>1043.14</ele>
        <time>2021-08-07T07:04:24Z</time>
      </trkpt>
      <trkpt lat="45.22038" lon="5.73468">
        <ele>1044.346</ele>
        <time>2021-08-07T07:04:30Z</time>
      </trkpt>
      <trkpt lat="45.22037" lon="5.73468">
        <ele>1044.313</ele>
        <time>2021-08-07T07:04:31Z</time>
      </trkpt>
      <trkpt lat="45.22032" lon="5.73463">
        <ele>1046.406</ele>
        <time>2021-08-07T07:04:37Z</time>
      </trkpt>
      <trkpt lat="45.22028" lon="5.73457">
        <ele>1046.898</ele>
        <time>2021-08-07T07:04:41Z</time>
      </trkpt>
      <trkpt lat="45.22019" lon="5.73449">
        <ele>1047.913</ele>
        <time>2021-08-07T07:04:47Z</time>
      </trkpt>
      <trkpt lat="45.2201" lon="5.73442">
        <ele>1049.496</ele>
        <time>2021-08-07T07:04:52Z</time>
      </trkpt>
      <trkpt lat="45.22007" lon="5.73441">
        <ele>1049.704</ele>
        <time>2021-08-07T07:04:54Z</time>
      </trkpt>
      <trkpt lat="45.21998" lon="5.73442">
        <ele>1049.518</ele>
        <time>2021-08-07T07:04:59Z</time>
      </trkpt>
      <trkpt lat="45.21991" lon="5.73444">
        <ele>1047.809</ele>
        <time>2021-08-07T07:05:04Z</time>
      </trkpt>
      <trkpt lat="45.21984" lon="5.73439">
        <ele>1046.445</ele>
        <time>2021-08-07T07:05:09Z</time>
      </trkpt>
      <trkpt lat="45.21972" lon="5.73435">
        <ele>1044.599</ele>
        <time>2021-08-07T07:05:15Z</time>
      </trkpt>
      <trkpt lat="45.21967" lon="5.73432">
        <ele>1044.322</ele>
        <time>2021-08-07T07:05:18Z</time>
      </trkpt>
      <trkpt lat="45.21953" lon="5.73438">
        <ele>1044.625</ele>
        <time>2021-08-07T07:05:24Z</time>
      </trkpt>
      <trkpt lat="45.21945" lon="5.73431">
        <ele>1042.472</ele>
        <time>2021-08-07T07:05:32Z</time>
      </trkpt>
      <trkpt lat="45.21943" lon="5.7343">
        <ele>1042.543</ele>
        <time>2021-08-07T07:05:34Z</time>
      </trkpt>
      <trkpt lat="45.21939" lon="5.73423">
        <ele>1041.899</ele>
        <time>2021-08-07T07:05:38Z</time>
      </trkpt>
      <trkpt lat="45.21932" lon="5.73408">
        <ele>1040.319</ele>
        <time>2021-08-07T07:05:46Z</time>
      </trkpt>
      <trkpt lat="45.21929" lon="5.73403">
        <ele>1040.18</ele>
        <time>2021-08-07T07:05:48Z</time>
      </trkpt>
      <trkpt lat="45.21916" lon="5.7339">
        <ele>1041.682</ele>
        <time>2021-08-07T07:05:56Z</time>
      </trkpt>
      <trkpt lat="45.21908" lon="5.73388">
        <ele>1041.478</ele>
        <time>2021-08-07T07:06:02Z</time>
      </trkpt>
      <trkpt lat="45.21906" lon="5.73387">
        <ele>1041.496</ele>
        <time>2021-08-07T07:06:03Z</time>
      </trkpt>
      <trkpt lat="45.21899" lon="5.7338">
        <ele>1040.717</ele>
        <time>2021-08-07T07:06:08Z</time>
      </trkpt>
      <trkpt lat="45.21898" lon="5.73379">
        <ele>1040.63</ele>
        <time>2021-08-07T07:06:09Z</time>
      </trkpt>
      <trkpt lat="45.21887" lon="5.73371">
        <ele>1040.479</ele>
        <time>2021-08-07T07:06:17Z</time>
      </trkpt>
      <trkpt lat="45.21881" lon="5.73369">
        <ele>1041.398</ele>
        <time>2021-08-07T07:06:20Z</time>
      </trkpt>
      <trkpt lat="45.21874" lon="5.73364">
        <ele>1041.355</ele>
        <time>2021-08-07T07:06:24Z</time>
      </trkpt>
      <trkpt lat="45.21865" lon="5.73357">
        <ele>1043.601</ele>
        <time>2021-08-07T07:06:32Z</time>
      </trkpt>
      <trkpt lat="45.21858" lon="5.73354">
        <ele>1045.668</ele>
        <time>2021-08-07T07:06:38Z</time>
      </trkpt>
      <trkpt lat="45.21851" lon="5.73348">
        <ele>1048.11</ele>
        <time>2021-08-07T07:06:46Z</time>
      </trkpt>
      <trkpt lat="45.21848" lon="5.73345">
        <ele>1046.903</ele>
        <time>2021-08-07T07:06:53Z</time>
      </trkpt>
      <trkpt lat="45.21847" lon="5.73345">
        <ele>1047.803</ele>
        <time>2021-08-07T07:07:12Z</time>
      </trkpt>
      <trkpt lat="45.21848" lon="5.73345">
        <ele>1047.813</ele>
        <time>2021-08-07T07:07:24Z</time>
      </trkpt>
      <trkpt lat="45.21849" lon="5.73343">
        <ele>1048.115</ele>
        <time>2021-08-07T07:07:38Z</time>
      </trkpt>
      <trkpt lat="45.21848" lon="5.73341">
        <ele>1048.236</ele>
        <time>2021-08-07T07:07:51Z</time>
      </trkpt>
      <trkpt lat="45.21846" lon="5.73341">
        <ele>1048.034</ele>
        <time>2021-08-07T07:08:06Z</time>
      </trkpt>
      <trkpt lat="45.21843" lon="5.73353">
        <ele>1046.807</ele>
        <time>2021-08-07T07:08:16Z</time>
      </trkpt>
      <trkpt lat="45.21843" lon="5.73355">
        <ele>1047.08</ele>
        <time>2021-08-07T07:08:25Z</time>
      </trkpt>
      <trkpt lat="45.21843" lon="5.73355">
        <ele>1048.09</ele>
        <time>2021-08-07T07:09:24Z</time>
      </trkpt>
      <trkpt lat="45.21844" lon="5.73349">
        <ele>1047.086</ele>
        <time>2021-08-07T07:09:30Z</time>
      </trkpt>
      <trkpt lat="45.21845" lon="5.73343">
        <ele>1046.88</ele>
        <time>2021-08-07T07:09:35Z</time>
      </trkpt>
      <trkpt lat="45.21836" lon="5.73336">
        <ele>1046.932</ele>
        <time>2021-08-07T07:09:44Z</time>
      </trkpt>
      <trkpt lat="45.21829" lon="5.73326">
        <ele>1045.725</ele>
        <time>2021-08-07T07:09:51Z</time>
      </trkpt>
      <trkpt lat="45.21824" lon="5.73316">
        <ele>1043.565</ele>
        <time>2021-08-07T07:10:01Z</time>
      </trkpt>
      <trkpt lat="45.21817" lon="5.73313">
        <ele>1042.489</ele>
        <time>2021-08-07T07:10:09Z</time>
      </trkpt>
      <trkpt lat="45.21811" lon="5.73305">
        <ele>1041.578</ele>
        <time>2021-08-07T07:10:17Z</time>
      </trkpt>
      <trkpt lat="45.21807" lon="5.73299">
        <ele>1040.364</ele>
        <time>2021-08-07T07:10:21Z</time>
      </trkpt>
      <trkpt lat="45.21802" lon="5.73295">
        <ele>1039.552</ele>
        <time>2021-08-07T07:10:25Z</time>
      </trkpt>
      <trkpt lat="45.21797" lon="5.7329">
        <ele>1038.681</ele>
        <time>2021-08-07T07:10:29Z</time>
      </trkpt>
      <trkpt lat="45.21793" lon="5.73286">
        <ele>1038.482</ele>
        <time>2021-08-07T07:10:33Z</time>
      </trkpt>
      <trkpt lat="45.21789" lon="5.73278">
        <ele>1037.391</ele>
        <time>2021-08-07T07:10:40Z</time>
      </trkpt>
      <trkpt lat="45.21787" lon="5.73277">
        <ele>1037.001</ele>
        <time>2021-08-07T07:10:42Z</time>
      </trkpt>
      <trkpt lat="45.21785" lon="5.73275">
        <ele>1035.629</ele>
        <time>2021-08-07T07:10:44Z</time>
      </trkpt>
      <trkpt lat="45.21783" lon="5.73273">
        <ele>1035.477</ele>
        <time>2021-08-07T07:10:45Z</time>
      </trkpt>
      <trkpt lat="45.21786" lon="5.73264">
        <ele>1033.954</ele>
        <time>2021-08-07T07:10:51Z</time>
      </trkpt>
      <trkpt lat="45.21785" lon="5.73257">
        <ele>1033.279</ele>
        <time>2021-08-07T07:10:57Z</time>
      </trkpt>
      <trkpt lat="45.21785" lon="5.73254">
        <ele>1032.963</ele>
        <time>2021-08-07T07:10:59Z</time>
      </trkpt>
      <trkpt lat="45.2178" lon="5.73245">
        <ele>1031.048</ele>
        <time>2021-08-07T07:11:07Z</time>
      </trkpt>
      <trkpt lat="45.21773" lon="5.73239">
        <ele>1030.604</ele>
        <time>2021-08-07T07:11:13Z</time>
      </trkpt>
      <trkpt lat="45.21772" lon="5.73236">
        <ele>1030.243</ele>
        <time>2021-08-07T07:11:16Z</time>
      </trkpt>
      <trkpt lat="45.21768" lon="5.73228">
        <ele>1030.638</ele>
        <time>2021-08-07T07:11:23Z</time>
      </trkpt>
      <trkpt lat="45.21765" lon="5.73218">
        <ele>1028.025</ele>
        <time>2021-08-07T07:11:30Z</time>
      </trkpt>
      <trkpt lat="45.21762" lon="5.7321">
        <ele>1026.282</ele>
        <time>2021-08-07T07:11:36Z</time>
      </trkpt>
      <trkpt lat="45.21753" lon="5.73204">
        <ele>1026.327</ele>
        <time>2021-08-07T07:11:43Z</time>
      </trkpt>
      <trkpt lat="45.21751" lon="5.73206">
        <ele>1026.657</ele>
        <time>2021-08-07T07:11:44Z</time>
      </trkpt>
      <trkpt lat="45.21742" lon="5.73212">
        <ele>1027.29</ele>
        <time>2021-08-07T07:11:50Z</time>
      </trkpt>
      <trkpt lat="45.21734" lon="5.73219">
        <ele>1024.877</ele>
        <time>2021-08-07T07:11:58Z</time>
      </trkpt>
      <trkpt lat="45.21728" lon="5.73224">
        <ele>1023.305</ele>
        <time>2021-08-07T07:12:05Z</time>
      </trkpt>
      <trkpt lat="45.21725" lon="5.73225">
        <ele>1022.355</ele>
        <time>2021-08-07T07:12:09Z</time>
      </trkpt>
      <trkpt lat="45.21717" lon="5.73214">
        <ele>1021.294</ele>
        <time>2021-08-07T07:12:16Z</time>
      </trkpt>
      <trkpt lat="45.21708" lon="5.73204">
        <ele>1020.915</ele>
        <time>2021-08-07T07:12:23Z</time>
      </trkpt>
      <trkpt lat="45.21705" lon="5.73202">
        <ele>1020.904</ele>
        <time>2021-08-07T07:12:26Z</time>
      </trkpt>
      <trkpt lat="45.21699" lon="5.73193">
        <ele>1020.14</ele>
        <time>2021-08-07T07:12:33Z</time>
      </trkpt>
      <trkpt lat="45.21693" lon="5.7318">
        <ele>1018.395</ele>
        <time>2021-08-07T07:12:41Z</time>
      </trkpt>
      <trkpt lat="45.21687" lon="5.73169">
        <ele>1016.205</ele>
        <time>2021-08-07T07:12:49Z</time>
      </trkpt>
      <trkpt lat="45.21683" lon="5.73159">
        <ele>1014.188</ele>
        <time>2021-08-07T07:12:57Z</time>
      </trkpt>
      <trkpt lat="45.21678" lon="5.73148">
        <ele>1011.459</ele>
        <time>2021-08-07T07:13:07Z</time>
      </trkpt>
      <trkpt lat="45.21674" lon="5.73143">
        <ele>1009.938</ele>
        <time>2021-08-07T07:13:14Z</time>
      </trkpt>
      <trkpt lat="45.21669" lon="5.73142">
        <ele>1008.222</ele>
        <time>2021-08-07T07:13:19Z</time>
      </trkpt>
      <trkpt lat="45.21664" lon="5.73143">
        <ele>1007.202</ele>
        <time>2021-08-07T07:13:23Z</time>
      </trkpt>
      <trkpt lat="45.2166" lon="5.73141">
        <ele>1004.79</ele>
        <time>2021-08-07T07:13:29Z</time>
      </trkpt>
      <trkpt lat="45.21659" lon="5.73142">
        <ele>1004.792</ele>
        <time>2021-08-07T07:13:30Z</time>
      </trkpt>
      <trkpt lat="45.21658" lon="5.73142">
        <ele>1004.475</ele>
        <time>2021-08-07T07:13:31Z</time>
      </trkpt>
      <trkpt lat="45.21647" lon="5.7314">
        <ele>1001.764</ele>
        <time>2021-08-07T07:13:38Z</time>
      </trkpt>
      <trkpt lat="45.21642" lon="5.73139">
        <ele>1001.129</ele>
        <time>2021-08-07T07:13:45Z</time>
      </trkpt>
      <trkpt lat="45.21639" lon="5.7314">
        <ele>999.307</ele>
        <time>2021-08-07T07:13:50Z</time>
      </trkpt>
      <trkpt lat="45.21638" lon="5.73139">
        <ele>999.283</ele>
        <time>2021-08-07T07:13:51Z</time>
      </trkpt>
      <trkpt lat="45.21633" lon="5.73143">
        <ele>998.045</ele>
        <time>2021-08-07T07:13:55Z</time>
      </trkpt>
      <trkpt lat="45.2163" lon="5.73141">
        <ele>997.899</ele>
        <time>2021-08-07T07:13:58Z</time>
      </trkpt>
      <trkpt lat="45.21618" lon="5.73133">
        <ele>994.204</ele>
        <time>2021-08-07T07:14:06Z</time>
      </trkpt>
      <trkpt lat="45.21616" lon="5.73132">
        <ele>994.169</ele>
        <time>2021-08-07T07:14:07Z</time>
      </trkpt>
      <trkpt lat="45.21609" lon="5.73127">
        <ele>991.968</ele>
        <time>2021-08-07T07:14:11Z</time>
      </trkpt>
      <trkpt lat="45.21605" lon="5.73126">
        <ele>990.615</ele>
        <time>2021-08-07T07:14:13Z</time>
      </trkpt>
      <trkpt lat="45.21594" lon="5.73117">
        <ele>988.617</ele>
        <time>2021-08-07T07:14:19Z</time>
      </trkpt>
      <trkpt lat="45.21587" lon="5.73122">
        <ele>987.335</ele>
        <time>2021-08-07T07:14:24Z</time>
      </trkpt>
      <trkpt lat="45.21584" lon="5.73124">
        <ele>986.42</ele>
        <time>2021-08-07T07:14:31Z</time>
      </trkpt>
      <trkpt lat="45.21583" lon="5.7313">
        <ele>984.719</ele>
        <time>2021-08-07T07:14:38Z</time>
      </trkpt>
      <trkpt lat="45.21583" lon="5.7314">
        <ele>982.156</ele>
        <time>2021-08-07T07:14:45Z</time>
      </trkpt>
      <trkpt lat="45.21582" lon="5.7314">
        <ele>982.148</ele>
        <time>2021-08-07T07:14:46Z</time>
      </trkpt>
      <trkpt lat="45.21578" lon="5.73144">
        <ele>980.562</ele>
        <time>2021-08-07T07:14:50Z</time>
      </trkpt>
      <trkpt lat="45.21576" lon="5.73147">
        <ele>978.998</ele>
        <time>2021-08-07T07:14:54Z</time>
      </trkpt>
      <trkpt lat="45.21576" lon="5.7315">
        <ele>977.633</ele>
        <time>2021-08-07T07:14:56Z</time>
      </trkpt>
      <trkpt lat="45.21575" lon="5.73155">
        <ele>976.893</ele>
        <time>2021-08-07T07:15:02Z</time>
      </trkpt>
      <trkpt lat="45.21573" lon="5.73159">
        <ele>974.914</ele>
        <time>2021-08-07T07:15:07Z</time>
      </trkpt>
      <trkpt lat="45.2157" lon="5.73161">
        <ele>973.248</ele>
        <time>2021-08-07T07:15:10Z</time>
      </trkpt>
      <trkpt lat="45.2157" lon="5.73174">
        <ele>970.931</ele>
        <time>2021-08-07T07:15:18Z</time>
      </trkpt>
      <trkpt lat="45.21571" lon="5.73179">
        <ele>969.619</ele>
        <time>2021-08-07T07:15:24Z</time>
      </trkpt>
      <trkpt lat="45.21572" lon="5.7318">
        <ele>968.417</ele>
        <time>2021-08-07T07:15:26Z</time>
      </trkpt>
      <trkpt lat="45.21589" lon="5.73196">
        <ele>964.383</ele>
        <time>2021-08-07T07:15:38Z</time>
      </trkpt>
      <trkpt lat="45.21594" lon="5.73202">
        <ele>964.383</ele>
        <time>2021-08-07T07:15:41Z</time>
      </trkpt>
      <trkpt lat="45.21597" lon="5.73204">
        <ele>962.94</ele>
        <time>2021-08-07T07:15:43Z</time>
      </trkpt>
      <trkpt lat="45.21607" lon="5.73216">
        <ele>960.988</ele>
        <time>2021-08-07T07:15:51Z</time>
      </trkpt>
      <trkpt lat="45.21608" lon="5.73219">
        <ele>960.612</ele>
        <time>2021-08-07T07:15:53Z</time>
      </trkpt>
      <trkpt lat="45.21609" lon="5.73224">
        <ele>959.365</ele>
        <time>2021-08-07T07:15:56Z</time>
      </trkpt>
      <trkpt lat="45.21612" lon="5.73229">
        <ele>958.339</ele>
        <time>2021-08-07T07:16:01Z</time>
      </trkpt>
      <trkpt lat="45.21618" lon="5.73242">
        <ele>955.548</ele>
        <time>2021-08-07T07:16:10Z</time>
      </trkpt>
      <trkpt lat="45.2162" lon="5.73246">
        <ele>954.684</ele>
        <time>2021-08-07T07:16:12Z</time>
      </trkpt>
      <trkpt lat="45.21624" lon="5.73254">
        <ele>952.769</ele>
        <time>2021-08-07T07:16:16Z</time>
      </trkpt>
      <trkpt lat="45.21631" lon="5.73268">
        <ele>951.107</ele>
        <time>2021-08-07T07:16:23Z</time>
      </trkpt>
      <trkpt lat="45.21637" lon="5.73282">
        <ele>949.246</ele>
        <time>2021-08-07T07:16:29Z</time>
      </trkpt>
      <trkpt lat="45.21643" lon="5.733">
        <ele>946.771</ele>
        <time>2021-08-07T07:16:37Z</time>
      </trkpt>
      <trkpt lat="45.21645" lon="5.73305">
        <ele>945.913</ele>
        <time>2021-08-07T07:16:39Z</time>
      </trkpt>
      <trkpt lat="45.21648" lon="5.73322">
        <ele>944.106</ele>
        <time>2021-08-07T07:16:47Z</time>
      </trkpt>
      <trkpt lat="45.21652" lon="5.73332">
        <ele>941.736</ele>
        <time>2021-08-07T07:16:53Z</time>
      </trkpt>
      <trkpt lat="45.21652" lon="5.73333">
        <ele>941.588</ele>
        <time>2021-08-07T07:16:54Z</time>
      </trkpt>
      <trkpt lat="45.21652" lon="5.73339">
        <ele>941.002</ele>
        <time>2021-08-07T07:16:58Z</time>
      </trkpt>
      <trkpt lat="45.21641" lon="5.73328">
        <ele>938.123</ele>
        <time>2021-08-07T07:17:07Z</time>
      </trkpt>
      <trkpt lat="45.21632" lon="5.73314">
        <ele>936.987</ele>
        <time>2021-08-07T07:17:15Z</time>
      </trkpt>
      <trkpt lat="45.21631" lon="5.73313">
        <ele>936.522</ele>
        <time>2021-08-07T07:17:16Z</time>
      </trkpt>
      <trkpt lat="45.21621" lon="5.73301">
        <ele>934.424</ele>
        <time>2021-08-07T07:17:24Z</time>
      </trkpt>
      <trkpt lat="45.21612" lon="5.73292">
        <ele>933.863</ele>
        <time>2021-08-07T07:17:31Z</time>
      </trkpt>
      <trkpt lat="45.21605" lon="5.7329">
        <ele>931.358</ele>
        <time>2021-08-07T07:17:36Z</time>
      </trkpt>
      <trkpt lat="45.21596" lon="5.73284">
        <ele>929.369</ele>
        <time>2021-08-07T07:17:43Z</time>
      </trkpt>
      <trkpt lat="45.21582" lon="5.7328">
        <ele>927.881</ele>
        <time>2021-08-07T07:17:53Z</time>
      </trkpt>
      <trkpt lat="45.21572" lon="5.73279">
        <ele>925.496</ele>
        <time>2021-08-07T07:18:01Z</time>
      </trkpt>
      <trkpt lat="45.21562" lon="5.73276">
        <ele>923.504</ele>
        <time>2021-08-07T07:18:08Z</time>
      </trkpt>
      <trkpt lat="45.21555" lon="5.73273">
        <ele>921.325</ele>
        <time>2021-08-07T07:18:13Z</time>
      </trkpt>
      <trkpt lat="45.21545" lon="5.73271">
        <ele>920.308</ele>
        <time>2021-08-07T07:18:19Z</time>
      </trkpt>
      <trkpt lat="45.21539" lon="5.73272">
        <ele>918.306</ele>
        <time>2021-08-07T07:18:23Z</time>
      </trkpt>
      <trkpt lat="45.21538" lon="5.73273">
        <ele>916.976</ele>
        <time>2021-08-07T07:18:25Z</time>
      </trkpt>
      <trkpt lat="45.21542" lon="5.73273">
        <ele>915.25</ele>
        <time>2021-08-07T07:18:29Z</time>
      </trkpt>
      <trkpt lat="45.21548" lon="5.73275">
        <ele>914.045</ele>
        <time>2021-08-07T07:18:33Z</time>
      </trkpt>
      <trkpt lat="45.2155" lon="5.73282">
        <ele>911.959</ele>
        <time>2021-08-07T07:18:37Z</time>
      </trkpt>
      <trkpt lat="45.21555" lon="5.73293">
        <ele>909.184</ele>
        <time>2021-08-07T07:18:45Z</time>
      </trkpt>
      <trkpt lat="45.21555" lon="5.73297">
        <ele>908.366</ele>
        <time>2021-08-07T07:18:47Z</time>
      </trkpt>
      <trkpt lat="45.21562" lon="5.73309">
        <ele>906.234</ele>
        <time>2021-08-07T07:18:55Z</time>
      </trkpt>
      <trkpt lat="45.21565" lon="5.73313">
        <ele>904.623</ele>
        <time>2021-08-07T07:18:58Z</time>
      </trkpt>
      <trkpt lat="45.21573" lon="5.73318">
        <ele>903.575</ele>
        <time>2021-08-07T07:19:06Z</time>
      </trkpt>
      <trkpt lat="45.21578" lon="5.73328">
        <ele>902.34</ele>
        <time>2021-08-07T07:19:14Z</time>
      </trkpt>
      <trkpt lat="45.21586" lon="5.73335">
        <ele>900.973</ele>
        <time>2021-08-07T07:19:22Z</time>
      </trkpt>
      <trkpt lat="45.21587" lon="5.73336">
        <ele>901.575</ele>
        <time>2021-08-07T07:19:23Z</time>
      </trkpt>
      <trkpt lat="45.2159" lon="5.73337">
        <ele>902.357</ele>
        <time>2021-08-07T07:19:25Z</time>
      </trkpt>
      <trkpt lat="45.21594" lon="5.7334">
        <ele>903.484</ele>
        <time>2021-08-07T07:19:29Z</time>
      </trkpt>
      <trkpt lat="45.21597" lon="5.73351">
        <ele>904.031</ele>
        <time>2021-08-07T07:19:34Z</time>
      </trkpt>
      <trkpt lat="45.21605" lon="5.73362">
        <ele>904.947</ele>
        <time>2021-08-07T07:19:40Z</time>
      </trkpt>
      <trkpt lat="45.21615" lon="5.73373">
        <ele>907.215</ele>
        <time>2021-08-07T07:19:47Z</time>
      </trkpt>
      <trkpt lat="45.21618" lon="5.73375">
        <ele>907.745</ele>
        <time>2021-08-07T07:19:49Z</time>
      </trkpt>
      <trkpt lat="45.21632" lon="5.73384">
        <ele>909.846</ele>
        <time>2021-08-07T07:19:58Z</time>
      </trkpt>
      <trkpt lat="45.21642" lon="5.73397">
        <ele>911.278</ele>
        <time>2021-08-07T07:20:06Z</time>
      </trkpt>
      <trkpt lat="45.21643" lon="5.73402">
        <ele>911.554</ele>
        <time>2021-08-07T07:20:08Z</time>
      </trkpt>
      <trkpt lat="45.21649" lon="5.73414">
        <ele>912.094</ele>
        <time>2021-08-07T07:20:13Z</time>
      </trkpt>
      <trkpt lat="45.21657" lon="5.73433">
        <ele>912.943</ele>
        <time>2021-08-07T07:20:20Z</time>
      </trkpt>
      <trkpt lat="45.21662" lon="5.73456">
        <ele>914.605</ele>
        <time>2021-08-07T07:20:28Z</time>
      </trkpt>
      <trkpt lat="45.21669" lon="5.73476">
        <ele>915.821</ele>
        <time>2021-08-07T07:20:36Z</time>
      </trkpt>
      <trkpt lat="45.21679" lon="5.7349">
        <ele>917.545</ele>
        <time>2021-08-07T07:20:43Z</time>
      </trkpt>
      <trkpt lat="45.21697" lon="5.73492">
        <ele>918.497</ele>
        <time>2021-08-07T07:20:51Z</time>
      </trkpt>
      <trkpt lat="45.21704" lon="5.73491">
        <ele>919.448</ele>
        <time>2021-08-07T07:20:54Z</time>
      </trkpt>
      <trkpt lat="45.21715" lon="5.73498">
        <ele>919.484</ele>
        <time>2021-08-07T07:21:00Z</time>
      </trkpt>
      <trkpt lat="45.21724" lon="5.73503">
        <ele>920.203</ele>
        <time>2021-08-07T07:21:04Z</time>
      </trkpt>
      <trkpt lat="45.21739" lon="5.73513">
        <ele>920.643</ele>
        <time>2021-08-07T07:21:12Z</time>
      </trkpt>
      <trkpt lat="45.21744" lon="5.73513">
        <ele>920.341</ele>
        <time>2021-08-07T07:21:14Z</time>
      </trkpt>
      <trkpt lat="45.21758" lon="5.73516">
        <ele>920.48</ele>
        <time>2021-08-07T07:21:21Z</time>
      </trkpt>
      <trkpt lat="45.21762" lon="5.73518">
        <ele>921.163</ele>
        <time>2021-08-07T07:21:23Z</time>
      </trkpt>
      <trkpt lat="45.2177" lon="5.73522">
        <ele>921.004</ele>
        <time>2021-08-07T07:21:29Z</time>
      </trkpt>
      <trkpt lat="45.21776" lon="5.73528">
        <ele>919.042</ele>
        <time>2021-08-07T07:21:34Z</time>
      </trkpt>
      <trkpt lat="45.21784" lon="5.73538">
        <ele>917.696</ele>
        <time>2021-08-07T07:21:39Z</time>
      </trkpt>
      <trkpt lat="45.21792" lon="5.73555">
        <ele>913.921</ele>
        <time>2021-08-07T07:21:46Z</time>
      </trkpt>
      <trkpt lat="45.21793" lon="5.73556">
        <ele>913.624</ele>
        <time>2021-08-07T07:21:47Z</time>
      </trkpt>
      <trkpt lat="45.21798" lon="5.73567">
        <ele>911.438</ele>
        <time>2021-08-07T07:21:53Z</time>
      </trkpt>
      <trkpt lat="45.21809" lon="5.73581">
        <ele>909.792</ele>
        <time>2021-08-07T07:22:00Z</time>
      </trkpt>
      <trkpt lat="45.21818" lon="5.73592">
        <ele>908.129</ele>
        <time>2021-08-07T07:22:06Z</time>
      </trkpt>
      <trkpt lat="45.21822" lon="5.73598">
        <ele>907.164</ele>
        <time>2021-08-07T07:22:09Z</time>
      </trkpt>
      <trkpt lat="45.21833" lon="5.73616">
        <ele>905.738</ele>
        <time>2021-08-07T07:22:16Z</time>
      </trkpt>
      <trkpt lat="45.21833" lon="5.7362">
        <ele>905.274</ele>
        <time>2021-08-07T07:22:19Z</time>
      </trkpt>
      <trkpt lat="45.21824" lon="5.73605">
        <ele>904.295</ele>
        <time>2021-08-07T07:22:28Z</time>
      </trkpt>
      <trkpt lat="45.21814" lon="5.73595">
        <ele>903.839</ele>
        <time>2021-08-07T07:22:34Z</time>
      </trkpt>
      <trkpt lat="45.21805" lon="5.73587">
        <ele>902.467</ele>
        <time>2021-08-07T07:22:40Z</time>
      </trkpt>
      <trkpt lat="45.21791" lon="5.73581">
        <ele>902.417</ele>
        <time>2021-08-07T07:22:47Z</time>
      </trkpt>
      <trkpt lat="45.21781" lon="5.73565">
        <ele>903.8</ele>
        <time>2021-08-07T07:22:54Z</time>
      </trkpt>
      <trkpt lat="45.21777" lon="5.73559">
        <ele>903.985</ele>
        <time>2021-08-07T07:23:05Z</time>
      </trkpt>
      <trkpt lat="45.2177" lon="5.73562">
        <ele>903.958</ele>
        <time>2021-08-07T07:23:14Z</time>
      </trkpt>
      <trkpt lat="45.21772" lon="5.73559">
        <ele>904.494</ele>
        <time>2021-08-07T07:23:23Z</time>
      </trkpt>
      <trkpt lat="45.21774" lon="5.73567">
        <ele>902.772</ele>
        <time>2021-08-07T07:23:38Z</time>
      </trkpt>
      <trkpt lat="45.21778" lon="5.73553">
        <ele>903.695</ele>
        <time>2021-08-07T07:23:57Z</time>
      </trkpt>
      <trkpt lat="45.21774" lon="5.73551">
        <ele>903.327</ele>
        <time>2021-08-07T07:24:17Z</time>
      </trkpt>
      <trkpt lat="45.21774" lon="5.73552">
        <ele>904.549</ele>
        <time>2021-08-07T07:24:29Z</time>
      </trkpt>
      <trkpt lat="45.21772" lon="5.73555">
        <ele>902.348</ele>
        <time>2021-08-07T07:24:42Z</time>
      </trkpt>
      <trkpt lat="45.21772" lon="5.73555">
        <ele>905.878</ele>
        <time>2021-08-07T07:24:43Z</time>
      </trkpt>
      <trkpt lat="45.21772" lon="5.73555">
        <ele>902.85</ele>
        <time>2021-08-07T07:24:44Z</time>
      </trkpt>
      <trkpt lat="45.21765" lon="5.73561">
        <ele>904.537</ele>
        <time>2021-08-07T07:25:09Z</time>
      </trkpt>
      <trkpt lat="45.21758" lon="5.73563">
        <ele>905.451</ele>
        <time>2021-08-07T07:25:14Z</time>
      </trkpt>
      <trkpt lat="45.21753" lon="5.73559">
        <ele>906.371</ele>
        <time>2021-08-07T07:25:21Z</time>
      </trkpt>
      <trkpt lat="45.21747" lon="5.73557">
        <ele>907.042</ele>
        <time>2021-08-07T07:25:28Z</time>
      </trkpt>
      <trkpt lat="45.21746" lon="5.73556">
        <ele>907.121</ele>
        <time>2021-08-07T07:25:29Z</time>
      </trkpt>
      <trkpt lat="45.2174" lon="5.73552">
        <ele>907.48</ele>
        <time>2021-08-07T07:25:36Z</time>
      </trkpt>
      <trkpt lat="45.21739" lon="5.73552">
        <ele>907.027</ele>
        <time>2021-08-07T07:25:37Z</time>
      </trkpt>
      <trkpt lat="45.21734" lon="5.73552">
        <ele>907.106</ele>
        <time>2021-08-07T07:25:42Z</time>
      </trkpt>
      <trkpt lat="45.21727" lon="5.73544">
        <ele>907.234</ele>
        <time>2021-08-07T07:25:49Z</time>
      </trkpt>
      <trkpt lat="45.21725" lon="5.73539">
        <ele>906.533</ele>
        <time>2021-08-07T07:25:52Z</time>
      </trkpt>
      <trkpt lat="45.21717" lon="5.7353">
        <ele>905.427</ele>
        <time>2021-08-07T07:26:00Z</time>
      </trkpt>
      <trkpt lat="45.21707" lon="5.73533">
        <ele>904.239</ele>
        <time>2021-08-07T07:26:06Z</time>
      </trkpt>
      <trkpt lat="45.21699" lon="5.73535">
        <ele>902.218</ele>
        <time>2021-08-07T07:26:11Z</time>
      </trkpt>
      <trkpt lat="45.21691" lon="5.73533">
        <ele>901.882</ele>
        <time>2021-08-07T07:26:16Z</time>
      </trkpt>
      <trkpt lat="45.21685" lon="5.73532">
        <ele>900.227</ele>
        <time>2021-08-07T07:26:20Z</time>
      </trkpt>
      <trkpt lat="45.21673" lon="5.73534">
        <ele>898.76</ele>
        <time>2021-08-07T07:26:27Z</time>
      </trkpt>
      <trkpt lat="45.21669" lon="5.73534">
        <ele>896.969</ele>
        <time>2021-08-07T07:26:31Z</time>
      </trkpt>
      <trkpt lat="45.21668" lon="5.73535">
        <ele>895.629</ele>
        <time>2021-08-07T07:26:34Z</time>
      </trkpt>
      <trkpt lat="45.21671" lon="5.73535">
        <ele>894.303</ele>
        <time>2021-08-07T07:26:41Z</time>
      </trkpt>
      <trkpt lat="45.2168" lon="5.73536">
        <ele>892.158</ele>
        <time>2021-08-07T07:26:49Z</time>
      </trkpt>
      <trkpt lat="45.21689" lon="5.73542">
        <ele>890.775</ele>
        <time>2021-08-07T07:26:56Z</time>
      </trkpt>
      <trkpt lat="45.2169" lon="5.73543">
        <ele>890.783</ele>
        <time>2021-08-07T07:26:57Z</time>
      </trkpt>
      <trkpt lat="45.217" lon="5.73555">
        <ele>887.99</ele>
        <time>2021-08-07T07:27:07Z</time>
      </trkpt>
      <trkpt lat="45.21702" lon="5.73557">
        <ele>886.952</ele>
        <time>2021-08-07T07:27:09Z</time>
      </trkpt>
      <trkpt lat="45.21698" lon="5.73561">
        <ele>884.801</ele>
        <time>2021-08-07T07:27:14Z</time>
      </trkpt>
      <trkpt lat="45.2169" lon="5.73565">
        <ele>882.043</ele>
        <time>2021-08-07T07:27:21Z</time>
      </trkpt>
      <trkpt lat="45.21686" lon="5.73565">
        <ele>881.879</ele>
        <time>2021-08-07T07:27:23Z</time>
      </trkpt>
      <trkpt lat="45.21673" lon="5.73563">
        <ele>880.554</ele>
        <time>2021-08-07T07:27:31Z</time>
      </trkpt>
      <trkpt lat="45.21662" lon="5.73568">
        <ele>878.123</ele>
        <time>2021-08-07T07:27:39Z</time>
      </trkpt>
      <trkpt lat="45.21654" lon="5.73569">
        <ele>875.029</ele>
        <time>2021-08-07T07:27:46Z</time>
      </trkpt>
      <trkpt lat="45.21652" lon="5.73569">
        <ele>874.858</ele>
        <time>2021-08-07T07:27:47Z</time>
      </trkpt>
      <trkpt lat="45.21644" lon="5.73565">
        <ele>872.944</ele>
        <time>2021-08-07T07:27:54Z</time>
      </trkpt>
      <trkpt lat="45.21634" lon="5.73551">
        <ele>871.239</ele>
        <time>2021-08-07T07:28:03Z</time>
      </trkpt>
      <trkpt lat="45.21632" lon="5.73547">
        <ele>870.326</ele>
        <time>2021-08-07T07:28:05Z</time>
      </trkpt>
      <trkpt lat="45.21622" lon="5.73534">
        <ele>868.268</ele>
        <time>2021-08-07T07:28:12Z</time>
      </trkpt>
      <trkpt lat="45.21619" lon="5.73533">
        <ele>866.925</ele>
        <time>2021-08-07T07:28:15Z</time>
      </trkpt>
      <trkpt lat="45.2162" lon="5.73542">
        <ele>865.35</ele>
        <time>2021-08-07T07:28:19Z</time>
      </trkpt>
      <trkpt lat="45.21621" lon="5.73546">
        <ele>863.804</ele>
        <time>2021-08-07T07:28:22Z</time>
      </trkpt>
      <trkpt lat="45.21624" lon="5.73555">
        <ele>861.874</ele>
        <time>2021-08-07T07:28:27Z</time>
      </trkpt>
      <trkpt lat="45.21627" lon="5.73561">
        <ele>861.348</ele>
        <time>2021-08-07T07:28:31Z</time>
      </trkpt>
      <trkpt lat="45.21631" lon="5.73571">
        <ele>858.118</ele>
        <time>2021-08-07T07:28:39Z</time>
      </trkpt>
      <trkpt lat="45.21623" lon="5.73567">
        <ele>856.361</ele>
        <time>2021-08-07T07:28:45Z</time>
      </trkpt>
      <trkpt lat="45.21619" lon="5.73565">
        <ele>855.273</ele>
        <time>2021-08-07T07:28:47Z</time>
      </trkpt>
      <trkpt lat="45.21613" lon="5.73557">
        <ele>853.829</ele>
        <time>2021-08-07T07:28:52Z</time>
      </trkpt>
      <trkpt lat="45.21608" lon="5.73549">
        <ele>851.234</ele>
        <time>2021-08-07T07:28:57Z</time>
      </trkpt>
      <trkpt lat="45.216" lon="5.7354">
        <ele>850.139</ele>
        <time>2021-08-07T07:29:03Z</time>
      </trkpt>
      <trkpt lat="45.21597" lon="5.73537">
        <ele>849.208</ele>
        <time>2021-08-07T07:29:05Z</time>
      </trkpt>
      <trkpt lat="45.21594" lon="5.73532">
        <ele>848.037</ele>
        <time>2021-08-07T07:29:08Z</time>
      </trkpt>
      <trkpt lat="45.21585" lon="5.73517">
        <ele>845.622</ele>
        <time>2021-08-07T07:29:15Z</time>
      </trkpt>
      <trkpt lat="45.21579" lon="5.73502">
        <ele>844.081</ele>
        <time>2021-08-07T07:29:22Z</time>
      </trkpt>
      <trkpt lat="45.21576" lon="5.73492">
        <ele>842.103</ele>
        <time>2021-08-07T07:29:26Z</time>
      </trkpt>
      <trkpt lat="45.21571" lon="5.73485">
        <ele>841.109</ele>
        <time>2021-08-07T07:29:30Z</time>
      </trkpt>
      <trkpt lat="45.21568" lon="5.7348">
        <ele>840.694</ele>
        <time>2021-08-07T07:29:32Z</time>
      </trkpt>
      <trkpt lat="45.21557" lon="5.73474">
        <ele>839.831</ele>
        <time>2021-08-07T07:29:39Z</time>
      </trkpt>
      <trkpt lat="45.21549" lon="5.73474">
        <ele>837.279</ele>
        <time>2021-08-07T07:29:45Z</time>
      </trkpt>
      <trkpt lat="45.21543" lon="5.7347">
        <ele>834.847</ele>
        <time>2021-08-07T07:29:50Z</time>
      </trkpt>
      <trkpt lat="45.21543" lon="5.73474">
        <ele>833.527</ele>
        <time>2021-08-07T07:29:55Z</time>
      </trkpt>
      <trkpt lat="45.21547" lon="5.73476">
        <ele>832.371</ele>
        <time>2021-08-07T07:29:59Z</time>
      </trkpt>
      <trkpt lat="45.21556" lon="5.73485">
        <ele>831.068</ele>
        <time>2021-08-07T07:30:06Z</time>
      </trkpt>
      <trkpt lat="45.21558" lon="5.73499">
        <ele>829.311</ele>
        <time>2021-08-07T07:30:13Z</time>
      </trkpt>
      <trkpt lat="45.2156" lon="5.73504">
        <ele>828.47</ele>
        <time>2021-08-07T07:30:16Z</time>
      </trkpt>
      <trkpt lat="45.21558" lon="5.73519">
        <ele>826.644</ele>
        <time>2021-08-07T07:30:22Z</time>
      </trkpt>
      <trkpt lat="45.21557" lon="5.73537">
        <ele>824.721</ele>
        <time>2021-08-07T07:30:29Z</time>
      </trkpt>
      <trkpt lat="45.21559" lon="5.7355">
        <ele>822.482</ele>
        <time>2021-08-07T07:30:35Z</time>
      </trkpt>
      <trkpt lat="45.21563" lon="5.73558">
        <ele>821.374</ele>
        <time>2021-08-07T07:30:38Z</time>
      </trkpt>
      <trkpt lat="45.21564" lon="5.73574">
        <ele>818.819</ele>
        <time>2021-08-07T07:30:43Z</time>
      </trkpt>
      <trkpt lat="45.21565" lon="5.73589">
        <ele>816.405</ele>
        <time>2021-08-07T07:30:51Z</time>
      </trkpt>
      <trkpt lat="45.21557" lon="5.73577">
        <ele>813.606</ele>
        <time>2021-08-07T07:30:58Z</time>
      </trkpt>
      <trkpt lat="45.21549" lon="5.73569">
        <ele>811.617</ele>
        <time>2021-08-07T07:31:04Z</time>
      </trkpt>
      <trkpt lat="45.21547" lon="5.73566">
        <ele>810.588</ele>
        <time>2021-08-07T07:31:06Z</time>
      </trkpt>
      <trkpt lat="45.21545" lon="5.73562">
        <ele>809.821</ele>
        <time>2021-08-07T07:31:08Z</time>
      </trkpt>
      <trkpt lat="45.21543" lon="5.73553">
        <ele>807.928</ele>
        <time>2021-08-07T07:31:13Z</time>
      </trkpt>
      <trkpt lat="45.21541" lon="5.73547">
        <ele>806.781</ele>
        <time>2021-08-07T07:31:19Z</time>
      </trkpt>
      <trkpt lat="45.21541" lon="5.73549">
        <ele>806.547</ele>
        <time>2021-08-07T07:31:20Z</time>
      </trkpt>
      <trkpt lat="45.2154" lon="5.73552">
        <ele>805.514</ele>
        <time>2021-08-07T07:31:22Z</time>
      </trkpt>
      <trkpt lat="45.21539" lon="5.73567">
        <ele>804.361</ele>
        <time>2021-08-07T07:31:29Z</time>
      </trkpt>
      <trkpt lat="45.21539" lon="5.73572">
        <ele>803.183</ele>
        <time>2021-08-07T07:31:32Z</time>
      </trkpt>
      <trkpt lat="45.21541" lon="5.73584">
        <ele>801.283</ele>
        <time>2021-08-07T07:31:37Z</time>
      </trkpt>
      <trkpt lat="45.21544" lon="5.73595">
        <ele>799.333</ele>
        <time>2021-08-07T07:31:43Z</time>
      </trkpt>
      <trkpt lat="45.21545" lon="5.73603">
        <ele>796.95</ele>
        <time>2021-08-07T07:31:49Z</time>
      </trkpt>
      <trkpt lat="45.21543" lon="5.73602">
        <ele>795.795</ele>
        <time>2021-08-07T07:31:51Z</time>
      </trkpt>
      <trkpt lat="45.2154" lon="5.73596">
        <ele>794.004</ele>
        <time>2021-08-07T07:31:55Z</time>
      </trkpt>
      <trkpt lat="45.21539" lon="5.73596">
        <ele>792.833</ele>
        <time>2021-08-07T07:32:02Z</time>
      </trkpt>
      <trkpt lat="45.21539" lon="5.73601">
        <ele>792.019</ele>
        <time>2021-08-07T07:32:05Z</time>
      </trkpt>
      <trkpt lat="45.21541" lon="5.73613">
        <ele>790.176</ele>
        <time>2021-08-07T07:32:13Z</time>
      </trkpt>
      <trkpt lat="45.2154" lon="5.73615">
        <ele>789.241</ele>
        <time>2021-08-07T07:32:16Z</time>
      </trkpt>
      <trkpt lat="45.21534" lon="5.73601">
        <ele>787.265</ele>
        <time>2021-08-07T07:32:23Z</time>
      </trkpt>
      <trkpt lat="45.21529" lon="5.73595">
        <ele>785.226</ele>
        <time>2021-08-07T07:32:27Z</time>
      </trkpt>
      <trkpt lat="45.21526" lon="5.73591">
        <ele>785.997</ele>
        <time>2021-08-07T07:32:29Z</time>
      </trkpt>
      <trkpt lat="45.21519" lon="5.7358">
        <ele>783.295</ele>
        <time>2021-08-07T07:32:37Z</time>
      </trkpt>
      <trkpt lat="45.21517" lon="5.73576">
        <ele>781.989</ele>
        <time>2021-08-07T07:32:43Z</time>
      </trkpt>
      <trkpt lat="45.21514" lon="5.73592">
        <ele>778.534</ele>
        <time>2021-08-07T07:32:51Z</time>
      </trkpt>
      <trkpt lat="45.21514" lon="5.73597">
        <ele>777.241</ele>
        <time>2021-08-07T07:32:54Z</time>
      </trkpt>
      <trkpt lat="45.21509" lon="5.7359">
        <ele>776.804</ele>
        <time>2021-08-07T07:32:59Z</time>
      </trkpt>
      <trkpt lat="45.21509" lon="5.7358">
        <ele>775.203</ele>
        <time>2021-08-07T07:33:06Z</time>
      </trkpt>
      <trkpt lat="45.21508" lon="5.73574">
        <ele>773.852</ele>
        <time>2021-08-07T07:33:09Z</time>
      </trkpt>
      <trkpt lat="45.21502" lon="5.73562">
        <ele>770.856</ele>
        <time>2021-08-07T07:33:16Z</time>
      </trkpt>
      <trkpt lat="45.21501" lon="5.7356">
        <ele>770.616</ele>
        <time>2021-08-07T07:33:17Z</time>
      </trkpt>
      <trkpt lat="45.21493" lon="5.73555">
        <ele>768.326</ele>
        <time>2021-08-07T07:33:22Z</time>
      </trkpt>
      <trkpt lat="45.21484" lon="5.73549">
        <ele>767.105</ele>
        <time>2021-08-07T07:33:28Z</time>
      </trkpt>
      <trkpt lat="45.21481" lon="5.73546">
        <ele>766.831</ele>
        <time>2021-08-07T07:33:32Z</time>
      </trkpt>
      <trkpt lat="45.21475" lon="5.73533">
        <ele>764.636</ele>
        <time>2021-08-07T07:33:41Z</time>
      </trkpt>
      <trkpt lat="45.21471" lon="5.73522">
        <ele>763.387</ele>
        <time>2021-08-07T07:33:47Z</time>
      </trkpt>
      <trkpt lat="45.2147" lon="5.7352">
        <ele>763.062</ele>
        <time>2021-08-07T07:33:49Z</time>
      </trkpt>
      <trkpt lat="45.2147" lon="5.73512">
        <ele>761.134</ele>
        <time>2021-08-07T07:33:53Z</time>
      </trkpt>
      <trkpt lat="45.21465" lon="5.73496">
        <ele>759.72</ele>
        <time>2021-08-07T07:33:59Z</time>
      </trkpt>
      <trkpt lat="45.21459" lon="5.7349">
        <ele>758.565</ele>
        <time>2021-08-07T07:34:03Z</time>
      </trkpt>
      <trkpt lat="45.21452" lon="5.73484">
        <ele>756.347</ele>
        <time>2021-08-07T07:34:09Z</time>
      </trkpt>
      <trkpt lat="45.21449" lon="5.73479">
        <ele>755.033</ele>
        <time>2021-08-07T07:34:12Z</time>
      </trkpt>
      <trkpt lat="45.21443" lon="5.73468">
        <ele>753.887</ele>
        <time>2021-08-07T07:34:18Z</time>
      </trkpt>
      <trkpt lat="45.21438" lon="5.73454">
        <ele>752.046</ele>
        <time>2021-08-07T07:34:24Z</time>
      </trkpt>
      <trkpt lat="45.21431" lon="5.73443">
        <ele>748.701</ele>
        <time>2021-08-07T07:34:31Z</time>
      </trkpt>
      <trkpt lat="45.2143" lon="5.73441">
        <ele>748.478</ele>
        <time>2021-08-07T07:34:32Z</time>
      </trkpt>
      <trkpt lat="45.21428" lon="5.73437">
        <ele>747.961</ele>
        <time>2021-08-07T07:34:34Z</time>
      </trkpt>
      <trkpt lat="45.2142" lon="5.73424">
        <ele>745.97</ele>
        <time>2021-08-07T07:34:42Z</time>
      </trkpt>
      <trkpt lat="45.21414" lon="5.73414">
        <ele>743.763</ele>
        <time>2021-08-07T07:34:48Z</time>
      </trkpt>
      <trkpt lat="45.21407" lon="5.734">
        <ele>741.489</ele>
        <time>2021-08-07T07:34:55Z</time>
      </trkpt>
      <trkpt lat="45.21407" lon="5.73392">
        <ele>740.845</ele>
        <time>2021-08-07T07:34:58Z</time>
      </trkpt>
      <trkpt lat="45.21405" lon="5.73388">
        <ele>740.7</ele>
        <time>2021-08-07T07:35:00Z</time>
      </trkpt>
      <trkpt lat="45.21401" lon="5.73385">
        <ele>738.87</ele>
        <time>2021-08-07T07:35:03Z</time>
      </trkpt>
      <trkpt lat="45.21392" lon="5.73371">
        <ele>737.642</ele>
        <time>2021-08-07T07:35:10Z</time>
      </trkpt>
      <trkpt lat="45.21391" lon="5.73369">
        <ele>737.323</ele>
        <time>2021-08-07T07:35:11Z</time>
      </trkpt>
      <trkpt lat="45.21389" lon="5.73366">
        <ele>736.053</ele>
        <time>2021-08-07T07:35:13Z</time>
      </trkpt>
      <trkpt lat="45.21383" lon="5.73361">
        <ele>734.621</ele>
        <time>2021-08-07T07:35:16Z</time>
      </trkpt>
      <trkpt lat="45.21377" lon="5.73353">
        <ele>733.052</ele>
        <time>2021-08-07T07:35:20Z</time>
      </trkpt>
      <trkpt lat="45.21373" lon="5.7334">
        <ele>732.456</ele>
        <time>2021-08-07T07:35:26Z</time>
      </trkpt>
      <trkpt lat="45.21371" lon="5.73339">
        <ele>732.413</ele>
        <time>2021-08-07T07:35:27Z</time>
      </trkpt>
      <trkpt lat="45.21359" lon="5.73327">
        <ele>728.347</ele>
        <time>2021-08-07T07:35:35Z</time>
      </trkpt>
      <trkpt lat="45.21358" lon="5.73325">
        <ele>728.657</ele>
        <time>2021-08-07T07:35:36Z</time>
      </trkpt>
      <trkpt lat="45.21348" lon="5.73316">
        <ele>725.883</ele>
        <time>2021-08-07T07:35:43Z</time>
      </trkpt>
      <trkpt lat="45.21339" lon="5.7331">
        <ele>725.29</ele>
        <time>2021-08-07T07:35:49Z</time>
      </trkpt>
      <trkpt lat="45.21337" lon="5.73301">
        <ele>723.989</ele>
        <time>2021-08-07T07:35:53Z</time>
      </trkpt>
      <trkpt lat="45.21334" lon="5.73293">
        <ele>723.837</ele>
        <time>2021-08-07T07:35:58Z</time>
      </trkpt>
      <trkpt lat="45.21332" lon="5.73292">
        <ele>722.91</ele>
        <time>2021-08-07T07:36:00Z</time>
      </trkpt>
      <trkpt lat="45.2132" lon="5.73295">
        <ele>719.82</ele>
        <time>2021-08-07T07:36:07Z</time>
      </trkpt>
      <trkpt lat="45.21316" lon="5.73296">
        <ele>719.248</ele>
        <time>2021-08-07T07:36:09Z</time>
      </trkpt>
      <trkpt lat="45.21309" lon="5.73303">
        <ele>716.545</ele>
        <time>2021-08-07T07:36:14Z</time>
      </trkpt>
      <trkpt lat="45.21308" lon="5.73304">
        <ele>716.1</ele>
        <time>2021-08-07T07:36:15Z</time>
      </trkpt>
      <trkpt lat="45.21301" lon="5.73299">
        <ele>714.938</ele>
        <time>2021-08-07T07:36:20Z</time>
      </trkpt>
      <trkpt lat="45.213" lon="5.73287">
        <ele>713.506</ele>
        <time>2021-08-07T07:36:26Z</time>
      </trkpt>
      <trkpt lat="45.21292" lon="5.73276">
        <ele>712.146</ele>
        <time>2021-08-07T07:36:32Z</time>
      </trkpt>
      <trkpt lat="45.21281" lon="5.73266">
        <ele>709.675</ele>
        <time>2021-08-07T07:36:40Z</time>
      </trkpt>
      <trkpt lat="45.21273" lon="5.7326">
        <ele>707.802</ele>
        <time>2021-08-07T07:36:46Z</time>
      </trkpt>
      <trkpt lat="45.21264" lon="5.73252">
        <ele>706.28</ele>
        <time>2021-08-07T07:36:52Z</time>
      </trkpt>
      <trkpt lat="45.21256" lon="5.73239">
        <ele>704.022</ele>
        <time>2021-08-07T07:36:59Z</time>
      </trkpt>
      <trkpt lat="45.21252" lon="5.73234">
        <ele>702.477</ele>
        <time>2021-08-07T07:37:02Z</time>
      </trkpt>
      <trkpt lat="45.21243" lon="5.73227">
        <ele>699.314</ele>
        <time>2021-08-07T07:37:08Z</time>
      </trkpt>
      <trkpt lat="45.2124" lon="5.73225">
        <ele>698.627</ele>
        <time>2021-08-07T07:37:12Z</time>
      </trkpt>
      <trkpt lat="45.21239" lon="5.73225">
        <ele>698.556</ele>
        <time>2021-08-07T07:37:18Z</time>
      </trkpt>
      <trkpt lat="45.21236" lon="5.73224">
        <ele>698.04</ele>
        <time>2021-08-07T07:37:21Z</time>
      </trkpt>
      <trkpt lat="45.21223" lon="5.73213">
        <ele>696.724</ele>
        <time>2021-08-07T07:37:30Z</time>
      </trkpt>
      <trkpt lat="45.21219" lon="5.73205">
        <ele>695.388</ele>
        <time>2021-08-07T07:37:34Z</time>
      </trkpt>
      <trkpt lat="45.21215" lon="5.73201">
        <ele>693.935</ele>
        <time>2021-08-07T07:37:37Z</time>
      </trkpt>
      <trkpt lat="45.21206" lon="5.73192">
        <ele>691.665</ele>
        <time>2021-08-07T07:37:43Z</time>
      </trkpt>
      <trkpt lat="45.21203" lon="5.73187">
        <ele>689.911</ele>
        <time>2021-08-07T07:37:46Z</time>
      </trkpt>
      <trkpt lat="45.21201" lon="5.7318">
        <ele>688.777</ele>
        <time>2021-08-07T07:37:49Z</time>
      </trkpt>
      <trkpt lat="45.21195" lon="5.73174">
        <ele>687.482</ele>
        <time>2021-08-07T07:37:53Z</time>
      </trkpt>
      <trkpt lat="45.21183" lon="5.7316">
        <ele>684.151</ele>
        <time>2021-08-07T07:38:01Z</time>
      </trkpt>
      <trkpt lat="45.21169" lon="5.73154">
        <ele>681.56</ele>
        <time>2021-08-07T07:38:07Z</time>
      </trkpt>
      <trkpt lat="45.21169" lon="5.73152">
        <ele>680.885</ele>
        <time>2021-08-07T07:38:08Z</time>
      </trkpt>
      <trkpt lat="45.21154" lon="5.7314">
        <ele>679.219</ele>
        <time>2021-08-07T07:38:16Z</time>
      </trkpt>
      <trkpt lat="45.21152" lon="5.73137">
        <ele>678.838</ele>
        <time>2021-08-07T07:38:17Z</time>
      </trkpt>
      <trkpt lat="45.21143" lon="5.73131">
        <ele>676.869</ele>
        <time>2021-08-07T07:38:23Z</time>
      </trkpt>
      <trkpt lat="45.21131" lon="5.73136">
        <ele>673.443</ele>
        <time>2021-08-07T07:38:29Z</time>
      </trkpt>
      <trkpt lat="45.21129" lon="5.73136">
        <ele>672.831</ele>
        <time>2021-08-07T07:38:30Z</time>
      </trkpt>
      <trkpt lat="45.21121" lon="5.73139">
        <ele>670.895</ele>
        <time>2021-08-07T07:38:34Z</time>
      </trkpt>
      <trkpt lat="45.21114" lon="5.73143">
        <ele>669.091</ele>
        <time>2021-08-07T07:38:41Z</time>
      </trkpt>
      <trkpt lat="45.21116" lon="5.73141">
        <ele>668.691</ele>
        <time>2021-08-07T07:38:43Z</time>
      </trkpt>
      <trkpt lat="45.21125" lon="5.73134">
        <ele>666.233</ele>
        <time>2021-08-07T07:38:48Z</time>
      </trkpt>
      <trkpt lat="45.2113" lon="5.73133">
        <ele>664.932</ele>
        <time>2021-08-07T07:38:51Z</time>
      </trkpt>
      <trkpt lat="45.21133" lon="5.73134">
        <ele>663.508</ele>
        <time>2021-08-07T07:38:54Z</time>
      </trkpt>
      <trkpt lat="45.21133" lon="5.73137">
        <ele>662.594</ele>
        <time>2021-08-07T07:38:56Z</time>
      </trkpt>
      <trkpt lat="45.21128" lon="5.73143">
        <ele>660.952</ele>
        <time>2021-08-07T07:39:00Z</time>
      </trkpt>
      <trkpt lat="45.21113" lon="5.73155">
        <ele>659.49</ele>
        <time>2021-08-07T07:39:08Z</time>
      </trkpt>
      <trkpt lat="45.21107" lon="5.73158">
        <ele>656.962</ele>
        <time>2021-08-07T07:39:12Z</time>
      </trkpt>
      <trkpt lat="45.21102" lon="5.73155">
        <ele>655.351</ele>
        <time>2021-08-07T07:39:15Z</time>
      </trkpt>
      <trkpt lat="45.21098" lon="5.7315">
        <ele>653.764</ele>
        <time>2021-08-07T07:39:18Z</time>
      </trkpt>
      <trkpt lat="45.21096" lon="5.73145">
        <ele>653.001</ele>
        <time>2021-08-07T07:39:20Z</time>
      </trkpt>
      <trkpt lat="45.21083" lon="5.73134">
        <ele>652.342</ele>
        <time>2021-08-07T07:39:27Z</time>
      </trkpt>
      <trkpt lat="45.21081" lon="5.7313">
        <ele>652.276</ele>
        <time>2021-08-07T07:39:29Z</time>
      </trkpt>
      <trkpt lat="45.21073" lon="5.73125">
        <ele>651.783</ele>
        <time>2021-08-07T07:39:34Z</time>
      </trkpt>
      <trkpt lat="45.21063" lon="5.73128">
        <ele>649.902</ele>
        <time>2021-08-07T07:39:40Z</time>
      </trkpt>
      <trkpt lat="45.21057" lon="5.73128">
        <ele>648.165</ele>
        <time>2021-08-07T07:39:43Z</time>
      </trkpt>
      <trkpt lat="45.21048" lon="5.73126">
        <ele>646.232</ele>
        <time>2021-08-07T07:39:48Z</time>
      </trkpt>
      <trkpt lat="45.21039" lon="5.73123">
        <ele>644.647</ele>
        <time>2021-08-07T07:39:53Z</time>
      </trkpt>
      <trkpt lat="45.2103" lon="5.73114">
        <ele>642.578</ele>
        <time>2021-08-07T07:39:58Z</time>
      </trkpt>
      <trkpt lat="45.21019" lon="5.73113">
        <ele>642.843</ele>
        <time>2021-08-07T07:40:05Z</time>
      </trkpt>
      <trkpt lat="45.21016" lon="5.73119">
        <ele>641.32</ele>
        <time>2021-08-07T07:40:09Z</time>
      </trkpt>
      <trkpt lat="45.21015" lon="5.7312">
        <ele>641.278</ele>
        <time>2021-08-07T07:40:10Z</time>
      </trkpt>
      <trkpt lat="45.21008" lon="5.73126">
        <ele>639.178</ele>
        <time>2021-08-07T07:40:16Z</time>
      </trkpt>
      <trkpt lat="45.20997" lon="5.73131">
        <ele>636.823</ele>
        <time>2021-08-07T07:40:22Z</time>
      </trkpt>
      <trkpt lat="45.20993" lon="5.73134">
        <ele>636.753</ele>
        <time>2021-08-07T07:40:24Z</time>
      </trkpt>
      <trkpt lat="45.20989" lon="5.73141">
        <ele>635.254</ele>
        <time>2021-08-07T07:40:27Z</time>
      </trkpt>
      <trkpt lat="45.20985" lon="5.73145">
        <ele>635.033</ele>
        <time>2021-08-07T07:40:33Z</time>
      </trkpt>
      <trkpt lat="45.20985" lon="5.73145">
        <ele>631.926</ele>
        <time>2021-08-07T07:40:35Z</time>
      </trkpt>
      <trkpt lat="45.20984" lon="5.73155">
        <ele>636.3</ele>
        <time>2021-08-07T07:40:54Z</time>
      </trkpt>
      <trkpt lat="45.20984" lon="5.73154">
        <ele>633.398</ele>
        <time>2021-08-07T07:41:01Z</time>
      </trkpt>
      <trkpt lat="45.20993" lon="5.73148">
        <ele>632.695</ele>
        <time>2021-08-07T07:41:07Z</time>
      </trkpt>
      <trkpt lat="45.21001" lon="5.73141">
        <ele>630.75</ele>
        <time>2021-08-07T07:41:12Z</time>
      </trkpt>
      <trkpt lat="45.21008" lon="5.73137">
        <ele>629.207</ele>
        <time>2021-08-07T07:41:15Z</time>
      </trkpt>
      <trkpt lat="45.2102" lon="5.7313">
        <ele>627.091</ele>
        <time>2021-08-07T07:41:21Z</time>
      </trkpt>
      <trkpt lat="45.21026" lon="5.73129">
        <ele>627.333</ele>
        <time>2021-08-07T07:41:26Z</time>
      </trkpt>
      <trkpt lat="45.21025" lon="5.73135">
        <ele>626.28</ele>
        <time>2021-08-07T07:41:28Z</time>
      </trkpt>
      <trkpt lat="45.21027" lon="5.73142">
        <ele>625.413</ele>
        <time>2021-08-07T07:41:31Z</time>
      </trkpt>
      <trkpt lat="45.21035" lon="5.73148">
        <ele>623.119</ele>
        <time>2021-08-07T07:41:37Z</time>
      </trkpt>
      <trkpt lat="45.21044" lon="5.73155">
        <ele>621.242</ele>
        <time>2021-08-07T07:41:43Z</time>
      </trkpt>
      <trkpt lat="45.21053" lon="5.73162">
        <ele>620.24</ele>
        <time>2021-08-07T07:41:49Z</time>
      </trkpt>
      <trkpt lat="45.21056" lon="5.73161">
        <ele>620.497</ele>
        <time>2021-08-07T07:41:50Z</time>
      </trkpt>
      <trkpt lat="45.21064" lon="5.73165">
        <ele>618.581</ele>
        <time>2021-08-07T07:41:55Z</time>
      </trkpt>
      <trkpt lat="45.21071" lon="5.73181">
        <ele>615.578</ele>
        <time>2021-08-07T07:42:02Z</time>
      </trkpt>
      <trkpt lat="45.21076" lon="5.73189">
        <ele>614.499</ele>
        <time>2021-08-07T07:42:06Z</time>
      </trkpt>
      <trkpt lat="45.21078" lon="5.73192">
        <ele>613.42</ele>
        <time>2021-08-07T07:42:07Z</time>
      </trkpt>
      <trkpt lat="45.21082" lon="5.73205">
        <ele>611.408</ele>
        <time>2021-08-07T07:42:12Z</time>
      </trkpt>
      <trkpt lat="45.21087" lon="5.73212">
        <ele>610.644</ele>
        <time>2021-08-07T07:42:17Z</time>
      </trkpt>
      <trkpt lat="45.21087" lon="5.73213">
        <ele>609.781</ele>
        <time>2021-08-07T07:42:18Z</time>
      </trkpt>
      <trkpt lat="45.21077" lon="5.73212">
        <ele>607.397</ele>
        <time>2021-08-07T07:42:25Z</time>
      </trkpt>
      <trkpt lat="45.21063" lon="5.732">
        <ele>605.069</ele>
        <time>2021-08-07T07:42:32Z</time>
      </trkpt>
      <trkpt lat="45.21059" lon="5.73193">
        <ele>603.138</ele>
        <time>2021-08-07T07:42:35Z</time>
      </trkpt>
      <trkpt lat="45.21053" lon="5.73195">
        <ele>602.9</ele>
        <time>2021-08-07T07:42:38Z</time>
      </trkpt>
      <trkpt lat="45.21051" lon="5.73196">
        <ele>601.92</ele>
        <time>2021-08-07T07:42:40Z</time>
      </trkpt>
      <trkpt lat="45.21042" lon="5.732">
        <ele>601.05</ele>
        <time>2021-08-07T07:42:44Z</time>
      </trkpt>
      <trkpt lat="45.21029" lon="5.73189">
        <ele>600.17</ele>
        <time>2021-08-07T07:42:51Z</time>
      </trkpt>
      <trkpt lat="45.21028" lon="5.73186">
        <ele>599.993</ele>
        <time>2021-08-07T07:42:52Z</time>
      </trkpt>
      <trkpt lat="45.21025" lon="5.73179">
        <ele>598.533</ele>
        <time>2021-08-07T07:42:55Z</time>
      </trkpt>
      <trkpt lat="45.21022" lon="5.73175">
        <ele>598.139</ele>
        <time>2021-08-07T07:42:59Z</time>
      </trkpt>
      <trkpt lat="45.21018" lon="5.73175">
        <ele>597.148</ele>
        <time>2021-08-07T07:43:01Z</time>
      </trkpt>
      <trkpt lat="45.21011" lon="5.7318">
        <ele>594.79</ele>
        <time>2021-08-07T07:43:06Z</time>
      </trkpt>
      <trkpt lat="45.21009" lon="5.73182">
        <ele>594.093</ele>
        <time>2021-08-07T07:43:07Z</time>
      </trkpt>
      <trkpt lat="45.20999" lon="5.73192">
        <ele>592.124</ele>
        <time>2021-08-07T07:43:13Z</time>
      </trkpt>
      <trkpt lat="45.20988" lon="5.7321">
        <ele>589.174</ele>
        <time>2021-08-07T07:43:20Z</time>
      </trkpt>
      <trkpt lat="45.20975" lon="5.73217">
        <ele>587.521</ele>
        <time>2021-08-07T07:43:26Z</time>
      </trkpt>
      <trkpt lat="45.20977" lon="5.73218">
        <ele>586.049</ele>
        <time>2021-08-07T07:43:31Z</time>
      </trkpt>
      <trkpt lat="45.20985" lon="5.73217">
        <ele>584.382</ele>
        <time>2021-08-07T07:43:37Z</time>
      </trkpt>
      <trkpt lat="45.20981" lon="5.7322">
        <ele>583.5</ele>
        <time>2021-08-07T07:43:41Z</time>
      </trkpt>
      <trkpt lat="45.20977" lon="5.73222">
        <ele>582.614</ele>
        <time>2021-08-07T07:43:44Z</time>
      </trkpt>
      <trkpt lat="45.20965" lon="5.73219">
        <ele>580.369</ele>
        <time>2021-08-07T07:43:51Z</time>
      </trkpt>
      <trkpt lat="45.20957" lon="5.73224">
        <ele>578.722</ele>
        <time>2021-08-07T07:43:55Z</time>
      </trkpt>
      <trkpt lat="45.20941" lon="5.73229">
        <ele>576.675</ele>
        <time>2021-08-07T07:44:03Z</time>
      </trkpt>
      <trkpt lat="45.20938" lon="5.73228">
        <ele>575.789</ele>
        <time>2021-08-07T07:44:05Z</time>
      </trkpt>
      <trkpt lat="45.20932" lon="5.73227">
        <ele>573.913</ele>
        <time>2021-08-07T07:44:11Z</time>
      </trkpt>
      <trkpt lat="45.20942" lon="5.73234">
        <ele>571.557</ele>
        <time>2021-08-07T07:44:18Z</time>
      </trkpt>
      <trkpt lat="45.2095" lon="5.73234">
        <ele>570.404</ele>
        <time>2021-08-07T07:44:22Z</time>
      </trkpt>
      <trkpt lat="45.20962" lon="5.73236">
        <ele>567.784</ele>
        <time>2021-08-07T07:44:29Z</time>
      </trkpt>
      <trkpt lat="45.20973" lon="5.7324">
        <ele>566.157</ele>
        <time>2021-08-07T07:44:34Z</time>
      </trkpt>
      <trkpt lat="45.20984" lon="5.73245">
        <ele>563.875</ele>
        <time>2021-08-07T07:44:41Z</time>
      </trkpt>
      <trkpt lat="45.20985" lon="5.73246">
        <ele>564.009</ele>
        <time>2021-08-07T07:44:42Z</time>
      </trkpt>
      <trkpt lat="45.20977" lon="5.73254">
        <ele>561.137</ele>
        <time>2021-08-07T07:44:49Z</time>
      </trkpt>
      <trkpt lat="45.20962" lon="5.73257">
        <ele>559.506</ele>
        <time>2021-08-07T07:44:58Z</time>
      </trkpt>
      <trkpt lat="45.20952" lon="5.73263">
        <ele>557.308</ele>
        <time>2021-08-07T07:45:04Z</time>
      </trkpt>
      <trkpt lat="45.20945" lon="5.73268">
        <ele>555.415</ele>
        <time>2021-08-07T07:45:09Z</time>
      </trkpt>
      <trkpt lat="45.20934" lon="5.73264">
        <ele>553.788</ele>
        <time>2021-08-07T07:45:16Z</time>
      </trkpt>
      <trkpt lat="45.20925" lon="5.73265">
        <ele>551.372</ele>
        <time>2021-08-07T07:45:21Z</time>
      </trkpt>
      <trkpt lat="45.20911" lon="5.73264">
        <ele>550.021</ele>
        <time>2021-08-07T07:45:29Z</time>
      </trkpt>
      <trkpt lat="45.20911" lon="5.73266">
        <ele>548.827</ele>
        <time>2021-08-07T07:45:34Z</time>
      </trkpt>
      <trkpt lat="45.20917" lon="5.73266">
        <ele>547.133</ele>
        <time>2021-08-07T07:45:38Z</time>
      </trkpt>
      <trkpt lat="45.20933" lon="5.73272">
        <ele>544.679</ele>
        <time>2021-08-07T07:45:47Z</time>
      </trkpt>
      <trkpt lat="45.20943" lon="5.73283">
        <ele>542.18</ele>
        <time>2021-08-07T07:45:54Z</time>
      </trkpt>
      <trkpt lat="45.20944" lon="5.73286">
        <ele>541.406</ele>
        <time>2021-08-07T07:45:56Z</time>
      </trkpt>
      <trkpt lat="45.20956" lon="5.73287">
        <ele>538.91</ele>
        <time>2021-08-07T07:46:02Z</time>
      </trkpt>
      <trkpt lat="45.20957" lon="5.73289">
        <ele>538.685</ele>
        <time>2021-08-07T07:46:03Z</time>
      </trkpt>
      <trkpt lat="45.20967" lon="5.7329">
        <ele>537.025</ele>
        <time>2021-08-07T07:46:09Z</time>
      </trkpt>
      <trkpt lat="45.20972" lon="5.73294">
        <ele>535.819</ele>
        <time>2021-08-07T07:46:13Z</time>
      </trkpt>
      <trkpt lat="45.20981" lon="5.73297">
        <ele>534.805</ele>
        <time>2021-08-07T07:46:19Z</time>
      </trkpt>
      <trkpt lat="45.20987" lon="5.733">
        <ele>533.203</ele>
        <time>2021-08-07T07:46:24Z</time>
      </trkpt>
      <trkpt lat="45.20984" lon="5.73302">
        <ele>532.578</ele>
        <time>2021-08-07T07:46:26Z</time>
      </trkpt>
      <trkpt lat="45.20977" lon="5.73305">
        <ele>531.464</ele>
        <time>2021-08-07T07:46:32Z</time>
      </trkpt>
      <trkpt lat="45.20968" lon="5.73305">
        <ele>529.841</ele>
        <time>2021-08-07T07:46:39Z</time>
      </trkpt>
      <trkpt lat="45.20963" lon="5.73306">
        <ele>528.123</ele>
        <time>2021-08-07T07:46:43Z</time>
      </trkpt>
      <trkpt lat="45.20954" lon="5.73313">
        <ele>526.784</ele>
        <time>2021-08-07T07:46:48Z</time>
      </trkpt>
      <trkpt lat="45.20939" lon="5.73318">
        <ele>523.799</ele>
        <time>2021-08-07T07:46:56Z</time>
      </trkpt>
      <trkpt lat="45.20925" lon="5.73313">
        <ele>521.428</ele>
        <time>2021-08-07T07:47:03Z</time>
      </trkpt>
      <trkpt lat="45.2091" lon="5.73313">
        <ele>519.52</ele>
        <time>2021-08-07T07:47:10Z</time>
      </trkpt>
      <trkpt lat="45.20897" lon="5.73316">
        <ele>517.456</ele>
        <time>2021-08-07T07:47:16Z</time>
      </trkpt>
      <trkpt lat="45.20887" lon="5.7332">
        <ele>515.701</ele>
        <time>2021-08-07T07:47:21Z</time>
      </trkpt>
      <trkpt lat="45.20874" lon="5.7332">
        <ele>513.197</ele>
        <time>2021-08-07T07:47:28Z</time>
      </trkpt>
      <trkpt lat="45.20864" lon="5.73316">
        <ele>511.842</ele>
        <time>2021-08-07T07:47:34Z</time>
      </trkpt>
      <trkpt lat="45.2086" lon="5.73312">
        <ele>510.038</ele>
        <time>2021-08-07T07:47:37Z</time>
      </trkpt>
      <trkpt lat="45.20859" lon="5.73311">
        <ele>509.375</ele>
        <time>2021-08-07T07:47:38Z</time>
      </trkpt>
      <trkpt lat="45.20856" lon="5.73312">
        <ele>508.648</ele>
        <time>2021-08-07T07:47:44Z</time>
      </trkpt>
      <trkpt lat="45.2086" lon="5.73316">
        <ele>508.168</ele>
        <time>2021-08-07T07:47:48Z</time>
      </trkpt>
      <trkpt lat="45.20869" lon="5.73323">
        <ele>506.52</ele>
        <time>2021-08-07T07:47:54Z</time>
      </trkpt>
      <trkpt lat="45.20875" lon="5.73323">
        <ele>505.068</ele>
        <time>2021-08-07T07:47:57Z</time>
      </trkpt>
      <trkpt lat="45.20888" lon="5.73326">
        <ele>502.262</ele>
        <time>2021-08-07T07:48:07Z</time>
      </trkpt>
      <trkpt lat="45.20904" lon="5.73328">
        <ele>501.402</ele>
        <time>2021-08-07T07:48:13Z</time>
      </trkpt>
      <trkpt lat="45.20906" lon="5.7333">
        <ele>500.968</ele>
        <time>2021-08-07T07:48:14Z</time>
      </trkpt>
      <trkpt lat="45.20925" lon="5.73338">
        <ele>498.952</ele>
        <time>2021-08-07T07:48:21Z</time>
      </trkpt>
      <trkpt lat="45.20939" lon="5.73344">
        <ele>497.854</ele>
        <time>2021-08-07T07:48:27Z</time>
      </trkpt>
      <trkpt lat="45.20951" lon="5.7335">
        <ele>497.126</ele>
        <time>2021-08-07T07:48:32Z</time>
      </trkpt>
      <trkpt lat="45.20957" lon="5.73353">
        <ele>496.737</ele>
        <time>2021-08-07T07:48:35Z</time>
      </trkpt>
      <trkpt lat="45.20974" lon="5.73362">
        <ele>497.038</ele>
        <time>2021-08-07T07:48:42Z</time>
      </trkpt>
      <trkpt lat="45.20982" lon="5.73362">
        <ele>495.068</ele>
        <time>2021-08-07T07:48:46Z</time>
      </trkpt>
      <trkpt lat="45.20994" lon="5.73351">
        <ele>493.612</ele>
        <time>2021-08-07T07:48:52Z</time>
      </trkpt>
      <trkpt lat="45.21009" lon="5.73352">
        <ele>493.622</ele>
        <time>2021-08-07T07:48:58Z</time>
      </trkpt>
      <trkpt lat="45.21014" lon="5.73358">
        <ele>493.248</ele>
        <time>2021-08-07T07:49:01Z</time>
      </trkpt>
      <trkpt lat="45.21026" lon="5.73363">
        <ele>493.472</ele>
        <time>2021-08-07T07:49:05Z</time>
      </trkpt>
      <trkpt lat="45.21042" lon="5.73374">
        <ele>493.809</ele>
        <time>2021-08-07T07:49:12Z</time>
      </trkpt>
      <trkpt lat="45.21053" lon="5.73378">
        <ele>494.403</ele>
        <time>2021-08-07T07:49:17Z</time>
      </trkpt>
      <trkpt lat="45.21056" lon="5.73396">
        <ele>493.129</ele>
        <time>2021-08-07T07:49:23Z</time>
      </trkpt>
      <trkpt lat="45.21057" lon="5.734">
        <ele>493.06</ele>
        <time>2021-08-07T07:49:25Z</time>
      </trkpt>
      <trkpt lat="45.21065" lon="5.73403">
        <ele>492.441</ele>
        <time>2021-08-07T07:49:29Z</time>
      </trkpt>
      <trkpt lat="45.21066" lon="5.73412">
        <ele>490.955</ele>
        <time>2021-08-07T07:49:32Z</time>
      </trkpt>
      <trkpt lat="45.21066" lon="5.73431">
        <ele>490.1</ele>
        <time>2021-08-07T07:49:38Z</time>
      </trkpt>
      <trkpt lat="45.21069" lon="5.73436">
        <ele>490.579</ele>
        <time>2021-08-07T07:49:40Z</time>
      </trkpt>
      <trkpt lat="45.21073" lon="5.73438">
        <ele>491.018</ele>
        <time>2021-08-07T07:49:42Z</time>
      </trkpt>
      <trkpt lat="45.21089" lon="5.73443">
        <ele>490.762</ele>
        <time>2021-08-07T07:49:49Z</time>
      </trkpt>
      <trkpt lat="45.21092" lon="5.73444">
        <ele>490.614</ele>
        <time>2021-08-07T07:49:50Z</time>
      </trkpt>
      <trkpt lat="45.21103" lon="5.73458">
        <ele>490.703</ele>
        <time>2021-08-07T07:49:56Z</time>
      </trkpt>
      <trkpt lat="45.21115" lon="5.7347">
        <ele>490.963</ele>
        <time>2021-08-07T07:50:03Z</time>
      </trkpt>
      <trkpt lat="45.2111" lon="5.73493">
        <ele>488.445</ele>
        <time>2021-08-07T07:50:11Z</time>
      </trkpt>
      <trkpt lat="45.21106" lon="5.73513">
        <ele>487.407</ele>
        <time>2021-08-07T07:50:17Z</time>
      </trkpt>
      <trkpt lat="45.21104" lon="5.7352">
        <ele>487.39</ele>
        <time>2021-08-07T07:50:19Z</time>
      </trkpt>
      <trkpt lat="45.21107" lon="5.73537">
        <ele>486.91</ele>
        <time>2021-08-07T07:50:25Z</time>
      </trkpt>
      <trkpt lat="45.21113" lon="5.73546">
        <ele>486.459</ele>
        <time>2021-08-07T07:50:29Z</time>
      </trkpt>
      <trkpt lat="45.21122" lon="5.73558">
        <ele>485.867</ele>
        <time>2021-08-07T07:50:34Z</time>
      </trkpt>
      <trkpt lat="45.2114" lon="5.73563">
        <ele>485.273</ele>
        <time>2021-08-07T07:50:40Z</time>
      </trkpt>
      <trkpt lat="45.21147" lon="5.73566">
        <ele>484.899</ele>
        <time>2021-08-07T07:50:42Z</time>
      </trkpt>
      <trkpt lat="45.2116" lon="5.7358">
        <ele>484.796</ele>
        <time>2021-08-07T07:50:48Z</time>
      </trkpt>
      <trkpt lat="45.21168" lon="5.73596">
        <ele>484.204</ele>
        <time>2021-08-07T07:50:53Z</time>
      </trkpt>
      <trkpt lat="45.21173" lon="5.7361">
        <ele>484.065</ele>
        <time>2021-08-07T07:50:57Z</time>
      </trkpt>
      <trkpt lat="45.2118" lon="5.73628">
        <ele>484.038</ele>
        <time>2021-08-07T07:51:02Z</time>
      </trkpt>
      <trkpt lat="45.21189" lon="5.73651">
        <ele>483.294</ele>
        <time>2021-08-07T07:51:09Z</time>
      </trkpt>
      <trkpt lat="45.21197" lon="5.7366">
        <ele>484.169</ele>
        <time>2021-08-07T07:51:14Z</time>
      </trkpt>
      <trkpt lat="45.21195" lon="5.73672">
        <ele>480.004</ele>
        <time>2021-08-07T07:51:20Z</time>
      </trkpt>
      <trkpt lat="45.21194" lon="5.73676">
        <ele>478.675</ele>
        <time>2021-08-07T07:51:22Z</time>
      </trkpt>
      <trkpt lat="45.21194" lon="5.7368">
        <ele>478.315</ele>
        <time>2021-08-07T07:51:24Z</time>
      </trkpt>
      <trkpt lat="45.21197" lon="5.73684">
        <ele>477.03</ele>
        <time>2021-08-07T07:51:27Z</time>
      </trkpt>
      <trkpt lat="45.21199" lon="5.7369">
        <ele>475.962</ele>
        <time>2021-08-07T07:51:30Z</time>
      </trkpt>
      <trkpt lat="45.212" lon="5.73713">
        <ele>471.954</ele>
        <time>2021-08-07T07:51:39Z</time>
      </trkpt>
      <trkpt lat="45.21201" lon="5.73715">
        <ele>471.659</ele>
        <time>2021-08-07T07:51:40Z</time>
      </trkpt>
      <trkpt lat="45.21198" lon="5.73738">
        <ele>468.849</ele>
        <time>2021-08-07T07:51:49Z</time>
      </trkpt>
      <trkpt lat="45.21197" lon="5.73753">
        <ele>466.839</ele>
        <time>2021-08-07T07:51:53Z</time>
      </trkpt>
      <trkpt lat="45.21199" lon="5.73766">
        <ele>464.562</ele>
        <time>2021-08-07T07:51:57Z</time>
      </trkpt>
      <trkpt lat="45.21202" lon="5.73783">
        <ele>461.772</ele>
        <time>2021-08-07T07:52:04Z</time>
      </trkpt>
      <trkpt lat="45.21201" lon="5.73799">
        <ele>460.062</ele>
        <time>2021-08-07T07:52:11Z</time>
      </trkpt>
      <trkpt lat="45.212" lon="5.73801">
        <ele>459.322</ele>
        <time>2021-08-07T07:52:12Z</time>
      </trkpt>
      <trkpt lat="45.21201" lon="5.7381">
        <ele>457.842</ele>
        <time>2021-08-07T07:52:16Z</time>
      </trkpt>
      <trkpt lat="45.21197" lon="5.7382">
        <ele>455.392</ele>
        <time>2021-08-07T07:52:21Z</time>
      </trkpt>
      <trkpt lat="45.21195" lon="5.73824">
        <ele>454.244</ele>
        <time>2021-08-07T07:52:23Z</time>
      </trkpt>
      <trkpt lat="45.21189" lon="5.7384">
        <ele>452.453</ele>
        <time>2021-08-07T07:52:31Z</time>
      </trkpt>
      <trkpt lat="45.21183" lon="5.73847">
        <ele>450.107</ele>
        <time>2021-08-07T07:52:37Z</time>
      </trkpt>
      <trkpt lat="45.21181" lon="5.73853">
        <ele>448.052</ele>
        <time>2021-08-07T07:52:43Z</time>
      </trkpt>
      <trkpt lat="45.21178" lon="5.73855">
        <ele>447.003</ele>
        <time>2021-08-07T07:52:45Z</time>
      </trkpt>
      <trkpt lat="45.21172" lon="5.73857">
        <ele>443.98</ele>
        <time>2021-08-07T07:52:52Z</time>
      </trkpt>
      <trkpt lat="45.21168" lon="5.7385">
        <ele>441.738</ele>
        <time>2021-08-07T07:52:57Z</time>
      </trkpt>
      <trkpt lat="45.21159" lon="5.73852">
        <ele>437.891</ele>
        <time>2021-08-07T07:53:08Z</time>
      </trkpt>
      <trkpt lat="45.21158" lon="5.73852">
        <ele>437.891</ele>
        <time>2021-08-07T07:53:09Z</time>
      </trkpt>
      <trkpt lat="45.21157" lon="5.73856">
        <ele>436.467</ele>
        <time>2021-08-07T07:53:13Z</time>
      </trkpt>
      <trkpt lat="45.21158" lon="5.73868">
        <ele>433.258</ele>
        <time>2021-08-07T07:53:20Z</time>
      </trkpt>
      <trkpt lat="45.2116" lon="5.73874">
        <ele>431.913</ele>
        <time>2021-08-07T07:53:23Z</time>
      </trkpt>
      <trkpt lat="45.2116" lon="5.73878">
        <ele>430.718</ele>
        <time>2021-08-07T07:53:25Z</time>
      </trkpt>
      <trkpt lat="45.21163" lon="5.73887">
        <ele>429.248</ele>
        <time>2021-08-07T07:53:31Z</time>
      </trkpt>
      <trkpt lat="45.21161" lon="5.73901">
        <ele>427.514</ele>
        <time>2021-08-07T07:53:38Z</time>
      </trkpt>
      <trkpt lat="45.21162" lon="5.73911">
        <ele>423.906</ele>
        <time>2021-08-07T07:53:43Z</time>
      </trkpt>
      <trkpt lat="45.21162" lon="5.73921">
        <ele>422.215</ele>
        <time>2021-08-07T07:53:48Z</time>
      </trkpt>
      <trkpt lat="45.21163" lon="5.73931">
        <ele>421.799</ele>
        <time>2021-08-07T07:53:52Z</time>
      </trkpt>
      <trkpt lat="45.21167" lon="5.73946">
        <ele>418.857</ele>
        <time>2021-08-07T07:53:58Z</time>
      </trkpt>
      <trkpt lat="45.21168" lon="5.73947">
        <ele>418.858</ele>
        <time>2021-08-07T07:53:59Z</time>
      </trkpt>
      <trkpt lat="45.21172" lon="5.73967">
        <ele>416.467</ele>
        <time>2021-08-07T07:54:06Z</time>
      </trkpt>
      <trkpt lat="45.21173" lon="5.7398">
        <ele>415.373</ele>
        <time>2021-08-07T07:54:10Z</time>
      </trkpt>
      <trkpt lat="45.21173" lon="5.74003">
        <ele>414.666</ele>
        <time>2021-08-07T07:54:16Z</time>
      </trkpt>
      <trkpt lat="45.21177" lon="5.74012">
        <ele>414.226</ele>
        <time>2021-08-07T07:54:19Z</time>
      </trkpt>
      <trkpt lat="45.21189" lon="5.74035">
        <ele>413.231</ele>
        <time>2021-08-07T07:54:27Z</time>
      </trkpt>
      <trkpt lat="45.21188" lon="5.74052">
        <ele>411.498</ele>
        <time>2021-08-07T07:54:34Z</time>
      </trkpt>
      <trkpt lat="45.21187" lon="5.74059">
        <ele>409.946</ele>
        <time>2021-08-07T07:54:38Z</time>
      </trkpt>
      <trkpt lat="45.21186" lon="5.74074">
        <ele>407.188</ele>
        <time>2021-08-07T07:54:46Z</time>
      </trkpt>
      <trkpt lat="45.21184" lon="5.74087">
        <ele>405.12</ele>
        <time>2021-08-07T07:54:52Z</time>
      </trkpt>
      <trkpt lat="45.21183" lon="5.74101">
        <ele>401.782</ele>
        <time>2021-08-07T07:55:00Z</time>
      </trkpt>
      <trkpt lat="45.21182" lon="5.74108">
        <ele>400.09</ele>
        <time>2021-08-07T07:55:04Z</time>
      </trkpt>
      <trkpt lat="45.21177" lon="5.74124">
        <ele>397.848</ele>
        <time>2021-08-07T07:55:11Z</time>
      </trkpt>
      <trkpt lat="45.2118" lon="5.74139">
        <ele>396.867</ele>
        <time>2021-08-07T07:55:16Z</time>
      </trkpt>
      <trkpt lat="45.21191" lon="5.74154">
        <ele>396.329</ele>
        <time>2021-08-07T07:55:22Z</time>
      </trkpt>
      <trkpt lat="45.21206" lon="5.74175">
        <ele>394.263</ele>
        <time>2021-08-07T07:55:30Z</time>
      </trkpt>
      <trkpt lat="45.2122" lon="5.74185">
        <ele>392.815</ele>
        <time>2021-08-07T07:55:36Z</time>
      </trkpt>
      <trkpt lat="45.21233" lon="5.74193">
        <ele>391.192</ele>
        <time>2021-08-07T07:55:41Z</time>
      </trkpt>
      <trkpt lat="45.21252" lon="5.74197">
        <ele>390.948</ele>
        <time>2021-08-07T07:55:48Z</time>
      </trkpt>
      <trkpt lat="45.2127" lon="5.74208">
        <ele>391.331</ele>
        <time>2021-08-07T07:55:55Z</time>
      </trkpt>
      <trkpt lat="45.21284" lon="5.74219">
        <ele>391.946</ele>
        <time>2021-08-07T07:56:00Z</time>
      </trkpt>
      <trkpt lat="45.21298" lon="5.7424">
        <ele>392.714</ele>
        <time>2021-08-07T07:56:07Z</time>
      </trkpt>
      <trkpt lat="45.21307" lon="5.74259">
        <ele>392.461</ele>
        <time>2021-08-07T07:56:13Z</time>
      </trkpt>
      <trkpt lat="45.21314" lon="5.74286">
        <ele>391.914</ele>
        <time>2021-08-07T07:56:20Z</time>
      </trkpt>
      <trkpt lat="45.21321" lon="5.74312">
        <ele>391.464</ele>
        <time>2021-08-07T07:56:27Z</time>
      </trkpt>
      <trkpt lat="45.21328" lon="5.74336">
        <ele>391.328</ele>
        <time>2021-08-07T07:56:33Z</time>
      </trkpt>
      <trkpt lat="45.21334" lon="5.74358">
        <ele>389.815</ele>
        <time>2021-08-07T07:56:39Z</time>
      </trkpt>
      <trkpt lat="45.21342" lon="5.74387">
        <ele>388.473</ele>
        <time>2021-08-07T07:56:48Z</time>
      </trkpt>
      <trkpt lat="45.21345" lon="5.74395">
        <ele>387.579</ele>
        <time>2021-08-07T07:56:53Z</time>
      </trkpt>
      <trkpt lat="45.21342" lon="5.74397">
        <ele>386.979</ele>
        <time>2021-08-07T07:57:21Z</time>
      </trkpt>
      <trkpt lat="45.21335" lon="5.74387">
        <ele>387.012</ele>
        <time>2021-08-07T07:57:28Z</time>
      </trkpt>
      <trkpt lat="45.21337" lon="5.74387">
        <ele>386.578</ele>
        <time>2021-08-07T07:57:38Z</time>
      </trkpt>
      <trkpt lat="45.21337" lon="5.74386">
        <ele>387.166</ele>
        <time>2021-08-07T07:58:01Z</time>
      </trkpt>
      <trkpt lat="45.21334" lon="5.74382">
        <ele>386.362</ele>
        <time>2021-08-07T07:58:11Z</time>
      </trkpt>
      <trkpt lat="45.21338" lon="5.74382">
        <ele>387.174</ele>
        <time>2021-08-07T07:58:13Z</time>
      </trkpt>
      <trkpt lat="45.21342" lon="5.74374">
        <ele>386.814</ele>
        <time>2021-08-07T07:58:22Z</time>
      </trkpt>
      <trkpt lat="45.21347" lon="5.74362">
        <ele>386.914</ele>
        <time>2021-08-07T07:58:33Z</time>
      </trkpt>
      <trkpt lat="45.21341" lon="5.74365">
        <ele>386.157</ele>
        <time>2021-08-07T07:58:42Z</time>
      </trkpt>
      <trkpt lat="45.21341" lon="5.74376">
        <ele>386.391</ele>
        <time>2021-08-07T07:58:47Z</time>
      </trkpt>
      <trkpt lat="45.21341" lon="5.74371">
        <ele>386.741</ele>
        <time>2021-08-07T07:58:50Z</time>
      </trkpt>
      <trkpt lat="45.21334" lon="5.74354">
        <ele>387.941</ele>
        <time>2021-08-07T07:58:56Z</time>
      </trkpt>
      <trkpt lat="45.21329" lon="5.74335">
        <ele>390.136</ele>
        <time>2021-08-07T07:59:02Z</time>
      </trkpt>
      <trkpt lat="45.21319" lon="5.74317">
        <ele>390.033</ele>
        <time>2021-08-07T07:59:09Z</time>
      </trkpt>
      <trkpt lat="45.21315" lon="5.74301">
        <ele>390.995</ele>
        <time>2021-08-07T07:59:15Z</time>
      </trkpt>
      <trkpt lat="45.21307" lon="5.74277">
        <ele>390.893</ele>
        <time>2021-08-07T07:59:22Z</time>
      </trkpt>
      <trkpt lat="45.21304" lon="5.7426">
        <ele>391.734</ele>
        <time>2021-08-07T07:59:28Z</time>
      </trkpt>
      <trkpt lat="45.21302" lon="5.74256">
        <ele>392.023</ele>
        <time>2021-08-07T07:59:29Z</time>
      </trkpt>
      <trkpt lat="45.21294" lon="5.74233">
        <ele>391.948</ele>
        <time>2021-08-07T07:59:36Z</time>
      </trkpt>
      <trkpt lat="45.2128" lon="5.74217">
        <ele>391.475</ele>
        <time>2021-08-07T07:59:42Z</time>
      </trkpt>
      <trkpt lat="45.21264" lon="5.74201">
        <ele>390.117</ele>
        <time>2021-08-07T07:59:49Z</time>
      </trkpt>
      <trkpt lat="45.21249" lon="5.74193">
        <ele>390.339</ele>
        <time>2021-08-07T07:59:55Z</time>
      </trkpt>
      <trkpt lat="45.21233" lon="5.74187">
        <ele>390.132</ele>
        <time>2021-08-07T08:00:01Z</time>
      </trkpt>
      <trkpt lat="45.21217" lon="5.74176">
        <ele>391.657</ele>
        <time>2021-08-07T08:00:08Z</time>
      </trkpt>
      <trkpt lat="45.21203" lon="5.74165">
        <ele>392.371</ele>
        <time>2021-08-07T08:00:15Z</time>
      </trkpt>
      <trkpt lat="45.21194" lon="5.74158">
        <ele>394.662</ele>
        <time>2021-08-07T08:00:20Z</time>
      </trkpt>
      <trkpt lat="45.21179" lon="5.74136">
        <ele>395.685</ele>
        <time>2021-08-07T08:00:29Z</time>
      </trkpt>
      <trkpt lat="45.21172" lon="5.74116">
        <ele>396.757</ele>
        <time>2021-08-07T08:00:35Z</time>
      </trkpt>
      <trkpt lat="45.21179" lon="5.74103">
        <ele>398.84</ele>
        <time>2021-08-07T08:00:41Z</time>
      </trkpt>
      <trkpt lat="45.21181" lon="5.74096">
        <ele>400.768</ele>
        <time>2021-08-07T08:00:46Z</time>
      </trkpt>
      <trkpt lat="45.21181" lon="5.74091">
        <ele>402.354</ele>
        <time>2021-08-07T08:00:49Z</time>
      </trkpt>
      <trkpt lat="45.2118" lon="5.74077">
        <ele>403.518</ele>
        <time>2021-08-07T08:00:57Z</time>
      </trkpt>
      <trkpt lat="45.21183" lon="5.74068">
        <ele>405.09</ele>
        <time>2021-08-07T08:01:02Z</time>
      </trkpt>
      <trkpt lat="45.21184" lon="5.74065">
        <ele>405.381</ele>
        <time>2021-08-07T08:01:03Z</time>
      </trkpt>
      <trkpt lat="45.21183" lon="5.74059">
        <ele>406.555</ele>
        <time>2021-08-07T08:01:07Z</time>
      </trkpt>
      <trkpt lat="45.21192" lon="5.74049">
        <ele>409.301</ele>
        <time>2021-08-07T08:01:15Z</time>
      </trkpt>
      <trkpt lat="45.21193" lon="5.74048">
        <ele>409.298</ele>
        <time>2021-08-07T08:01:16Z</time>
      </trkpt>
      <trkpt lat="45.21194" lon="5.74044">
        <ele>410.647</ele>
        <time>2021-08-07T08:01:19Z</time>
      </trkpt>
      <trkpt lat="45.21196" lon="5.7404">
        <ele>411.928</ele>
        <time>2021-08-07T08:01:23Z</time>
      </trkpt>
      <trkpt lat="45.21192" lon="5.74035">
        <ele>411.954</ele>
        <time>2021-08-07T08:01:26Z</time>
      </trkpt>
      <trkpt lat="45.21185" lon="5.74024">
        <ele>412.258</ele>
        <time>2021-08-07T08:01:31Z</time>
      </trkpt>
      <trkpt lat="45.21171" lon="5.74005">
        <ele>412.777</ele>
        <time>2021-08-07T08:01:39Z</time>
      </trkpt>
      <trkpt lat="45.21167" lon="5.73998">
        <ele>412.884</ele>
        <time>2021-08-07T08:01:42Z</time>
      </trkpt>
      <trkpt lat="45.21169" lon="5.73982">
        <ele>414.579</ele>
        <time>2021-08-07T08:01:49Z</time>
      </trkpt>
      <trkpt lat="45.21171" lon="5.73964">
        <ele>415.234</ele>
        <time>2021-08-07T08:01:53Z</time>
      </trkpt>
      <trkpt lat="45.2117" lon="5.73945">
        <ele>417.159</ele>
        <time>2021-08-07T08:01:59Z</time>
      </trkpt>
      <trkpt lat="45.21166" lon="5.73942">
        <ele>417.97</ele>
        <time>2021-08-07T08:02:01Z</time>
      </trkpt>
      <trkpt lat="45.2116" lon="5.73934">
        <ele>418.977</ele>
        <time>2021-08-07T08:02:08Z</time>
      </trkpt>
      <trkpt lat="45.2116" lon="5.73928">
        <ele>419.688</ele>
        <time>2021-08-07T08:02:13Z</time>
      </trkpt>
      <trkpt lat="45.21158" lon="5.73918">
        <ele>422.539</ele>
        <time>2021-08-07T08:02:21Z</time>
      </trkpt>
      <trkpt lat="45.21157" lon="5.73911">
        <ele>423.809</ele>
        <time>2021-08-07T08:02:25Z</time>
      </trkpt>
      <trkpt lat="45.21157" lon="5.73909">
        <ele>425.291</ele>
        <time>2021-08-07T08:02:27Z</time>
      </trkpt>
      <trkpt lat="45.21157" lon="5.73902">
        <ele>427.757</ele>
        <time>2021-08-07T08:02:33Z</time>
      </trkpt>
      <trkpt lat="45.21157" lon="5.73901">
        <ele>429.298</ele>
        <time>2021-08-07T08:02:36Z</time>
      </trkpt>
      <trkpt lat="45.21152" lon="5.73884">
        <ele>432.432</ele>
        <time>2021-08-07T08:02:48Z</time>
      </trkpt>
      <trkpt lat="45.21154" lon="5.73861">
        <ele>436.031</ele>
        <time>2021-08-07T08:02:58Z</time>
      </trkpt>
      <trkpt lat="45.21161" lon="5.73849">
        <ele>438.732</ele>
        <time>2021-08-07T08:03:06Z</time>
      </trkpt>
      <trkpt lat="45.21161" lon="5.73845">
        <ele>439.918</ele>
        <time>2021-08-07T08:03:12Z</time>
      </trkpt>
      <trkpt lat="45.21164" lon="5.73841">
        <ele>440.833</ele>
        <time>2021-08-07T08:03:14Z</time>
      </trkpt>
      <trkpt lat="45.2117" lon="5.73849">
        <ele>441.824</ele>
        <time>2021-08-07T08:03:20Z</time>
      </trkpt>
      <trkpt lat="45.21178" lon="5.7385">
        <ele>444.39</ele>
        <time>2021-08-07T08:03:30Z</time>
      </trkpt>
      <trkpt lat="45.2118" lon="5.7385">
        <ele>446.69</ele>
        <time>2021-08-07T08:03:35Z</time>
      </trkpt>
      <trkpt lat="45.21185" lon="5.73841">
        <ele>447.995</ele>
        <time>2021-08-07T08:03:42Z</time>
      </trkpt>
      <trkpt lat="45.21187" lon="5.73836">
        <ele>449.987</ele>
        <time>2021-08-07T08:03:47Z</time>
      </trkpt>
      <trkpt lat="45.21191" lon="5.73824">
        <ele>452.337</ele>
        <time>2021-08-07T08:03:58Z</time>
      </trkpt>
      <trkpt lat="45.21199" lon="5.73816">
        <ele>453.875</ele>
        <time>2021-08-07T08:04:04Z</time>
      </trkpt>
      <trkpt lat="45.21198" lon="5.73808">
        <ele>455.834</ele>
        <time>2021-08-07T08:04:08Z</time>
      </trkpt>
      <trkpt lat="45.21196" lon="5.73807">
        <ele>457.599</ele>
        <time>2021-08-07T08:04:14Z</time>
      </trkpt>
      <trkpt lat="45.21199" lon="5.73802">
        <ele>459.374</ele>
        <time>2021-08-07T08:04:19Z</time>
      </trkpt>
      <trkpt lat="45.212" lon="5.73789">
        <ele>460.453</ele>
        <time>2021-08-07T08:04:25Z</time>
      </trkpt>
      <trkpt lat="45.21199" lon="5.73782">
        <ele>462.845</ele>
        <time>2021-08-07T08:04:33Z</time>
      </trkpt>
      <trkpt lat="45.21197" lon="5.73776">
        <ele>463.978</ele>
        <time>2021-08-07T08:04:37Z</time>
      </trkpt>
      <trkpt lat="45.21195" lon="5.73763">
        <ele>465.648</ele>
        <time>2021-08-07T08:04:44Z</time>
      </trkpt>
      <trkpt lat="45.21193" lon="5.73757">
        <ele>466.003</ele>
        <time>2021-08-07T08:04:47Z</time>
      </trkpt>
      <trkpt lat="45.21192" lon="5.73739">
        <ele>468.613</ele>
        <time>2021-08-07T08:04:54Z</time>
      </trkpt>
      <trkpt lat="45.21194" lon="5.73734">
        <ele>470.289</ele>
        <time>2021-08-07T08:04:57Z</time>
      </trkpt>
      <trkpt lat="45.21192" lon="5.73724">
        <ele>472.253</ele>
        <time>2021-08-07T08:05:05Z</time>
      </trkpt>
      <trkpt lat="45.21192" lon="5.73716">
        <ele>473.791</ele>
        <time>2021-08-07T08:05:10Z</time>
      </trkpt>
      <trkpt lat="45.21192" lon="5.73696">
        <ele>476.967</ele>
        <time>2021-08-07T08:05:23Z</time>
      </trkpt>
      <trkpt lat="45.21191" lon="5.73687">
        <ele>478.402</ele>
        <time>2021-08-07T08:05:28Z</time>
      </trkpt>
      <trkpt lat="45.21195" lon="5.73675">
        <ele>479.21</ele>
        <time>2021-08-07T08:05:33Z</time>
      </trkpt>
      <trkpt lat="45.21195" lon="5.73663">
        <ele>482.875</ele>
        <time>2021-08-07T08:05:39Z</time>
      </trkpt>
      <trkpt lat="45.21194" lon="5.73662">
        <ele>483.076</ele>
        <time>2021-08-07T08:05:40Z</time>
      </trkpt>
      <trkpt lat="45.21191" lon="5.73662">
        <ele>483.684</ele>
        <time>2021-08-07T08:05:43Z</time>
      </trkpt>
      <trkpt lat="45.21189" lon="5.7366">
        <ele>483.428</ele>
        <time>2021-08-07T08:05:45Z</time>
      </trkpt>
      <trkpt lat="45.21178" lon="5.73643">
        <ele>483.431</ele>
        <time>2021-08-07T08:05:53Z</time>
      </trkpt>
      <trkpt lat="45.21175" lon="5.73629">
        <ele>483.757</ele>
        <time>2021-08-07T08:05:58Z</time>
      </trkpt>
      <trkpt lat="45.21169" lon="5.73615">
        <ele>483.786</ele>
        <time>2021-08-07T08:06:03Z</time>
      </trkpt>
      <trkpt lat="45.21161" lon="5.73595">
        <ele>484.286</ele>
        <time>2021-08-07T08:06:10Z</time>
      </trkpt>
      <trkpt lat="45.21153" lon="5.73578">
        <ele>484.838</ele>
        <time>2021-08-07T08:06:17Z</time>
      </trkpt>
      <trkpt lat="45.21135" lon="5.73564">
        <ele>485.151</ele>
        <time>2021-08-07T08:06:26Z</time>
      </trkpt>
      <trkpt lat="45.2112" lon="5.73555">
        <ele>486.212</ele>
        <time>2021-08-07T08:06:34Z</time>
      </trkpt>
      <trkpt lat="45.21108" lon="5.73533">
        <ele>485.645</ele>
        <time>2021-08-07T08:06:41Z</time>
      </trkpt>
      <trkpt lat="45.21104" lon="5.73514">
        <ele>486.318</ele>
        <time>2021-08-07T08:06:46Z</time>
      </trkpt>
      <trkpt lat="45.21106" lon="5.73495">
        <ele>486.943</ele>
        <time>2021-08-07T08:06:53Z</time>
      </trkpt>
      <trkpt lat="45.21106" lon="5.73493">
        <ele>486.737</ele>
        <time>2021-08-07T08:06:54Z</time>
      </trkpt>
      <trkpt lat="45.21106" lon="5.73488">
        <ele>488.043</ele>
        <time>2021-08-07T08:06:59Z</time>
      </trkpt>
      <trkpt lat="45.21108" lon="5.7348">
        <ele>490.842</ele>
        <time>2021-08-07T08:07:06Z</time>
      </trkpt>
      <trkpt lat="45.211" lon="5.7347">
        <ele>490.47</ele>
        <time>2021-08-07T08:07:12Z</time>
      </trkpt>
      <trkpt lat="45.21098" lon="5.73468">
        <ele>490.665</ele>
        <time>2021-08-07T08:07:13Z</time>
      </trkpt>
      <trkpt lat="45.21084" lon="5.73455">
        <ele>490.289</ele>
        <time>2021-08-07T08:07:20Z</time>
      </trkpt>
      <trkpt lat="45.21072" lon="5.73444">
        <ele>490.945</ele>
        <time>2021-08-07T08:07:27Z</time>
      </trkpt>
      <trkpt lat="45.21062" lon="5.73427">
        <ele>490.278</ele>
        <time>2021-08-07T08:07:33Z</time>
      </trkpt>
      <trkpt lat="45.21063" lon="5.73404">
        <ele>490.887</ele>
        <time>2021-08-07T08:07:38Z</time>
      </trkpt>
      <trkpt lat="45.21062" lon="5.73398">
        <ele>491.265</ele>
        <time>2021-08-07T08:07:42Z</time>
      </trkpt>
      <trkpt lat="45.21057" lon="5.73393">
        <ele>491.507</ele>
        <time>2021-08-07T08:07:46Z</time>
      </trkpt>
      <trkpt lat="45.21057" lon="5.73384">
        <ele>492.541</ele>
        <time>2021-08-07T08:07:50Z</time>
      </trkpt>
      <trkpt lat="45.21054" lon="5.73379">
        <ele>493.38</ele>
        <time>2021-08-07T08:07:55Z</time>
      </trkpt>
      <trkpt lat="45.21042" lon="5.73378">
        <ele>493.38</ele>
        <time>2021-08-07T08:08:01Z</time>
      </trkpt>
      <trkpt lat="45.21033" lon="5.73372">
        <ele>492.654</ele>
        <time>2021-08-07T08:08:07Z</time>
      </trkpt>
      <trkpt lat="45.21021" lon="5.73366">
        <ele>491.908</ele>
        <time>2021-08-07T08:08:13Z</time>
      </trkpt>
      <trkpt lat="45.21015" lon="5.73358">
        <ele>492.969</ele>
        <time>2021-08-07T08:08:17Z</time>
      </trkpt>
      <trkpt lat="45.21006" lon="5.73354">
        <ele>492.803</ele>
        <time>2021-08-07T08:08:21Z</time>
      </trkpt>
      <trkpt lat="45.20992" lon="5.73356">
        <ele>493.435</ele>
        <time>2021-08-07T08:08:28Z</time>
      </trkpt>
      <trkpt lat="45.20979" lon="5.73362">
        <ele>494.808</ele>
        <time>2021-08-07T08:08:35Z</time>
      </trkpt>
      <trkpt lat="45.20977" lon="5.73363">
        <ele>495.039</ele>
        <time>2021-08-07T08:08:36Z</time>
      </trkpt>
      <trkpt lat="45.2096" lon="5.73358">
        <ele>495.277</ele>
        <time>2021-08-07T08:08:43Z</time>
      </trkpt>
      <trkpt lat="45.20944" lon="5.73354">
        <ele>496.142</ele>
        <time>2021-08-07T08:08:49Z</time>
      </trkpt>
      <trkpt lat="45.20928" lon="5.7335">
        <ele>496.656</ele>
        <time>2021-08-07T08:08:56Z</time>
      </trkpt>
      <trkpt lat="45.20921" lon="5.73347">
        <ele>497.315</ele>
        <time>2021-08-07T08:09:00Z</time>
      </trkpt>
      <trkpt lat="45.20907" lon="5.73343">
        <ele>498.141</ele>
        <time>2021-08-07T08:09:07Z</time>
      </trkpt>
      <trkpt lat="45.209" lon="5.73339">
        <ele>498.963</ele>
        <time>2021-08-07T08:09:11Z</time>
      </trkpt>
      <trkpt lat="45.20888" lon="5.73337">
        <ele>500.325</ele>
        <time>2021-08-07T08:09:18Z</time>
      </trkpt>
      <trkpt lat="45.20881" lon="5.73336">
        <ele>501.688</ele>
        <time>2021-08-07T08:09:23Z</time>
      </trkpt>
      <trkpt lat="45.20877" lon="5.73331">
        <ele>503.238</ele>
        <time>2021-08-07T08:09:28Z</time>
      </trkpt>
      <trkpt lat="45.20869" lon="5.73328">
        <ele>505.622</ele>
        <time>2021-08-07T08:09:35Z</time>
      </trkpt>
      <trkpt lat="45.20861" lon="5.73323">
        <ele>507.148</ele>
        <time>2021-08-07T08:09:41Z</time>
      </trkpt>
      <trkpt lat="45.20858" lon="5.73322">
        <ele>506.882</ele>
        <time>2021-08-07T08:09:43Z</time>
      </trkpt>
      <trkpt lat="45.20854" lon="5.73312">
        <ele>508.374</ele>
        <time>2021-08-07T08:09:48Z</time>
      </trkpt>
      <trkpt lat="45.2085" lon="5.73293">
        <ele>510.108</ele>
        <time>2021-08-07T08:09:56Z</time>
      </trkpt>
      <trkpt lat="45.20851" lon="5.73288">
        <ele>510.78</ele>
        <time>2021-08-07T08:09:58Z</time>
      </trkpt>
      <trkpt lat="45.20855" lon="5.7328">
        <ele>512.723</ele>
        <time>2021-08-07T08:10:05Z</time>
      </trkpt>
      <trkpt lat="45.20861" lon="5.73281">
        <ele>513.995</ele>
        <time>2021-08-07T08:10:11Z</time>
      </trkpt>
      <trkpt lat="45.20863" lon="5.73285">
        <ele>515.309</ele>
        <time>2021-08-07T08:10:14Z</time>
      </trkpt>
      <trkpt lat="45.20871" lon="5.73288">
        <ele>517.563</ele>
        <time>2021-08-07T08:10:23Z</time>
      </trkpt>
      <trkpt lat="45.20878" lon="5.73286">
        <ele>520.11</ele>
        <time>2021-08-07T08:10:31Z</time>
      </trkpt>
      <trkpt lat="45.20878" lon="5.73284">
        <ele>523.049</ele>
        <time>2021-08-07T08:10:38Z</time>
      </trkpt>
      <trkpt lat="45.20878" lon="5.73281">
        <ele>523.849</ele>
        <time>2021-08-07T08:10:40Z</time>
      </trkpt>
      <trkpt lat="45.20876" lon="5.73277">
        <ele>525.307</ele>
        <time>2021-08-07T08:10:47Z</time>
      </trkpt>
      <trkpt lat="45.20875" lon="5.73274">
        <ele>526.959</ele>
        <time>2021-08-07T08:10:50Z</time>
      </trkpt>
      <trkpt lat="45.20874" lon="5.73266">
        <ele>529.198</ele>
        <time>2021-08-07T08:10:56Z</time>
      </trkpt>
      <trkpt lat="45.20869" lon="5.73255">
        <ele>529.442</ele>
        <time>2021-08-07T08:11:02Z</time>
      </trkpt>
      <trkpt lat="45.20867" lon="5.73251">
        <ele>529.666</ele>
        <time>2021-08-07T08:11:04Z</time>
      </trkpt>
      <trkpt lat="45.20861" lon="5.73235">
        <ele>530.791</ele>
        <time>2021-08-07T08:11:11Z</time>
      </trkpt>
      <trkpt lat="45.20861" lon="5.73232">
        <ele>531.483</ele>
        <time>2021-08-07T08:11:13Z</time>
      </trkpt>
      <trkpt lat="45.20859" lon="5.73225">
        <ele>531.567</ele>
        <time>2021-08-07T08:11:16Z</time>
      </trkpt>
      <trkpt lat="45.20854" lon="5.73217">
        <ele>532.048</ele>
        <time>2021-08-07T08:11:19Z</time>
      </trkpt>
      <trkpt lat="45.20842" lon="5.73203">
        <ele>532.854</ele>
        <time>2021-08-07T08:11:25Z</time>
      </trkpt>
      <trkpt lat="45.20838" lon="5.73186">
        <ele>533.802</ele>
        <time>2021-08-07T08:11:32Z</time>
      </trkpt>
      <trkpt lat="45.20835" lon="5.73169">
        <ele>536.155</ele>
        <time>2021-08-07T08:11:39Z</time>
      </trkpt>
      <trkpt lat="45.2083" lon="5.7316">
        <ele>536.921</ele>
        <time>2021-08-07T08:11:44Z</time>
      </trkpt>
      <trkpt lat="45.20829" lon="5.73159">
        <ele>537.291</ele>
        <time>2021-08-07T08:11:45Z</time>
      </trkpt>
      <trkpt lat="45.20825" lon="5.73152">
        <ele>538.649</ele>
        <time>2021-08-07T08:11:50Z</time>
      </trkpt>
      <trkpt lat="45.2082" lon="5.73146">
        <ele>540.247</ele>
        <time>2021-08-07T08:11:54Z</time>
      </trkpt>
      <trkpt lat="45.2081" lon="5.73135">
        <ele>541.834</ele>
        <time>2021-08-07T08:12:03Z</time>
      </trkpt>
      <trkpt lat="45.20805" lon="5.73123">
        <ele>542.889</ele>
        <time>2021-08-07T08:12:09Z</time>
      </trkpt>
      <trkpt lat="45.20801" lon="5.73113">
        <ele>545.501</ele>
        <time>2021-08-07T08:12:15Z</time>
      </trkpt>
      <trkpt lat="45.20796" lon="5.73104">
        <ele>547.036</ele>
        <time>2021-08-07T08:12:21Z</time>
      </trkpt>
      <trkpt lat="45.20791" lon="5.73094">
        <ele>548.339</ele>
        <time>2021-08-07T08:12:27Z</time>
      </trkpt>
      <trkpt lat="45.20788" lon="5.73087">
        <ele>549.195</ele>
        <time>2021-08-07T08:12:31Z</time>
      </trkpt>
      <trkpt lat="45.20786" lon="5.73077">
        <ele>550.732</ele>
        <time>2021-08-07T08:12:36Z</time>
      </trkpt>
      <trkpt lat="45.20781" lon="5.73067">
        <ele>552.932</ele>
        <time>2021-08-07T08:12:43Z</time>
      </trkpt>
      <trkpt lat="45.20773" lon="5.73056">
        <ele>554.171</ele>
        <time>2021-08-07T08:12:50Z</time>
      </trkpt>
      <trkpt lat="45.20765" lon="5.73048">
        <ele>555.396</ele>
        <time>2021-08-07T08:12:56Z</time>
      </trkpt>
      <trkpt lat="45.20757" lon="5.73034">
        <ele>556.412</ele>
        <time>2021-08-07T08:13:03Z</time>
      </trkpt>
      <trkpt lat="45.20741" lon="5.73025">
        <ele>556.518</ele>
        <time>2021-08-07T08:13:10Z</time>
      </trkpt>
      <trkpt lat="45.20727" lon="5.73013">
        <ele>557.456</ele>
        <time>2021-08-07T08:13:17Z</time>
      </trkpt>
      <trkpt lat="45.20725" lon="5.73005">
        <ele>557.974</ele>
        <time>2021-08-07T08:13:21Z</time>
      </trkpt>
      <trkpt lat="45.20718" lon="5.72993">
        <ele>559.627</ele>
        <time>2021-08-07T08:13:28Z</time>
      </trkpt>
      <trkpt lat="45.20712" lon="5.7298">
        <ele>561.062</ele>
        <time>2021-08-07T08:13:35Z</time>
      </trkpt>
      <trkpt lat="45.20709" lon="5.72974">
        <ele>562.84</ele>
        <time>2021-08-07T08:13:38Z</time>
      </trkpt>
      <trkpt lat="45.20701" lon="5.72967">
        <ele>564.395</ele>
        <time>2021-08-07T08:13:43Z</time>
      </trkpt>
      <trkpt lat="45.20685" lon="5.7296">
        <ele>564.839</ele>
        <time>2021-08-07T08:13:50Z</time>
      </trkpt>
      <trkpt lat="45.20677" lon="5.7295">
        <ele>566.051</ele>
        <time>2021-08-07T08:13:55Z</time>
      </trkpt>
      <trkpt lat="45.2067" lon="5.72937">
        <ele>567.916</ele>
        <time>2021-08-07T08:14:01Z</time>
      </trkpt>
      <trkpt lat="45.20659" lon="5.72921">
        <ele>568.487</ele>
        <time>2021-08-07T08:14:09Z</time>
      </trkpt>
      <trkpt lat="45.20653" lon="5.72911">
        <ele>569.311</ele>
        <time>2021-08-07T08:14:14Z</time>
      </trkpt>
      <trkpt lat="45.20643" lon="5.729">
        <ele>570.017</ele>
        <time>2021-08-07T08:14:20Z</time>
      </trkpt>
      <trkpt lat="45.20632" lon="5.72889">
        <ele>569.8</ele>
        <time>2021-08-07T08:14:26Z</time>
      </trkpt>
      <trkpt lat="45.20616" lon="5.72874">
        <ele>568.746</ele>
        <time>2021-08-07T08:14:33Z</time>
      </trkpt>
      <trkpt lat="45.20605" lon="5.7286">
        <ele>568.986</ele>
        <time>2021-08-07T08:14:38Z</time>
      </trkpt>
      <trkpt lat="45.20598" lon="5.72849">
        <ele>569.586</ele>
        <time>2021-08-07T08:14:42Z</time>
      </trkpt>
      <trkpt lat="45.20585" lon="5.72835">
        <ele>570.797</ele>
        <time>2021-08-07T08:14:50Z</time>
      </trkpt>
      <trkpt lat="45.20576" lon="5.72824">
        <ele>569.828</ele>
        <time>2021-08-07T08:14:55Z</time>
      </trkpt>
      <trkpt lat="45.20574" lon="5.72821">
        <ele>570.06</ele>
        <time>2021-08-07T08:14:56Z</time>
      </trkpt>
      <trkpt lat="45.20566" lon="5.72805">
        <ele>569.848</ele>
        <time>2021-08-07T08:15:01Z</time>
      </trkpt>
      <trkpt lat="45.20556" lon="5.72787">
        <ele>569.544</ele>
        <time>2021-08-07T08:15:08Z</time>
      </trkpt>
      <trkpt lat="45.20544" lon="5.72772">
        <ele>570.636</ele>
        <time>2021-08-07T08:15:13Z</time>
      </trkpt>
      <trkpt lat="45.20542" lon="5.72771">
        <ele>570.828</ele>
        <time>2021-08-07T08:15:14Z</time>
      </trkpt>
      <trkpt lat="45.20525" lon="5.72758">
        <ele>571.438</ele>
        <time>2021-08-07T08:15:21Z</time>
      </trkpt>
      <trkpt lat="45.20509" lon="5.72746">
        <ele>569.971</ele>
        <time>2021-08-07T08:15:27Z</time>
      </trkpt>
      <trkpt lat="45.20494" lon="5.72734">
        <ele>569.037</ele>
        <time>2021-08-07T08:15:33Z</time>
      </trkpt>
      <trkpt lat="45.2049" lon="5.72732">
        <ele>568.544</ele>
        <time>2021-08-07T08:15:35Z</time>
      </trkpt>
      <trkpt lat="45.20472" lon="5.72725">
        <ele>567.488</ele>
        <time>2021-08-07T08:15:42Z</time>
      </trkpt>
      <trkpt lat="45.20457" lon="5.72722">
        <ele>566.596</ele>
        <time>2021-08-07T08:15:48Z</time>
      </trkpt>
      <trkpt lat="45.20448" lon="5.72718">
        <ele>564.719</ele>
        <time>2021-08-07T08:15:52Z</time>
      </trkpt>
      <trkpt lat="45.20437" lon="5.72715">
        <ele>563.638</ele>
        <time>2021-08-07T08:15:57Z</time>
      </trkpt>
      <trkpt lat="45.20429" lon="5.72711">
        <ele>562.012</ele>
        <time>2021-08-07T08:16:01Z</time>
      </trkpt>
      <trkpt lat="45.20421" lon="5.72704">
        <ele>560.063</ele>
        <time>2021-08-07T08:16:05Z</time>
      </trkpt>
      <trkpt lat="45.2042" lon="5.72702">
        <ele>559.309</ele>
        <time>2021-08-07T08:16:06Z</time>
      </trkpt>
      <trkpt lat="45.2041" lon="5.72698">
        <ele>557.324</ele>
        <time>2021-08-07T08:16:11Z</time>
      </trkpt>
      <trkpt lat="45.20403" lon="5.72691">
        <ele>556.254</ele>
        <time>2021-08-07T08:16:15Z</time>
      </trkpt>
      <trkpt lat="45.20389" lon="5.72676">
        <ele>554.815</ele>
        <time>2021-08-07T08:16:22Z</time>
      </trkpt>
      <trkpt lat="45.20385" lon="5.72674">
        <ele>552.946</ele>
        <time>2021-08-07T08:16:24Z</time>
      </trkpt>
      <trkpt lat="45.20373" lon="5.7266">
        <ele>551.685</ele>
        <time>2021-08-07T08:16:30Z</time>
      </trkpt>
      <trkpt lat="45.20364" lon="5.72656">
        <ele>551.638</ele>
        <time>2021-08-07T08:16:34Z</time>
      </trkpt>
      <trkpt lat="45.2036" lon="5.72654">
        <ele>550.29</ele>
        <time>2021-08-07T08:16:36Z</time>
      </trkpt>
      <trkpt lat="45.20357" lon="5.72651">
        <ele>550.208</ele>
        <time>2021-08-07T08:16:38Z</time>
      </trkpt>
      <trkpt lat="45.2035" lon="5.7264">
        <ele>548.22</ele>
        <time>2021-08-07T08:16:43Z</time>
      </trkpt>
      <trkpt lat="45.20335" lon="5.72627">
        <ele>545.486</ele>
        <time>2021-08-07T08:16:49Z</time>
      </trkpt>
      <trkpt lat="45.20331" lon="5.72623">
        <ele>545.655</ele>
        <time>2021-08-07T08:16:51Z</time>
      </trkpt>
      <trkpt lat="45.20313" lon="5.72619">
        <ele>542.896</ele>
        <time>2021-08-07T08:16:59Z</time>
      </trkpt>
      <trkpt lat="45.20308" lon="5.72617">
        <ele>541.962</ele>
        <time>2021-08-07T08:17:01Z</time>
      </trkpt>
      <trkpt lat="45.20303" lon="5.72611">
        <ele>540.992</ele>
        <time>2021-08-07T08:17:04Z</time>
      </trkpt>
      <trkpt lat="45.20285" lon="5.7261">
        <ele>538.598</ele>
        <time>2021-08-07T08:17:11Z</time>
      </trkpt>
      <trkpt lat="45.20282" lon="5.72611">
        <ele>538.225</ele>
        <time>2021-08-07T08:17:12Z</time>
      </trkpt>
      <trkpt lat="45.20269" lon="5.72612">
        <ele>535.16</ele>
        <time>2021-08-07T08:17:18Z</time>
      </trkpt>
      <trkpt lat="45.20254" lon="5.72612">
        <ele>533.151</ele>
        <time>2021-08-07T08:17:25Z</time>
      </trkpt>
      <trkpt lat="45.20244" lon="5.7261">
        <ele>531.889</ele>
        <time>2021-08-07T08:17:30Z</time>
      </trkpt>
      <trkpt lat="45.20225" lon="5.72602">
        <ele>529.849</ele>
        <time>2021-08-07T08:17:38Z</time>
      </trkpt>
      <trkpt lat="45.2022" lon="5.72599">
        <ele>528.948</ele>
        <time>2021-08-07T08:17:40Z</time>
      </trkpt>
      <trkpt lat="45.20208" lon="5.72592">
        <ele>527.302</ele>
        <time>2021-08-07T08:17:46Z</time>
      </trkpt>
      <trkpt lat="45.20192" lon="5.72584">
        <ele>524.656</ele>
        <time>2021-08-07T08:17:54Z</time>
      </trkpt>
      <trkpt lat="45.20177" lon="5.72574">
        <ele>522.491</ele>
        <time>2021-08-07T08:18:01Z</time>
      </trkpt>
      <trkpt lat="45.2016" lon="5.72566">
        <ele>520.839</ele>
        <time>2021-08-07T08:18:08Z</time>
      </trkpt>
      <trkpt lat="45.20151" lon="5.7256">
        <ele>518.817</ele>
        <time>2021-08-07T08:18:12Z</time>
      </trkpt>
      <trkpt lat="45.20134" lon="5.72551">
        <ele>516.358</ele>
        <time>2021-08-07T08:18:18Z</time>
      </trkpt>
      <trkpt lat="45.2012" lon="5.72547">
        <ele>514.596</ele>
        <time>2021-08-07T08:18:25Z</time>
      </trkpt>
      <trkpt lat="45.20106" lon="5.72541">
        <ele>511.62</ele>
        <time>2021-08-07T08:18:33Z</time>
      </trkpt>
      <trkpt lat="45.20094" lon="5.72541">
        <ele>508.941</ele>
        <time>2021-08-07T08:18:39Z</time>
      </trkpt>
      <trkpt lat="45.2008" lon="5.72544">
        <ele>506.296</ele>
        <time>2021-08-07T08:18:46Z</time>
      </trkpt>
      <trkpt lat="45.20079" lon="5.72545">
        <ele>506.289</ele>
        <time>2021-08-07T08:18:47Z</time>
      </trkpt>
      <trkpt lat="45.20074" lon="5.72549">
        <ele>504.761</ele>
        <time>2021-08-07T08:18:50Z</time>
      </trkpt>
      <trkpt lat="45.20071" lon="5.72556">
        <ele>504.292</ele>
        <time>2021-08-07T08:18:56Z</time>
      </trkpt>
      <trkpt lat="45.20072" lon="5.7256">
        <ele>503.94</ele>
        <time>2021-08-07T08:19:08Z</time>
      </trkpt>
      <trkpt lat="45.20072" lon="5.72557">
        <ele>504.217</ele>
        <time>2021-08-07T08:19:13Z</time>
      </trkpt>
      <trkpt lat="45.2007" lon="5.72549">
        <ele>504.855</ele>
        <time>2021-08-07T08:19:17Z</time>
      </trkpt>
      <trkpt lat="45.20069" lon="5.72519">
        <ele>505.63</ele>
        <time>2021-08-07T08:19:26Z</time>
      </trkpt>
      <trkpt lat="45.20073" lon="5.72496">
        <ele>504.65</ele>
        <time>2021-08-07T08:19:33Z</time>
      </trkpt>
      <trkpt lat="45.20074" lon="5.72472">
        <ele>503.59</ele>
        <time>2021-08-07T08:19:40Z</time>
      </trkpt>
      <trkpt lat="45.20069" lon="5.72458">
        <ele>502.052</ele>
        <time>2021-08-07T08:19:45Z</time>
      </trkpt>
      <trkpt lat="45.2007" lon="5.72453">
        <ele>501.759</ele>
        <time>2021-08-07T08:19:46Z</time>
      </trkpt>
      <trkpt lat="45.20057" lon="5.72436">
        <ele>499.351</ele>
        <time>2021-08-07T08:19:53Z</time>
      </trkpt>
      <trkpt lat="45.20054" lon="5.72434">
        <ele>498.643</ele>
        <time>2021-08-07T08:19:54Z</time>
      </trkpt>
      <trkpt lat="45.20046" lon="5.72432">
        <ele>497.971</ele>
        <time>2021-08-07T08:19:57Z</time>
      </trkpt>
      <trkpt lat="45.2003" lon="5.72431">
        <ele>495.88</ele>
        <time>2021-08-07T08:20:03Z</time>
      </trkpt>
      <trkpt lat="45.2001" lon="5.72427">
        <ele>493.98</ele>
        <time>2021-08-07T08:20:10Z</time>
      </trkpt>
      <trkpt lat="45.19996" lon="5.72424">
        <ele>492.587</ele>
        <time>2021-08-07T08:20:15Z</time>
      </trkpt>
      <trkpt lat="45.19985" lon="5.72425">
        <ele>490.289</ele>
        <time>2021-08-07T08:20:19Z</time>
      </trkpt>
      <trkpt lat="45.19964" lon="5.7242">
        <ele>488.286</ele>
        <time>2021-08-07T08:20:26Z</time>
      </trkpt>
      <trkpt lat="45.19939" lon="5.72419">
        <ele>487.291</ele>
        <time>2021-08-07T08:20:34Z</time>
      </trkpt>
      <trkpt lat="45.19915" lon="5.72427">
        <ele>487.629</ele>
        <time>2021-08-07T08:20:42Z</time>
      </trkpt>
      <trkpt lat="45.199" lon="5.72438">
        <ele>488.635</ele>
        <time>2021-08-07T08:20:49Z</time>
      </trkpt>
      <trkpt lat="45.19893" lon="5.72446">
        <ele>489.679</ele>
        <time>2021-08-07T08:20:53Z</time>
      </trkpt>
      <trkpt lat="45.19891" lon="5.72454">
        <ele>490.13</ele>
        <time>2021-08-07T08:20:56Z</time>
      </trkpt>
      <trkpt lat="45.19897" lon="5.72471">
        <ele>491.393</ele>
        <time>2021-08-07T08:21:01Z</time>
      </trkpt>
      <trkpt lat="45.19874" lon="5.72482">
        <ele>491.111</ele>
        <time>2021-08-07T08:21:06Z</time>
      </trkpt>
      <trkpt lat="45.1986" lon="5.7249">
        <ele>490.779</ele>
        <time>2021-08-07T08:21:09Z</time>
      </trkpt>
      <trkpt lat="45.19854" lon="5.72496">
        <ele>490.319</ele>
        <time>2021-08-07T08:21:11Z</time>
      </trkpt>
      <trkpt lat="45.19851" lon="5.72507">
        <ele>489.927</ele>
        <time>2021-08-07T08:21:14Z</time>
      </trkpt>
      <trkpt lat="45.19855" lon="5.7254">
        <ele>488.792</ele>
        <time>2021-08-07T08:21:21Z</time>
      </trkpt>
      <trkpt lat="45.19856" lon="5.72551">
        <ele>488.491</ele>
        <time>2021-08-07T08:21:23Z</time>
      </trkpt>
      <trkpt lat="45.19858" lon="5.72558">
        <ele>487.517</ele>
        <time>2021-08-07T08:21:25Z</time>
      </trkpt>
      <trkpt lat="45.19851" lon="5.72559">
        <ele>486.509</ele>
        <time>2021-08-07T08:21:30Z</time>
      </trkpt>
      <trkpt lat="45.19849" lon="5.72529">
        <ele>484.698</ele>
        <time>2021-08-07T08:21:37Z</time>
      </trkpt>
      <trkpt lat="45.19849" lon="5.72516">
        <ele>484.501</ele>
        <time>2021-08-07T08:21:40Z</time>
      </trkpt>
      <trkpt lat="45.19838" lon="5.72492">
        <ele>483.085</ele>
        <time>2021-08-07T08:21:46Z</time>
      </trkpt>
      <trkpt lat="45.19835" lon="5.72485">
        <ele>482.123</ele>
        <time>2021-08-07T08:21:48Z</time>
      </trkpt>
      <trkpt lat="45.19829" lon="5.72462">
        <ele>479.959</ele>
        <time>2021-08-07T08:21:54Z</time>
      </trkpt>
      <trkpt lat="45.19829" lon="5.72459">
        <ele>479.665</ele>
        <time>2021-08-07T08:21:57Z</time>
      </trkpt>
      <trkpt lat="45.1983" lon="5.72467">
        <ele>478.289</ele>
        <time>2021-08-07T08:21:59Z</time>
      </trkpt>
      <trkpt lat="45.19829" lon="5.72484">
        <ele>476.473</ele>
        <time>2021-08-07T08:22:04Z</time>
      </trkpt>
      <trkpt lat="45.19825" lon="5.72509">
        <ele>474.49</ele>
        <time>2021-08-07T08:22:10Z</time>
      </trkpt>
      <trkpt lat="45.19822" lon="5.72535">
        <ele>472.466</ele>
        <time>2021-08-07T08:22:17Z</time>
      </trkpt>
      <trkpt lat="45.19825" lon="5.72545">
        <ele>471.687</ele>
        <time>2021-08-07T08:22:20Z</time>
      </trkpt>
      <trkpt lat="45.19825" lon="5.72561">
        <ele>470.602</ele>
        <time>2021-08-07T08:22:24Z</time>
      </trkpt>
      <trkpt lat="45.19824" lon="5.72588">
        <ele>467.405</ele>
        <time>2021-08-07T08:22:30Z</time>
      </trkpt>
      <trkpt lat="45.19827" lon="5.72602">
        <ele>466.336</ele>
        <time>2021-08-07T08:22:34Z</time>
      </trkpt>
      <trkpt lat="45.19832" lon="5.72627">
        <ele>464.611</ele>
        <time>2021-08-07T08:22:40Z</time>
      </trkpt>
      <trkpt lat="45.19843" lon="5.72647">
        <ele>463.016</ele>
        <time>2021-08-07T08:22:46Z</time>
      </trkpt>
      <trkpt lat="45.19854" lon="5.72663">
        <ele>461.719</ele>
        <time>2021-08-07T08:22:51Z</time>
      </trkpt>
      <trkpt lat="45.19859" lon="5.7268">
        <ele>460.517</ele>
        <time>2021-08-07T08:22:55Z</time>
      </trkpt>
      <trkpt lat="45.19864" lon="5.72694">
        <ele>459.532</ele>
        <time>2021-08-07T08:23:00Z</time>
      </trkpt>
      <trkpt lat="45.19854" lon="5.72685">
        <ele>458.101</ele>
        <time>2021-08-07T08:23:04Z</time>
      </trkpt>
      <trkpt lat="45.19835" lon="5.72664">
        <ele>456.116</ele>
        <time>2021-08-07T08:23:11Z</time>
      </trkpt>
      <trkpt lat="45.19824" lon="5.7265">
        <ele>453.738</ele>
        <time>2021-08-07T08:23:16Z</time>
      </trkpt>
      <trkpt lat="45.19806" lon="5.72634">
        <ele>452.035</ele>
        <time>2021-08-07T08:23:23Z</time>
      </trkpt>
      <trkpt lat="45.19804" lon="5.72631">
        <ele>451.722</ele>
        <time>2021-08-07T08:23:24Z</time>
      </trkpt>
      <trkpt lat="45.1979" lon="5.72614">
        <ele>451.334</ele>
        <time>2021-08-07T08:23:30Z</time>
      </trkpt>
      <trkpt lat="45.19785" lon="5.72593">
        <ele>449.344</ele>
        <time>2021-08-07T08:23:35Z</time>
      </trkpt>
      <trkpt lat="45.19785" lon="5.72565">
        <ele>447.737</ele>
        <time>2021-08-07T08:23:43Z</time>
      </trkpt>
      <trkpt lat="45.19781" lon="5.72547">
        <ele>446.196</ele>
        <time>2021-08-07T08:23:48Z</time>
      </trkpt>
      <trkpt lat="45.1978" lon="5.72537">
        <ele>445.996</ele>
        <time>2021-08-07T08:23:51Z</time>
      </trkpt>
      <trkpt lat="45.19778" lon="5.72533">
        <ele>444.469</ele>
        <time>2021-08-07T08:23:54Z</time>
      </trkpt>
      <trkpt lat="45.19774" lon="5.72558">
        <ele>442.933</ele>
        <time>2021-08-07T08:24:01Z</time>
      </trkpt>
      <trkpt lat="45.1977" lon="5.72583">
        <ele>442.316</ele>
        <time>2021-08-07T08:24:07Z</time>
      </trkpt>
      <trkpt lat="45.19766" lon="5.72587">
        <ele>440.724</ele>
        <time>2021-08-07T08:24:10Z</time>
      </trkpt>
      <trkpt lat="45.1976" lon="5.72567">
        <ele>439.255</ele>
        <time>2021-08-07T08:24:15Z</time>
      </trkpt>
      <trkpt lat="45.19757" lon="5.72544">
        <ele>437.073</ele>
        <time>2021-08-07T08:24:20Z</time>
      </trkpt>
      <trkpt lat="45.19764" lon="5.72523">
        <ele>436.384</ele>
        <time>2021-08-07T08:24:25Z</time>
      </trkpt>
      <trkpt lat="45.19764" lon="5.72517">
        <ele>434.346</ele>
        <time>2021-08-07T08:24:30Z</time>
      </trkpt>
      <trkpt lat="45.19754" lon="5.72528">
        <ele>432.745</ele>
        <time>2021-08-07T08:24:35Z</time>
      </trkpt>
      <trkpt lat="45.1975" lon="5.72539">
        <ele>432.503</ele>
        <time>2021-08-07T08:24:40Z</time>
      </trkpt>
      <trkpt lat="45.19746" lon="5.72571">
        <ele>432.334</ele>
        <time>2021-08-07T08:24:46Z</time>
      </trkpt>
      <trkpt lat="45.19747" lon="5.72606">
        <ele>432.681</ele>
        <time>2021-08-07T08:24:53Z</time>
      </trkpt>
      <trkpt lat="45.19755" lon="5.72631">
        <ele>433.292</ele>
        <time>2021-08-07T08:25:00Z</time>
      </trkpt>
      <trkpt lat="45.19759" lon="5.72644">
        <ele>432.637</ele>
        <time>2021-08-07T08:25:03Z</time>
      </trkpt>
      <trkpt lat="45.19772" lon="5.72667">
        <ele>432.02</ele>
        <time>2021-08-07T08:25:09Z</time>
      </trkpt>
      <trkpt lat="45.19775" lon="5.7267">
        <ele>432.622</ele>
        <time>2021-08-07T08:25:10Z</time>
      </trkpt>
      <trkpt lat="45.19791" lon="5.72686">
        <ele>432.913</ele>
        <time>2021-08-07T08:25:16Z</time>
      </trkpt>
      <trkpt lat="45.19803" lon="5.72694">
        <ele>432.925</ele>
        <time>2021-08-07T08:25:21Z</time>
      </trkpt>
      <trkpt lat="45.19806" lon="5.727">
        <ele>433.194</ele>
        <time>2021-08-07T08:25:23Z</time>
      </trkpt>
      <trkpt lat="45.19821" lon="5.72716">
        <ele>433.122</ele>
        <time>2021-08-07T08:25:29Z</time>
      </trkpt>
      <trkpt lat="45.19824" lon="5.72718">
        <ele>433.351</ele>
        <time>2021-08-07T08:25:30Z</time>
      </trkpt>
      <trkpt lat="45.19837" lon="5.72733">
        <ele>433.656</ele>
        <time>2021-08-07T08:25:35Z</time>
      </trkpt>
      <trkpt lat="45.19847" lon="5.72751">
        <ele>433.594</ele>
        <time>2021-08-07T08:25:42Z</time>
      </trkpt>
      <trkpt lat="45.19851" lon="5.72746">
        <ele>433.438</ele>
        <time>2021-08-07T08:25:47Z</time>
      </trkpt>
      <trkpt lat="45.19855" lon="5.72746">
        <ele>432.386</ele>
        <time>2021-08-07T08:25:51Z</time>
      </trkpt>
      <trkpt lat="45.19863" lon="5.72735">
        <ele>430.448</ele>
        <time>2021-08-07T08:25:55Z</time>
      </trkpt>
      <trkpt lat="45.19862" lon="5.72739">
        <ele>430.744</ele>
        <time>2021-08-07T08:25:56Z</time>
      </trkpt>
      <trkpt lat="45.19859" lon="5.72762">
        <ele>429.57</ele>
        <time>2021-08-07T08:26:01Z</time>
      </trkpt>
      <trkpt lat="45.19858" lon="5.72761">
        <ele>428.389</ele>
        <time>2021-08-07T08:26:03Z</time>
      </trkpt>
      <trkpt lat="45.19855" lon="5.72757">
        <ele>425.896</ele>
        <time>2021-08-07T08:26:06Z</time>
      </trkpt>
      <trkpt lat="45.19855" lon="5.7276">
        <ele>422.232</ele>
        <time>2021-08-07T08:26:13Z</time>
      </trkpt>
      <trkpt lat="45.19852" lon="5.72763">
        <ele>421.638</ele>
        <time>2021-08-07T08:26:19Z</time>
      </trkpt>
      <trkpt lat="45.19849" lon="5.72766">
        <ele>418.615</ele>
        <time>2021-08-07T08:26:24Z</time>
      </trkpt>
      <trkpt lat="45.19848" lon="5.72768">
        <ele>415.114</ele>
        <time>2021-08-07T08:26:27Z</time>
      </trkpt>
      <trkpt lat="45.19845" lon="5.72771">
        <ele>412.701</ele>
        <time>2021-08-07T08:26:33Z</time>
      </trkpt>
      <trkpt lat="45.19857" lon="5.72789">
        <ele>411.475</ele>
        <time>2021-08-07T08:26:36Z</time>
      </trkpt>
      <trkpt lat="45.19858" lon="5.72783">
        <ele>410.011</ele>
        <time>2021-08-07T08:26:38Z</time>
      </trkpt>
      <trkpt lat="45.19853" lon="5.72773">
        <ele>408.793</ele>
        <time>2021-08-07T08:26:42Z</time>
      </trkpt>
      <trkpt lat="45.19851" lon="5.72767">
        <ele>406.381</ele>
        <time>2021-08-07T08:26:46Z</time>
      </trkpt>
      <trkpt lat="45.19852" lon="5.72778">
        <ele>405.819</ele>
        <time>2021-08-07T08:26:51Z</time>
      </trkpt>
      <trkpt lat="45.19852" lon="5.7278">
        <ele>405.671</ele>
        <time>2021-08-07T08:26:52Z</time>
      </trkpt>
      <trkpt lat="45.19842" lon="5.7277">
        <ele>404.069</ele>
        <time>2021-08-07T08:26:57Z</time>
      </trkpt>
      <trkpt lat="45.19829" lon="5.72753">
        <ele>400.81</ele>
        <time>2021-08-07T08:27:03Z</time>
      </trkpt>
      <trkpt lat="45.19817" lon="5.72741">
        <ele>399.801</ele>
        <time>2021-08-07T08:27:08Z</time>
      </trkpt>
      <trkpt lat="45.19805" lon="5.72728">
        <ele>399.566</ele>
        <time>2021-08-07T08:27:13Z</time>
      </trkpt>
      <trkpt lat="45.19796" lon="5.72725">
        <ele>398.039</ele>
        <time>2021-08-07T08:27:18Z</time>
      </trkpt>
      <trkpt lat="45.19801" lon="5.72737">
        <ele>397.089</ele>
        <time>2021-08-07T08:27:22Z</time>
      </trkpt>
      <trkpt lat="45.19814" lon="5.72758">
        <ele>393.784</ele>
        <time>2021-08-07T08:27:28Z</time>
      </trkpt>
      <trkpt lat="45.19815" lon="5.72762">
        <ele>393.492</ele>
        <time>2021-08-07T08:27:29Z</time>
      </trkpt>
      <trkpt lat="45.1982" lon="5.72767">
        <ele>392.44</ele>
        <time>2021-08-07T08:27:31Z</time>
      </trkpt>
      <trkpt lat="45.19837" lon="5.72784">
        <ele>390.63</ele>
        <time>2021-08-07T08:27:37Z</time>
      </trkpt>
      <trkpt lat="45.19839" lon="5.72787">
        <ele>390.52</ele>
        <time>2021-08-07T08:27:38Z</time>
      </trkpt>
      <trkpt lat="45.19852" lon="5.72799">
        <ele>388.4</ele>
        <time>2021-08-07T08:27:44Z</time>
      </trkpt>
      <trkpt lat="45.19851" lon="5.72803">
        <ele>387.288</ele>
        <time>2021-08-07T08:27:46Z</time>
      </trkpt>
      <trkpt lat="45.19834" lon="5.72794">
        <ele>385.197</ele>
        <time>2021-08-07T08:27:51Z</time>
      </trkpt>
      <trkpt lat="45.19819" lon="5.72785">
        <ele>383.552</ele>
        <time>2021-08-07T08:27:56Z</time>
      </trkpt>
      <trkpt lat="45.19802" lon="5.7277">
        <ele>382.234</ele>
        <time>2021-08-07T08:28:03Z</time>
      </trkpt>
      <trkpt lat="45.19801" lon="5.72772">
        <ele>381.579</ele>
        <time>2021-08-07T08:28:04Z</time>
      </trkpt>
      <trkpt lat="45.19815" lon="5.72792">
        <ele>380.115</ele>
        <time>2021-08-07T08:28:11Z</time>
      </trkpt>
      <trkpt lat="45.19826" lon="5.72806">
        <ele>378.287</ele>
        <time>2021-08-07T08:28:17Z</time>
      </trkpt>
      <trkpt lat="45.1984" lon="5.72824">
        <ele>375.96</ele>
        <time>2021-08-07T08:28:23Z</time>
      </trkpt>
      <trkpt lat="45.19842" lon="5.72826">
        <ele>375.695</ele>
        <time>2021-08-07T08:28:24Z</time>
      </trkpt>
      <trkpt lat="45.19846" lon="5.72832">
        <ele>375.066</ele>
        <time>2021-08-07T08:28:27Z</time>
      </trkpt>
      <trkpt lat="45.19833" lon="5.72823">
        <ele>372.873</ele>
        <time>2021-08-07T08:28:32Z</time>
      </trkpt>
      <trkpt lat="45.19821" lon="5.72811">
        <ele>371.138</ele>
        <time>2021-08-07T08:28:37Z</time>
      </trkpt>
      <trkpt lat="45.19819" lon="5.72812">
        <ele>370.235</ele>
        <time>2021-08-07T08:28:39Z</time>
      </trkpt>
      <trkpt lat="45.19831" lon="5.72829">
        <ele>368.298</ele>
        <time>2021-08-07T08:28:45Z</time>
      </trkpt>
      <trkpt lat="45.19837" lon="5.72835">
        <ele>367.375</ele>
        <time>2021-08-07T08:28:49Z</time>
      </trkpt>
      <trkpt lat="45.19823" lon="5.72826">
        <ele>365.212</ele>
        <time>2021-08-07T08:28:55Z</time>
      </trkpt>
      <trkpt lat="45.19807" lon="5.72812">
        <ele>362.582</ele>
        <time>2021-08-07T08:29:02Z</time>
      </trkpt>
      <trkpt lat="45.19802" lon="5.72807">
        <ele>361.859</ele>
        <time>2021-08-07T08:29:04Z</time>
      </trkpt>
      <trkpt lat="45.19797" lon="5.72806">
        <ele>360.485</ele>
        <time>2021-08-07T08:29:08Z</time>
      </trkpt>
      <trkpt lat="45.19812" lon="5.72828">
        <ele>359.307</ele>
        <time>2021-08-07T08:29:15Z</time>
      </trkpt>
      <trkpt lat="45.19826" lon="5.72844">
        <ele>358.454</ele>
        <time>2021-08-07T08:29:21Z</time>
      </trkpt>
      <trkpt lat="45.1982" lon="5.72846">
        <ele>357.752</ele>
        <time>2021-08-07T08:29:26Z</time>
      </trkpt>
      <trkpt lat="45.19806" lon="5.72835">
        <ele>356.848</ele>
        <time>2021-08-07T08:29:31Z</time>
      </trkpt>
      <trkpt lat="45.19793" lon="5.72821">
        <ele>354.673</ele>
        <time>2021-08-07T08:29:36Z</time>
      </trkpt>
      <trkpt lat="45.19778" lon="5.7281">
        <ele>352.732</ele>
        <time>2021-08-07T08:29:42Z</time>
      </trkpt>
      <trkpt lat="45.1977" lon="5.72808">
        <ele>351.363</ele>
        <time>2021-08-07T08:29:45Z</time>
      </trkpt>
      <trkpt lat="45.19766" lon="5.72807">
        <ele>350.107</ele>
        <time>2021-08-07T08:29:47Z</time>
      </trkpt>
      <trkpt lat="45.1976" lon="5.72807">
        <ele>348.533</ele>
        <time>2021-08-07T08:29:52Z</time>
      </trkpt>
      <trkpt lat="45.19767" lon="5.72818">
        <ele>347.282</ele>
        <time>2021-08-07T08:29:56Z</time>
      </trkpt>
      <trkpt lat="45.19771" lon="5.72823">
        <ele>346.384</ele>
        <time>2021-08-07T08:29:58Z</time>
      </trkpt>
      <trkpt lat="45.19788" lon="5.72837">
        <ele>344.934</ele>
        <time>2021-08-07T08:30:04Z</time>
      </trkpt>
      <trkpt lat="45.19792" lon="5.72844">
        <ele>343.989</ele>
        <time>2021-08-07T08:30:06Z</time>
      </trkpt>
      <trkpt lat="45.19802" lon="5.72861">
        <ele>341.945</ele>
        <time>2021-08-07T08:30:13Z</time>
      </trkpt>
      <trkpt lat="45.19807" lon="5.72869">
        <ele>341.091</ele>
        <time>2021-08-07T08:30:16Z</time>
      </trkpt>
      <trkpt lat="45.19811" lon="5.72873">
        <ele>340.085</ele>
        <time>2021-08-07T08:30:18Z</time>
      </trkpt>
      <trkpt lat="45.1981" lon="5.72877">
        <ele>338.927</ele>
        <time>2021-08-07T08:30:20Z</time>
      </trkpt>
      <trkpt lat="45.19792" lon="5.72867">
        <ele>337.508</ele>
        <time>2021-08-07T08:30:27Z</time>
      </trkpt>
      <trkpt lat="45.19782" lon="5.72859">
        <ele>335.904</ele>
        <time>2021-08-07T08:30:30Z</time>
      </trkpt>
      <trkpt lat="45.19772" lon="5.72853">
        <ele>334.392</ele>
        <time>2021-08-07T08:30:34Z</time>
      </trkpt>
      <trkpt lat="45.19755" lon="5.72842">
        <ele>332.413</ele>
        <time>2021-08-07T08:30:41Z</time>
      </trkpt>
      <trkpt lat="45.19746" lon="5.72833">
        <ele>331.072</ele>
        <time>2021-08-07T08:30:46Z</time>
      </trkpt>
      <trkpt lat="45.19754" lon="5.72859">
        <ele>328.789</ele>
        <time>2021-08-07T08:30:53Z</time>
      </trkpt>
      <trkpt lat="45.19766" lon="5.72872">
        <ele>325.707</ele>
        <time>2021-08-07T08:30:59Z</time>
      </trkpt>
      <trkpt lat="45.19787" lon="5.72888">
        <ele>324.895</ele>
        <time>2021-08-07T08:31:06Z</time>
      </trkpt>
      <trkpt lat="45.19796" lon="5.72902">
        <ele>323.089</ele>
        <time>2021-08-07T08:31:11Z</time>
      </trkpt>
      <trkpt lat="45.19797" lon="5.72906">
        <ele>322.804</ele>
        <time>2021-08-07T08:31:12Z</time>
      </trkpt>
      <trkpt lat="45.19787" lon="5.72913">
        <ele>318.23</ele>
        <time>2021-08-07T08:31:25Z</time>
      </trkpt>
      <trkpt lat="45.19779" lon="5.72908">
        <ele>318.23</ele>
        <time>2021-08-07T08:31:28Z</time>
      </trkpt>
      <trkpt lat="45.19772" lon="5.72905">
        <ele>316.983</ele>
        <time>2021-08-07T08:31:30Z</time>
      </trkpt>
      <trkpt lat="45.1976" lon="5.72899">
        <ele>315.705</ele>
        <time>2021-08-07T08:31:34Z</time>
      </trkpt>
      <trkpt lat="45.19757" lon="5.72897">
        <ele>315.778</ele>
        <time>2021-08-07T08:31:35Z</time>
      </trkpt>
      <trkpt lat="45.19747" lon="5.72892">
        <ele>313.449</ele>
        <time>2021-08-07T08:31:39Z</time>
      </trkpt>
      <trkpt lat="45.19734" lon="5.72878">
        <ele>312.216</ele>
        <time>2021-08-07T08:31:45Z</time>
      </trkpt>
      <trkpt lat="45.19725" lon="5.7287">
        <ele>310.258</ele>
        <time>2021-08-07T08:31:49Z</time>
      </trkpt>
      <trkpt lat="45.19707" lon="5.72858">
        <ele>307.591</ele>
        <time>2021-08-07T08:31:56Z</time>
      </trkpt>
      <trkpt lat="45.19694" lon="5.72849">
        <ele>306.484</ele>
        <time>2021-08-07T08:32:00Z</time>
      </trkpt>
      <trkpt lat="45.19691" lon="5.7285">
        <ele>306.09</ele>
        <time>2021-08-07T08:32:02Z</time>
      </trkpt>
      <trkpt lat="45.19702" lon="5.72868">
        <ele>303.881</ele>
        <time>2021-08-07T08:32:08Z</time>
      </trkpt>
      <trkpt lat="45.19712" lon="5.72881">
        <ele>302.053</ele>
        <time>2021-08-07T08:32:12Z</time>
      </trkpt>
      <trkpt lat="45.19715" lon="5.72891">
        <ele>301.337</ele>
        <time>2021-08-07T08:32:15Z</time>
      </trkpt>
      <trkpt lat="45.19723" lon="5.72905">
        <ele>300.535</ele>
        <time>2021-08-07T08:32:19Z</time>
      </trkpt>
      <trkpt lat="45.19732" lon="5.72924">
        <ele>300.235</ele>
        <time>2021-08-07T08:32:24Z</time>
      </trkpt>
      <trkpt lat="45.19743" lon="5.72945">
        <ele>299.04</ele>
        <time>2021-08-07T08:32:30Z</time>
      </trkpt>
      <trkpt lat="45.19748" lon="5.72948">
        <ele>298.311</ele>
        <time>2021-08-07T08:32:32Z</time>
      </trkpt>
      <trkpt lat="45.19755" lon="5.72953">
        <ele>296.857</ele>
        <time>2021-08-07T08:32:35Z</time>
      </trkpt>
      <trkpt lat="45.19769" lon="5.72969">
        <ele>294.027</ele>
        <time>2021-08-07T08:32:41Z</time>
      </trkpt>
      <trkpt lat="45.19772" lon="5.72975">
        <ele>293.084</ele>
        <time>2021-08-07T08:32:43Z</time>
      </trkpt>
      <trkpt lat="45.19786" lon="5.72994">
        <ele>291.805</ele>
        <time>2021-08-07T08:32:49Z</time>
      </trkpt>
      <trkpt lat="45.1979" lon="5.73">
        <ele>291.075</ele>
        <time>2021-08-07T08:32:51Z</time>
      </trkpt>
      <trkpt lat="45.19807" lon="5.73014">
        <ele>289.302</ele>
        <time>2021-08-07T08:32:58Z</time>
      </trkpt>
      <trkpt lat="45.19817" lon="5.73025">
        <ele>287.651</ele>
        <time>2021-08-07T08:33:04Z</time>
      </trkpt>
      <trkpt lat="45.19801" lon="5.7302">
        <ele>286.419</ele>
        <time>2021-08-07T08:33:09Z</time>
      </trkpt>
      <trkpt lat="45.19793" lon="5.73015">
        <ele>285.917</ele>
        <time>2021-08-07T08:33:12Z</time>
      </trkpt>
      <trkpt lat="45.19782" lon="5.73008">
        <ele>284.501</ele>
        <time>2021-08-07T08:33:16Z</time>
      </trkpt>
      <trkpt lat="45.1977" lon="5.73004">
        <ele>282.987</ele>
        <time>2021-08-07T08:33:21Z</time>
      </trkpt>
      <trkpt lat="45.19776" lon="5.73017">
        <ele>281.201</ele>
        <time>2021-08-07T08:33:26Z</time>
      </trkpt>
      <trkpt lat="45.1978" lon="5.7302">
        <ele>279.975</ele>
        <time>2021-08-07T08:33:27Z</time>
      </trkpt>
      <trkpt lat="45.198" lon="5.73032">
        <ele>277.494</ele>
        <time>2021-08-07T08:33:34Z</time>
      </trkpt>
      <trkpt lat="45.19803" lon="5.73033">
        <ele>278.001</ele>
        <time>2021-08-07T08:33:35Z</time>
      </trkpt>
      <trkpt lat="45.19805" lon="5.73046">
        <ele>275.726</ele>
        <time>2021-08-07T08:33:41Z</time>
      </trkpt>
      <trkpt lat="45.19802" lon="5.73045">
        <ele>275.321</ele>
        <time>2021-08-07T08:33:42Z</time>
      </trkpt>
      <trkpt lat="45.19783" lon="5.73034">
        <ele>273.179</ele>
        <time>2021-08-07T08:33:49Z</time>
      </trkpt>
      <trkpt lat="45.19768" lon="5.73024">
        <ele>272.311</ele>
        <time>2021-08-07T08:33:54Z</time>
      </trkpt>
      <trkpt lat="45.1976" lon="5.73023">
        <ele>271.127</ele>
        <time>2021-08-07T08:33:58Z</time>
      </trkpt>
      <trkpt lat="45.19762" lon="5.73029">
        <ele>270.218</ele>
        <time>2021-08-07T08:34:00Z</time>
      </trkpt>
      <trkpt lat="45.1978" lon="5.73043">
        <ele>267.982</ele>
        <time>2021-08-07T08:34:06Z</time>
      </trkpt>
      <trkpt lat="45.19791" lon="5.73059">
        <ele>265.869</ele>
        <time>2021-08-07T08:34:11Z</time>
      </trkpt>
      <trkpt lat="45.19793" lon="5.73061">
        <ele>265.868</ele>
        <time>2021-08-07T08:34:12Z</time>
      </trkpt>
      <trkpt lat="45.198" lon="5.73069">
        <ele>264.832</ele>
        <time>2021-08-07T08:34:16Z</time>
      </trkpt>
      <trkpt lat="45.19799" lon="5.73071">
        <ele>264.476</ele>
        <time>2021-08-07T08:34:17Z</time>
      </trkpt>
      <trkpt lat="45.19782" lon="5.73061">
        <ele>262.337</ele>
        <time>2021-08-07T08:34:24Z</time>
      </trkpt>
      <trkpt lat="45.19767" lon="5.73051">
        <ele>260.177</ele>
        <time>2021-08-07T08:34:30Z</time>
      </trkpt>
      <trkpt lat="45.19757" lon="5.73054">
        <ele>257.715</ele>
        <time>2021-08-07T08:34:36Z</time>
      </trkpt>
      <trkpt lat="45.19769" lon="5.73065">
        <ele>255.557</ele>
        <time>2021-08-07T08:34:41Z</time>
      </trkpt>
      <trkpt lat="45.19786" lon="5.73072">
        <ele>254.711</ele>
        <time>2021-08-07T08:34:47Z</time>
      </trkpt>
      <trkpt lat="45.19802" lon="5.73091">
        <ele>252.473</ele>
        <time>2021-08-07T08:34:53Z</time>
      </trkpt>
      <trkpt lat="45.19804" lon="5.73094">
        <ele>252.471</ele>
        <time>2021-08-07T08:34:54Z</time>
      </trkpt>
      <trkpt lat="45.19802" lon="5.73109">
        <ele>250.323</ele>
        <time>2021-08-07T08:35:00Z</time>
      </trkpt>
      <trkpt lat="45.19799" lon="5.73106">
        <ele>250.13</ele>
        <time>2021-08-07T08:35:01Z</time>
      </trkpt>
      <trkpt lat="45.19779" lon="5.73088">
        <ele>247.44</ele>
        <time>2021-08-07T08:35:08Z</time>
      </trkpt>
      <trkpt lat="45.1977" lon="5.73083">
        <ele>246.782</ele>
        <time>2021-08-07T08:35:11Z</time>
      </trkpt>
      <trkpt lat="45.19763" lon="5.73088">
        <ele>245.983</ele>
        <time>2021-08-07T08:35:15Z</time>
      </trkpt>
      <trkpt lat="45.19768" lon="5.73103">
        <ele>245.353</ele>
        <time>2021-08-07T08:35:19Z</time>
      </trkpt>
      <trkpt lat="45.19774" lon="5.73108">
        <ele>244.234</ele>
        <time>2021-08-07T08:35:25Z</time>
      </trkpt>
      <trkpt lat="45.19777" lon="5.73108">
        <ele>243.689</ele>
        <time>2021-08-07T08:35:27Z</time>
      </trkpt>
      <trkpt lat="45.19797" lon="5.7312">
        <ele>240.851</ele>
        <time>2021-08-07T08:35:32Z</time>
      </trkpt>
      <trkpt lat="45.19802" lon="5.73124">
        <ele>240.561</ele>
        <time>2021-08-07T08:35:33Z</time>
      </trkpt>
      <trkpt lat="45.19796" lon="5.73131">
        <ele>239.174</ele>
        <time>2021-08-07T08:35:37Z</time>
      </trkpt>
      <trkpt lat="45.19793" lon="5.73131">
        <ele>238.898</ele>
        <time>2021-08-07T08:35:39Z</time>
      </trkpt>
      <trkpt lat="45.19779" lon="5.73153">
        <ele>236.873</ele>
        <time>2021-08-07T08:35:46Z</time>
      </trkpt>
      <trkpt lat="45.19775" lon="5.7317">
        <ele>234.214</ele>
        <time>2021-08-07T08:35:50Z</time>
      </trkpt>
      <trkpt lat="45.19775" lon="5.73177">
        <ele>233.55</ele>
        <time>2021-08-07T08:35:52Z</time>
      </trkpt>
      <trkpt lat="45.19782" lon="5.73196">
        <ele>232.935</ele>
        <time>2021-08-07T08:35:58Z</time>
      </trkpt>
      <trkpt lat="45.19782" lon="5.732">
        <ele>233.246</ele>
        <time>2021-08-07T08:35:59Z</time>
      </trkpt>
      <trkpt lat="45.19784" lon="5.73207">
        <ele>233.178</ele>
        <time>2021-08-07T08:36:01Z</time>
      </trkpt>
      <trkpt lat="45.19776" lon="5.73227">
        <ele>233.237</ele>
        <time>2021-08-07T08:36:07Z</time>
      </trkpt>
      <trkpt lat="45.19771" lon="5.73239">
        <ele>233.421</ele>
        <time>2021-08-07T08:36:11Z</time>
      </trkpt>
      <trkpt lat="45.1978" lon="5.73261">
        <ele>234.08</ele>
        <time>2021-08-07T08:36:18Z</time>
      </trkpt>
      <trkpt lat="45.19801" lon="5.73262">
        <ele>233.951</ele>
        <time>2021-08-07T08:36:24Z</time>
      </trkpt>
      <trkpt lat="45.19819" lon="5.73268">
        <ele>233.737</ele>
        <time>2021-08-07T08:36:30Z</time>
      </trkpt>
      <trkpt lat="45.19828" lon="5.73271">
        <ele>234.044</ele>
        <time>2021-08-07T08:36:34Z</time>
      </trkpt>
      <trkpt lat="45.19844" lon="5.73269">
        <ele>234.336</ele>
        <time>2021-08-07T08:36:39Z</time>
      </trkpt>
      <trkpt lat="45.19853" lon="5.73267">
        <ele>233.475</ele>
        <time>2021-08-07T08:36:43Z</time>
      </trkpt>
      <trkpt lat="45.19879" lon="5.73257">
        <ele>233.798</ele>
        <time>2021-08-07T08:36:49Z</time>
      </trkpt>
      <trkpt lat="45.19891" lon="5.73251">
        <ele>233.643</ele>
        <time>2021-08-07T08:36:51Z</time>
      </trkpt>
      <trkpt lat="45.19909" lon="5.73254">
        <ele>234.163</ele>
        <time>2021-08-07T08:36:55Z</time>
      </trkpt>
      <trkpt lat="45.19924" lon="5.73271">
        <ele>234.448</ele>
        <time>2021-08-07T08:37:02Z</time>
      </trkpt>
      <trkpt lat="45.19931" lon="5.73296">
        <ele>234.143</ele>
        <time>2021-08-07T08:37:09Z</time>
      </trkpt>
      <trkpt lat="45.19933" lon="5.73306">
        <ele>234.021</ele>
        <time>2021-08-07T08:37:13Z</time>
      </trkpt>
      <trkpt lat="45.19936" lon="5.73307">
        <ele>234.044</ele>
        <time>2021-08-07T08:37:15Z</time>
      </trkpt>
      <trkpt lat="45.19945" lon="5.73315">
        <ele>233.532</ele>
        <time>2021-08-07T08:37:20Z</time>
      </trkpt>
      <trkpt lat="45.19965" lon="5.73322">
        <ele>233.944</ele>
        <time>2021-08-07T08:37:26Z</time>
      </trkpt>
      <trkpt lat="45.19985" lon="5.73329">
        <ele>233.248</ele>
        <time>2021-08-07T08:37:31Z</time>
      </trkpt>
      <trkpt lat="45.19998" lon="5.73332">
        <ele>233.547</ele>
        <time>2021-08-07T08:37:36Z</time>
      </trkpt>
      <trkpt lat="45.20019" lon="5.73332">
        <ele>233.986</ele>
        <time>2021-08-07T08:37:41Z</time>
      </trkpt>
      <trkpt lat="45.20033" lon="5.73329">
        <ele>233.608</ele>
        <time>2021-08-07T08:37:44Z</time>
      </trkpt>
      <trkpt lat="45.20051" lon="5.73328">
        <ele>233.613</ele>
        <time>2021-08-07T08:37:49Z</time>
      </trkpt>
      <trkpt lat="45.20059" lon="5.73334">
        <ele>233.13</ele>
        <time>2021-08-07T08:37:53Z</time>
      </trkpt>
      <trkpt lat="45.20063" lon="5.73338">
        <ele>233.073</ele>
        <time>2021-08-07T08:37:55Z</time>
      </trkpt>
      <trkpt lat="45.20072" lon="5.73347">
        <ele>233.221</ele>
        <time>2021-08-07T08:37:59Z</time>
      </trkpt>
      <trkpt lat="45.20084" lon="5.73356">
        <ele>232.829</ele>
        <time>2021-08-07T08:38:04Z</time>
      </trkpt>
      <trkpt lat="45.20099" lon="5.73368">
        <ele>233.055</ele>
        <time>2021-08-07T08:38:10Z</time>
      </trkpt>
      <trkpt lat="45.20105" lon="5.73372">
        <ele>232.505</ele>
        <time>2021-08-07T08:38:12Z</time>
      </trkpt>
      <trkpt lat="45.20124" lon="5.73398">
        <ele>232.99</ele>
        <time>2021-08-07T08:38:19Z</time>
      </trkpt>
      <trkpt lat="45.20133" lon="5.73423">
        <ele>232.186</ele>
        <time>2021-08-07T08:38:25Z</time>
      </trkpt>
      <trkpt lat="45.20145" lon="5.73441">
        <ele>231.124</ele>
        <time>2021-08-07T08:38:32Z</time>
      </trkpt>
      <trkpt lat="45.20156" lon="5.73457">
        <ele>231.019</ele>
        <time>2021-08-07T08:38:38Z</time>
      </trkpt>
      <trkpt lat="45.20168" lon="5.7347">
        <ele>230.112</ele>
        <time>2021-08-07T08:38:43Z</time>
      </trkpt>
      <trkpt lat="45.20181" lon="5.73494">
        <ele>230.065</ele>
        <time>2021-08-07T08:38:49Z</time>
      </trkpt>
      <trkpt lat="45.20197" lon="5.73517">
        <ele>231.086</ele>
        <time>2021-08-07T08:38:57Z</time>
      </trkpt>
      <trkpt lat="45.20203" lon="5.73521">
        <ele>231.35</ele>
        <time>2021-08-07T08:38:59Z</time>
      </trkpt>
      <trkpt lat="45.20215" lon="5.73541">
        <ele>231.13</ele>
        <time>2021-08-07T08:39:06Z</time>
      </trkpt>
      <trkpt lat="45.20226" lon="5.73559">
        <ele>231.395</ele>
        <time>2021-08-07T08:39:13Z</time>
      </trkpt>
      <trkpt lat="45.20237" lon="5.7358">
        <ele>231.644</ele>
        <time>2021-08-07T08:39:19Z</time>
      </trkpt>
      <trkpt lat="45.20243" lon="5.73597">
        <ele>231.486</ele>
        <time>2021-08-07T08:39:24Z</time>
      </trkpt>
      <trkpt lat="45.20245" lon="5.7362">
        <ele>231.688</ele>
        <time>2021-08-07T08:39:29Z</time>
      </trkpt>
      <trkpt lat="45.20255" lon="5.73649">
        <ele>231.233</ele>
        <time>2021-08-07T08:39:37Z</time>
      </trkpt>
      <trkpt lat="45.20255" lon="5.73671">
        <ele>232.005</ele>
        <time>2021-08-07T08:39:42Z</time>
      </trkpt>
      <trkpt lat="45.20258" lon="5.73692">
        <ele>231.79</ele>
        <time>2021-08-07T08:39:48Z</time>
      </trkpt>
      <trkpt lat="45.20261" lon="5.73718">
        <ele>232.088</ele>
        <time>2021-08-07T08:39:55Z</time>
      </trkpt>
      <trkpt lat="45.20266" lon="5.73743">
        <ele>231.423</ele>
        <time>2021-08-07T08:40:00Z</time>
      </trkpt>
      <trkpt lat="45.20262" lon="5.73777">
        <ele>231.874</ele>
        <time>2021-08-07T08:40:07Z</time>
      </trkpt>
      <trkpt lat="45.20256" lon="5.73811">
        <ele>232.519</ele>
        <time>2021-08-07T08:40:14Z</time>
      </trkpt>
      <trkpt lat="45.20254" lon="5.73824">
        <ele>232.037</ele>
        <time>2021-08-07T08:40:19Z</time>
      </trkpt>
      <trkpt lat="45.20248" lon="5.73842">
        <ele>232.051</ele>
        <time>2021-08-07T08:40:24Z</time>
      </trkpt>
      <trkpt lat="45.20242" lon="5.73859">
        <ele>231.562</ele>
        <time>2021-08-07T08:40:30Z</time>
      </trkpt>
      <trkpt lat="45.20235" lon="5.73882">
        <ele>232.113</ele>
        <time>2021-08-07T08:40:35Z</time>
      </trkpt>
      <trkpt lat="45.20232" lon="5.73899">
        <ele>231.165</ele>
        <time>2021-08-07T08:40:40Z</time>
      </trkpt>
      <trkpt lat="45.20227" lon="5.73927">
        <ele>231.93</ele>
        <time>2021-08-07T08:40:47Z</time>
      </trkpt>
      <trkpt lat="45.20224" lon="5.73945">
        <ele>231.923</ele>
        <time>2021-08-07T08:40:52Z</time>
      </trkpt>
      <trkpt lat="45.20217" lon="5.73966">
        <ele>231.383</ele>
        <time>2021-08-07T08:40:58Z</time>
      </trkpt>
      <trkpt lat="45.20211" lon="5.73982">
        <ele>231.728</ele>
        <time>2021-08-07T08:41:03Z</time>
      </trkpt>
      <trkpt lat="45.20202" lon="5.74005">
        <ele>231.406</ele>
        <time>2021-08-07T08:41:08Z</time>
      </trkpt>
      <trkpt lat="45.20192" lon="5.74027">
        <ele>231.769</ele>
        <time>2021-08-07T08:41:14Z</time>
      </trkpt>
      <trkpt lat="45.20182" lon="5.74043">
        <ele>231.156</ele>
        <time>2021-08-07T08:41:20Z</time>
      </trkpt>
      <trkpt lat="45.20171" lon="5.74062">
        <ele>231.525</ele>
        <time>2021-08-07T08:41:26Z</time>
      </trkpt>
      <trkpt lat="45.20159" lon="5.74079">
        <ele>232.044</ele>
        <time>2021-08-07T08:41:32Z</time>
      </trkpt>
      <trkpt lat="45.20151" lon="5.74093">
        <ele>232.284</ele>
        <time>2021-08-07T08:41:37Z</time>
      </trkpt>
      <trkpt lat="45.20145" lon="5.7411">
        <ele>233.347</ele>
        <time>2021-08-07T08:41:42Z</time>
      </trkpt>
      <trkpt lat="45.20133" lon="5.74128">
        <ele>233.861</ele>
        <time>2021-08-07T08:41:48Z</time>
      </trkpt>
      <trkpt lat="45.20125" lon="5.74143">
        <ele>234.683</ele>
        <time>2021-08-07T08:41:53Z</time>
      </trkpt>
      <trkpt lat="45.20115" lon="5.74163">
        <ele>235.756</ele>
        <time>2021-08-07T08:41:59Z</time>
      </trkpt>
      <trkpt lat="45.20101" lon="5.74176">
        <ele>235.918</ele>
        <time>2021-08-07T08:42:06Z</time>
      </trkpt>
      <trkpt lat="45.20087" lon="5.74172">
        <ele>235.536</ele>
        <time>2021-08-07T08:42:12Z</time>
      </trkpt>
      <trkpt lat="45.20084" lon="5.74171">
        <ele>235.802</ele>
        <time>2021-08-07T08:42:13Z</time>
      </trkpt>
      <trkpt lat="45.20072" lon="5.74152">
        <ele>236.303</ele>
        <time>2021-08-07T08:42:20Z</time>
      </trkpt>
      <trkpt lat="45.20058" lon="5.74132">
        <ele>236.224</ele>
        <time>2021-08-07T08:42:27Z</time>
      </trkpt>
      <trkpt lat="45.20051" lon="5.74123">
        <ele>235.803</ele>
        <time>2021-08-07T08:42:30Z</time>
      </trkpt>
      <trkpt lat="45.20038" lon="5.74108">
        <ele>236.227</ele>
        <time>2021-08-07T08:42:36Z</time>
      </trkpt>
      <trkpt lat="45.2003" lon="5.74101">
        <ele>235.782</ele>
        <time>2021-08-07T08:42:39Z</time>
      </trkpt>
      <trkpt lat="45.20019" lon="5.74084">
        <ele>235.726</ele>
        <time>2021-08-07T08:42:45Z</time>
      </trkpt>
      <trkpt lat="45.2001" lon="5.74077">
        <ele>235.496</ele>
        <time>2021-08-07T08:42:49Z</time>
      </trkpt>
      <trkpt lat="45.20002" lon="5.7409">
        <ele>234.841</ele>
        <time>2021-08-07T08:42:53Z</time>
      </trkpt>
      <trkpt lat="45.19987" lon="5.74116">
        <ele>234.413</ele>
        <time>2021-08-07T08:42:59Z</time>
      </trkpt>
      <trkpt lat="45.19971" lon="5.74139">
        <ele>232.948</ele>
        <time>2021-08-07T08:43:07Z</time>
      </trkpt>
      <trkpt lat="45.19957" lon="5.74154">
        <ele>233.092</ele>
        <time>2021-08-07T08:43:13Z</time>
      </trkpt>
      <trkpt lat="45.19943" lon="5.7416">
        <ele>233.12</ele>
        <time>2021-08-07T08:43:18Z</time>
      </trkpt>
      <trkpt lat="45.1992" lon="5.74176">
        <ele>233.559</ele>
        <time>2021-08-07T08:43:25Z</time>
      </trkpt>
      <trkpt lat="45.19904" lon="5.74185">
        <ele>233.52</ele>
        <time>2021-08-07T08:43:30Z</time>
      </trkpt>
      <trkpt lat="45.19884" lon="5.74195">
        <ele>233.218</ele>
        <time>2021-08-07T08:43:36Z</time>
      </trkpt>
      <trkpt lat="45.19862" lon="5.74204">
        <ele>232.928</ele>
        <time>2021-08-07T08:43:42Z</time>
      </trkpt>
      <trkpt lat="45.19855" lon="5.74209">
        <ele>233.199</ele>
        <time>2021-08-07T08:43:44Z</time>
      </trkpt>
      <trkpt lat="45.19831" lon="5.7422">
        <ele>232.758</ele>
        <time>2021-08-07T08:43:50Z</time>
      </trkpt>
      <trkpt lat="45.19808" lon="5.74234">
        <ele>233.329</ele>
        <time>2021-08-07T08:43:56Z</time>
      </trkpt>
      <trkpt lat="45.19801" lon="5.74234">
        <ele>233.011</ele>
        <time>2021-08-07T08:43:58Z</time>
      </trkpt>
      <trkpt lat="45.19786" lon="5.74238">
        <ele>232.827</ele>
        <time>2021-08-07T08:44:02Z</time>
      </trkpt>
      <trkpt lat="45.19761" lon="5.74241">
        <ele>233.235</ele>
        <time>2021-08-07T08:44:09Z</time>
      </trkpt>
      <trkpt lat="45.19744" lon="5.7424">
        <ele>233.221</ele>
        <time>2021-08-07T08:44:14Z</time>
      </trkpt>
      <trkpt lat="45.19727" lon="5.74242">
        <ele>233.382</ele>
        <time>2021-08-07T08:44:19Z</time>
      </trkpt>
      <trkpt lat="45.19725" lon="5.7424">
        <ele>232.286</ele>
        <time>2021-08-07T08:44:20Z</time>
      </trkpt>
      <trkpt lat="45.19719" lon="5.7423">
        <ele>230.904</ele>
        <time>2021-08-07T08:44:25Z</time>
      </trkpt>
      <trkpt lat="45.19719" lon="5.74227">
        <ele>231.186</ele>
        <time>2021-08-07T08:44:27Z</time>
      </trkpt>
      <trkpt lat="45.19728" lon="5.742">
        <ele>231.07</ele>
        <time>2021-08-07T08:44:31Z</time>
      </trkpt>
      <trkpt lat="45.1973" lon="5.74173">
        <ele>231.258</ele>
        <time>2021-08-07T08:44:35Z</time>
      </trkpt>
      <trkpt lat="45.19718" lon="5.74157">
        <ele>230.944</ele>
        <time>2021-08-07T08:44:41Z</time>
      </trkpt>
      <trkpt lat="45.19716" lon="5.74154">
        <ele>231.178</ele>
        <time>2021-08-07T08:44:42Z</time>
      </trkpt>
      <trkpt lat="45.1971" lon="5.74147">
        <ele>230.346</ele>
        <time>2021-08-07T08:44:44Z</time>
      </trkpt>
      <trkpt lat="45.1971" lon="5.74128">
        <ele>231.041</ele>
        <time>2021-08-07T08:44:50Z</time>
      </trkpt>
      <trkpt lat="45.19706" lon="5.74104">
        <ele>231.282</ele>
        <time>2021-08-07T08:44:55Z</time>
      </trkpt>
      <trkpt lat="45.19703" lon="5.74068">
        <ele>230.866</ele>
        <time>2021-08-07T08:45:03Z</time>
      </trkpt>
      <trkpt lat="45.19709" lon="5.74049">
        <ele>231.278</ele>
        <time>2021-08-07T08:45:05Z</time>
      </trkpt>
      <trkpt lat="45.19714" lon="5.74025">
        <ele>230.808</ele>
        <time>2021-08-07T08:45:07Z</time>
      </trkpt>
      <trkpt lat="45.19712" lon="5.74012">
        <ele>230.502</ele>
        <time>2021-08-07T08:45:10Z</time>
      </trkpt>
      <trkpt lat="45.19702" lon="5.74007">
        <ele>231.065</ele>
        <time>2021-08-07T08:45:14Z</time>
      </trkpt>
      <trkpt lat="45.19702" lon="5.74">
        <ele>230.437</ele>
        <time>2021-08-07T08:45:17Z</time>
      </trkpt>
      <trkpt lat="45.19683" lon="5.73996">
        <ele>230.617</ele>
        <time>2021-08-07T08:45:22Z</time>
      </trkpt>
      <trkpt lat="45.19668" lon="5.74001">
        <ele>230.663</ele>
        <time>2021-08-07T08:45:25Z</time>
      </trkpt>
      <trkpt lat="45.19646" lon="5.73994">
        <ele>230.167</ele>
        <time>2021-08-07T08:45:32Z</time>
      </trkpt>
      <trkpt lat="45.19625" lon="5.73989">
        <ele>230.042</ele>
        <time>2021-08-07T08:45:40Z</time>
      </trkpt>
      <trkpt lat="45.19622" lon="5.73989">
        <ele>229.65</ele>
        <time>2021-08-07T08:45:41Z</time>
      </trkpt>
      <trkpt lat="45.19618" lon="5.73976">
        <ele>229.868</ele>
        <time>2021-08-07T08:45:46Z</time>
      </trkpt>
      <trkpt lat="45.1962" lon="5.73965">
        <ele>230.521</ele>
        <time>2021-08-07T08:45:49Z</time>
      </trkpt>
      <trkpt lat="45.19628" lon="5.73955">
        <ele>230.16</ele>
        <time>2021-08-07T08:45:55Z</time>
      </trkpt>
      <trkpt lat="45.19636" lon="5.73952">
        <ele>229.757</ele>
        <time>2021-08-07T08:46:01Z</time>
      </trkpt>
      <trkpt lat="45.19638" lon="5.73967">
        <ele>230.664</ele>
        <time>2021-08-07T08:46:07Z</time>
      </trkpt>
      <trkpt lat="45.19636" lon="5.73975">
        <ele>230.648</ele>
        <time>2021-08-07T08:46:14Z</time>
      </trkpt>
      <trkpt lat="45.1964" lon="5.73977">
        <ele>231.154</ele>
        <time>2021-08-07T08:46:19Z</time>
      </trkpt>
      <trkpt lat="45.19648" lon="5.73985">
        <ele>233.665</ele>
        <time>2021-08-07T08:46:28Z</time>
      </trkpt>
      <trkpt lat="45.19648" lon="5.73995">
        <ele>235.477</ele>
        <time>2021-08-07T08:46:33Z</time>
      </trkpt>
      <trkpt lat="45.19646" lon="5.73992">
        <ele>237.466</ele>
        <time>2021-08-07T08:46:40Z</time>
      </trkpt>
      <trkpt lat="45.19646" lon="5.73992">
        <ele>237.551</ele>
        <time>2021-08-07T08:46:41Z</time>
      </trkpt>
      <trkpt lat="45.19648" lon="5.73985">
        <ele>238.083</ele>
        <time>2021-08-07T08:46:45Z</time>
      </trkpt>
      <trkpt lat="45.19655" lon="5.7397">
        <ele>238.023</ele>
        <time>2021-08-07T08:46:50Z</time>
      </trkpt>
      <trkpt lat="45.19654" lon="5.73967">
        <ele>238.134</ele>
        <time>2021-08-07T08:46:55Z</time>
      </trkpt>
    </trkseg>
  </trk>
</gpx>